# Wetter Temperatur Luftdruck Luftfeuchtigkeit Sichtweite Windgeschwindigkeit Windrichtung Zeit
1 Clouds 13 1004 32 16093 3.6 300 21:38 02.04.2020
2 Clouds 13 1004 32 16093 3.6 300 21:19 02.04.2020
3 Clouds 13 1004 50 16093 3.6 220 20:55 02.04.2020
4 Clouds 13 1004 50 16093 3.6 220 20:37 02.04.2020
5 Clouds 13 1004 50 16093 3.6 220 20:19 02.04.2020
6 Clouds 12 1005 37 16093 8.93 318 19:42 02.04.2020
7 Clouds 12 1005 37 16093 8.93 318 19:20 02.04.2020
8 Clouds 12 1005 37 16093 8.93 318 19:20 02.04.2020
9 Clouds 12 1006 50 16093 8.93 318 18:57 02.04.2020
10 Clouds 11 1006 50 16093 8.93 318 18:39 02.04.2020
11 Clouds 11 1006 43 16093 1.5 0 18:20 02.04.2020
12 Clouds 10 1006 43 16093 1.5 0 17:55 02.04.2020
13 Clouds 10 1006 43 16093 1.5 0 17:37 02.04.2020
14 Clouds 9 1006 43 16093 1.5 0 17:18 02.04.2020
15 Clouds 9 1007 52 16093 1.5 0 16:55 02.04.2020
16 Clouds 8 1007 52 16093 1.5 0 16:36 02.04.2020
17 Clouds 8 1007 52 16093 1.5 0 16:36 02.04.2020
18 Clear 8 1007 52 16093 9.2 328 16:18 02.04.2020
19 Clear 8 1007 52 16093 9.2 328 16:18 02.04.2020
20 Clear 7 1007 52 16093 9.2 328 15:44 02.04.2020
21 Clear 7 1007 52 16093 9.2 328 15:44 02.04.2020
22 Clear 7 1007 52 16093 9.2 328 15:43 02.04.2020
23 Clear 6 1008 60 16093 2.1 0 15:21 02.04.2020
24 Clear 6 1008 60 16093 2.1 0 14:58 02.04.2020
25 Clear 5 1008 60 16093 2.1 0 14:39 02.04.2020
26 Clear 5 1008 64 16093 1.5 0 14:19 02.04.2020
27 Clear 4 1008 64 16093 1.5 0 13:56 02.04.2020
28 Clear 4 1008 64 16093 1.5 0 13:38 02.04.2020
29 Clear 4 1008 64 16093 1.5 0 13:19 02.04.2020
30 Clear 3 1008 64 16093 1.5 0 12:47 02.04.2020
31 Clear 3 1008 56 16093 2.1 0 12:21 02.04.2020
32 Clear 3 1008 56 16093 2.1 0 11:58 02.04.2020
33 Clear 3 1008 56 16093 2.1 0 11:40 02.04.2020
34 Clear 3 1008 56 16093 2.1 0 11:39 02.04.2020
35 Clear 4 1008 55 16093 2.1 0 11:21 02.04.2020
36 Clear 4 1008 52 16093 6.7 320 10:57 02.04.2020
37 Clear 4 1008 52 16093 1.5 0 10:39 02.04.2020
38 Clear 4 1008 48 16093 2.6 300 10:21 02.04.2020
39 Clear 4 1008 48 16093 2.6 0 09:59 02.04.2020
40 Clear 4 1008 48 16093 2.6 0 09:41 02.04.2020
41 Clear 5 1008 48 16093 1.5 0 09:23 02.04.2020
42 Clear 5 1008 52 16093 2.1 0 08:58 02.04.2020
43 Clear 5 1008 52 16093 2.1 0 08:39 02.04.2020
44 Clear 6 1008 52 16093 2.1 0 08:19 02.04.2020
45 Clear 6 1008 49 16093 2.6 0 07:42 02.04.2020
46 Clear 6 1008 45 16093 2.6 0 07:19 02.04.2020
47 Clear 7 1008 42 16093 2.6 0 06:57 02.04.2020
48 Clear 7 1008 45 16093 2.1 270 06:20 02.04.2020
49 Clear 7 1008 45 16093 2.1 270 05:42 02.04.2020
50 Clear 9 1008 43 16093 1.5 180 03:24 02.04.2020
51 Clouds 10 1007 37 16093 1.5 80 01:31 02.04.2020
52 Clouds 11 1007 34 16093 4.93 8 00:42 02.04.2020
53 Clouds 11 1007 37 16093 2.1 0 00:24 02.04.2020
54 Clear 12 1007 32 16093 3.6 360 23:41 01.04.2020
55 Clear 12 1007 32 16093 3.6 360 23:20 01.04.2020
56 Clear 12 1007 30 16093 3.1 0 22:59 01.04.2020
57 Clear 12 1007 30 16093 3.1 0 22:39 01.04.2020
58 Clear 12 1007 30 16093 3.1 0 22:21 01.04.2020
59 Clouds 12 1007 37 16093 1.5 0 21:42 01.04.2020
60 Clouds 11 1007 37 16093 1.5 0 21:22 01.04.2020
61 Clouds 11 1008 40 16093 6.7 50 21:22 01.04.2020
62 Clouds 11 1007 37 16093 1.5 0 21:21 01.04.2020
63 Clouds 11 1007 37 16093 1.5 0 21:21 01.04.2020
64 Clouds 11 1007 37 16093 1.5 0 21:20 01.04.2020
65 Clouds 11 1008 40 16093 6.7 50 20:57 01.04.2020
66 Clouds 11 1008 40 16093 6.7 50 20:39 01.04.2020
67 Clouds 11 1008 40 16093 6.7 50 20:21 01.04.2020
68 Clouds 10 1009 43 16093 3.09 14 19:59 01.04.2020
69 Clouds 10 1009 43 16093 3.09 14 19:41 01.04.2020
70 Clouds 10 1009 43 16093 3.09 14 19:20 01.04.2020
71 Clouds 9 1009 50 16093 1.5 0 18:44 01.04.2020
72 Clouds 9 1010 45 16093 5.45 35 18:26 01.04.2020
73 Clouds 8 1011 45 16093 4.6 50 17:58 01.04.2020
74 Clear 8 1010 62 16093 4.1 60 17:38 01.04.2020
75 Clouds 8 1011 65 16093 4.1 50 17:20 01.04.2020
76 Clouds 7 1011 65 16093 4.1 50 16:59 01.04.2020
77 Clouds 7 1011 65 16093 4.1 50 16:40 01.04.2020
78 Clouds 6 1011 65 16093 4.1 50 16:22 01.04.2020
79 Clouds 6 1011 65 16093 5.7 50 15:58 01.04.2020
80 Clouds 5 1011 70 16093 7.7 50 15:38 01.04.2020
81 Clouds 5 1011 70 16093 7.7 50 15:38 01.04.2020
82 Clouds 5 1011 70 16093 7.7 50 15:20 01.04.2020
83 Clouds 4 1011 69 16093 5.7 40 14:57 01.04.2020
84 Clouds 4 1011 69 16093 5.7 40 14:38 01.04.2020
85 Clouds 4 1011 69 16093 5.7 40 14:38 01.04.2020
86 Clouds 4 1011 69 16093 5.7 40 14:19 01.04.2020
87 Clouds 3 1011 69 16093 5.1 40 13:58 01.04.2020
88 Clear 3 1011 69 16093 6.2 50 13:37 01.04.2020
89 Clear 3 1011 69 16093 6.2 50 13:19 01.04.2020
90 Clouds 3 1011 69 16093 5.1 60 12:54 01.04.2020
91 Clouds 3 1011 69 16093 5.1 60 12:36 01.04.2020
92 Clouds 3 1011 69 16093 5.1 60 12:18 01.04.2020
93 Clear 3 1011 69 16093 2.6 50 11:42 01.04.2020
94 Clouds 4 1011 72 16093 4.1 30 11:23 01.04.2020
95 Clouds 4 1011 72 16093 4.1 30 10:58 01.04.2020
96 Clouds 4 1011 72 16093 4.1 30 10:38 01.04.2020
97 Clouds 4 1011 72 16093 4.1 30 10:19 01.04.2020
98 Clouds 4 1012 72 16093 3.1 0 09:57 01.04.2020
99 Clouds 4 1012 72 16093 3.1 0 09:38 01.04.2020
100 Clouds 4 1012 74 16093 3.1 0 09:18 01.04.2020
101 Clouds 4 1013 74 16093 2.6 50 08:40 01.04.2020
102 Clouds 4 1013 75 16093 3.6 40 08:18 01.04.2020
103 Clouds 5 1013 75 16093 3.1 90 07:44 01.04.2020
104 Clouds 5 1013 75 16093 3.1 90 07:21 01.04.2020
105 Clouds 5 1014 81 16093 2.6 120 06:48 01.04.2020
106 Clouds 5 1014 81 16093 2.6 120 06:26 01.04.2020
107 Clouds 5 1015 70 16093 3.1 0 05:56 01.04.2020
108 Clouds 5 1016 75 16093 2.1 150 04:32 01.04.2020
109 Clouds 6 1015 75 16093 2.1 160 03:32 01.04.2020
110 Clouds 6 1015 75 16093 3.6 180 02:56 01.04.2020
111 Clouds 6 1015 70 16093 2.1 120 01:59 01.04.2020
112 Clouds 6 1015 70 16093 2.1 120 01:39 01.04.2020
113 Clouds 6 1015 70 16093 2.1 120 01:19 01.04.2020
114 Clouds 7 1015 75 16093 1.5 150 00:46 01.04.2020
115 Clouds 7 1015 75 16093 1.5 150 00:21 01.04.2020
116 Clouds 7 1015 75 16093 2.6 170 23:48 31.03.2020
117 Clouds 8 1015 75 16093 2.6 170 23:28 31.03.2020
118 Clouds 8 1016 75 16093 3.1 220 22:59 31.03.2020
119 Clouds 8 1016 75 16093 3.1 220 22:37 31.03.2020
120 Clouds 8 1016 75 16093 3.1 220 22:19 31.03.2020
121 Clouds 8 1016 75 16093 3.1 220 21:57 31.03.2020
122 Clouds 8 1016 75 16093 2.6 240 21:39 31.03.2020
123 Clouds 7 1016 75 16093 2.6 240 21:20 31.03.2020
124 Clouds 7 1016 75 16093 2.6 240 21:20 31.03.2020
125 Clouds 7 1016 75 16093 2.6 240 21:20 31.03.2020
126 Clouds 7 1016 75 16093 2.6 240 20:56 31.03.2020
127 Clouds 7 1017 70 16093 2.6 250 20:37 31.03.2020
128 Clouds 7 1018 70 16093 3.71 99 20:18 31.03.2020
129 Clouds 7 1018 70 16093 3.71 99 19:54 31.03.2020
130 Clouds 7 1018 70 16093 3.71 99 19:36 31.03.2020
131 Clouds 6 1018 70 16093 3.71 99 19:18 31.03.2020
132 Clouds 6 1018 75 16093 3.6 50 18:41 31.03.2020
133 Clouds 6 1018 75 16093 3.6 50 18:20 31.03.2020
134 Clouds 6 1018 75 16093 3.6 50 17:56 31.03.2020
135 Clouds 6 1018 75 16093 3.6 50 17:56 31.03.2020
136 Clouds 6 1018 75 16093 2.6 50 17:38 31.03.2020
137 Clouds 6 1018 75 16093 2.6 50 17:20 31.03.2020
138 Clouds 5 1019 81 16093 3.6 70 16:42 31.03.2020
139 Clouds 5 1019 81 16093 3.6 70 16:20 31.03.2020
140 Clouds 5 1018 81 16093 4.6 60 15:59 31.03.2020
141 Clouds 5 1018 81 16093 4.6 60 15:41 31.03.2020
142 Haze 5 1018 81 9656 5.1 30 15:23 31.03.2020
143 Haze 5 1018 81 9656 5.1 30 14:59 31.03.2020
144 Haze 5 1018 81 9656 5.1 30 14:41 31.03.2020
145 Haze 5 1018 81 9656 5.1 30 14:22 31.03.2020
146 Clouds 5 1018 81 16093 6.7 50 13:55 31.03.2020
147 Clouds 5 1018 81 16093 6.7 50 13:37 31.03.2020
148 Clouds 5 1017 87 16093 6.7 40 13:18 31.03.2020
149 Clouds 5 1017 87 16093 6.7 40 12:44 31.03.2020
150 Clouds 5 1017 87 16093 6.7 40 12:20 31.03.2020
151 Rain 5 1017 87 16093 6.7 50 11:55 31.03.2020
152 Rain 5 1016 87 16093 6.2 40 11:36 31.03.2020
153 Rain 5 1016 87 16093 6.2 40 11:36 31.03.2020
154 Rain 5 1016 93 16093 5.1 40 11:18 31.03.2020
155 Rain 5 1016 93 16093 5.1 40 10:55 31.03.2020
156 Rain 6 1016 93 16093 4.6 40 10:37 31.03.2020
157 Rain 6 1016 93 11265 3.6 70 10:18 31.03.2020
158 Rain 6 1016 93 11265 3.6 70 09:43 31.03.2020
159 Rain 6 1016 93 11265 3.6 70 09:25 31.03.2020
160 Rain 6 1016 93 16093 3.1 0 08:58 31.03.2020
161 Rain 6 1016 93 12874 1.5 160 08:39 31.03.2020
162 Rain 6 1016 93 12874 1.5 160 08:20 31.03.2020
163 Rain 6 1016 93 12874 1.5 160 08:20 31.03.2020
164 Rain 6 1016 93 12874 1.5 190 07:56 31.03.2020
165 Rain 6 1016 93 16093 2.1 150 07:38 31.03.2020
166 Rain 7 1016 93 16093 2.1 150 07:20 31.03.2020
167 Clouds 7 1016 93 11265 3.81 106 06:51 31.03.2020
168 Clouds 7 1016 93 11265 3.81 106 06:30 31.03.2020
169 Clouds 7 1016 87 16093 2.93 121 05:40 31.03.2020
170 Rain 7 1016 87 8047 2.1 240 03:57 31.03.2020
171 Clouds 8 1015 87 16093 2.6 170 02:26 31.03.2020
172 Rain 8 1014 81 11265 3.1 140 01:46 31.03.2020
173 Rain 9 1013 81 16093 3.1 50 00:52 31.03.2020
174 Rain 9 1013 81 16093 3.1 50 00:25 31.03.2020
175 Clouds 9 1013 76 16093 2.6 50 23:59 30.03.2020
176 Clouds 9 1013 81 16093 3.1 40 23:38 30.03.2020
177 Clouds 9 1013 81 16093 3.1 40 23:19 30.03.2020
178 Clouds 9 1013 81 16093 1.5 200 22:57 30.03.2020
179 Clouds 9 1013 81 16093 1.5 200 22:38 30.03.2020
180 Clouds 9 1013 81 16093 2.1 260 22:18 30.03.2020
181 Clouds 9 1013 81 16093 2.1 260 21:57 30.03.2020
182 Clouds 9 1013 81 16093 2.1 260 21:37 30.03.2020
183 Clouds 9 1013 81 16093 2.1 260 21:19 30.03.2020
184 Clouds 9 1013 81 14484 2.6 220 20:56 30.03.2020
185 Clouds 9 1013 81 14484 2.6 220 20:37 30.03.2020
186 Clouds 9 1013 81 14484 2.6 220 20:19 30.03.2020
187 Clouds 9 1014 76 16093 2.6 260 19:41 30.03.2020
188 Clouds 9 1014 76 16093 2.6 260 19:22 30.03.2020
189 Clouds 8 1014 81 16093 4.61 122 18:57 30.03.2020
190 Clouds 8 1014 81 16093 4.61 122 18:39 30.03.2020
191 Clouds 8 1014 81 16093 2.33 162 18:21 30.03.2020
192 Clouds 8 1014 81 16093 2.33 162 17:57 30.03.2020
193 Clouds 7 1015 81 16093 2.33 162 17:39 30.03.2020
194 Clouds 7 1016 87 16093 1.5 0 17:19 30.03.2020
195 Clouds 7 1016 87 16093 1.5 0 16:57 30.03.2020
196 Clouds 7 1016 87 16093 1.5 0 16:38 30.03.2020
197 Clouds 7 1016 87 16093 1.5 0 16:20 30.03.2020
198 Clouds 7 1015 81 16093 4.6 60 15:55 30.03.2020
199 Clouds 7 1015 81 16093 4.6 60 15:36 30.03.2020
200 Clouds 6 1016 81 16093 4.6 50 15:18 30.03.2020
201 Clouds 6 1016 81 16093 4.6 50 14:55 30.03.2020
202 Clouds 6 1016 81 16093 4.6 50 14:36 30.03.2020
203 Clouds 6 1016 87 16093 3.1 50 14:18 30.03.2020
204 Clouds 6 1016 87 16093 3.1 50 13:43 30.03.2020
205 Clouds 6 1015 87 16093 3.1 60 13:21 30.03.2020
206 Clouds 6 1016 87 16093 3.1 50 13:21 30.03.2020
207 Clouds 6 1015 87 16093 3.1 60 12:59 30.03.2020
208 Clouds 6 1015 93 16093 2.6 80 12:41 30.03.2020
209 Clouds 7 1015 87 16093 5.7 60 12:19 30.03.2020
210 Clouds 7 1015 87 16093 5.7 60 11:57 30.03.2020
211 Clouds 7 1015 87 16093 5.7 60 11:38 30.03.2020
212 Clouds 7 1015 87 16093 5.7 60 11:20 30.03.2020
213 Clouds 7 1014 87 16093 3.6 60 10:40 30.03.2020
214 Clouds 7 1014 87 16093 2.1 0 10:22 30.03.2020
215 Clouds 7 1014 87 16093 2.1 0 09:57 30.03.2020
216 Clouds 7 1014 87 16093 2.1 0 09:38 30.03.2020
217 Clouds 8 1013 93 16093 2.6 70 09:19 30.03.2020
218 Clouds 8 1013 93 16093 2.6 70 08:42 30.03.2020
219 Clouds 8 1013 93 16093 2.6 70 08:22 30.03.2020
220 Clouds 8 1013 87 16093 4.1 40 07:50 30.03.2020
221 Clouds 8 1013 87 16093 4.1 40 07:31 30.03.2020
222 Clouds 8 1012 93 16093 6.2 40 06:57 30.03.2020
223 Clouds 8 1012 93 16093 6.2 40 06:33 30.03.2020
224 Clouds 8 1012 93 16093 7.2 40 05:54 30.03.2020
225 Clouds 8 1012 93 16093 7.2 40 05:33 30.03.2020
226 Clouds 8 1012 93 11265 5.7 30 04:24 30.03.2020
227 Mist 8 1012 93 8047 7.2 30 03:44 30.03.2020
228 Clouds 8 1011 93 16093 6.7 30 02:42 30.03.2020
229 Mist 8 1011 93 6437 8.2 30 01:48 30.03.2020
230 Mist 8 1012 93 4828 6.7 40 00:55 30.03.2020
231 Mist 8 1012 93 3219 5.7 40 00:24 30.03.2020
232 Mist 8 1011 93 2816 4.6 30 23:43 29.03.2020
233 Mist 8 1011 93 2816 4.6 30 23:24 29.03.2020
234 Mist 9 1011 93 3219 5.1 30 22:59 29.03.2020
235 Mist 9 1010 93 4828 6.2 30 22:39 29.03.2020
236 Mist 9 1010 93 4828 6.2 30 22:19 29.03.2020
237 Mist 9 1009 93 3219 7.7 30 21:58 29.03.2020
238 Mist 9 1011 93 4828 7.2 30 21:37 29.03.2020
239 Mist 8 1011 93 4828 7.2 30 21:18 29.03.2020
240 Mist 8 1014 93 6437 5.7 30 20:55 29.03.2020
241 Mist 8 1014 93 6437 5.7 30 20:55 29.03.2020
242 Mist 8 1014 93 6437 5.7 30 20:37 29.03.2020
243 Mist 8 1014 93 6437 5.7 30 20:37 29.03.2020
244 Mist 8 1014 93 6437 5.7 30 20:18 29.03.2020
245 Rain 8 1015 93 3219 5.7 30 19:55 29.03.2020
246 Rain 8 1014 93 6437 5.7 30 19:55 29.03.2020
247 Rain 9 1015 93 3219 5.7 30 19:37 29.03.2020
248 Rain 9 1015 93 3219 5.7 30 19:18 29.03.2020
249 Rain 9 1014 93 4828 9.3 50 18:55 29.03.2020
250 Rain 8 1014 93 4828 9.3 50 18:36 29.03.2020
251 Rain 8 1014 93 4828 9.3 50 18:18 29.03.2020
252 Rain 8 1017 93 2816 5.1 20 17:42 29.03.2020
253 Rain 8 1017 93 2816 5.1 20 17:24 29.03.2020
254 Rain 8 1017 93 2816 3.1 10 16:59 29.03.2020
255 Rain 8 1017 93 2816 3.1 10 16:41 29.03.2020
256 Rain 8 1017 93 2816 3.1 10 16:21 29.03.2020
257 Rain 8 1016 93 3219 6.7 30 15:59 29.03.2020
258 Rain 8 1016 93 3219 6.7 30 15:40 29.03.2020
259 Mist 8 1016 93 4023 7.2 30 15:21 29.03.2020
260 Mist 8 1016 93 4023 7.2 30 14:57 29.03.2020
261 Mist 8 1016 93 4023 7.2 30 14:38 29.03.2020
262 Mist 8 1016 93 4023 7.2 30 14:19 29.03.2020
263 Mist 8 1016 93 4828 9.3 30 13:56 29.03.2020
264 Mist 7 1016 93 4828 9.3 30 13:37 29.03.2020
265 Mist 7 1016 93 4828 9.3 30 13:19 29.03.2020
266 Clouds 7 1016 93 11265 8.2 30 12:55 29.03.2020
267 Clouds 7 1016 93 11265 8.2 30 12:37 29.03.2020
268 Mist 7 1016 93 8047 7.7 30 12:18 29.03.2020
269 Mist 7 1016 93 8047 7.7 30 12:18 29.03.2020
270 Mist 7 1016 93 8047 7.7 30 11:39 29.03.2020
271 Rain 7 1016 93 8047 7.7 30 11:21 29.03.2020
272 Rain 7 1016 93 8047 7.7 40 10:59 29.03.2020
273 Rain 7 1016 93 8047 7.7 40 10:37 29.03.2020
274 Rain 7 1016 93 8047 7.7 40 10:18 29.03.2020
275 Rain 7 1016 93 8047 7.7 40 10:18 29.03.2020
276 Rain 7 1016 93 4828 6.2 30 09:40 29.03.2020
277 Mist 7 1017 93 8047 3.6 20 09:19 29.03.2020
278 Rain 8 1017 93 8047 3.6 20 08:54 29.03.2020
279 Rain 8 1017 93 6437 7.7 30 08:28 29.03.2020
280 Rain 8 1017 93 6437 7.7 30 07:58 29.03.2020
281 Rain 8 1017 93 6437 7.7 30 07:58 29.03.2020
282 Rain 8 1017 93 6437 7.7 30 07:40 29.03.2020
283 Rain 8 1017 93 6437 7.7 30 07:20 29.03.2020
284 Rain 8 1017 93 8047 7.2 20 05:41 29.03.2020
285 Rain 7 1019 93 14484 4.6 40 03:58 29.03.2020
286 Rain 7 1019 93 14484 4.6 40 03:28 29.03.2020
287 Rain 7 1018 93 6437 5.7 30 01:51 29.03.2020
288 Rain 7 1018 93 4023 6.2 30 01:23 29.03.2020
289 Rain 7 1018 87 12874 5.1 30 00:55 29.03.2020
290 Rain 7 1017 87 6437 7.2 50 00:32 29.03.2020
291 Rain 7 1018 87 16093 5.1 40 23:43 28.03.2020
292 Rain 7 1018 87 16093 5.1 40 23:24 28.03.2020
293 Clouds 7 1018 87 16093 5.7 30 22:59 28.03.2020
294 Clouds 7 1017 87 16093 6.2 40 22:39 28.03.2020
295 Clouds 7 1017 87 16093 6.2 40 22:20 28.03.2020
296 Rain 7 1017 87 16093 6.2 40 21:55 28.03.2020
297 Rain 7 1017 87 16093 6.2 40 21:37 28.03.2020
298 Rain 7 1017 87 16093 6.2 40 21:18 28.03.2020
299 Rain 8 1020 87 11265 4.6 30 20:42 28.03.2020
300 Rain 8 1021 81 14484 3.6 40 20:23 28.03.2020
301 Rain 8 1021 81 14484 3.6 40 19:57 28.03.2020
302 Rain 8 1021 81 14484 3.6 40 19:39 28.03.2020
303 Rain 8 1021 81 14484 3.6 40 19:21 28.03.2020
304 Rain 8 1020 81 16093 4.1 40 18:59 28.03.2020
305 Rain 8 1020 81 16093 4.1 40 18:39 28.03.2020
306 Rain 8 1020 81 16093 4.1 40 18:19 28.03.2020
307 Rain 8 1021 76 16093 5.1 60 17:39 28.03.2020
308 Rain 8 1021 76 16093 5.1 60 17:21 28.03.2020
309 Rain 8 1021 76 16093 5.1 60 16:55 28.03.2020
310 Rain 9 1021 70 16093 4.6 70 16:37 28.03.2020
311 Rain 9 1021 66 16093 2.1 0 16:18 28.03.2020
312 Rain 9 1021 53 16093 3.6 70 15:39 28.03.2020
313 Rain 9 1021 53 16093 3.6 70 15:19 28.03.2020
314 Rain 9 1020 43 16093 5.1 50 14:56 28.03.2020
315 Rain 9 1020 43 16093 5.1 50 14:38 28.03.2020
316 Clouds 9 1019 46 16093 5.1 30 14:20 28.03.2020
317 Clouds 9 1019 46 16093 5.1 30 13:41 28.03.2020
318 Clouds 9 1019 46 16093 5.1 30 13:22 28.03.2020
319 Clouds 9 1019 49 16093 6.2 30 12:41 28.03.2020
320 Clouds 9 1019 49 16093 6.2 30 12:22 28.03.2020
321 Clouds 8 1019 43 16093 4.6 40 11:43 28.03.2020
322 Clouds 8 1019 43 16093 4.6 40 11:24 28.03.2020
323 Clouds 8 1019 43 16093 4.6 40 10:58 28.03.2020
324 Clear 8 1019 39 16093 5.1 40 10:38 28.03.2020
325 Clear 8 1019 37 16093 6.2 50 10:19 28.03.2020
326 Clear 8 1019 37 16093 6.2 50 09:43 28.03.2020
327 Clear 8 1019 37 16093 6.2 50 09:24 28.03.2020
328 Clear 8 1019 40 16093 6.2 50 08:57 28.03.2020
329 Clear 8 1019 40 16093 6.2 50 08:39 28.03.2020
330 Clear 8 1019 40 16093 6.2 50 08:39 28.03.2020
331 Clear 9 1019 40 16093 6.2 50 08:20 28.03.2020
332 Clear 9 1019 37 16093 4.1 40 07:44 28.03.2020
333 Clear 9 1019 37 16093 4.1 40 07:26 28.03.2020
334 Clear 9 1019 37 16093 5.1 40 06:36 28.03.2020
335 Clear 9 1018 54 16093 4.6 50 05:43 28.03.2020
336 Clear 10 1018 54 16093 4.6 50 05:21 28.03.2020
337 Clear 10 1018 35 16093 4.1 60 04:41 28.03.2020
338 Clear 10 1017 43 16093 4 37 03:54 28.03.2020
339 Clear 12 1015 38 16093 3.86 357 02:21 28.03.2020
340 Clear 13 1015 38 16093 3.86 357 01:41 28.03.2020
341 Clear 13 1015 16 16093 1.5 330 01:18 28.03.2020
342 Clear 15 1014 47 16093 2.1 280 00:37 28.03.2020
343 Clear 17 1014 47 16093 2.1 280 23:59 27.03.2020
344 Clear 18 1013 19 16093 3.1 350 23:41 27.03.2020
345 Clear 18 1013 19 16093 3.1 350 23:21 27.03.2020
346 Clear 19 1012 18 16093 1.5 0 22:56 27.03.2020
347 Clear 19 1012 18 16093 1.5 0 22:38 27.03.2020
348 Clear 19 1011 21 16093 2.1 150 22:19 27.03.2020
349 Clear 19 1011 21 16093 2.1 150 21:45 27.03.2020
350 Clear 19 1011 21 16093 2.1 150 21:25 27.03.2020
351 Clear 19 1011 24 16093 2.1 150 20:59 27.03.2020
352 Clear 19 1011 24 16093 2.1 150 20:41 27.03.2020
353 Clear 19 1011 24 16093 2.1 150 20:21 27.03.2020
354 Clear 18 1011 29 16093 2.9 332 19:58 27.03.2020
355 Clear 18 1011 29 16093 2.9 332 19:40 27.03.2020
356 Clear 18 1011 29 16093 2.9 332 19:21 27.03.2020
357 Clouds 18 1011 39 16093 3.1 170 18:45 27.03.2020
358 Clouds 18 1011 39 16093 3.1 170 18:25 27.03.2020
359 Clouds 17 1011 39 16093 3.1 170 17:59 27.03.2020
360 Clouds 17 1011 45 16093 1.5 220 17:40 27.03.2020
361 Clouds 16 1011 45 16093 1.5 220 17:20 27.03.2020
362 Clear 16 1011 51 16093 1.5 0 16:45 27.03.2020
363 Clear 16 1011 51 16093 1.5 0 16:27 27.03.2020
364 Clear 14 1010 67 16093 1.5 0 15:57 27.03.2020
365 Clear 14 1010 67 16093 1.5 0 15:39 27.03.2020
366 Clear 14 1010 67 16093 1.5 0 15:21 27.03.2020
367 Clouds 13 1010 76 16093 3.1 230 14:45 27.03.2020
368 Clouds 11 1009 81 16093 2.1 230 14:24 27.03.2020
369 Clouds 11 1009 81 16093 2.1 230 13:56 27.03.2020
370 Clouds 11 1009 81 16093 2.1 230 13:37 27.03.2020
371 Clouds 10 1009 81 16093 2.1 230 13:18 27.03.2020
372 Clouds 10 1009 81 16093 2.1 240 12:49 27.03.2020
373 Clouds 10 1009 81 16093 2.1 240 12:21 27.03.2020
374 Clouds 10 1009 81 16093 2.1 240 11:59 27.03.2020
375 Clouds 10 1008 81 16093 2.6 270 11:41 27.03.2020
376 Clouds 10 1008 81 16093 2.6 270 11:41 27.03.2020
377 Clouds 10 1008 81 16093 2.6 270 11:22 27.03.2020
378 Clouds 10 1008 81 16093 4.1 260 10:54 27.03.2020
379 Clouds 10 1008 81 16093 4.1 260 10:36 27.03.2020
380 Rain 10 1008 76 16093 3.1 260 10:18 27.03.2020
381 Rain 10 1008 76 16093 3.1 260 09:56 27.03.2020
382 Rain 10 1008 76 16093 3.1 260 09:37 27.03.2020
383 Rain 10 1009 76 16093 3.1 260 09:18 27.03.2020
384 Rain 10 1009 76 16093 3.1 260 08:54 27.03.2020
385 Rain 10 1009 76 16093 3.1 260 08:36 27.03.2020
386 Clouds 10 1009 76 16093 3.1 270 08:18 27.03.2020
387 Clouds 10 1009 76 16093 3.1 270 07:49 27.03.2020
388 Clouds 11 1009 76 16093 3.1 270 07:22 27.03.2020
389 Clouds 10 1010 76 16093 3.1 260 06:45 27.03.2020
390 Clouds 10 1010 76 16093 3.1 260 06:26 27.03.2020
391 Clear 9 1011 76 16093 2.6 260 03:42 27.03.2020
392 Clear 9 1012 70 16093 4.3 187 02:25 27.03.2020
393 Clear 9 1012 62 16093 2.6 120 01:22 27.03.2020
394 Clear 9 1012 62 16093 2.6 120 00:47 27.03.2020
395 Clear 9 1012 62 16093 2.6 120 00:23 27.03.2020
396 Clear 11 1013 54 16093 3.6 170 23:42 26.03.2020
397 Clear 11 1013 54 16093 3.6 170 23:21 26.03.2020
398 Clear 12 1013 54 16093 3.6 170 22:58 26.03.2020
399 Clear 13 1013 47 16093 3.1 160 22:37 26.03.2020
400 Clear 13 1013 47 16093 3.1 160 22:19 26.03.2020
401 Clear 15 1013 47 16093 3.1 210 21:55 26.03.2020
402 Clear 15 1013 47 16093 3.1 210 21:36 26.03.2020
403 Clear 15 1013 47 16093 3.1 210 21:18 26.03.2020
404 Clear 15 1014 41 16093 2.1 200 20:41 26.03.2020
405 Clear 15 1014 41 16093 2.1 200 20:23 26.03.2020
406 Clear 15 1014 41 16093 2.1 200 20:23 26.03.2020
407 Clear 14 1016 50 16093 2.6 210 19:58 26.03.2020
408 Clear 14 1016 50 16093 2.6 210 19:40 26.03.2020
409 Clear 13 1017 50 16093 2.46 174 19:22 26.03.2020
410 Clear 13 1017 50 16093 2.46 174 18:59 26.03.2020
411 Clear 12 1017 50 16093 2.46 174 18:41 26.03.2020
412 Clear 12 1017 50 16093 2.46 174 18:23 26.03.2020
413 Clear 10 1018 57 16093 2.6 210 17:45 26.03.2020
414 Clear 10 1018 57 16093 2.6 210 17:20 26.03.2020
415 Clear 9 1018 57 16093 2.6 210 16:59 26.03.2020
416 Clear 8 1019 61 16093 3.1 240 16:39 26.03.2020
417 Clear 9 1019 61 16093 3.1 240 16:39 26.03.2020
418 Clear 8 1019 61 16093 3.1 240 16:21 26.03.2020
419 Clear 8 1019 52 16093 1.5 260 15:56 26.03.2020
420 Clear 8 1019 52 16093 1.5 260 15:38 26.03.2020
421 Clear 8 1019 52 16093 1.5 260 15:38 26.03.2020
422 Clear 7 1019 52 16093 1.5 260 15:20 26.03.2020
423 Clear 7 1019 61 16093 3.1 70 14:55 26.03.2020
424 Clear 6 1019 61 16093 3.1 70 14:36 26.03.2020
425 Clear 6 1019 74 16093 2.1 80 14:18 26.03.2020
426 Clear 5 1019 74 16093 2.1 80 13:41 26.03.2020
427 Clear 4 1019 60 16093 3.1 0 13:22 26.03.2020
428 Clear 4 1018 65 16093 4.1 50 12:55 26.03.2020
429 Clear 3 1018 65 16093 4.1 50 12:37 26.03.2020
430 Clear 3 1018 65 16093 4.1 50 12:18 26.03.2020
431 Clear 3 1018 69 16093 2.1 0 11:44 26.03.2020
432 Clear 3 1018 69 16093 2.1 0 11:20 26.03.2020
433 Clear 3 1018 69 16093 2.1 0 10:55 26.03.2020
434 Clear 3 1018 69 16093 2.6 0 10:36 26.03.2020
435 Clear 3 1017 76 16093 4.31 349 10:18 26.03.2020
436 Clear 3 1017 76 16093 4.31 349 09:42 26.03.2020
437 Clear 3 1017 76 16093 4.31 349 09:19 26.03.2020
438 Clear 4 1017 75 16093 5.7 40 08:44 26.03.2020
439 Clear 4 1017 75 16093 5.7 40 08:26 26.03.2020
440 Clear 4 1017 65 16093 4.1 360 07:57 26.03.2020
441 Clear 4 1019 69 16093 5.3 35 07:38 26.03.2020
442 Clear 4 1019 69 16093 5.3 35 07:20 26.03.2020
443 Clear 4 1018 65 16093 1.5 0 06:38 26.03.2020
444 Clouds 5 1018 70 16093 5.7 40 05:52 26.03.2020
445 Clouds 5 1018 70 16093 5.1 10 03:52 26.03.2020
446 Clouds 6 1019 70 16093 5.1 20 03:33 26.03.2020
447 Clouds 6 1017 75 16093 5.1 40 02:53 26.03.2020
448 Clouds 6 1017 75 16093 3.6 60 01:20 26.03.2020
449 Clouds 6 1017 70 16093 6.2 40 00:43 26.03.2020
450 Clouds 7 1016 70 16093 7.2 40 23:45 25.03.2020
451 Clouds 7 1016 70 16093 7.2 40 23:27 25.03.2020
452 Clouds 7 1016 70 16093 8.7 30 22:58 25.03.2020
453 Clouds 7 1016 75 16093 9.8 30 22:38 25.03.2020
454 Clouds 7 1016 75 16093 9.8 30 22:19 25.03.2020
455 Clouds 7 1016 81 16093 9.3 40 21:55 25.03.2020
456 Rain 7 1016 81 16093 9.3 40 21:37 25.03.2020
457 Rain 7 1016 81 16093 7.2 40 21:18 25.03.2020
458 Rain 7 1017 81 16093 5.7 30 20:40 25.03.2020
459 Rain 7 1017 81 16093 5.7 30 20:20 25.03.2020
460 Clouds 7 1018 75 16093 5.7 30 19:59 25.03.2020
461 Rain 7 1018 75 16093 5.7 30 19:41 25.03.2020
462 Clouds 7 1018 75 16093 5.7 30 19:21 25.03.2020
463 Clouds 7 1018 75 16093 5.7 30 18:56 25.03.2020
464 Clouds 7 1019 75 16093 5.1 40 18:37 25.03.2020
465 Clouds 7 1019 75 16093 5.1 40 18:19 25.03.2020
466 Clouds 7 1019 75 16093 5.1 40 17:54 25.03.2020
467 Clouds 7 1018 75 16093 6.2 40 17:36 25.03.2020
468 Clouds 7 1018 75 16093 6.2 40 17:18 25.03.2020
469 Clouds 7 1019 70 16093 4.6 30 16:41 25.03.2020
470 Clouds 6 1019 70 16093 4.6 30 16:22 25.03.2020
471 Clouds 6 1019 70 16093 4.1 40 15:57 25.03.2020
472 Clouds 6 1019 70 16093 4.1 40 15:38 25.03.2020
473 Clouds 6 1019 75 16093 6.2 40 15:19 25.03.2020
474 Clouds 6 1019 75 16093 6.2 40 14:42 25.03.2020
475 Clouds 6 1020 70 16093 5.7 50 14:21 25.03.2020
476 Clouds 5 1020 70 16093 5.7 50 13:46 25.03.2020
477 Clouds 5 1020 70 16093 5.7 50 13:27 25.03.2020
478 Clouds 5 1020 70 16093 5.1 40 12:57 25.03.2020
479 Clouds 5 1020 70 16093 5.1 40 12:37 25.03.2020
480 Clouds 5 1020 70 16093 5.1 40 12:19 25.03.2020
481 Clouds 5 1020 70 16093 5.1 40 11:55 25.03.2020
482 Clouds 5 1019 70 16093 6.2 40 11:36 25.03.2020
483 Clouds 5 1019 70 16093 6.2 40 11:18 25.03.2020
484 Clouds 5 1019 70 16093 6.2 40 10:55 25.03.2020
485 Clouds 5 1019 74 16093 4.6 20 10:36 25.03.2020
486 Clear 5 1020 74 16093 5.1 40 10:18 25.03.2020
487 Clear 5 1020 74 16093 5.1 40 09:42 25.03.2020
488 Clear 5 1020 74 16093 5.1 40 09:22 25.03.2020
489 Clear 5 1021 74 16093 6.7 40 08:56 25.03.2020
490 Clear 5 1021 74 16093 6.7 40 08:38 25.03.2020
491 Clear 5 1021 74 16093 6.7 40 08:38 25.03.2020
492 Clear 5 1021 70 16093 6.7 40 08:19 25.03.2020
493 Clear 5 1021 70 16093 6.7 30 07:41 25.03.2020
494 Clear 5 1021 70 16093 6.7 30 07:20 25.03.2020
495 Clear 5 1022 70 16093 5.1 50 06:47 25.03.2020
496 Clear 5 1022 70 16093 5.1 50 06:26 25.03.2020
497 Clear 5 1023 56 16093 2.6 60 05:53 25.03.2020
498 Clear 5 1023 56 16093 2.6 60 05:30 25.03.2020
499 Clear 6 1022 70 16093 4.6 70 04:39 25.03.2020
500 Clear 8 1022 66 16093 5.7 40 03:36 25.03.2020
501 Clear 9 1022 66 16093 2.6 60 02:31 25.03.2020
502 Clear 10 1021 61 16093 3.6 50 01:21 25.03.2020
503 Clear 10 1021 50 16093 3.1 50 00:48 25.03.2020
504 Clear 10 1020 50 16093 4.34 54 00:23 25.03.2020
505 Clear 11 1019 50 16093 3.1 60 23:45 24.03.2020
506 Clear 11 1020 46 16093 3.1 30 23:26 24.03.2020
507 Clear 12 1019 44 16093 3.6 60 22:57 24.03.2020
508 Clear 13 1019 44 16093 3.6 60 22:38 24.03.2020
509 Clear 13 1019 44 16093 3.6 60 22:19 24.03.2020
510 Clear 12 1020 44 16093 4.1 70 21:56 24.03.2020
511 Clear 12 1020 44 16093 4.1 70 21:37 24.03.2020
512 Clear 12 1021 44 16093 1.5 0 21:18 24.03.2020
513 Clear 12 1021 44 16093 1.5 0 20:56 24.03.2020
514 Clear 12 1021 44 16093 1.5 0 20:38 24.03.2020
515 Clear 12 1021 44 16093 1.5 0 20:20 24.03.2020
516 Clear 12 1020 43 16093 2.1 0 19:44 24.03.2020
517 Clear 11 1021 50 16093 2.1 170 19:19 24.03.2020
518 Clear 11 1021 50 16093 2.1 170 18:56 24.03.2020
519 Clear 11 1021 50 16093 2.1 170 18:37 24.03.2020
520 Clear 11 1021 50 16093 2.1 170 18:18 24.03.2020
521 Clear 10 1021 57 16093 2.6 0 17:42 24.03.2020
522 Clear 9 1021 57 16093 2.6 0 17:24 24.03.2020
523 Clear 8 1021 57 16093 2.6 0 16:59 24.03.2020
524 Clear 8 1021 67 16093 1.5 360 16:41 24.03.2020
525 Clear 8 1021 67 16093 1.5 360 16:23 24.03.2020
526 Clear 8 1021 67 16093 1.5 360 16:23 24.03.2020
527 Clear 7 1021 67 16093 3.6 20 15:59 24.03.2020
528 Clear 7 1021 67 16093 4.6 360 15:40 24.03.2020
529 Clear 7 1021 67 16093 4.6 360 15:22 24.03.2020
530 Clear 6 1021 75 16093 3.19 3 14:43 24.03.2020
531 Clear 6 1021 75 16093 3.19 3 14:43 24.03.2020
532 Clear 6 1021 75 16093 5.37 356 14:22 24.03.2020
533 Clear 5 1020 80 16093 3.1 0 13:56 24.03.2020
534 Clear 5 1020 80 16093 3.1 0 13:38 24.03.2020
535 Clear 4 1020 80 16093 3.1 0 13:20 24.03.2020
536 Clouds 3 1020 80 16093 4.86 350 12:42 24.03.2020
537 Clouds 3 1019 80 16093 2.6 290 12:23 24.03.2020
538 Clouds 3 1018 80 16093 2.1 250 11:41 24.03.2020
539 Clouds 2 1018 80 16093 1.5 0 11:21 24.03.2020
540 Clouds 2 1018 74 16093 4.6 330 10:59 24.03.2020
541 Clouds 2 1018 86 16093 4.6 320 10:40 24.03.2020
542 Clouds 2 1018 86 16093 3.6 250 10:18 24.03.2020
543 Clouds 2 1017 86 16093 1.5 280 09:46 24.03.2020
544 Clouds 2 1016 80 16093 4.6 320 09:27 24.03.2020
545 Clouds 2 1016 80 16093 4.6 330 08:57 24.03.2020
546 Clouds 2 1017 80 16093 3.6 290 08:38 24.03.2020
547 Clouds 2 1017 85 16093 7.2 320 08:19 24.03.2020
548 Clouds 2 1017 85 16093 5.1 290 07:44 24.03.2020
549 Clouds 2 1017 80 16093 2.6 240 07:22 24.03.2020
550 Clouds 3 1016 85 16093 6.7 330 06:42 24.03.2020
551 Clouds 3 1016 85 16093 6.7 330 06:21 24.03.2020
552 Clouds 3 1016 86 16093 8.29 336 04:52 24.03.2020
553 Clouds 3 1015 86 16093 2.1 0 03:41 24.03.2020
554 Rain 3 1015 93 16093 2.6 0 02:44 24.03.2020
555 Rain 3 1016 93 16093 4.1 30 01:22 24.03.2020
556 Rain 3 1015 93 9656 9.3 30 00:41 24.03.2020
557 Rain 4 1018 87 6437 10.49 18 00:22 24.03.2020
558 Rain 4 1016 93 4828 3.6 40 23:39 23.03.2020
559 Rain 5 1017 93 1609 3.6 40 23:21 23.03.2020
560 Rain 4 1017 93 4828 6.2 10 22:45 23.03.2020
561 Rain 4 1017 100 3219 8.2 60 22:24 23.03.2020
562 Rain 4 1018 86 4828 5.1 50 21:58 23.03.2020
563 Rain 4 1018 93 4828 4.6 40 21:40 23.03.2020
564 Rain 4 1020 93 1609 4.1 70 21:20 23.03.2020
565 Rain 4 1020 86 4828 6.2 70 20:57 23.03.2020
566 Rain 4 1021 93 2414 4.1 60 20:38 23.03.2020
567 Rain 4 1021 93 3219 5.1 90 20:19 23.03.2020
568 Rain 4 1023 93 4023 3.6 70 19:45 23.03.2020
569 Rain 4 1023 93 4023 3.6 70 19:26 23.03.2020
570 Rain 3 1023 93 6437 8.2 50 18:57 23.03.2020
571 Rain 3 1025 93 3219 6.7 70 18:39 23.03.2020
572 Rain 3 1027 93 8047 4.1 70 18:20 23.03.2020
573 Rain 3 1028 86 14484 6.2 70 17:42 23.03.2020
574 Rain 3 1029 93 6437 3.1 0 17:21 23.03.2020
575 Rain 3 1028 93 8047 9.8 50 16:57 23.03.2020
576 Rain 3 1030 86 3219 3.1 0 16:39 23.03.2020
577 Rain 3 1030 93 6437 7.7 60 16:20 23.03.2020
578 Rain 3 1031 90 4023 3.6 90 15:42 23.03.2020
579 Rain 3 1031 86 4828 5.1 100 15:20 23.03.2020
580 Rain 3 1033 90 11265 10.17 117 14:38 23.03.2020
581 Rain 2 1032 80 16093 6.7 60 14:20 23.03.2020
582 Rain 2 1032 80 16093 6.7 60 14:20 23.03.2020
583 Rain 2 1033 74 11265 6.2 100 13:59 23.03.2020
584 Rain 2 1032 82 4828 4.1 90 13:40 23.03.2020
585 Rain 2 1032 86 8047 6.7 120 13:21 23.03.2020
586 Rain 2 1031 93 4828 2.6 90 12:45 23.03.2020
587 Rain 2 1033 86 4023 3.6 80 12:45 23.03.2020
588 Rain 2 1034 74 8047 5.1 90 12:26 23.03.2020
589 Rain 2 1034 80 16093 6.2 80 11:59 23.03.2020
590 Rain 2 1034 80 16093 7.2 120 11:40 23.03.2020
591 Clouds 3 1035 79 16093 6.2 70 11:20 23.03.2020
592 Clouds 3 1035 79 16093 6.2 70 10:58 23.03.2020
593 Drizzle 3 1035 69 16093 6.7 110 10:39 23.03.2020
594 Drizzle 3 1035 69 16093 6.7 110 10:21 23.03.2020
595 Clouds 3 1036 59 16093 3.1 100 09:46 23.03.2020
596 Clouds 3 1036 59 16093 3.1 100 09:21 23.03.2020
597 Clouds 3 1036 59 16093 7.2 100 08:58 23.03.2020
598 Clouds 3 1037 64 16093 4.6 70 08:36 23.03.2020
599 Clouds 3 1037 64 16093 4.6 70 08:18 23.03.2020
600 Clouds 3 1037 55 16093 5.1 140 07:47 23.03.2020
601 Clouds 2 1037 55 16093 5.1 140 07:29 23.03.2020
602 Clouds 2 1038 59 16093 4.6 130 06:52 23.03.2020
603 Clouds 2 1038 60 16093 5.1 70 06:20 23.03.2020
604 Clouds 2 1039 64 16093 6.2 60 05:34 23.03.2020
605 Clouds 2 1039 55 16093 4.6 140 03:45 23.03.2020
606 Clouds 2 1040 55 16093 8.98 114 02:40 23.03.2020
607 Clear 3 1039 55 16093 8.31 118 01:34 23.03.2020
608 Clouds 3 1039 55 16093 4.6 140 00:43 23.03.2020
609 Clouds 4 1039 60 16093 4.1 140 23:53 22.03.2020
610 Clouds 4 1039 51 16093 3.6 160 23:27 22.03.2020
611 Clouds 5 1038 48 16093 5.1 170 22:59 22.03.2020
612 Clouds 5 1038 48 16093 1.5 160 22:39 22.03.2020
613 Clouds 5 1038 45 16093 7.48 114 22:18 22.03.2020
614 Clouds 6 1038 41 16093 4.6 150 21:40 22.03.2020
615 Clouds 6 1038 42 16093 5.1 140 21:20 22.03.2020
616 Clouds 6 1038 28 16093 5.1 40 20:58 22.03.2020
617 Clouds 6 1038 35 16093 5.1 160 20:39 22.03.2020
618 Clouds 6 1038 35 16093 5.1 160 20:21 22.03.2020
619 Clouds 6 1038 26 16093 5.1 50 19:55 22.03.2020
620 Clouds 6 1039 28 16093 6.56 99 19:37 22.03.2020
621 Clouds 6 1039 33 16093 2.6 70 19:19 22.03.2020
622 Clouds 5 1039 27 16093 4.1 90 18:56 22.03.2020
623 Clouds 5 1039 27 16093 4.1 90 18:38 22.03.2020
624 Clouds 5 1040 32 16093 2.6 0 18:18 22.03.2020
625 Clouds 5 1040 32 16093 6.7 60 17:56 22.03.2020
626 Clouds 4 1039 27 16093 4.1 130 17:37 22.03.2020
627 Clouds 4 1039 32 16093 3.6 50 17:19 22.03.2020
628 Clouds 3 1039 40 16093 6.7 50 16:55 22.03.2020
629 Clouds 3 1039 27 16093 3.6 110 16:36 22.03.2020
630 Clouds 3 1039 27 16093 3.6 110 16:18 22.03.2020
631 Clouds 2 1039 32 16093 5.1 90 15:39 22.03.2020
632 Clouds 2 1039 31 16093 6.2 50 14:55 22.03.2020
633 Clear 1 1038 37 16093 5.1 60 14:37 22.03.2020
634 Clouds 1 1038 34 16093 4.1 50 14:18 22.03.2020
635 Clouds 1 1037 40 16093 7.2 50 13:41 22.03.2020
636 Clouds 0 1037 40 16093 7.7 30 13:19 22.03.2020
637 Clouds 0 1036 40 16093 4.6 40 12:47 22.03.2020
638 Clouds 0 1036 40 16093 4.6 40 12:23 22.03.2020
639 Clouds 0 1036 44 16093 7.7 30 11:59 22.03.2020
640 Clouds 1 1035 37 16093 5.1 40 11:41 22.03.2020
641 Clouds 1 1035 37 16093 5.1 40 11:23 22.03.2020
642 Clouds 1 1034 34 16093 7.7 40 10:57 22.03.2020
643 Clouds 1 1034 37 16093 1.5 30 10:39 22.03.2020
644 Clouds 1 1033 43 16093 5.1 20 10:21 22.03.2020
645 Clouds 2 1033 34 16093 7.7 20 09:43 22.03.2020
646 Clouds 2 1033 34 16093 7.7 20 09:23 22.03.2020
647 Clouds 2 1033 34 16093 2.1 30 08:44 22.03.2020
648 Clouds 2 1033 34 16093 2.1 30 08:25 22.03.2020
649 Clouds 2 1033 40 16093 5.1 360 07:53 22.03.2020
650 Clouds 3 1033 32 16093 3.6 50 07:28 22.03.2020
651 Clouds 3 1031 30 16093 7.64 29 06:40 22.03.2020
652 Clouds 4 1031 28 16093 4.1 50 05:37 22.03.2020
653 Clear 5 1030 26 16093 2.6 40 03:47 22.03.2020
654 Clouds 7 1028 23 16093 2.56 149 01:35 22.03.2020
655 Clear 8 1028 21 16093 2.6 40 00:49 22.03.2020
656 Clouds 8 1028 23 16093 1.72 140 00:29 22.03.2020
657 Clouds 9 1027 23 16093 4.1 120 23:45 21.03.2020
658 Clear 10 1027 21 16093 4.1 40 23:21 21.03.2020
659 Clouds 10 1026 21 16093 3.6 10 22:58 21.03.2020
660 Clouds 10 1026 27 16093 4.1 130 22:37 21.03.2020
661 Clear 10 1027 19 16093 2.6 50 22:18 21.03.2020
662 Clouds 10 1026 20 16093 2.6 30 21:56 21.03.2020
663 Clear 10 1026 27 16093 4.1 130 21:37 21.03.2020
664 Clear 10 1027 23 16093 3.1 0 21:18 21.03.2020
665 Clouds 10 1026 32 16093 3.1 20 20:42 21.03.2020
666 Clear 10 1027 30 16093 3.6 80 20:21 21.03.2020
667 Clouds 10 1026 29 16093 5.1 10 19:54 21.03.2020
668 Clear 10 1027 34 16093 4.6 50 19:36 21.03.2020
669 Clear 9 1027 34 16093 4.6 50 19:18 21.03.2020
670 Clear 9 1027 36 16093 5.23 20 18:40 21.03.2020
671 Clear 9 1027 37 16093 5.7 60 18:20 21.03.2020
672 Clear 8 1027 37 16093 5.7 60 17:58 21.03.2020
673 Clear 8 1027 36 16093 4.6 10 17:39 21.03.2020
674 Clear 8 1028 42 16093 2.1 0 17:21 21.03.2020
675 Clear 7 1027 42 16093 4.1 10 16:42 21.03.2020
676 Clear 7 1027 42 16093 4.1 10 16:23 21.03.2020
677 Clouds 6 1027 39 16093 7.7 350 15:58 21.03.2020
678 Clear 6 1026 52 16093 2.1 0 15:40 21.03.2020
679 Clear 6 1026 52 16093 2.1 0 15:21 21.03.2020
680 Clouds 6 1026 52 16093 6.2 330 14:56 21.03.2020
681 Clear 5 1026 48 16093 6.2 20 14:38 21.03.2020
682 Clear 5 1026 52 16093 8.54 342 14:19 21.03.2020
683 Clouds 5 1025 52 16093 6.2 340 13:57 21.03.2020
684 Clear 5 1025 52 16093 3.6 340 13:39 21.03.2020
685 Clear 5 1025 52 16093 3.6 340 13:21 21.03.2020
686 Clear 6 1023 48 16093 5.7 350 12:55 21.03.2020
687 Clear 6 1023 48 16093 5.7 350 12:36 21.03.2020
688 Clear 6 1022 52 16093 9.07 340 12:18 21.03.2020
689 Clear 7 1022 52 16093 9.07 340 11:55 21.03.2020
690 Clouds 7 1021 49 16093 1.5 340 11:37 21.03.2020
691 Clouds 7 1021 49 16093 1.5 340 11:18 21.03.2020
692 Clouds 8 1021 56 16093 5.1 330 10:55 21.03.2020
693 Clear 9 1020 61 16093 5.1 360 10:37 21.03.2020
694 Clouds 9 1020 49 16093 3.1 0 10:18 21.03.2020
695 Clouds 10 1019 50 16093 6.7 350 09:40 21.03.2020
696 Clouds 10 1019 50 16093 6.7 350 09:21 21.03.2020
697 Clouds 11 1017 54 16093 7.2 350 08:56 21.03.2020
698 Clouds 11 1017 54 16093 7.2 350 08:38 21.03.2020
699 Clouds 12 1017 58 16093 2.1 0 08:20 21.03.2020
700 Clouds 13 1016 51 16093 5.1 340 07:39 21.03.2020
701 Clear 14 1016 59 16093 2.1 0 07:20 21.03.2020
702 Clouds 16 1014 55 16093 8.78 320 06:45 21.03.2020
703 Clouds 16 1014 55 16093 8.78 320 06:26 21.03.2020
704 Clouds 20 1014 49 16093 4.1 310 05:41 21.03.2020
705 Clouds 20 1013 49 16093 7.2 310 04:34 21.03.2020
706 Clouds 20 1012 40 16093 6.7 300 02:39 21.03.2020
707 Clouds 20 1011 38 16093 8.2 270 01:57 21.03.2020
708 Clouds 20 1012 43 16093 6.2 300 01:29 21.03.2020
709 Clouds 20 1011 68 16093 4.1 250 00:47 21.03.2020
710 Clouds 21 1010 56 16093 4.1 270 00:24 21.03.2020
711 Rain 21 1009 50 16093 7.88 253 23:46 20.03.2020
712 Rain 22 1009 50 16093 7.88 253 23:24 20.03.2020
713 Clouds 22 1008 56 16093 6.2 270 22:55 20.03.2020
714 Clouds 22 1008 60 16093 4.1 280 22:36 20.03.2020
715 Clear 21 1009 56 16093 9.52 245 22:18 20.03.2020
716 Clouds 21 1008 56 16093 2.1 190 21:54 20.03.2020
717 Clear 21 1008 50 16093 4.6 270 21:36 20.03.2020
718 Clear 21 1009 60 14484 2.6 160 21:18 20.03.2020
719 Clouds 20 1011 82 14484 3.1 270 20:41 20.03.2020
720 Clouds 19 1011 82 14484 3.1 270 20:21 20.03.2020
721 Clouds 18 1011 87 16093 3.6 140 19:59 20.03.2020
722 Clouds 18 1012 87 11265 2.1 270 19:40 20.03.2020
723 Clouds 17 1012 77 11265 1.5 0 19:18 20.03.2020
724 Clouds 16 1011 77 12874 5.1 200 18:54 20.03.2020
725 Mist 16 1012 82 6437 4.1 210 18:36 20.03.2020
726 Mist 15 1012 82 6437 4.1 210 18:18 20.03.2020
727 Mist 14 1014 87 4828 2.1 170 17:39 20.03.2020
728 Mist 13 1014 87 6437 2.1 210 17:21 20.03.2020
729 Mist 12 1014 87 6437 2.1 210 16:57 20.03.2020
730 Mist 11 1015 93 8047 2.1 260 16:39 20.03.2020
731 Haze 11 1015 81 9656 1.5 0 16:18 20.03.2020
732 Haze 11 1015 81 4828 2.6 0 15:42 20.03.2020
733 Mist 10 1016 93 8047 1.5 260 15:21 20.03.2020
734 Mist 9 1015 87 3219 2.6 190 14:54 20.03.2020
735 Mist 9 1015 93 1609 2.6 200 14:36 20.03.2020
736 Mist 9 1015 93 1609 2.6 200 14:18 20.03.2020
737 Mist 8 1017 93 4828 3.32 229 13:40 20.03.2020
738 Mist 8 1017 93 4828 3.47 206 13:19 20.03.2020
739 Drizzle 8 1017 93 805 2.6 150 12:39 20.03.2020
740 Rain 8 1017 93 1207 2.1 190 12:20 20.03.2020
741 Rain 8 1018 93 1609 3.47 206 11:57 20.03.2020
742 Rain 8 1018 93 2816 2.1 220 11:38 20.03.2020
743 Mist 8 1018 93 4828 2.65 182 11:19 20.03.2020
744 Drizzle 8 1018 93 1609 1.5 0 10:41 20.03.2020
745 Clouds 8 1018 81 16093 4.1 160 10:21 20.03.2020
746 Rain 8 1018 81 16093 4.1 160 09:59 20.03.2020
747 Rain 8 1019 93 16093 2.1 140 09:41 20.03.2020
748 Rain 8 1019 87 16093 2.65 182 09:19 20.03.2020
749 Rain 8 1020 87 16093 3.1 0 08:43 20.03.2020
750 Rain 8 1020 93 16093 2.6 0 08:22 20.03.2020
751 Rain 8 1020 93 16093 2.6 0 08:22 20.03.2020
752 Rain 8 1020 81 16093 2.6 160 07:55 20.03.2020
753 Rain 8 1021 81 16093 3.6 140 07:37 20.03.2020
754 Rain 8 1021 81 16093 3.6 140 07:18 20.03.2020
755 Clouds 8 1022 87 16093 2.6 0 06:41 20.03.2020
756 Clouds 8 1023 81 16093 1.5 130 04:52 20.03.2020
757 Clouds 9 1024 87 16093 3.39 140 03:50 20.03.2020
758 Clouds 9 1024 81 16093 1.5 270 02:21 20.03.2020
759 Clouds 9 1024 76 16093 1.5 200 01:47 20.03.2020
760 Clouds 10 1024 76 16093 2.1 250 00:33 20.03.2020
761 Clouds 10 1024 76 16093 1.5 20 23:51 19.03.2020
762 Clouds 10 1024 76 16093 1.7 74 23:30 19.03.2020
763 Clouds 10 1024 76 16093 2.32 30 22:58 19.03.2020
764 Clouds 10 1023 76 16093 2.32 30 22:38 19.03.2020
765 Clouds 10 1024 76 16093 2.32 30 22:20 19.03.2020
766 Clouds 10 1023 71 16093 2.1 0 21:56 19.03.2020
767 Clouds 10 1023 81 16093 2.1 70 21:37 19.03.2020
768 Clouds 10 1023 71 16093 2.32 30 21:18 19.03.2020
769 Rain 10 1023 76 16093 3.6 70 20:42 19.03.2020
770 Rain 10 1023 76 16093 3.6 70 20:23 19.03.2020
771 Rain 10 1023 76 16093 3.1 60 19:57 19.03.2020
772 Clouds 9 1024 81 16093 4.6 50 19:38 19.03.2020
773 Clouds 9 1024 81 16093 4.6 50 19:20 19.03.2020
774 Clouds 9 1024 81 16093 4.6 50 18:56 19.03.2020
775 Clouds 9 1024 100 16093 3.1 350 18:38 19.03.2020
776 Clouds 9 1024 81 16093 6.2 50 18:19 19.03.2020
777 Clouds 8 1024 87 16093 4.1 10 17:42 19.03.2020
778 Clouds 8 1024 87 16093 4.1 10 17:20 19.03.2020
779 Clouds 8 1024 87 16093 6.2 40 16:57 19.03.2020
780 Clouds 7 1024 87 16093 5.1 50 16:39 19.03.2020
781 Clouds 7 1025 87 16093 7.2 30 16:20 19.03.2020
782 Rain 7 1025 93 16093 5.08 43 15:41 19.03.2020
783 Rain 6 1024 93 6437 3.1 40 15:23 19.03.2020
784 Rain 6 1025 93 4023 2.6 60 14:43 19.03.2020
785 Rain 6 1025 93 8047 3.6 50 14:22 19.03.2020
786 Rain 6 1025 81 4023 8.2 40 13:56 19.03.2020
787 Rain 6 1025 93 6437 4.1 60 13:37 19.03.2020
788 Drizzle 6 1024 87 4828 3.1 30 13:18 19.03.2020
789 Rain 6 1025 93 4023 4.1 70 12:40 19.03.2020
790 Drizzle 6 1024 87 3219 2.6 30 12:22 19.03.2020
791 Rain 6 1024 93 9656 3.6 20 11:57 19.03.2020
792 Rain 6 1025 87 4828 1.5 60 11:38 19.03.2020
793 Rain 5 1024 93 8047 6.2 30 11:20 19.03.2020
794 Rain 5 1025 93 2816 3.6 50 10:41 19.03.2020
795 Rain 5 1025 87 4023 4.1 60 10:20 19.03.2020
796 Rain 5 1025 87 6437 4.6 60 09:58 19.03.2020
797 Rain 5 1026 87 6437 3.1 0 09:38 19.03.2020
798 Rain 5 1026 87 4023 2.6 0 09:19 19.03.2020
799 Rain 5 1027 93 4828 3.6 60 08:45 19.03.2020
800 Rain 5 1027 87 11265 5.1 30 08:21 19.03.2020
801 Rain 5 1028 86 4828 2.6 50 07:47 19.03.2020
802 Rain 5 1028 81 11265 3.6 40 07:28 19.03.2020
803 Rain 5 1028 87 12874 4.6 100 06:49 19.03.2020
804 Rain 6 1029 70 16093 5.7 150 05:52 19.03.2020
805 Clouds 7 1030 67 16093 8.62 149 04:59 19.03.2020
806 Clouds 7 1030 67 16093 8.62 149 04:40 19.03.2020
807 Clouds 7 1030 67 16093 8.62 149 04:40 19.03.2020
808 Clouds 7 1031 67 16093 2.6 0 03:20 19.03.2020
809 Clear 7 1031 42 16093 7.36 147 01:27 19.03.2020
810 Clear 8 1031 42 16093 3.6 170 00:35 19.03.2020
811 Clear 8 1031 45 16093 3.6 150 23:57 18.03.2020
812 Clear 9 1031 45 16093 3.6 150 23:36 18.03.2020
813 Clear 9 1031 49 16093 3.6 160 23:18 18.03.2020
814 Clear 10 1030 46 16093 4.1 140 22:42 18.03.2020
815 Clear 10 1030 46 16093 4.1 140 22:22 18.03.2020
816 Clear 11 1031 46 16093 4.6 160 21:54 18.03.2020
817 Clear 11 1031 46 16093 4.6 160 21:36 18.03.2020
818 Clear 11 1032 55 16093 3.6 180 21:18 18.03.2020
819 Clear 12 1031 43 16093 5.1 140 20:41 18.03.2020
820 Clear 12 1031 43 16093 5.1 140 20:21 18.03.2020
821 Clouds 12 1031 30 16093 4.6 190 19:59 18.03.2020
822 Clear 12 1032 40 16093 3.1 150 19:40 18.03.2020
823 Clear 11 1033 34 16093 1.5 0 19:21 18.03.2020
824 Clouds 11 1032 37 16093 3.1 180 18:56 18.03.2020
825 Clear 11 1033 37 16093 4.1 160 18:37 18.03.2020
826 Clear 11 1034 40 16093 4.1 220 18:18 18.03.2020
827 Clear 11 1033 37 16093 4.1 180 17:41 18.03.2020
828 Clear 10 1033 43 16093 3.1 240 17:22 18.03.2020
829 Clear 10 1033 43 16093 3.1 240 16:59 18.03.2020
830 Clear 10 1033 43 16093 3.1 240 16:59 18.03.2020
831 Clear 9 1033 40 16093 1.42 76 16:40 18.03.2020
832 Clear 9 1033 40 16093 1.42 76 16:20 18.03.2020
833 Clouds 9 1033 42 16093 3.6 60 15:56 18.03.2020
834 Clear 8 1033 39 16093 1.42 76 15:37 18.03.2020
835 Clear 8 1033 42 16093 2.1 0 15:18 18.03.2020
836 Clear 7 1032 52 16093 1.42 76 14:42 18.03.2020
837 Clear 7 1032 52 16093 4.31 8 14:21 18.03.2020
838 Clear 5 1032 56 16093 4.31 8 13:41 18.03.2020
839 Clear 4 1031 52 16093 4.16 2 13:19 18.03.2020
840 Clear 3 1031 52 16093 4.16 2 12:54 18.03.2020
841 Clear 2 1031 60 16093 4.16 2 12:36 18.03.2020
842 Clear 3 1031 56 16093 2.6 280 12:18 18.03.2020
843 Clear 3 1030 60 16093 4.16 2 11:37 18.03.2020
844 Clear 3 1029 56 16093 3.1 270 11:19 18.03.2020
845 Clear 4 1029 56 16093 3.1 270 10:56 18.03.2020
846 Clear 4 1028 52 16093 1.5 240 10:37 18.03.2020
847 Clear 4 1029 52 16093 1.5 0 10:18 18.03.2020
848 Clear 5 1028 52 16093 6.36 344 09:42 18.03.2020
849 Clear 5 1028 48 16093 2.1 290 09:23 18.03.2020
850 Clouds 5 1027 48 16093 4.1 320 08:55 18.03.2020
851 Clear 5 1028 49 16093 1.5 0 08:36 18.03.2020
852 Clear 6 1028 48 16093 4.1 300 08:18 18.03.2020
853 Clouds 6 1027 52 16093 7.25 341 07:40 18.03.2020
854 Clear 6 1027 52 16093 1.5 0 07:22 18.03.2020
855 Clouds 7 1026 63 16093 3.6 360 06:42 18.03.2020
856 Clear 8 1026 52 16093 3.6 330 05:53 18.03.2020
857 Clouds 8 1025 61 16093 6.46 321 05:19 18.03.2020
858 Clouds 9 1023 57 16093 5.1 320 03:56 18.03.2020
859 Clear 9 1023 66 16093 6.46 321 02:40 18.03.2020
860 Clouds 10 1022 87 16093 5.75 264 01:46 18.03.2020
861 Clouds 10 1021 66 16093 3.6 280 01:21 18.03.2020
862 Clouds 10 1020 71 16093 3.1 260 00:23 18.03.2020
863 Clear 11 1020 62 16093 5.91 286 23:47 17.03.2020
864 Clouds 11 1019 66 16093 4.1 260 23:26 17.03.2020
865 Clouds 11 1019 66 16093 3.1 0 22:47 17.03.2020
866 Clouds 11 1019 66 16093 5.7 290 22:29 17.03.2020
867 Clouds 11 1018 58 16093 4.6 250 21:59 17.03.2020
868 Rain 11 1019 66 16093 3.6 260 21:39 17.03.2020
869 Rain 11 1019 66 16093 2.1 280 21:21 17.03.2020
870 Clouds 11 1019 71 16093 3.1 230 20:40 17.03.2020
871 Clouds 11 1019 71 16093 3.1 230 20:21 17.03.2020
872 Clouds 10 1019 62 16093 3.6 280 19:58 17.03.2020
873 Clouds 10 1019 66 16093 2.6 260 19:39 17.03.2020
874 Clouds 10 1020 81 16093 1.5 250 19:18 17.03.2020
875 Clouds 9 1019 71 16093 3.6 240 18:56 17.03.2020
876 Clouds 9 1021 87 16093 1.5 260 18:37 17.03.2020
877 Clouds 9 1020 76 16093 5.7 240 18:19 17.03.2020
878 Rain 8 1021 81 16093 2.6 0 17:40 17.03.2020
879 Rain 8 1022 93 16093 2.6 250 17:21 17.03.2020
880 Rain 7 1022 93 16093 2.6 250 16:55 17.03.2020
881 Rain 7 1022 87 16093 1.95 251 16:37 17.03.2020
882 Rain 7 1023 87 6437 1.95 251 16:18 17.03.2020
883 Rain 6 1023 93 16093 1.95 251 15:43 17.03.2020
884 Rain 6 1023 93 16093 1.95 251 15:20 17.03.2020
885 Rain 6 1023 87 11265 1.95 251 14:42 17.03.2020
886 Rain 6 1023 87 11265 4.46 148 14:21 17.03.2020
887 Rain 5 1023 93 16093 1.5 0 13:44 17.03.2020
888 Rain 5 1023 93 11265 3.74 142 13:26 17.03.2020
889 Rain 5 1024 87 16093 2.1 0 12:58 17.03.2020
890 Rain 5 1024 87 14484 4.18 147 12:40 17.03.2020
891 Rain 5 1025 87 14484 1.5 0 12:22 17.03.2020
892 Drizzle 5 1024 87 16093 3.74 142 11:47 17.03.2020
893 Drizzle 5 1024 87 16093 3.74 142 11:28 17.03.2020
894 Rain 5 1025 87 16093 2.6 130 10:58 17.03.2020
895 Drizzle 5 1025 87 16093 6.76 160 10:38 17.03.2020
896 Rain 5 1025 87 16093 2.6 0 10:20 17.03.2020
897 Rain 5 1025 81 16093 4.1 140 09:59 17.03.2020
898 Rain 5 1026 81 16093 3.1 150 09:39 17.03.2020
899 Rain 5 1026 81 16093 2.1 160 09:19 17.03.2020
900 Clouds 5 1026 75 16093 3.6 140 08:47 17.03.2020
901 Clouds 5 1028 75 16093 7.16 144 08:22 17.03.2020
902 Clouds 5 1028 75 16093 2.6 140 07:50 17.03.2020
903 Clouds 5 1028 75 16093 2.6 140 07:26 17.03.2020
904 Clouds 5 1028 70 16093 5.1 120 06:59 17.03.2020
905 Clouds 5 1028 75 16093 1.5 100 06:34 17.03.2020
906 Clouds 5 1029 79 16093 3.6 120 05:56 17.03.2020
907 Clouds 4 1031 75 16093 4.6 120 03:56 17.03.2020
908 Clouds 4 1033 73 16093 3.6 60 02:46 17.03.2020
909 Clouds 4 1033 60 16093 8.18 135 01:44 17.03.2020
910 Clouds 4 1033 65 16093 4.6 140 01:25 17.03.2020
911 Clouds 4 1033 65 16093 3.1 0 00:46 17.03.2020
912 Clouds 5 1033 72 16093 4.1 110 23:48 16.03.2020
913 Clouds 5 1033 72 16093 4.1 110 23:30 16.03.2020
914 Clouds 5 1033 65 16093 4.1 140 22:42 16.03.2020
915 Clouds 5 1033 65 16093 4.1 140 22:24 16.03.2020
916 Clouds 6 1034 60 16093 5.1 130 21:58 16.03.2020
917 Clouds 6 1034 60 16093 5.1 130 21:40 16.03.2020
918 Clouds 6 1034 52 16093 3.1 60 21:22 16.03.2020
919 Clouds 6 1034 60 16093 5.7 50 20:56 16.03.2020
920 Clouds 6 1034 60 16093 5.7 130 20:37 16.03.2020
921 Clouds 6 1034 60 16093 5.7 130 20:19 16.03.2020
922 Clouds 6 1035 52 16093 5.7 130 19:41 16.03.2020
923 Clouds 6 1036 49 16093 3.6 50 19:21 16.03.2020
924 Clouds 6 1035 55 16093 6.7 40 18:56 16.03.2020
925 Clouds 6 1036 48 16093 4.6 170 18:37 16.03.2020
926 Clear 6 1037 35 16093 3.1 50 18:18 16.03.2020
927 Clouds 5 1037 35 16093 7.54 103 17:42 16.03.2020
928 Clouds 5 1037 35 16093 7.54 103 17:22 16.03.2020
929 Clouds 4 1037 30 16093 6.48 81 16:46 16.03.2020
930 Clouds 4 1037 30 16093 6.48 81 16:28 16.03.2020
931 Clouds 3 1037 44 16093 5.1 40 15:56 16.03.2020
932 Clouds 3 1037 29 16093 4.1 90 15:37 16.03.2020
933 Clouds 3 1037 29 16093 4.1 90 15:18 16.03.2020
934 Clear 2 1037 32 16093 4.1 110 14:42 16.03.2020
935 Clear 1 1037 37 16093 5.7 50 14:19 16.03.2020
936 Clear 1 1037 37 16093 1.5 50 13:42 16.03.2020
937 Clear 0 1037 31 16093 4.6 50 13:23 16.03.2020
938 Clear 0 1036 40 16093 3.1 50 12:46 16.03.2020
939 Clear 0 1036 40 16093 3.1 50 12:27 16.03.2020
940 Clear 0 1036 43 16093 6.2 30 11:59 16.03.2020
941 Clear 0 1035 37 16093 5.1 50 11:41 16.03.2020
942 Clear 0 1036 44 16093 5.7 30 11:18 16.03.2020
943 Clear 0 1035 40 16093 7.63 52 10:42 16.03.2020
944 Clear 1 1035 47 16093 6.7 30 10:24 16.03.2020
945 Clear 1 1035 34 16093 4.1 60 09:45 16.03.2020
946 Clear 1 1035 34 16093 4.1 50 09:27 16.03.2020
947 Clouds 1 1035 40 16093 7.7 50 08:58 16.03.2020
948 Clear 2 1035 32 16093 3.1 50 08:26 16.03.2020
949 Clouds 2 1035 44 16093 4.6 40 07:54 16.03.2020
950 Clear 3 1035 27 16093 4.1 40 07:28 16.03.2020
951 Clouds 3 1034 32 16093 5.1 20 06:54 16.03.2020
952 Clouds 3 1034 32 16093 5.1 20 06:54 16.03.2020
953 Clear 3 1034 23 16093 4.6 30 06:27 16.03.2020
954 Clear 4 1034 38 16093 2.6 0 05:54 16.03.2020
955 Clear 5 1033 36 16093 1.5 50 03:31 16.03.2020
956 Clear 7 1031 36 16093 2.84 142 01:20 16.03.2020
957 Clear 8 1030 29 16093 3.25 136 00:43 16.03.2020
958 Clear 10 1029 18 16093 3.6 340 23:49 15.03.2020
959 Clear 10 1030 23 16093 2.1 0 23:23 15.03.2020
960 Clear 11 1029 23 16093 5.7 80 22:58 15.03.2020
961 Clear 11 1029 22 16093 3.6 340 22:38 15.03.2020
962 Clear 11 1029 22 16093 3.6 340 22:20 15.03.2020
963 Clear 12 1029 24 16093 2.6 70 21:39 15.03.2020
964 Clear 12 1029 24 16093 2.6 70 21:20 15.03.2020
965 Clouds 11 1029 25 16093 2.1 320 20:55 15.03.2020
966 Clear 11 1030 25 16093 3.04 152 20:36 15.03.2020
967 Clear 11 1030 25 16093 1.21 99 20:18 15.03.2020
968 Clear 11 1030 27 16093 4.1 20 19:42 15.03.2020
969 Clear 11 1030 27 16093 4.1 20 19:24 15.03.2020
970 Clouds 10 1030 27 16093 5.7 20 18:59 15.03.2020
971 Clear 10 1031 29 16093 4.1 60 18:40 15.03.2020
972 Clear 10 1032 27 16093 3.6 50 18:21 15.03.2020
973 Clouds 9 1031 29 16093 4.6 20 17:57 15.03.2020
974 Clear 9 1031 34 16093 1.21 99 17:38 15.03.2020
975 Clear 9 1032 42 16093 2.1 0 17:18 15.03.2020
976 Clear 8 1032 36 16093 3.6 60 16:43 15.03.2020
977 Clear 8 1032 36 16093 3.6 60 16:25 15.03.2020
978 Clouds 7 1032 42 16093 3.6 50 15:59 15.03.2020
979 Clouds 7 1032 42 16093 5.35 23 15:41 15.03.2020
980 Clouds 6 1032 42 16093 5.35 23 15:20 15.03.2020
981 Clouds 6 1032 48 16093 1.5 40 14:46 15.03.2020
982 Clouds 6 1032 48 16093 1.5 40 14:25 15.03.2020
983 Clouds 5 1031 48 16093 5.7 360 13:58 15.03.2020
984 Clouds 5 1031 48 16093 2.1 40 13:38 15.03.2020
985 Clouds 5 1031 48 16093 2.1 40 13:38 15.03.2020
986 Clouds 5 1031 52 16093 4.1 10 13:20 15.03.2020
987 Clouds 5 1030 48 16093 5.17 38 12:44 15.03.2020
988 Clouds 5 1030 48 16093 5.17 38 12:26 15.03.2020
989 Clouds 5 1030 48 16093 5.17 38 11:57 15.03.2020
990 Clouds 5 1030 48 16093 5.17 38 11:39 15.03.2020
991 Clouds 5 1029 48 16093 3.6 60 11:20 15.03.2020
992 Clouds 5 1029 48 16093 3.6 60 10:56 15.03.2020
993 Clouds 5 1029 48 16093 2.27 19 10:36 15.03.2020
994 Clouds 5 1029 45 16093 1.5 0 10:18 15.03.2020
995 Clouds 5 1028 48 16093 2.27 19 09:40 15.03.2020
996 Clouds 5 1029 45 16093 2.1 40 09:21 15.03.2020
997 Clouds 6 1029 45 16093 4.1 20 08:44 15.03.2020
998 Clouds 6 1029 52 16093 6.02 347 08:21 15.03.2020
999 Clouds 6 1029 45 16093 4.6 350 07:51 15.03.2020
1000 Clouds 6 1029 42 16093 2.1 10 07:32 15.03.2020
1001 Clouds 7 1029 36 16093 4.1 350 06:53 15.03.2020
1002 Clouds 7 1029 42 16093 1.5 0 06:18 15.03.2020
1003 Clouds 7 1029 36 16093 3.1 0 05:21 15.03.2020
1004 Clouds 8 1029 36 16093 7.45 332 04:43 15.03.2020
1005 Clouds 8 1029 36 16093 7.45 332 04:25 15.03.2020
1006 Clouds 8 1028 34 16093 6.2 330 03:54 15.03.2020
1007 Clouds 9 1028 34 16093 7.45 332 02:44 15.03.2020
1008 Clouds 9 1027 29 16093 1.5 340 01:40 15.03.2020
1009 Clouds 10 1027 29 16093 4.1 360 00:47 15.03.2020
1010 Clouds 10 1027 29 16093 4.1 360 00:27 15.03.2020
1011 Clouds 10 1027 32 16093 1.5 0 23:56 14.03.2020
1012 Clear 10 1027 27 16093 5.7 330 23:37 14.03.2020
1013 Clear 11 1027 26 16093 1.5 0 23:18 14.03.2020
1014 Clear 11 1026 26 16093 5.7 350 22:44 14.03.2020
1015 Clear 12 1026 26 16093 5.7 350 22:26 14.03.2020
1016 Clouds 12 1026 27 16093 5.1 320 21:57 14.03.2020
1017 Clear 12 1026 26 16093 3.97 314 21:36 14.03.2020
1018 Clear 12 1026 24 16093 3.1 290 21:18 14.03.2020
1019 Clouds 12 1025 26 16093 4.6 310 20:59 14.03.2020
1020 Clear 12 1026 28 16093 4.1 340 20:40 14.03.2020
1021 Clear 12 1026 25 16093 4.1 270 20:19 14.03.2020
1022 Clouds 12 1025 27 16093 3.6 320 19:56 14.03.2020
1023 Clear 12 1026 28 16093 6.2 310 19:38 14.03.2020
1024 Clear 12 1026 32 16093 1.5 0 19:19 14.03.2020
1025 Clear 11 1027 30 16093 4.1 300 18:37 14.03.2020
1026 Clear 11 1027 32 16093 4.1 260 18:19 14.03.2020
1027 Clear 10 1027 32 16093 4.1 330 17:39 14.03.2020
1028 Clear 9 1027 34 16093 3.1 0 17:21 14.03.2020
1029 Clear 9 1027 31 16093 3.6 320 16:41 14.03.2020
1030 Clear 8 1027 31 16093 3.6 320 16:23 14.03.2020
1031 Clear 8 1027 31 16093 4.6 320 15:59 14.03.2020
1032 Clear 8 1027 31 16093 4.6 320 15:27 14.03.2020
1033 Clouds 7 1026 39 16093 9.3 310 14:59 14.03.2020
1034 Clear 7 1027 39 16093 4.1 290 14:38 14.03.2020
1035 Clear 7 1027 39 16093 2.6 0 14:20 14.03.2020
1036 Clouds 6 1026 36 16093 7.7 290 13:56 14.03.2020
1037 Clear 6 1027 41 16093 4.1 300 13:38 14.03.2020
1038 Clear 6 1027 41 16093 4.6 270 13:18 14.03.2020
1039 Clear 5 1026 44 16093 8.75 300 12:43 14.03.2020
1040 Clear 5 1026 44 16093 8.75 300 12:43 14.03.2020
1041 Clear 5 1025 42 16093 2.6 0 12:24 14.03.2020
1042 Clear 5 1025 51 16093 3.1 290 11:44 14.03.2020
1043 Clear 6 1024 45 16093 8.75 300 11:25 14.03.2020
1044 Clear 6 1024 41 16093 5.7 300 10:48 14.03.2020
1045 Clear 6 1024 38 16093 4.6 300 10:28 14.03.2020
1046 Clouds 6 1023 33 16093 5.7 290 09:59 14.03.2020
1047 Clear 7 1023 36 16093 1.5 300 09:40 14.03.2020
1048 Clear 7 1023 36 16093 1.5 300 09:21 14.03.2020
1049 Clear 7 1023 36 16093 5.7 310 08:46 14.03.2020
1050 Clear 7 1023 36 16093 5.7 310 08:27 14.03.2020
1051 Clear 8 1022 33 16093 9.3 320 07:45 14.03.2020
1052 Clear 8 1022 33 16093 9.3 320 07:22 14.03.2020
1053 Clouds 8 1022 34 16093 8.7 300 06:55 14.03.2020
1054 Clear 8 1021 34 16093 7.7 330 06:36 14.03.2020
1055 Clear 10 1020 37 16093 2.1 0 04:57 14.03.2020
1056 Clear 13 1017 22 16093 5.1 300 03:40 14.03.2020
1057 Clouds 14 1016 18 16093 7.2 290 02:53 14.03.2020
1058 Clear 15 1014 21 16093 6.7 310 01:50 14.03.2020
1059 Clear 17 1012 18 16093 8.7 310 00:36 14.03.2020
1060 Clear 18 1010 30 16093 4.1 340 23:44 13.03.2020
1061 Clear 19 1010 30 16093 4.1 340 23:25 13.03.2020
1062 Clear 20 1009 17 16093 7.2 270 22:46 13.03.2020
1063 Clouds 20 1009 42 16093 9.3 310 22:25 13.03.2020
1064 Clouds 21 1008 48 16093 5.7 270 21:42 13.03.2020
1065 Clouds 20 1008 48 16093 5.7 270 21:21 13.03.2020
1066 Clear 20 1007 37 16093 9.8 300 20:57 13.03.2020
1067 Clear 20 1007 37 16093 9.8 300 20:38 13.03.2020
1068 Clear 19 1007 63 16093 9.3 270 20:19 13.03.2020
1069 Clouds 19 1007 63 16093 6.7 270 19:42 13.03.2020
1070 Clouds 18 1008 68 16093 5.7 250 19:23 13.03.2020
1071 Clouds 18 1008 68 16093 5.7 250 19:23 13.03.2020
1072 Clouds 16 1008 77 16093 7.2 250 18:44 13.03.2020
1073 Clouds 15 1007 77 16093 6.7 230 18:25 13.03.2020
1074 Clouds 14 1008 93 16093 6.2 270 17:57 13.03.2020
1075 Mist 14 1007 87 8047 4.1 200 17:37 13.03.2020
1076 Clouds 13 1008 93 12874 4.6 240 17:18 13.03.2020
1077 Rain 12 1008 93 11265 5.7 220 16:41 13.03.2020
1078 Rain 12 1008 100 201 8.7 190 16:23 13.03.2020
1079 Rain 12 1009 93 6437 4.1 160 15:55 13.03.2020
1080 Rain 12 1009 93 6437 4.1 160 15:37 13.03.2020
1081 Rain 11 1008 87 4828 4.6 180 15:18 13.03.2020
1082 Rain 11 1010 100 4828 3.1 150 14:41 13.03.2020
1083 Rain 11 1011 100 4828 4.1 160 14:22 13.03.2020
1084 Rain 11 1011 100 805 8.2 170 13:56 13.03.2020
1085 Rain 11 1011 93 8047 4.6 160 13:38 13.03.2020
1086 Rain 11 1011 93 14484 3.1 0 13:18 13.03.2020
1087 Rain 11 1011 93 8047 6.7 190 12:40 13.03.2020
1088 Rain 10 1012 93 4828 2.6 140 12:22 13.03.2020
1089 Rain 10 1012 93 6437 2.6 200 11:57 13.03.2020
1090 Rain 10 1012 93 2012 10.76 166 11:39 13.03.2020
1091 Rain 9 1013 93 2012 2.6 0 11:21 13.03.2020
1092 Drizzle 9 1013 100 402 3.1 60 10:47 13.03.2020
1093 Mist 9 1013 93 2816 2.1 50 10:27 13.03.2020
1094 Drizzle 8 1014 100 201 6.2 130 09:57 13.03.2020
1095 Rain 8 1015 93 4023 1.5 50 09:39 13.03.2020
1096 Rain 8 1016 93 6437 2.1 0 09:20 13.03.2020
1097 Rain 8 1016 93 8047 9.49 153 08:45 13.03.2020
1098 Rain 8 1016 87 16093 5.7 40 08:22 13.03.2020
1099 Rain 7 1017 87 11265 2.1 110 07:49 13.03.2020
1100 Rain 7 1018 93 9656 8.57 118 07:28 13.03.2020
1101 Rain 7 1018 87 14484 7.2 60 06:50 13.03.2020
1102 Rain 7 1018 87 11265 4.1 110 06:32 13.03.2020
1103 Rain 7 1018 93 2414 3.6 80 05:54 13.03.2020
1104 Rain 7 1019 87 16093 6.7 50 05:22 13.03.2020
1105 Drizzle 7 1019 87 9656 2.6 80 04:37 13.03.2020
1106 Rain 7 1020 87 16093 4.6 110 03:37 13.03.2020
1107 Drizzle 7 1021 87 16093 6.38 98 01:47 13.03.2020
1108 Rain 7 1022 75 16093 6.58 100 01:19 13.03.2020
1109 Clouds 7 1021 81 16093 4.1 30 00:53 13.03.2020
1110 Clouds 8 1021 87 16093 4.6 80 00:24 13.03.2020
1111 Clouds 8 1020 81 16093 5.1 50 23:55 12.03.2020
1112 Clouds 8 1021 81 16093 5.1 50 23:28 12.03.2020
1113 Clouds 8 1021 76 16093 5.1 60 22:57 12.03.2020
1114 Clouds 8 1021 81 16093 3.1 130 22:39 12.03.2020
1115 Clouds 8 1021 76 16093 4.1 80 22:21 12.03.2020
1116 Clouds 8 1021 81 16093 3.6 140 21:45 12.03.2020
1117 Clouds 8 1021 81 16093 3.6 140 21:27 12.03.2020
1118 Clouds 8 1022 87 16093 5.7 100 20:57 12.03.2020
1119 Clouds 8 1022 70 16093 2.1 80 20:38 12.03.2020
1120 Clouds 8 1022 66 16093 3.6 70 20:19 12.03.2020
1121 Clouds 8 1022 75 16093 5.08 107 19:41 12.03.2020
1122 Clouds 8 1022 70 16093 3.1 80 19:20 12.03.2020
1123 Clouds 8 1022 75 16093 3.1 150 18:44 12.03.2020
1124 Clouds 8 1023 70 16093 4.1 70 18:24 12.03.2020
1125 Clouds 8 1022 75 16093 2.1 150 17:57 12.03.2020
1126 Clouds 8 1022 75 16093 4.1 130 17:38 12.03.2020
1127 Clouds 8 1023 75 16093 2.6 60 17:20 12.03.2020
1128 Clouds 7 1023 75 11265 4.6 60 16:55 12.03.2020
1129 Clouds 7 1023 75 11265 4.6 60 16:37 12.03.2020
1130 Clouds 7 1023 75 16093 2.6 60 16:18 12.03.2020
1131 Clouds 7 1022 70 16093 1.5 140 15:45 12.03.2020
1132 Clouds 7 1022 70 16093 1.5 140 15:26 12.03.2020
1133 Clouds 6 1021 52 16093 5.04 102 14:41 12.03.2020
1134 Rain 6 1021 70 16093 3.1 50 14:23 12.03.2020
1135 Clouds 5 1021 70 16093 4.6 50 13:57 12.03.2020
1136 Clouds 5 1021 75 16093 2.6 90 13:36 12.03.2020
1137 Clouds 5 1021 65 16093 3.1 40 13:18 12.03.2020
1138 Clouds 4 1020 79 16093 3.11 97 12:41 12.03.2020
1139 Clouds 4 1020 79 16093 3.11 97 12:22 12.03.2020
1140 Clouds 3 1020 70 16093 3.6 50 11:57 12.03.2020
1141 Clouds 3 1020 65 16093 3.11 97 11:57 12.03.2020
1142 Clouds 3 1020 65 16093 3.11 97 11:38 12.03.2020
1143 Clouds 3 1020 69 16093 2.12 102 11:20 12.03.2020
1144 Clouds 3 1020 69 16093 3.6 60 10:58 12.03.2020
1145 Clouds 3 1019 69 16093 2.12 102 10:40 12.03.2020
1146 Clouds 3 1019 69 16093 2.12 102 10:22 12.03.2020
1147 Clear 3 1019 65 16093 2.12 102 09:46 12.03.2020
1148 Clear 3 1019 65 16093 2.12 102 09:27 12.03.2020
1149 Clear 3 1019 65 16093 2.12 102 08:45 12.03.2020
1150 Clear 4 1019 42 16093 2.96 142 08:20 12.03.2020
1151 Clouds 4 1019 60 16093 1.5 50 07:59 12.03.2020
1152 Clear 4 1019 56 16093 2.96 142 07:40 12.03.2020
1153 Clear 4 1019 39 16093 2.96 142 07:21 12.03.2020
1154 Clouds 5 1018 49 16093 2.96 142 05:51 12.03.2020
1155 Clouds 6 1020 42 16093 2.1 130 05:25 12.03.2020
1156 Clouds 8 1019 43 16093 2.21 165 02:43 12.03.2020
1157 Clouds 9 1019 37 16093 3.23 173 01:36 12.03.2020
1158 Clouds 10 1019 34 16093 1.5 50 01:18 12.03.2020
1159 Clouds 10 1018 34 16093 2.47 170 00:40 12.03.2020
1160 Clouds 11 1018 26 16093 2.47 170 23:51 11.03.2020
1161 Clouds 11 1018 26 16093 2.47 170 23:26 11.03.2020
1162 Clouds 12 1017 32 16093 1.45 181 22:55 11.03.2020
1163 Clouds 12 1018 30 16093 2.6 160 22:37 11.03.2020
1164 Clouds 12 1018 30 16093 2.6 160 22:37 11.03.2020
1165 Clouds 12 1019 32 16093 2.6 70 22:18 11.03.2020
1166 Clouds 12 1018 30 16093 1.45 181 21:41 11.03.2020
1167 Clouds 13 1018 30 16093 1.45 181 21:23 11.03.2020
1168 Clouds 13 1019 59 16093 4.1 190 20:59 11.03.2020
1169 Clear 12 1019 35 16093 1.5 0 20:40 11.03.2020
1170 Clear 12 1019 35 16093 1.5 0 20:20 11.03.2020
1171 Clouds 12 1019 34 16093 3.6 40 19:58 11.03.2020
1172 Clear 12 1019 32 16093 1.74 148 19:39 11.03.2020
1173 Clear 11 1019 32 16093 1.74 148 19:21 11.03.2020
1174 Clouds 11 1019 37 16093 2.1 0 18:56 11.03.2020
1175 Clear 11 1019 32 16093 2.6 120 18:36 11.03.2020
1176 Clear 11 1020 46 16093 2.6 80 18:18 11.03.2020
1177 Clear 11 1020 32 16093 1.74 148 17:40 11.03.2020
1178 Clear 10 1021 37 16093 1.5 0 17:21 11.03.2020
1179 Clouds 10 1020 39 16093 2.1 0 16:56 11.03.2020
1180 Clear 10 1021 46 16093 2.1 0 16:37 11.03.2020
1181 Clear 9 1021 43 16093 1.5 0 16:19 11.03.2020
1182 Clear 9 1021 45 16093 2.94 41 15:42 11.03.2020
1183 Clear 8 1021 45 16093 2.94 41 15:22 11.03.2020
1184 Clear 8 1021 56 16093 2.6 340 14:44 11.03.2020
1185 Clear 7 1021 56 16093 2.6 340 14:24 11.03.2020
1186 Clouds 7 1020 56 16093 4.1 340 13:59 11.03.2020
1187 Clear 6 1021 60 16093 5.54 338 13:40 11.03.2020
1188 Clear 6 1021 60 16093 5.54 338 13:21 11.03.2020
1189 Clouds 5 1020 56 16093 5.1 340 12:55 11.03.2020
1190 Clear 5 1020 63 16093 5.58 330 12:37 11.03.2020
1191 Clear 5 1020 56 16093 3.6 300 12:18 11.03.2020
1192 Clear 6 1019 63 16093 5.58 330 11:40 11.03.2020
1193 Clear 6 1019 52 16093 3.1 310 11:20 11.03.2020
1194 Clear 7 1019 67 16093 4.6 330 10:47 11.03.2020
1195 Clouds 8 1018 61 16093 5.7 300 10:20 11.03.2020
1196 Clouds 8 1018 66 16093 3.1 320 09:58 11.03.2020
1197 Clear 8 1018 61 16093 5.1 350 09:38 11.03.2020
1198 Clear 9 1018 61 16093 3.1 290 09:19 11.03.2020
1199 Clear 9 1018 61 16093 6.7 330 08:42 11.03.2020
1200 Clear 10 1018 61 16093 6.7 330 08:24 11.03.2020
1201 Clouds 10 1017 58 16093 6.7 330 07:47 11.03.2020
1202 Clouds 11 1017 58 16093 6.7 330 07:20 11.03.2020
1203 Clouds 12 1017 62 16093 6.2 350 06:50 11.03.2020
1204 Clouds 12 1017 62 16093 6.2 350 06:31 11.03.2020
1205 Clouds 14 1016 67 16093 5.1 330 05:32 11.03.2020
1206 Drizzle 14 1014 63 16093 7.2 280 03:26 11.03.2020
1207 Drizzle 14 1014 63 16093 7.2 280 03:26 11.03.2020
1208 Clouds 15 1013 55 16093 8.75 237 01:53 11.03.2020
1209 Clouds 15 1014 55 16093 1.5 0 01:23 11.03.2020
1210 Clouds 15 1013 52 16093 2.6 260 00:40 11.03.2020
1211 Clouds 15 1013 55 16093 5.7 220 23:50 10.03.2020
1212 Clouds 16 1014 59 16093 6.7 280 23:28 10.03.2020
1213 Clouds 17 1014 59 16093 6.7 280 22:58 10.03.2020
1214 Clouds 17 1014 59 16093 6.7 280 22:58 10.03.2020
1215 Clouds 17 1014 52 16093 5.1 270 22:37 10.03.2020
1216 Clouds 16 1014 59 16093 7.7 250 22:19 10.03.2020
1217 Clouds 17 1013 52 16093 8.7 230 21:56 10.03.2020
1218 Clouds 17 1014 52 16093 4.6 260 21:38 10.03.2020
1219 Clouds 17 1014 52 16093 4.6 260 21:19 10.03.2020
1220 Clouds 17 1014 48 16093 8.7 230 20:54 10.03.2020
1221 Clouds 17 1015 52 16093 2.6 250 20:36 10.03.2020
1222 Clouds 17 1016 48 16093 2.6 250 20:18 10.03.2020
1223 Clouds 17 1017 55 16093 7.2 260 19:42 10.03.2020
1224 Clouds 17 1017 55 16093 7.2 260 19:42 10.03.2020
1225 Clouds 17 1017 55 16093 7.2 260 19:23 10.03.2020
1226 Clouds 17 1017 59 16093 7.7 230 18:58 10.03.2020
1227 Rain 17 1018 55 16093 8.2 260 18:40 10.03.2020
1228 Rain 17 1018 55 16093 8.2 260 18:21 10.03.2020
1229 Clouds 16 1017 45 16093 6.2 230 17:56 10.03.2020
1230 Drizzle 16 1018 51 16093 5.1 250 17:37 10.03.2020
1231 Clouds 16 1019 42 16093 5.85 240 17:19 10.03.2020
1232 Clouds 15 1019 42 16093 4.6 290 16:38 10.03.2020
1233 Clear 15 1020 44 16093 2.1 250 16:18 10.03.2020
1234 Clear 14 1020 50 16093 4.6 260 15:44 10.03.2020
1235 Clouds 13 1021 54 16093 3.6 230 15:20 10.03.2020
1236 Clouds 13 1020 47 16093 7.2 220 14:59 10.03.2020
1237 Clear 12 1020 54 16093 4.6 260 14:40 10.03.2020
1238 Clear 11 1021 54 16093 6.2 240 14:19 10.03.2020
1239 Clear 10 1021 54 16093 3.6 270 13:45 10.03.2020
1240 Clear 10 1021 54 16093 3.6 270 13:27 10.03.2020
1241 Clouds 10 1020 47 16093 4.1 210 12:59 10.03.2020
1242 Clear 10 1021 53 16093 6.71 233 12:39 10.03.2020
1243 Clear 10 1021 50 16093 2.6 270 12:18 10.03.2020
1244 Clear 10 1021 50 16093 6.71 233 11:43 10.03.2020
1245 Clear 10 1022 46 16093 2.1 260 11:24 10.03.2020
1246 Clear 10 1022 46 16093 2.1 260 10:59 10.03.2020
1247 Clear 10 1021 72 16093 6.26 232 10:40 10.03.2020
1248 Clear 10 1021 72 16093 6.26 232 10:22 10.03.2020
1249 Clouds 10 1021 37 16093 3.6 210 09:56 10.03.2020
1250 Clear 10 1022 72 16093 6.26 232 09:37 10.03.2020
1251 Clear 10 1023 35 16093 5.1 250 09:18 10.03.2020
1252 Clear 11 1023 72 16093 6.26 232 08:45 10.03.2020
1253 Clear 11 1023 35 16093 4.6 240 08:26 10.03.2020
1254 Clear 11 1023 66 16093 5.93 236 07:46 10.03.2020
1255 Clear 11 1023 66 16093 5.93 236 07:28 10.03.2020
1256 Clear 12 1024 66 16093 5.93 236 06:42 10.03.2020
1257 Clear 12 1024 66 16093 5.93 236 06:23 10.03.2020
1258 Clear 12 1024 45 16093 5.93 236 05:39 10.03.2020
1259 Clear 13 1025 30 16093 6.46 222 04:37 10.03.2020
1260 Clear 13 1025 23 16093 6.46 222 03:35 10.03.2020
1261 Clear 14 1025 23 16093 6.46 222 02:26 10.03.2020
1262 Clear 15 1025 29 16093 6.2 270 01:20 10.03.2020
1263 Clear 15 1024 22 16093 5.82 231 00:41 10.03.2020
1264 Clear 17 1024 27 16093 5.7 280 00:22 10.03.2020
1265 Clear 17 1023 19 16093 3.1 260 23:40 09.03.2020
1266 Clear 19 1024 22 16093 5.7 270 23:21 09.03.2020
1267 Clear 19 1024 18 16093 2.1 230 22:41 09.03.2020
1268 Clear 19 1024 18 16093 2.1 230 22:22 09.03.2020
1269 Clouds 20 1023 14 16093 6.7 240 21:57 09.03.2020
1270 Clear 20 1024 16 16093 2.6 250 21:39 09.03.2020
1271 Clear 20 1025 14 16093 5.87 239 21:20 09.03.2020
1272 Clouds 20 1024 14 16093 6.2 230 20:56 09.03.2020
1273 Clear 20 1025 15 16093 4.1 280 20:37 09.03.2020
1274 Clear 20 1025 21 16093 4.1 250 20:19 09.03.2020
1275 Clear 19 1025 18 16093 2.6 250 19:44 09.03.2020
1276 Clear 20 1025 18 16093 2.6 250 19:25 09.03.2020
1277 Clouds 19 1025 16 16093 7.2 240 18:58 09.03.2020
1278 Clouds 19 1025 16 16093 7.2 240 18:58 09.03.2020
1279 Clear 19 1027 20 16093 5.1 280 18:38 09.03.2020
1280 Clear 19 1027 25 16093 4.1 270 18:20 09.03.2020
1281 Clear 18 1026 22 16093 6.2 220 17:57 09.03.2020
1282 Clear 18 1027 25 16093 6.7 290 17:38 09.03.2020
1283 Clear 16 1028 33 16093 4.1 260 17:20 09.03.2020
1284 Clear 14 1028 33 16093 4.1 260 16:58 09.03.2020
1285 Clear 13 1028 30 16093 3.1 280 16:39 09.03.2020
1286 Clear 13 1028 30 16093 3.1 280 16:21 09.03.2020
1287 Clouds 13 1028 30 16093 2.6 220 15:58 09.03.2020
1288 Clouds 13 1028 30 16093 2.6 220 15:58 09.03.2020
1289 Clear 12 1029 34 16093 2.1 0 15:38 09.03.2020
1290 Haze 11 1029 49 9656 3.1 240 15:20 09.03.2020
1291 Clear 10 1029 39 16093 1.5 280 14:55 09.03.2020
1292 Clear 9 1029 39 16093 1.5 280 14:37 09.03.2020
1293 Clear 8 1029 52 16093 3.1 250 14:18 09.03.2020
1294 Clear 7 1029 48 16093 6 241 13:55 09.03.2020
1295 Clear 7 1029 48 16093 6 241 13:37 09.03.2020
1296 Clear 6 1029 52 16093 3.1 270 13:18 09.03.2020
1297 Clear 6 1029 52 16093 3.1 270 13:18 09.03.2020
1298 Clear 6 1029 56 16093 5.67 241 12:42 09.03.2020
1299 Clear 6 1029 52 16093 3.1 270 12:22 09.03.2020
1300 Clear 6 1029 52 16093 3.1 270 12:22 09.03.2020
1301 Clear 6 1029 48 16093 5.67 241 11:54 09.03.2020
1302 Clear 6 1029 52 16093 3.1 270 11:36 09.03.2020
1303 Clear 6 1029 52 16093 3.1 270 11:18 09.03.2020
1304 Clear 6 1029 48 16093 5.85 243 10:54 09.03.2020
1305 Clear 6 1028 45 16093 4.1 270 10:36 09.03.2020
1306 Clear 7 1028 45 16093 4.1 270 10:18 09.03.2020
1307 Clear 7 1028 45 16093 3.6 280 09:38 09.03.2020
1308 Clear 7 1028 45 16093 3.6 280 09:19 09.03.2020
1309 Clear 7 1029 39 16093 5.85 243 08:44 09.03.2020
1310 Clear 7 1029 36 16093 5.7 270 08:25 09.03.2020
1311 Clear 8 1029 36 16093 5.98 238 07:42 09.03.2020
1312 Clear 8 1029 36 16093 5.7 270 07:22 09.03.2020
1313 Clear 8 1029 31 16093 2.1 280 06:46 09.03.2020
1314 Clear 8 1029 34 16093 5.1 270 06:27 09.03.2020
1315 Clear 8 1029 29 16093 5.98 238 05:58 09.03.2020
1316 Clear 9 1029 34 16093 5.1 280 05:39 09.03.2020
1317 Clear 9 1029 25 16093 4.1 270 04:43 09.03.2020
1318 Clear 9 1029 34 16093 4.1 270 04:22 09.03.2020
1319 Clear 10 1029 37 16093 4.1 270 03:28 09.03.2020
1320 Clear 11 1028 27 16093 6.04 249 01:50 09.03.2020
1321 Clear 12 1027 34 16093 5.1 260 00:40 09.03.2020
1322 Clear 12 1027 34 16093 5.1 260 00:22 09.03.2020
1323 Clear 12 1027 30 16093 4.6 260 23:53 08.03.2020
1324 Clear 13 1027 30 16093 4.6 260 23:25 08.03.2020
1325 Clear 14 1027 26 16093 4.1 260 22:58 08.03.2020
1326 Clear 14 1027 22 16093 4.6 290 22:39 08.03.2020
1327 Clear 14 1027 24 16093 4.6 260 22:21 08.03.2020
1328 Clear 14 1027 21 16093 3.1 270 21:57 08.03.2020
1329 Clear 14 1027 21 16093 3.1 270 21:38 08.03.2020
1330 Clear 14 1028 21 16093 5.1 260 21:19 08.03.2020
1331 Clouds 14 1028 22 16093 5.7 260 20:56 08.03.2020
1332 Clear 14 1028 19 16093 5.1 280 20:37 08.03.2020
1333 Clouds 13 1028 18 16093 5.7 230 20:18 08.03.2020
1334 Clear 13 1029 22 16093 2.1 250 19:37 08.03.2020
1335 Clear 12 1030 27 16093 5.1 260 19:19 08.03.2020
1336 Clear 11 1030 23 16093 3.1 270 18:43 08.03.2020
1337 Clouds 11 1031 37 16093 2.6 230 18:24 08.03.2020
1338 Clouds 10 1031 23 16093 5.22 258 17:57 08.03.2020
1339 Clouds 10 1031 27 16093 3.6 290 17:39 08.03.2020
1340 Clouds 8 1031 24 16093 4.1 280 17:20 08.03.2020
1341 Clouds 8 1031 24 16093 4.1 280 16:55 08.03.2020
1342 Clouds 8 1032 31 16093 5.31 261 16:36 08.03.2020
1343 Clouds 7 1032 31 16093 5.31 261 16:18 08.03.2020
1344 Clear 6 1033 33 16093 3.1 310 15:41 08.03.2020
1345 Clear 5 1033 33 16093 3.1 310 15:21 08.03.2020
1346 Clouds 5 1033 38 16093 4.1 260 14:56 08.03.2020
1347 Clear 4 1033 37 16093 5.31 261 14:37 08.03.2020
1348 Clear 3 1033 37 16093 4.48 278 14:19 08.03.2020
1349 Clear 1 1033 47 16093 4.48 278 13:41 08.03.2020
1350 Clear 0 1032 37 16093 1.5 0 13:20 08.03.2020
1351 Clear 0 1032 55 16093 5.61 267 12:43 08.03.2020
1352 Clouds 0 1032 47 16093 2.6 0 12:25 08.03.2020
1353 Clouds 0 1032 55 16093 5.61 267 11:58 08.03.2020
1354 Clouds 0 1032 55 16093 5.61 267 11:39 08.03.2020
1355 Clouds 0 1032 55 16093 5.61 267 11:39 08.03.2020
1356 Clear 0 1031 51 16093 2.6 250 11:21 08.03.2020
1357 Clear 0 1031 51 16093 2.6 250 11:21 08.03.2020
1358 Clouds 0 1031 43 16093 5.87 283 10:42 08.03.2020
1359 Clouds 0 1031 43 16093 5.87 283 10:23 08.03.2020
1360 Clouds 0 1030 58 16093 5.87 283 09:58 08.03.2020
1361 Clear 0 1031 51 16093 5.87 283 09:37 08.03.2020
1362 Clear 0 1031 51 16093 5.87 283 09:18 08.03.2020
1363 Clear 0 1030 51 16093 5.87 283 08:41 08.03.2020
1364 Clear 0 1030 34 16093 3.6 300 08:20 08.03.2020
1365 Clear 0 1031 40 16093 5.79 317 07:45 08.03.2020
1366 Clear 1 1030 40 16093 2.1 0 07:25 08.03.2020
1367 Clear 1 1030 40 16093 5.79 317 06:43 08.03.2020
1368 Clear 1 1030 44 16093 2.1 0 06:23 08.03.2020
1369 Clear 2 1030 43 16093 5.79 317 05:41 08.03.2020
1370 Clear 3 1029 32 16093 5.1 310 03:52 08.03.2020
1371 Clear 3 1029 32 16093 5.1 310 03:52 08.03.2020
1372 Clear 4 1029 27 16093 8.08 332 02:38 08.03.2020
1373 Clear 5 1028 22 16093 9.17 330 01:35 08.03.2020
1374 Clear 5 1028 19 16093 4.1 290 00:58 08.03.2020
1375 Clear 6 1027 22 16093 4.6 330 00:28 08.03.2020
1376 Clear 6 1026 16 16093 4.6 350 23:48 07.03.2020
1377 Clear 7 1026 17 16093 2.6 0 23:26 07.03.2020
1378 Clear 7 1026 17 16093 2.6 0 22:58 07.03.2020
1379 Clear 8 1025 15 16093 3.6 20 22:37 07.03.2020
1380 Clear 8 1025 15 16093 3.6 20 22:19 07.03.2020
1381 Clear 8 1025 18 16093 6.2 330 21:43 07.03.2020
1382 Clear 8 1025 18 16093 6.2 330 21:43 07.03.2020
1383 Clear 8 1024 18 16093 2.6 0 21:22 07.03.2020
1384 Clear 7 1024 15 16093 3.1 0 20:41 07.03.2020
1385 Clouds 8 1025 20 16093 7.2 340 20:41 07.03.2020
1386 Clear 7 1024 15 16093 3.1 0 20:21 07.03.2020
1387 Clear 7 1024 20 16093 5.7 350 19:42 07.03.2020
1388 Clear 7 1024 17 16093 4.1 360 19:23 07.03.2020
1389 Clear 6 1024 28 16093 6.7 330 18:59 07.03.2020
1390 Clear 6 1024 26 16093 3.1 0 18:39 07.03.2020
1391 Clear 6 1024 26 16093 3.1 0 18:21 07.03.2020
1392 Clear 5 1024 32 16093 7.7 350 17:42 07.03.2020
1393 Clear 4 1023 35 16093 1.5 0 17:20 07.03.2020
1394 Clear 4 1023 38 16093 7.7 330 16:57 07.03.2020
1395 Clear 4 1023 38 16093 7.7 330 16:39 07.03.2020
1396 Clear 3 1022 41 16093 3.6 310 16:21 07.03.2020
1397 Clouds 3 1023 48 16093 5.7 330 15:55 07.03.2020
1398 Clouds 3 1021 69 16093 2.6 0 15:37 07.03.2020
1399 Clouds 3 1021 69 16093 2.6 0 15:37 07.03.2020
1400 Clouds 2 1021 69 16093 2.6 0 15:19 07.03.2020
1401 Clouds 2 1021 59 16093 6.2 360 14:44 07.03.2020
1402 Clouds 2 1020 74 16093 2.1 0 14:23 07.03.2020
1403 Clouds 2 1020 64 16093 8.2 320 13:55 07.03.2020
1404 Clouds 2 1019 74 16093 9.79 335 13:37 07.03.2020
1405 Clouds 2 1019 74 16093 8.86 346 13:18 07.03.2020
1406 Clouds 2 1018 74 16093 6.2 360 12:39 07.03.2020
1407 Clouds 2 1018 74 16093 6.2 360 12:19 07.03.2020
1408 Clouds 2 1018 74 16093 6.2 350 11:56 07.03.2020
1409 Clear 2 1017 73 16093 2.1 0 11:37 07.03.2020
1410 Clear 2 1017 69 16093 2.1 0 11:19 07.03.2020
1411 Clouds 2 1016 69 16093 2.1 0 10:39 07.03.2020
1412 Clouds 2 1016 69 16093 2.1 0 10:20 07.03.2020
1413 Rain 2 1016 69 16093 8.43 355 09:56 07.03.2020
1414 Rain 2 1015 80 16093 1.5 0 09:37 07.03.2020
1415 Rain 3 1015 80 16093 1.5 0 09:18 07.03.2020
1416 Rain 3 1015 80 16093 1.5 0 08:43 07.03.2020
1417 Rain 3 1015 86 16093 2.6 0 08:20 07.03.2020
1418 Rain 3 1014 86 16093 3.6 330 07:49 07.03.2020
1419 Rain 3 1014 86 16093 1.5 140 07:22 07.03.2020
1420 Rain 3 1013 86 16093 4.1 330 06:54 07.03.2020
1421 Rain 3 1013 86 16093 4.1 330 06:29 07.03.2020
1422 Rain 3 1013 70 16093 6.2 350 05:50 07.03.2020
1423 Rain 3 1012 86 16093 4.6 40 04:40 07.03.2020
1424 Drizzle 3 1011 93 16093 9.61 34 02:46 07.03.2020
1425 Drizzle 3 1011 93 16093 9.61 34 02:24 07.03.2020
1426 Rain 4 1011 93 9656 6.2 20 01:23 07.03.2020
1427 Rain 4 1010 93 8047 2.6 0 00:38 07.03.2020
1428 Rain 4 1010 93 8047 2.6 0 00:19 07.03.2020
1429 Rain 4 1009 80 16093 2.1 0 23:43 06.03.2020
1430 Rain 4 1009 80 16093 2.1 0 23:25 06.03.2020
1431 Rain 5 1009 80 16093 3.1 0 22:47 06.03.2020
1432 Rain 5 1009 81 9656 2.6 0 22:21 06.03.2020
1433 Rain 5 1009 80 8047 3.6 40 21:55 06.03.2020
1434 Rain 5 1009 93 3219 2.6 0 21:37 06.03.2020
1435 Rain 5 1009 93 3219 2.6 0 21:18 06.03.2020
1436 Rain 5 1009 86 9656 6.7 20 20:37 06.03.2020
1437 Rain 6 1009 86 9656 6.7 20 20:19 06.03.2020
1438 Rain 6 1009 75 16093 6.2 30 19:45 06.03.2020
1439 Rain 6 1010 81 11265 4.6 50 19:26 06.03.2020
1440 Clouds 6 1011 70 16093 5.1 30 18:57 06.03.2020
1441 Rain 7 1010 70 16093 3.6 20 18:38 06.03.2020
1442 Clouds 7 1011 70 16093 4.1 50 18:19 06.03.2020
1443 Clouds 7 1011 61 16093 3.1 100 17:42 06.03.2020
1444 Clouds 7 1012 70 16093 3.1 0 17:23 06.03.2020
1445 Clouds 7 1011 65 16093 4.1 50 16:59 06.03.2020
1446 Clouds 7 1012 65 16093 4.1 100 16:40 06.03.2020
1447 Clouds 6 1012 65 16093 4.1 100 16:20 06.03.2020
1448 Clouds 6 1013 75 16093 4.1 100 15:45 06.03.2020
1449 Clouds 6 1013 75 16093 4.1 110 15:24 06.03.2020
1450 Mist 5 1014 86 8047 1.5 10 14:55 06.03.2020
1451 Clear 5 1014 81 16093 4.6 30 14:37 06.03.2020
1452 Clear 4 1014 81 16093 4.6 30 14:18 06.03.2020
1453 Clear 3 1014 80 16093 4.1 90 13:41 06.03.2020
1454 Mist 2 1015 86 9656 2.6 50 13:21 06.03.2020
1455 Clouds 1 1014 86 11265 5.7 60 12:56 06.03.2020
1456 Clear 2 1014 80 16093 3.6 40 12:37 06.03.2020
1457 Clear 1 1014 80 16093 3.6 40 12:19 06.03.2020
1458 Clear 1 1014 86 16093 5.97 105 11:56 06.03.2020
1459 Clear 2 1014 75 16093 5.97 105 11:38 06.03.2020
1460 Clear 2 1014 74 16093 4.08 147 11:19 06.03.2020
1461 Clear 2 1016 74 16093 4.08 147 10:38 06.03.2020
1462 Clear 2 1016 74 16093 4.08 147 10:20 06.03.2020
1463 Clear 2 1016 74 16093 4.08 147 09:55 06.03.2020
1464 Clear 3 1016 80 16093 4.08 147 09:36 06.03.2020
1465 Clear 3 1016 80 16093 4.08 147 09:18 06.03.2020
1466 Clear 3 1017 80 16093 4.08 147 08:43 06.03.2020
1467 Clear 4 1018 75 16093 4.08 147 08:25 06.03.2020
1468 Clear 4 1018 75 16093 4.78 178 07:57 06.03.2020
1469 Clear 4 1018 75 16093 4.78 178 07:37 06.03.2020
1470 Clear 4 1019 75 16093 4.78 178 06:56 06.03.2020
1471 Clear 4 1019 75 16093 4.78 178 06:38 06.03.2020
1472 Clear 4 1018 75 16093 4.78 178 05:42 06.03.2020
1473 Clear 4 1018 75 16093 4.78 178 05:24 06.03.2020
1474 Clear 4 1019 75 16093 6.11 174 04:57 06.03.2020
1475 Clear 5 1020 56 16093 1.5 160 01:59 06.03.2020
1476 Clear 6 1020 56 16093 1.5 160 01:39 06.03.2020
1477 Clear 6 1020 52 16093 2.6 160 01:20 06.03.2020
1478 Clear 7 1020 49 16093 1.5 150 00:32 06.03.2020
1479 Clear 8 1019 29 16093 6.65 176 23:57 05.03.2020
1480 Clear 9 1019 25 16093 2.6 270 23:39 05.03.2020
1481 Clear 9 1019 25 16093 2.6 270 23:19 05.03.2020
1482 Clear 10 1019 29 16093 4.1 280 22:40 05.03.2020
1483 Clear 10 1019 29 16093 4.1 280 22:22 05.03.2020
1484 Clear 11 1019 29 16093 4.15 164 21:57 05.03.2020
1485 Clear 10 1019 29 16093 4.15 164 21:38 05.03.2020
1486 Clear 10 1019 29 16093 4.15 164 21:20 05.03.2020
1487 Clear 10 1019 32 16093 2.1 300 20:58 05.03.2020
1488 Clear 10 1019 32 16093 2.1 300 20:58 05.03.2020
1489 Clear 10 1019 32 16093 2.1 300 20:39 05.03.2020
1490 Clear 10 1020 31 16093 2.6 320 20:20 05.03.2020
1491 Clear 10 1020 31 16093 0.89 188 19:58 05.03.2020
1492 Clear 10 1020 31 16093 0.89 188 19:39 05.03.2020
1493 Clear 10 1020 31 16093 0.89 188 19:39 05.03.2020
1494 Clear 10 1020 31 16093 0.89 188 19:19 05.03.2020
1495 Clear 9 1020 34 16093 3.1 300 18:55 05.03.2020
1496 Clear 9 1021 36 16093 0.89 188 18:36 05.03.2020
1497 Clear 9 1021 36 16093 0.89 188 18:18 05.03.2020
1498 Clear 8 1021 36 16093 2.6 310 17:42 05.03.2020
1499 Clear 7 1021 39 16093 4.1 330 17:22 05.03.2020
1500 Clear 7 1022 36 16093 3.1 10 16:59 05.03.2020
1501 Clear 7 1022 36 16093 3.1 10 16:41 05.03.2020
1502 Clear 6 1021 39 16093 4.1 330 16:21 05.03.2020
1503 Clear 6 1021 41 16093 2.6 360 15:45 05.03.2020
1504 Clear 6 1021 41 16093 5.7 340 15:24 05.03.2020
1505 Clear 5 1021 41 16093 4.6 350 14:59 05.03.2020
1506 Clear 5 1021 48 16093 4.1 360 14:41 05.03.2020
1507 Clear 5 1021 48 16093 4.1 360 14:22 05.03.2020
1508 Clear 4 1021 48 16093 3.1 360 13:57 05.03.2020
1509 Clear 3 1020 55 16093 3.1 330 13:38 05.03.2020
1510 Clear 3 1020 55 16093 3.1 330 13:20 05.03.2020
1511 Clear 3 1019 55 16093 3.6 350 12:42 05.03.2020
1512 Clear 3 1018 55 16093 8.46 334 12:21 05.03.2020
1513 Clear 3 1018 55 16093 8.46 334 11:57 05.03.2020
1514 Clear 3 1018 55 16093 8.46 334 11:38 05.03.2020
1515 Clear 4 1018 55 16093 4.1 340 11:19 05.03.2020
1516 Clear 4 1018 52 16093 3.6 330 10:58 05.03.2020
1517 Clear 4 1017 52 16093 4.6 330 10:40 05.03.2020
1518 Clear 4 1017 52 16093 4.6 330 10:40 05.03.2020
1519 Clear 4 1017 52 16093 4.6 330 10:21 05.03.2020
1520 Clear 5 1017 52 16093 5.7 320 09:59 05.03.2020
1521 Clear 5 1017 52 16093 5.7 320 09:40 05.03.2020
1522 Clear 5 1016 48 16093 4.6 350 09:19 05.03.2020
1523 Clear 5 1016 52 16093 4.6 340 08:42 05.03.2020
1524 Clear 6 1016 52 16093 7.7 310 08:22 05.03.2020
1525 Clear 6 1015 74 16093 4.6 330 07:44 05.03.2020
1526 Clear 6 1014 74 16093 3.1 320 07:22 05.03.2020
1527 Clear 6 1014 65 16093 3.6 320 06:45 05.03.2020
1528 Clear 7 1013 61 16093 6.2 320 06:21 05.03.2020
1529 Clouds 7 1012 53 16093 5.1 310 05:37 05.03.2020
1530 Rain 8 1012 53 16093 3.6 310 04:25 05.03.2020
1531 Clouds 9 1012 50 16093 3.1 290 03:58 05.03.2020
1532 Clouds 9 1012 53 16093 4.6 300 03:18 05.03.2020
1533 Clouds 10 1011 43 16093 5.1 310 01:28 05.03.2020
1534 Clouds 10 1011 37 16093 5.31 262 00:58 05.03.2020
1535 Clear 11 1010 37 16093 5.1 300 00:23 05.03.2020
1536 Rain 12 1009 34 16093 6.2 300 23:41 04.03.2020
1537 Rain 12 1009 32 16093 6.7 300 23:22 04.03.2020
1538 Clear 13 1008 28 16093 7.7 280 22:57 04.03.2020
1539 Clear 13 1008 28 16093 7.7 280 22:39 04.03.2020
1540 Clear 13 1008 28 16093 7.7 280 22:19 04.03.2020
1541 Clear 13 1008 28 16093 8.2 280 21:57 04.03.2020
1542 Clear 13 1008 30 16093 9.3 270 21:38 04.03.2020
1543 Clear 13 1008 30 16093 9.3 270 21:19 04.03.2020
1544 Clear 13 1008 30 16093 9.8 290 20:54 04.03.2020
1545 Clear 13 1008 32 16093 7.2 260 20:36 04.03.2020
1546 Clear 13 1008 32 16093 7.2 260 20:18 04.03.2020
1547 Clear 12 1008 32 16093 7.7 290 19:42 04.03.2020
1548 Clear 12 1008 32 16093 7.7 290 19:22 04.03.2020
1549 Clear 12 1008 32 16093 8.7 290 18:54 04.03.2020
1550 Clear 11 1009 32 16093 9.8 300 18:36 04.03.2020
1551 Clear 11 1009 32 16093 9.8 300 18:18 04.03.2020
1552 Clear 11 1009 32 16093 11.8 290 17:40 04.03.2020
1553 Clear 10 1009 37 16093 10.3 300 17:21 04.03.2020
1554 Clear 10 1009 37 16093 10.8 300 16:59 04.03.2020
1555 Clear 10 1009 37 16093 10.8 300 16:40 04.03.2020
1556 Clear 9 1008 39 16093 2.1 0 16:22 04.03.2020
1557 Clouds 9 1009 45 16093 7.2 270 15:55 04.03.2020
1558 Clear 9 1009 42 16093 9.8 290 15:36 04.03.2020
1559 Clear 8 1009 42 16093 9.8 290 15:18 04.03.2020
1560 Clear 8 1009 45 16093 8.7 300 14:41 04.03.2020
1561 Clear 8 1008 42 16093 9.8 290 14:21 04.03.2020
1562 Clear 7 1008 45 16093 9.8 290 13:59 04.03.2020
1563 Clear 7 1008 45 16093 9.8 290 13:39 04.03.2020
1564 Clear 7 1007 69 16093 7.7 280 13:21 04.03.2020
1565 Clear 7 1007 69 16093 7.7 280 13:21 04.03.2020
1566 Clear 7 1007 69 16093 6.7 280 12:59 04.03.2020
1567 Clear 7 1007 69 16093 6.7 280 12:41 04.03.2020
1568 Clouds 7 1006 61 16093 4.6 280 12:23 04.03.2020
1569 Clear 7 1005 61 16093 4.1 280 11:55 04.03.2020
1570 Clear 7 1005 61 16093 4.1 280 11:37 04.03.2020
1571 Clear 7 1005 61 16093 4.1 270 11:19 04.03.2020
1572 Clear 7 1004 61 16093 3.6 270 10:44 04.03.2020
1573 Clear 7 1004 65 16093 5.1 280 10:25 04.03.2020
1574 Clear 7 1003 61 16093 5.1 280 09:56 04.03.2020
1575 Clear 7 1003 61 16093 7.7 290 09:38 04.03.2020
1576 Clear 8 1003 61 16093 7.7 290 09:18 04.03.2020
1577 Clear 8 1002 61 16093 6.7 290 08:41 04.03.2020
1578 Clear 8 1001 65 16093 4.1 260 08:23 04.03.2020
1579 Clear 8 1002 61 16093 6.2 300 07:48 04.03.2020
1580 Clear 8 1001 61 16093 7.2 300 07:29 04.03.2020
1581 Rain 9 1001 66 16093 7.7 300 06:53 04.03.2020
1582 Rain 9 1000 71 16093 7.2 300 06:26 04.03.2020
1583 Rain 10 1000 76 16093 6.7 290 05:59 04.03.2020
1584 Rain 10 999 76 16093 5.1 280 05:28 04.03.2020
1585 Rain 10 998 87 9656 2.6 270 03:57 04.03.2020
1586 Rain 10 998 87 4828 2.1 270 03:35 04.03.2020
1587 Clouds 10 998 93 11265 8.37 213 02:58 04.03.2020
1588 Clouds 10 998 87 16093 2.6 270 02:30 04.03.2020
1589 Rain 10 998 93 11265 6.37 208 01:56 04.03.2020
1590 Rain 10 999 87 16093 3.6 280 01:37 04.03.2020
1591 Rain 9 999 93 16093 2.6 0 00:42 04.03.2020
1592 Rain 9 999 93 16093 2.6 0 00:22 04.03.2020
1593 Drizzle 9 999 93 6437 7.09 201 23:43 03.03.2020
1594 Rain 9 1000 81 11265 4.6 170 23:24 03.03.2020
1595 Rain 9 1000 87 11265 2.6 160 22:56 03.03.2020
1596 Rain 9 1000 87 6437 3.1 0 22:37 03.03.2020
1597 Rain 10 1000 87 8047 3.1 130 22:19 03.03.2020
1598 Rain 10 1001 87 6437 2.6 140 21:55 03.03.2020
1599 Rain 10 1002 81 11265 3.1 150 21:36 03.03.2020
1600 Rain 11 1002 81 11265 3.1 150 21:18 03.03.2020
1601 Rain 12 1003 62 16093 4.1 150 20:40 03.03.2020
1602 Rain 13 1003 62 16093 4.1 150 20:19 03.03.2020
1603 Rain 13 1003 62 16093 4.1 150 20:19 03.03.2020
1604 Clouds 13 1003 58 16093 3.6 150 19:57 03.03.2020
1605 Clear 13 1004 58 16093 3.6 140 19:37 03.03.2020
1606 Clear 14 1004 58 16093 3.6 140 19:19 03.03.2020
1607 Clear 14 1005 62 16093 3.1 140 18:58 03.03.2020
1608 Clear 14 1006 58 16093 3.1 160 18:40 03.03.2020
1609 Clear 14 1006 58 16093 3.1 160 18:20 03.03.2020
1610 Clear 14 1007 62 16093 3.1 150 17:56 03.03.2020
1611 Clear 14 1007 58 16093 2.6 190 17:37 03.03.2020
1612 Clear 14 1007 58 16093 2.6 190 17:19 03.03.2020
1613 Clear 14 1007 62 16093 2.6 180 16:56 03.03.2020
1614 Clear 14 1007 62 16093 2.6 180 16:37 03.03.2020
1615 Clear 13 1008 67 16093 1.48 215 16:18 03.03.2020
1616 Clear 13 1008 67 16093 2.6 170 15:43 03.03.2020
1617 Clear 12 1008 71 16093 1.48 215 15:22 03.03.2020
1618 Clear 11 1008 76 16093 1.48 215 14:57 03.03.2020
1619 Clear 10 1008 81 16093 1.48 215 14:37 03.03.2020
1620 Clear 9 1008 81 16093 4.13 260 14:19 03.03.2020
1621 Clear 9 1009 81 16093 2.1 280 13:56 03.03.2020
1622 Clear 8 1009 81 16093 2.1 280 13:38 03.03.2020
1623 Clear 8 1009 87 16093 2.6 310 13:19 03.03.2020
1624 Clear 7 1009 81 16093 2.6 280 12:43 03.03.2020
1625 Clear 8 1008 81 16093 2.6 280 12:24 03.03.2020
1626 Clear 8 1008 81 16093 2.6 280 12:24 03.03.2020
1627 Clear 8 1008 81 16093 4.13 260 11:56 03.03.2020
1628 Clear 8 1008 81 16093 4.13 260 11:37 03.03.2020
1629 Clear 8 1008 81 16093 4.03 234 11:18 03.03.2020
1630 Clear 8 1008 81 16093 4.03 234 10:55 03.03.2020
1631 Clear 9 1008 81 16093 4.03 234 10:37 03.03.2020
1632 Clouds 9 1008 76 16093 4.03 234 10:18 03.03.2020
1633 Clouds 9 1008 76 16093 4.03 234 10:18 03.03.2020
1634 Rain 9 1008 76 16093 4.03 234 09:43 03.03.2020
1635 Rain 9 1008 76 16093 4.03 234 09:22 03.03.2020
1636 Drizzle 9 1008 76 16093 4.03 234 08:56 03.03.2020
1637 Drizzle 9 1008 76 16093 4.03 234 08:37 03.03.2020
1638 Rain 10 1008 66 16093 1.5 280 08:19 03.03.2020
1639 Rain 10 1009 62 16093 2.1 270 07:42 03.03.2020
1640 Rain 10 1009 54 16093 3.1 280 07:19 03.03.2020
1641 Drizzle 10 1009 54 16093 7.41 236 06:41 03.03.2020
1642 Rain 11 1009 54 16093 4.1 260 06:22 03.03.2020
1643 Rain 11 1009 54 16093 4.1 260 06:22 03.03.2020
1644 Clouds 11 1008 47 16093 2.1 230 05:46 03.03.2020
1645 Clouds 12 1008 47 16093 2.6 250 04:58 03.03.2020
1646 Clouds 12 1008 47 16093 2.1 210 03:52 03.03.2020
1647 Clouds 12 1009 44 16093 3.6 210 01:40 03.03.2020
1648 Clouds 11 1009 65 16093 2.1 250 00:48 03.03.2020
1649 Clouds 10 1009 54 16093 3.6 240 00:26 03.03.2020
1650 Clear 10 1009 54 16093 2.1 160 23:57 02.03.2020
1651 Clear 11 1009 54 16093 2.1 160 23:38 02.03.2020
1652 Clear 12 1008 67 16093 2.6 210 23:19 02.03.2020
1653 Clear 13 1009 67 16093 3.1 210 22:54 02.03.2020
1654 Clear 13 1009 67 16093 3.1 210 22:36 02.03.2020
1655 Clear 13 1009 67 16093 3.1 200 22:18 02.03.2020
1656 Clear 14 1009 27 16093 2.6 190 21:41 02.03.2020
1657 Clear 14 1010 29 16093 1.5 200 21:23 02.03.2020
1658 Clear 14 1011 29 16093 6.42 192 20:58 02.03.2020
1659 Clear 14 1011 29 16093 6.42 192 20:39 02.03.2020
1660 Clear 13 1012 44 16093 2.6 0 20:20 02.03.2020
1661 Clear 13 1012 29 16093 4.47 188 19:56 02.03.2020
1662 Clear 13 1013 30 16093 3.1 250 19:37 02.03.2020
1663 Clear 13 1013 30 16093 3.1 250 19:19 02.03.2020
1664 Clear 13 1014 33 16093 2.6 200 18:45 02.03.2020
1665 Clear 12 1015 32 16093 1.5 240 18:20 02.03.2020
1666 Clear 11 1015 34 16093 2.1 250 17:59 02.03.2020
1667 Clear 11 1015 34 16093 2.1 250 17:59 02.03.2020
1668 Clear 11 1015 34 16093 2.1 250 17:41 02.03.2020
1669 Clear 10 1016 37 16093 2.1 260 17:21 02.03.2020
1670 Clear 10 1016 37 16093 2.1 260 17:21 02.03.2020
1671 Clear 10 1016 37 16093 2.1 260 17:21 02.03.2020
1672 Clear 9 1016 37 16093 1.5 250 16:56 02.03.2020
1673 Clear 9 1017 45 16093 4.97 214 16:38 02.03.2020
1674 Clear 8 1017 45 16093 4.97 214 16:20 02.03.2020
1675 Rain 8 1017 52 16093 3.6 270 15:44 02.03.2020
1676 Rain 7 1018 56 16093 1.5 240 15:20 02.03.2020
1677 Clouds 6 1018 68 16093 4.97 214 14:56 02.03.2020
1678 Clear 5 1018 75 16093 6.7 290 14:37 02.03.2020
1679 Clear 5 1018 75 16093 6.7 290 14:37 02.03.2020
1680 Clear 3 1018 75 16093 6.7 290 14:18 02.03.2020
1681 Clear 2 1018 64 16093 6.88 212 13:40 02.03.2020
1682 Clear 1 1018 76 16093 6.89 211 13:19 02.03.2020
1683 Clear 1 1018 76 16093 6.89 211 12:57 02.03.2020
1684 Clear 1 1018 76 16093 6.89 211 12:57 02.03.2020
1685 Clear 0 1019 76 16093 6.89 211 12:39 02.03.2020
1686 Clear 0 1019 76 16093 6.89 211 12:18 02.03.2020
1687 Clear 0 1019 76 16093 6.89 211 11:38 02.03.2020
1688 Clear 0 1019 56 16093 6.51 194 11:19 02.03.2020
1689 Clear 0 1019 100 16093 6.51 194 10:55 02.03.2020
1690 Clear 0 1020 44 16093 2.1 0 10:37 02.03.2020
1691 Clear 0 1020 44 16093 2.1 0 10:18 02.03.2020
1692 Clear 0 1020 47 16093 6.51 194 09:47 02.03.2020
1693 Clear -1 1020 50 16093 6.51 194 09:28 02.03.2020
1694 Clear 0 1021 50 16093 6.51 194 08:48 02.03.2020
1695 Clear 0 1021 50 16093 4.64 212 08:22 02.03.2020
1696 Clouds 0 1021 47 16093 4.64 212 07:51 02.03.2020
1697 Clear 0 1022 51 16093 1.5 270 07:31 02.03.2020
1698 Clouds 0 1021 92 16093 4.64 212 06:50 02.03.2020
1699 Clear 0 1022 51 16093 4.64 212 06:25 02.03.2020
1700 Clouds -1 1022 47 16093 4.14 248 05:24 02.03.2020
1701 Clouds 0 1021 41 16093 2.1 230 03:28 02.03.2020
1702 Clear 1 1021 68 16093 4.14 248 02:55 02.03.2020
1703 Clear 1 1022 38 16093 4.14 248 02:30 02.03.2020
1704 Clear 2 1021 35 16093 6.4 260 01:36 02.03.2020
1705 Clear 3 1021 35 16093 6.07 267 01:18 02.03.2020
1706 Clear 4 1020 33 16093 4.6 290 00:22 02.03.2020
1707 Clear 6 1019 28 16093 5.1 300 23:42 01.03.2020
1708 Clear 6 1019 28 16093 5.1 300 23:23 01.03.2020
1709 Clear 6 1019 30 16093 6.2 320 22:45 01.03.2020
1710 Clear 6 1019 28 16093 6.7 290 22:21 01.03.2020
1711 Clear 6 1019 28 16093 6.7 290 22:21 01.03.2020
1712 Clear 6 1019 28 16093 6.2 290 21:59 01.03.2020
1713 Clear 6 1019 28 16093 6.2 290 21:41 01.03.2020
1714 Clear 6 1019 28 16093 6.7 310 21:23 01.03.2020
1715 Clear 6 1019 33 16093 5.7 290 20:56 01.03.2020
1716 Clear 6 1019 30 16093 6.7 300 20:37 01.03.2020
1717 Clear 5 1019 30 16093 6.7 300 20:19 01.03.2020
1718 Clear 5 1020 30 16093 7.2 290 19:42 01.03.2020
1719 Clear 4 1020 32 16093 5.7 320 19:22 01.03.2020
1720 Clear 4 1020 35 16093 4.6 320 18:58 01.03.2020
1721 Clear 3 1021 35 16093 5.7 300 18:39 01.03.2020
1722 Clear 3 1021 35 16093 5.7 300 18:19 01.03.2020
1723 Clear 3 1021 37 16093 8.2 310 17:56 01.03.2020
1724 Clear 2 1021 37 16093 8.2 310 17:37 01.03.2020
1725 Clouds 2 1021 40 16093 2.1 0 17:19 01.03.2020
1726 Clouds 1 1022 37 16093 5.7 320 16:55 01.03.2020
1727 Clear 1 1022 43 16093 2.6 330 16:36 01.03.2020
1728 Clear 1 1022 43 16093 2.6 330 16:18 01.03.2020
1729 Clear 0 1022 40 16093 6.2 300 15:55 01.03.2020
1730 Clear 0 1022 56 16093 5.1 310 15:37 01.03.2020
1731 Clear -1 1022 56 16093 5.1 310 15:18 01.03.2020
1732 Clear -2 1022 56 16093 7.7 300 14:55 01.03.2020
1733 Clear -2 1022 54 16093 3.6 270 14:36 01.03.2020
1734 Clear -2 1022 54 16093 3.6 270 14:18 01.03.2020
1735 Clear -3 1022 50 16093 4.1 300 13:43 01.03.2020
1736 Clear -4 1021 58 16093 3.1 250 13:21 01.03.2020
1737 Clear -4 1021 58 16093 4.1 300 12:59 01.03.2020
1738 Clear -4 1021 53 16093 9.15 310 12:40 01.03.2020
1739 Clear -4 1021 53 16093 8.97 305 12:20 01.03.2020
1740 Clear -4 1021 53 16093 8.97 305 12:20 01.03.2020
1741 Clear -4 1021 53 16093 3.1 290 11:41 01.03.2020
1742 Clear -5 1020 53 16093 4.6 300 11:22 01.03.2020
1743 Clear -5 1020 53 16093 4.6 300 10:57 01.03.2020
1744 Clear -5 1020 53 16093 10.03 315 10:38 01.03.2020
1745 Clear -5 1020 53 16093 10.03 315 10:19 01.03.2020
1746 Clear -5 1020 53 16093 8.89 306 09:55 01.03.2020
1747 Clear -5 1020 58 16093 8.89 306 09:36 01.03.2020
1748 Clear -5 1020 58 16093 8.89 306 09:18 01.03.2020
1749 Clear -5 1020 53 16093 8.89 306 08:39 01.03.2020
1750 Clear -5 1020 53 16093 9.52 316 08:19 01.03.2020
1751 Clear -4 1019 49 16093 3.1 320 07:42 01.03.2020
1752 Clear -5 1019 49 16093 3.1 320 07:23 01.03.2020
1753 Clear -4 1019 49 16093 4.1 320 06:54 01.03.2020
1754 Clear -4 1019 49 16093 4.1 320 06:36 01.03.2020
1755 Clear -4 1018 45 16093 5.1 320 04:26 01.03.2020
1756 Clear -3 1017 39 16093 6.7 340 02:54 01.03.2020
1757 Clear -3 1017 36 16093 10.81 308 01:53 01.03.2020
1758 Clear -2 1016 46 16093 1.5 0 01:28 01.03.2020
1759 Clouds -2 1015 33 16093 4.6 330 00:43 01.03.2020
1760 Clouds -2 1015 33 16093 4.6 350 00:22 01.03.2020
1761 Clouds -2 1014 48 16093 6.7 310 23:51 29.02.2020
1762 Clouds -1 1014 33 16093 3.1 0 23:33 29.02.2020
1763 Clouds 0 1013 48 16093 7.7 320 22:45 29.02.2020
1764 Clouds 0 1013 48 11265 6.2 320 22:25 29.02.2020
1765 Clouds 0 1012 48 16093 6.2 320 21:44 29.02.2020
1766 Clouds 0 1012 37 16093 9.3 290 21:26 29.02.2020
1767 Clouds 1 1012 40 16093 9.8 290 20:45 29.02.2020
1768 Clouds 1 1011 40 16093 7.2 300 20:22 29.02.2020
1769 Clouds 1 1011 37 16093 6.2 310 19:59 29.02.2020
1770 Clouds 1 1011 37 16093 6.2 310 19:40 29.02.2020
1771 Clouds 1 1011 37 16093 6.7 310 19:22 29.02.2020
1772 Clouds 1 1012 37 16093 7.2 300 18:56 29.02.2020
1773 Clouds 1 1012 37 16093 7.2 300 18:38 29.02.2020
1774 Clouds 1 1012 34 16093 7.7 300 18:19 29.02.2020
1775 Clouds 1 1012 31 16093 9.3 290 17:54 29.02.2020
1776 Clouds 1 1012 31 16093 9.3 290 17:54 29.02.2020
1777 Clouds 1 1012 40 16093 7.2 260 17:36 29.02.2020
1778 Clouds 1 1012 40 16093 7.2 260 17:18 29.02.2020
1779 Clouds 1 1011 40 16093 7.7 280 16:42 29.02.2020
1780 Clear 0 1012 34 16093 9.3 300 16:18 29.02.2020
1781 Clear 0 1012 52 16093 9.3 310 15:42 29.02.2020
1782 Clear 0 1012 52 16093 7.7 310 15:24 29.02.2020
1783 Clear -1 1012 42 16093 5.7 290 14:57 29.02.2020
1784 Clear -1 1012 42 16093 5.1 310 14:38 29.02.2020
1785 Clear -2 1012 42 16093 5.1 310 14:20 29.02.2020
1786 Clear -2 1012 46 16093 3.6 290 13:43 29.02.2020
1787 Clear -2 1012 46 16093 3.6 290 13:25 29.02.2020
1788 Clear -3 1012 46 16093 8.11 269 12:54 29.02.2020
1789 Clouds -3 1011 46 16093 1.5 290 12:36 29.02.2020
1790 Clouds -3 1011 46 16093 1.5 290 12:18 29.02.2020
1791 Clear -3 1011 42 16093 5.1 290 11:43 29.02.2020
1792 Clear -3 1011 46 16093 3.6 260 11:24 29.02.2020
1793 Clear -2 1011 42 16093 5.1 300 10:50 29.02.2020
1794 Clear -2 1011 42 16093 7.3 277 10:29 29.02.2020
1795 Clear -2 1011 42 16093 4.1 290 09:51 29.02.2020
1796 Clear -2 1011 39 16093 1.5 290 09:27 29.02.2020
1797 Clear -2 1011 36 16093 4.6 300 08:58 29.02.2020
1798 Clear -1 1011 36 16093 4.1 270 08:38 29.02.2020
1799 Clear -1 1011 40 16093 1.5 0 08:19 29.02.2020
1800 Clear -1 1012 39 16093 5.7 310 07:46 29.02.2020
1801 Clear -1 1012 48 16093 9.48 278 07:21 29.02.2020
1802 Clear 0 1012 48 16093 4.1 300 06:54 29.02.2020
1803 Clouds 0 1012 37 16093 6.2 300 06:27 29.02.2020
1804 Clouds 1 1011 37 16093 4.6 300 05:49 29.02.2020
1805 Clouds 1 1011 37 16093 4.6 300 05:30 29.02.2020
1806 Clouds 1 1011 34 16093 3.6 300 03:53 29.02.2020
1807 Clouds 1 1011 43 16093 3.1 300 03:23 29.02.2020
1808 Clouds 2 1011 47 16093 9.72 279 02:51 29.02.2020
1809 Clouds 2 1010 44 16093 7.77 261 01:55 29.02.2020
1810 Rain 3 1010 40 16093 8.17 247 00:49 29.02.2020
1811 Rain 3 1009 35 16093 3.6 280 00:27 29.02.2020
1812 Clouds 3 1009 35 16093 3.6 270 23:40 28.02.2020
1813 Clouds 4 1009 32 16093 5.7 280 23:22 28.02.2020
1814 Clouds 4 1009 32 16093 5.7 280 22:42 28.02.2020
1815 Clouds 4 1009 30 16093 7.7 290 22:22 28.02.2020
1816 Clouds 4 1009 30 16093 6.7 290 21:42 28.02.2020
1817 Clouds 4 1009 33 16093 9.8 260 21:22 28.02.2020
1818 Rain 4 1009 38 16093 9.3 260 20:58 28.02.2020
1819 Rain 4 1009 38 16093 9.3 260 20:39 28.02.2020
1820 Rain 4 1009 38 16093 9.3 260 20:20 28.02.2020
1821 Rain 4 1009 35 16093 8.2 280 19:57 28.02.2020
1822 Rain 4 1009 35 16093 8.2 280 19:57 28.02.2020
1823 Rain 4 1009 35 16093 8.2 280 19:38 28.02.2020
1824 Rain 4 1009 38 16093 10.3 270 19:20 28.02.2020
1825 Clouds 3 1010 35 16093 6.2 280 18:47 28.02.2020
1826 Clouds 4 1010 35 16093 6.2 280 18:47 28.02.2020
1827 Clouds 3 1011 41 16093 7.2 260 18:27 28.02.2020
1828 Clouds 3 1012 43 16093 9.8 260 17:58 28.02.2020
1829 Clouds 2 1012 43 16093 9.8 260 17:39 28.02.2020
1830 Clouds 2 1012 43 16093 9.8 260 17:20 28.02.2020
1831 Clear 2 1012 37 16093 7.2 290 16:43 28.02.2020
1832 Clear 1 1012 37 16093 10.3 290 16:20 28.02.2020
1833 Clear 1 1012 37 16093 7.7 290 15:58 28.02.2020
1834 Clear 0 1012 37 16093 7.7 290 15:39 28.02.2020
1835 Clear 0 1012 47 16093 9.8 270 15:19 28.02.2020
1836 Clear -1 1013 42 16093 5.7 280 14:57 28.02.2020
1837 Clear -1 1013 42 16093 5.7 280 14:38 28.02.2020
1838 Clear -1 1013 42 16093 5.7 280 14:18 28.02.2020
1839 Clear -2 1013 42 16093 5.1 280 13:41 28.02.2020
1840 Clear -2 1012 42 16093 3.1 280 13:20 28.02.2020
1841 Clear -2 1012 42 16093 5.1 280 12:58 28.02.2020
1842 Clear -2 1012 42 16093 3.1 280 12:40 28.02.2020
1843 Clear -2 1012 42 16093 3.1 280 12:22 28.02.2020
1844 Clear -2 1012 42 16093 5.7 280 11:41 28.02.2020
1845 Clear -2 1011 42 16093 7.2 280 11:41 28.02.2020
1846 Clear -2 1011 42 16093 7.2 280 11:23 28.02.2020
1847 Clear -2 1011 42 16093 5.1 280 10:57 28.02.2020
1848 Clear -2 1011 42 16093 6.2 290 10:37 28.02.2020
1849 Clear -2 1011 42 16093 6.2 290 10:19 28.02.2020
1850 Clear -2 1011 42 16093 6.7 290 09:44 28.02.2020
1851 Clouds -1 1011 46 16093 4.1 280 09:21 28.02.2020
1852 Clouds -1 1011 46 16093 4.6 280 08:56 28.02.2020
1853 Clouds -1 1011 46 16093 4.1 270 08:36 28.02.2020
1854 Clouds -1 1011 46 16093 4.1 270 08:18 28.02.2020
1855 Clouds -1 1011 46 16093 4.1 280 07:39 28.02.2020
1856 Clear -1 1011 46 16093 4.1 270 07:19 28.02.2020
1857 Clouds -1 1011 46 16093 6.7 280 06:41 28.02.2020
1858 Clear -1 1011 46 16093 7.2 280 05:50 28.02.2020
1859 Clear -1 1011 51 16093 7.7 280 04:34 28.02.2020
1860 Clear 0 1010 51 16093 6.7 280 03:48 28.02.2020
1861 Clear 0 1010 51 16093 6.7 290 02:45 28.02.2020
1862 Clear 0 1009 49 16093 9.8 280 02:20 28.02.2020
1863 Clouds 1 1008 37 16093 12.9 290 00:46 28.02.2020
1864 Clouds 1 1007 40 16093 10.3 290 00:25 28.02.2020
1865 Clouds 2 1005 37 16093 8.2 300 23:41 27.02.2020
1866 Clouds 3 1005 37 16093 8.2 300 23:19 27.02.2020
1867 Clouds 4 1005 35 16093 11.8 290 22:43 27.02.2020
1868 Clear 4 1004 32 16093 10.8 280 22:24 27.02.2020
1869 Clear 5 1003 32 16093 11.8 290 21:57 27.02.2020
1870 Clear 5 1003 32 16093 11.8 290 21:39 27.02.2020
1871 Clouds 5 1003 33 16093 10.8 280 21:19 27.02.2020
1872 Clouds 5 1003 38 16093 9.8 300 20:56 27.02.2020
1873 Clouds 5 1003 38 16093 11.3 300 20:38 27.02.2020
1874 Clouds 5 1003 38 16093 11.3 300 20:19 27.02.2020
1875 Clouds 5 1002 41 16093 11.8 300 19:42 27.02.2020
1876 Clouds 5 1002 41 16093 11.8 300 19:24 27.02.2020
1877 Clouds 5 1002 41 16093 11.8 290 18:58 27.02.2020
1878 Clouds 5 1002 41 16093 11.8 290 18:40 27.02.2020
1879 Clouds 5 1001 48 16093 3.1 0 18:21 27.02.2020
1880 Clouds 5 1002 44 16093 12.9 300 17:57 27.02.2020
1881 Clouds 5 1002 44 16093 12.9 300 17:38 27.02.2020
1882 Clouds 4 1001 48 16093 11.8 310 17:19 27.02.2020
1883 -273 0 0 0 0 0 16:55 27.02.2020
1884 Clouds 4 1000 60 16093 8.7 290 16:37 27.02.2020
1885 Clouds 4 1000 60 16093 8.7 290 16:18 27.02.2020
1886 Clouds 4 1000 60 16093 10.8 290 15:54 27.02.2020
1887 Clouds 4 999 64 16093 10.3 290 15:36 27.02.2020
1888 Clouds 4 999 64 16093 10.3 290 15:18 27.02.2020
1889 Rain 4 999 69 16093 10.3 290 14:40 27.02.2020
1890 Rain 5 997 75 16093 9.3 260 14:22 27.02.2020
1891 Rain 5 997 80 16093 9.8 280 13:56 27.02.2020
1892 Rain 5 995 80 16093 10.3 250 13:38 27.02.2020
1893 Drizzle 5 996 80 11265 10.3 290 13:19 27.02.2020
1894 Rain 5 996 81 16093 8.2 290 12:45 27.02.2020
1895 Rain 6 995 81 16093 8.7 290 12:22 27.02.2020
1896 Rain 6 994 87 16093 9.8 300 11:56 27.02.2020
1897 Rain 6 993 93 16093 5.7 280 11:37 27.02.2020
1898 Drizzle 7 994 93 4828 6.2 290 11:18 27.02.2020
1899 Rain 7 993 93 16093 3.1 50 10:41 27.02.2020
1900 Rain 7 993 93 16093 3.1 50 10:20 27.02.2020
1901 Rain 7 994 87 6437 3.1 40 09:45 27.02.2020
1902 Drizzle 7 995 93 8047 4.1 110 09:26 27.02.2020
1903 Drizzle 7 996 93 16093 6.2 110 08:56 27.02.2020
1904 Rain 7 997 93 11265 7.2 120 08:38 27.02.2020
1905 Rain 6 997 93 11265 7.2 120 08:18 27.02.2020
1906 Rain 6 999 93 2816 2.6 110 07:42 27.02.2020
1907 Rain 6 1000 93 11265 6.2 120 07:24 27.02.2020
1908 Rain 6 1002 93 4023 6.7 110 06:31 27.02.2020
1909 Mist 6 1005 93 4023 9.81 89 05:24 27.02.2020
1910 Mist 7 1008 93 4023 5.7 120 03:21 27.02.2020
1911 Clouds 7 1009 93 16093 8.3 98 02:19 27.02.2020
1912 Clouds 7 1011 93 16093 3.1 140 00:43 27.02.2020
1913 Clouds 7 1011 93 16093 3.1 140 00:22 27.02.2020
1914 Rain 7 1011 93 16093 3.1 140 23:38 26.02.2020
1915 Rain 7 1012 93 16093 5.57 103 23:18 26.02.2020
1916 Rain 7 1012 93 4828 3.6 120 22:56 26.02.2020
1917 Clouds 7 1013 93 16093 3.1 30 22:38 26.02.2020
1918 Clouds 7 1013 93 16093 3.1 30 22:19 26.02.2020
1919 Mist 8 1013 87 6437 4.1 60 21:40 26.02.2020
1920 -273 0 0 0 0 0 21:21 26.02.2020
1921 Mist 8 1012 93 4023 5.57 103 20:57 26.02.2020
1922 Rain 8 1013 93 4023 3.6 50 20:39 26.02.2020
1923 Mist 8 1013 93 2816 2.6 50 20:20 26.02.2020
1924 Clouds 8 1013 93 11265 4.53 107 19:57 26.02.2020
1925 Mist 8 1013 93 8047 4.1 160 19:38 26.02.2020
1926 Mist 8 1013 93 8047 4.1 160 19:20 26.02.2020
1927 Mist 8 1013 93 8047 4.1 160 19:19 26.02.2020
1928 Clouds 8 1013 87 16093 3.6 140 18:57 26.02.2020
1929 Drizzle 8 1013 93 6437 3.6 70 18:39 26.02.2020
1930 Clouds 8 1014 93 16093 3.6 120 18:20 26.02.2020
1931 Rain 8 1016 93 4023 2.1 30 17:42 26.02.2020
1932 Rain 8 1016 93 4023 2.1 30 17:21 26.02.2020
1933 Rain 8 1015 87 11265 4.35 88 16:57 26.02.2020
1934 Rain 8 1015 93 2012 4.35 88 16:39 26.02.2020
1935 Rain 8 1015 93 2012 4.35 88 16:21 26.02.2020
1936 Rain 8 1015 93 3219 3.1 40 15:46 26.02.2020
1937 Mist 7 1015 93 4023 2.1 50 15:28 26.02.2020
1938 Mist 7 1015 93 4828 4.35 88 14:57 26.02.2020
1939 Mist 7 1014 87 3219 2.6 50 14:39 26.02.2020
1940 Mist 7 1014 93 8047 3.7 46 14:21 26.02.2020
1941 Rain 7 1014 93 11265 3.7 46 13:42 26.02.2020
1942 Rain 7 1014 93 11265 3.7 46 13:42 26.02.2020
1943 Rain 7 1014 93 11265 2.96 48 13:21 26.02.2020
1944 Rain 7 1013 93 8047 2.96 48 12:39 26.02.2020
1945 Rain 7 1013 93 8047 2.96 48 12:20 26.02.2020
1946 Clouds 7 1013 93 16093 2.6 70 11:58 26.02.2020
1947 Rain 7 1013 93 16093 2.6 70 11:40 26.02.2020
1948 Rain 7 1013 93 8047 2.6 30 11:21 26.02.2020
1949 Rain 7 1014 93 2414 2.1 50 10:43 26.02.2020
1950 Rain 7 1014 93 2414 2.1 50 10:43 26.02.2020
1951 Rain 7 1014 93 2414 2.1 50 10:24 26.02.2020
1952 Rain 7 1013 93 3219 1.7 9 09:57 26.02.2020
1953 Mist 7 1012 87 2414 1.5 20 09:39 26.02.2020
1954 Mist 7 1012 93 6437 1.7 9 09:21 26.02.2020
1955 Mist 7 1012 93 8047 1.7 9 08:40 26.02.2020
1956 Mist 7 1012 93 8047 1.98 44 08:22 26.02.2020
1957 Mist 7 1013 93 8047 1.98 44 07:59 26.02.2020
1958 Drizzle 7 1012 93 2414 2.1 30 07:39 26.02.2020
1959 Mist 7 1013 93 8047 1.98 44 07:20 26.02.2020
1960 Mist 7 1012 93 8047 1.98 44 06:45 26.02.2020
1961 Mist 7 1012 93 8047 1.98 44 06:22 26.02.2020
1962 Rain 7 1012 93 6437 1.98 44 05:48 26.02.2020
1963 Rain 7 1012 93 8047 1.93 53 05:18 26.02.2020
1964 Rain 7 1012 93 4828 3.6 50 03:27 26.02.2020
1965 Rain 7 1012 93 4828 2.87 109 01:58 26.02.2020
1966 Rain 8 1012 93 4828 2.1 60 01:25 26.02.2020
1967 Rain 8 1012 93 3219 3.1 60 00:44 26.02.2020
1968 Drizzle 8 1011 93 4828 3.15 89 00:20 26.02.2020
1969 Rain 8 1012 93 4828 1.5 150 23:42 25.02.2020
1970 Rain 8 1011 93 4828 2.27 98 23:24 25.02.2020
1971 Drizzle 8 1011 87 3219 2.27 98 22:57 25.02.2020
1972 Rain 9 1011 87 4023 1.5 0 22:37 25.02.2020
1973 Rain 9 1011 87 4023 1.5 0 22:18 25.02.2020
1974 Rain 9 1011 87 14484 2.27 98 21:38 25.02.2020
1975 Rain 9 1011 87 14484 2.27 98 21:20 25.02.2020
1976 Rain 9 1011 81 16093 2.27 98 20:57 25.02.2020
1977 Rain 9 1011 81 8047 2.79 97 20:39 25.02.2020
1978 Rain 9 1011 81 8047 1.6 139 20:20 25.02.2020
1979 Rain 10 1011 81 16093 1.6 139 19:56 25.02.2020
1980 Rain 10 1011 81 16093 1.6 139 19:37 25.02.2020
1981 Rain 10 1011 81 11265 1.6 139 19:18 25.02.2020
1982 Rain 9 1012 81 8047 1.6 139 18:40 25.02.2020
1983 Rain 10 1012 76 8047 1.6 139 18:21 25.02.2020
1984 Rain 10 1012 76 8047 1.6 139 17:56 25.02.2020
1985 Clouds 10 1012 76 16093 1.6 139 17:37 25.02.2020
1986 Clouds 10 1012 76 16093 1.71 202 17:19 25.02.2020
1987 Clouds 10 1012 76 16093 1.71 202 17:19 25.02.2020
1988 Clouds 10 1012 76 16093 1.71 202 16:57 25.02.2020
1989 Clouds 9 1013 76 16093 1.71 202 16:38 25.02.2020
1990 Clouds 9 1013 76 16093 1.71 202 16:20 25.02.2020
1991 Clouds 9 1013 76 16093 1.71 202 15:55 25.02.2020
1992 Clouds 9 1013 76 16093 1.71 202 15:36 25.02.2020
1993 Clouds 8 1013 76 16093 1.71 202 15:18 25.02.2020
1994 Clouds 8 1012 76 16093 1.71 202 14:54 25.02.2020
1995 Clouds 7 1012 81 16093 1.71 202 14:36 25.02.2020
1996 Clouds 7 1012 81 16093 2.98 243 14:18 25.02.2020
1997 Clouds 7 1012 81 16093 2.98 243 14:18 25.02.2020
1998 Clouds 7 1012 75 16093 2.98 243 13:54 25.02.2020
1999 Clouds 6 1012 75 16093 1.73 243 13:36 25.02.2020
2000 Clouds 6 1012 75 16093 1.73 243 13:18 25.02.2020
2001 Clouds 6 1012 75 16093 1.73 243 12:39 25.02.2020
2002 Clouds 6 1012 75 16093 1.73 243 12:20 25.02.2020
2003 Clouds 6 1012 75 16093 1.73 243 11:56 25.02.2020
2004 Clear 6 1013 75 16093 1.5 270 11:38 25.02.2020
2005 Clear 6 1013 75 16093 1.5 270 11:18 25.02.2020
2006 Clouds 6 1013 75 16093 4 239 10:56 25.02.2020
2007 Clouds 6 1013 70 16093 4 239 10:38 25.02.2020
2008 Clouds 6 1013 70 16093 4 239 10:19 25.02.2020
2009 Clear 7 1012 70 16093 4 239 09:40 25.02.2020
2010 Clouds 7 1013 66 16093 2.1 250 09:19 25.02.2020
2011 Clear 7 1013 66 16093 4 239 08:44 25.02.2020
2012 Clear 7 1013 66 16093 2.1 260 08:25 25.02.2020
2013 Clouds 7 1013 78 16093 3.85 214 07:51 25.02.2020
2014 Clouds 7 1013 57 16093 3.85 214 07:25 25.02.2020
2015 Clouds 7 1013 53 16093 3.85 214 06:59 25.02.2020
2016 Clouds 7 1013 53 16093 3.85 214 06:26 25.02.2020
2017 Clouds 8 1014 61 16093 1.5 250 05:24 25.02.2020
2018 Clouds 8 1014 66 16093 4.53 222 02:47 25.02.2020
2019 Clear 8 1015 61 16093 5.41 187 01:28 25.02.2020
2020 Clear 9 1014 61 16093 5.41 187 00:34 25.02.2020
2021 Clear 9 1014 57 16093 5.41 187 23:59 24.02.2020
2022 Clear 10 1014 53 16093 5.41 187 23:39 24.02.2020
2023 Clear 11 1014 53 16093 4.77 145 23:19 24.02.2020
2024 Clear 12 1014 50 16093 4.77 145 22:38 24.02.2020
2025 Clear 12 1015 37 16093 4.77 145 22:19 24.02.2020
2026 Clouds 13 1014 21 16093 5.1 220 21:57 24.02.2020
2027 Clouds 13 1014 21 16093 5.1 220 21:39 24.02.2020
2028 Clear 13 1015 24 16093 3.6 150 21:19 24.02.2020
2029 Clear 14 1015 33 16093 4.77 145 20:57 24.02.2020
2030 Clear 14 1016 19 16093 4.77 145 20:38 24.02.2020
2031 Clear 14 1016 19 16093 2.19 134 20:19 24.02.2020
2032 Clear 13 1016 19 16093 2.19 134 19:56 24.02.2020
2033 Clear 14 1016 19 16093 2.19 134 19:37 24.02.2020
2034 Clear 14 1016 19 16093 2.19 134 19:19 24.02.2020
2035 Clear 15 1017 24 16093 2.19 134 18:42 24.02.2020
2036 Clear 15 1017 26 16093 2.19 134 18:24 24.02.2020
2037 Clear 14 1017 30 16093 2.19 134 17:57 24.02.2020
2038 Clear 13 1018 34 16093 2.19 134 17:39 24.02.2020
2039 Clear 11 1018 34 16093 1.2 235 17:19 24.02.2020
2040 Clear 11 1018 37 16093 1.2 235 16:55 24.02.2020
2041 Clear 10 1018 45 16093 1.2 235 16:37 24.02.2020
2042 Clear 9 1018 45 16093 1.2 235 16:19 24.02.2020
2043 Clear 9 1018 52 16093 1.2 235 15:57 24.02.2020
2044 Clear 8 1019 65 16093 1.2 235 15:38 24.02.2020
2045 Clear 7 1019 65 16093 1.2 235 15:20 24.02.2020
2046 Clear 5 1019 65 16093 1.2 235 14:42 24.02.2020
2047 Clear 4 1018 74 16093 1.2 235 14:24 24.02.2020
2048 Clear 2 1018 69 16093 3.01 216 13:59 24.02.2020
2049 Clear 1 1018 69 16093 3.01 216 13:41 24.02.2020
2050 Clear 0 1018 80 16093 3.01 216 13:23 24.02.2020
2051 Clear -1 1018 74 16093 2.75 214 12:59 24.02.2020
2052 Clear -1 1018 74 16093 2.75 214 12:41 24.02.2020
2053 Clear 0 1018 74 16093 2.75 214 12:23 24.02.2020
2054 Clear 0 1018 69 16093 2.75 214 11:50 24.02.2020
2055 Clear 0 1018 64 16093 2.75 214 11:32 24.02.2020
2056 Clear 1 1018 59 16093 3.6 230 10:58 24.02.2020
2057 Clear 1 1018 59 16093 3.6 230 10:40 24.02.2020
2058 Clear 1 1018 59 16093 3.6 230 10:22 24.02.2020
2059 Clear 2 1018 55 16093 3.6 230 09:40 24.02.2020
2060 Clouds 3 1018 48 16093 3.6 230 09:19 24.02.2020
2061 Clouds 3 1018 48 16093 3.6 230 09:19 24.02.2020
2062 Clouds 3 1019 44 16093 3.6 230 08:52 24.02.2020
2063 Clouds 3 1019 41 16093 4.19 226 08:29 24.02.2020
2064 Clouds 3 1019 38 16093 4.19 226 07:55 24.02.2020
2065 Clouds 3 1019 35 16093 4.19 226 07:33 24.02.2020
2066 Clouds 4 1019 30 16093 4.19 226 06:53 24.02.2020
2067 Clouds 4 1019 30 16093 4.19 226 06:26 24.02.2020
2068 Clouds 4 1019 30 16093 4.19 226 05:46 24.02.2020
2069 Clouds 4 1020 30 16093 5.81 217 05:25 24.02.2020
2070 Clear 5 1019 22 16093 5.81 217 02:58 24.02.2020
2071 Clear 5 1019 21 16093 5.81 217 02:31 24.02.2020
2072 Clear 6 1019 21 16093 4.27 212 01:39 24.02.2020
2073 Clear 7 1019 19 16093 4.29 216 00:50 24.02.2020
2074 Clear 8 1019 18 16093 4.29 216 00:21 24.02.2020
2075 Clear 8 1019 18 16093 4.29 216 23:55 23.02.2020
2076 Clear 9 1019 17 16093 4.29 216 23:36 23.02.2020
2077 Clear 10 1019 17 16093 4.66 241 23:18 23.02.2020
2078 Clear 11 1019 16 16093 4.66 241 22:43 23.02.2020
2079 Clear 11 1020 22 16093 3.6 210 22:22 23.02.2020
2080 Clear 12 1019 16 16093 4.66 241 21:57 23.02.2020
2081 Clear 12 1020 20 16093 3.6 260 21:39 23.02.2020
2082 Clear 12 1020 20 16093 3.6 260 21:18 23.02.2020
2083 Clear 12 1020 16 16093 4.66 241 20:55 23.02.2020
2084 Clear 12 1020 17 16093 2.1 280 20:37 23.02.2020
2085 Clear 12 1020 17 16093 2.1 280 20:18 23.02.2020
2086 Clear 12 1021 17 16093 3.1 280 19:54 23.02.2020
2087 Clear 12 1021 17 16093 3.1 280 19:36 23.02.2020
2088 Clear 12 1021 17 16093 3.1 280 19:36 23.02.2020
2089 Clear 12 1021 17 16093 3.1 280 19:18 23.02.2020
2090 Clear 11 1021 17 16093 3.1 280 19:18 23.02.2020
2091 Rain 11 1022 18 16093 4.1 280 18:41 23.02.2020
2092 Rain 11 1022 21 16093 3.71 246 18:21 23.02.2020
2093 Clear 11 1023 23 16093 3.71 246 17:59 23.02.2020
2094 Clear 10 1023 23 16093 3.71 246 17:41 23.02.2020
2095 Clear 9 1023 21 16093 3.1 290 17:21 23.02.2020
2096 Clear 9 1023 24 16093 5.47 257 16:57 23.02.2020
2097 Clear 8 1024 45 16093 2.6 210 16:38 23.02.2020
2098 Clear 8 1024 45 16093 2.6 210 16:20 23.02.2020
2099 Clear 7 1024 26 16093 1.5 290 15:55 23.02.2020
2100 Clear 7 1024 26 16093 1.5 290 15:37 23.02.2020
2101 Clear 6 1024 24 16093 2.6 280 15:19 23.02.2020
2102 Clear 4 1024 26 16093 5.47 257 14:55 23.02.2020
2103 Clear 5 1024 26 16093 5.47 257 14:55 23.02.2020
2104 Clear 4 1024 32 16093 5.47 257 14:37 23.02.2020
2105 Clear 2 1024 32 16093 4.54 266 14:19 23.02.2020
2106 Clear 0 1024 34 16093 4.54 266 13:55 23.02.2020
2107 Clear -1 1024 37 16093 4.49 265 13:36 23.02.2020
2108 Clear -2 1024 37 16093 4.54 266 13:18 23.02.2020
2109 Clear -2 1024 37 16093 4.49 265 12:40 23.02.2020
2110 Clear -2 1024 47 16093 2.1 210 12:20 23.02.2020
2111 Clear -2 1024 37 16093 4.49 265 11:39 23.02.2020
2112 Clear -1 1024 47 16093 1.5 230 11:20 23.02.2020
2113 Clear -1 1024 47 16093 1.5 230 11:20 23.02.2020
2114 Clear -1 1023 34 16093 5.6 268 10:58 23.02.2020
2115 Clear -1 1023 34 16093 5.6 268 10:40 23.02.2020
2116 Clear -1 1023 34 16093 5.6 268 10:22 23.02.2020
2117 Clear -1 1023 37 16093 5.6 268 09:56 23.02.2020
2118 Clear -1 1023 44 16093 3.1 190 09:38 23.02.2020
2119 Clear -1 1023 44 16093 3.1 190 09:18 23.02.2020
2120 Clear -1 1023 29 16093 5.6 268 08:46 23.02.2020
2121 Clear -1 1023 29 16093 6.73 272 08:25 23.02.2020
2122 Clear 0 1023 29 16093 5.63 271 07:48 23.02.2020
2123 Clear 0 1023 27 16093 5.63 271 07:29 23.02.2020
2124 Clear 0 1023 27 16093 5.63 271 06:25 23.02.2020
2125 Clear 0 1023 44 16093 2.1 220 05:34 23.02.2020
2126 Clear 1 1023 25 16093 5.45 257 04:24 23.02.2020
2127 Clear 3 1023 24 16093 5.45 257 02:53 23.02.2020
2128 Clear 4 1023 22 16093 5.49 256 01:47 23.02.2020
2129 Clear 5 1023 22 16093 5.43 258 01:22 23.02.2020
2130 Clear 6 1022 19 16093 5.43 258 00:45 23.02.2020
2131 Clear 7 1022 16 16093 5.43 258 00:23 23.02.2020
2132 Clear 8 1022 18 16093 5.43 258 23:43 22.02.2020
2133 Clear 9 1021 16 16093 4.6 290 23:25 22.02.2020
2134 Clear 9 1022 16 16093 5.7 290 22:46 22.02.2020
2135 Clear 9 1022 16 16093 5.7 290 22:22 22.02.2020
2136 Clear 10 1022 16 16093 3.6 270 21:59 22.02.2020
2137 Clear 10 1022 16 16093 3.6 270 21:59 22.02.2020
2138 Clear 10 1022 16 16093 3.6 270 21:39 22.02.2020
2139 Clear 10 1022 18 16093 5.7 290 21:21 22.02.2020
2140 Clear 9 1022 18 16093 5.7 290 20:41 22.02.2020
2141 Clear 9 1022 18 16093 5.7 290 20:23 22.02.2020
2142 Clear 8 1023 17 16093 6.7 290 19:43 22.02.2020
2143 Clear 8 1023 17 16093 5.1 280 19:25 22.02.2020
2144 Clear 7 1024 19 16093 5.7 300 18:59 22.02.2020
2145 Clear 7 1025 22 16093 5.1 290 18:39 22.02.2020
2146 Clear 7 1025 22 16093 5.1 290 18:20 22.02.2020
2147 Clear 6 1025 24 16093 6.95 259 17:57 22.02.2020
2148 Clear 5 1026 27 16093 2.6 280 17:37 22.02.2020
2149 Clear 5 1026 27 16093 2.6 280 17:19 22.02.2020
2150 Clear 4 1026 27 16093 3.6 270 16:55 22.02.2020
2151 Clear 4 1026 27 16093 3.6 270 16:37 22.02.2020
2152 Clear 3 1026 29 16093 3.6 290 16:19 22.02.2020
2153 Clear 2 1026 31 16093 4.6 280 15:42 22.02.2020
2154 Clear 2 1027 34 16093 4.1 290 15:22 22.02.2020
2155 Clear 0 1027 42 16093 3.1 280 14:43 22.02.2020
2156 Clear 0 1027 42 16093 3.1 280 14:23 22.02.2020
2157 Clear -2 1027 39 16093 8.2 271 13:57 22.02.2020
2158 Clear -2 1026 42 16093 8.2 271 13:39 22.02.2020
2159 Clear -3 1026 42 16093 8.37 271 13:18 22.02.2020
2160 Clear -3 1026 42 16093 8.37 271 12:42 22.02.2020
2161 Clear -3 1026 42 16093 4.1 280 12:23 22.02.2020
2162 Clear -3 1026 42 16093 3.6 280 11:47 22.02.2020
2163 Clear -3 1026 42 16093 3.6 290 11:28 22.02.2020
2164 Clear -3 1026 42 16093 8.08 254 10:57 22.02.2020
2165 Clear -2 1026 42 16093 8.08 254 10:39 22.02.2020
2166 Clear -2 1025 39 16093 8.08 254 10:19 22.02.2020
2167 Clear -2 1026 39 16093 8.08 254 09:57 22.02.2020
2168 Clear -2 1026 39 16093 8.08 254 09:38 22.02.2020
2169 Clear -2 1026 39 16093 8.08 254 09:20 22.02.2020
2170 Clear -2 1027 39 16093 8.08 254 08:46 22.02.2020
2171 Clear -2 1027 39 16093 8.39 258 08:27 22.02.2020
2172 Clear -2 1027 39 16093 8.39 258 08:27 22.02.2020
2173 Clear -2 1027 33 16093 2.1 270 07:48 22.02.2020
2174 Clear -2 1027 33 16093 2.1 270 07:48 22.02.2020
2175 Clear -2 1027 33 16093 7.94 254 07:19 22.02.2020
2176 Clear -2 1028 33 16093 7.94 254 06:47 22.02.2020
2177 Clear -2 1028 33 16093 7.94 254 06:29 22.02.2020
2178 Clear -2 1029 40 16093 6 261 04:33 22.02.2020
2179 Clear -2 1030 40 16093 6 261 03:22 22.02.2020
2180 Clear -2 1030 40 16093 6 261 02:29 22.02.2020
2181 Clear -1 1030 35 16093 5.59 267 01:45 22.02.2020
2182 Clear -1 1030 35 16093 5.59 267 01:45 22.02.2020
2183 Clear -1 1030 26 16093 3.33 213 01:25 22.02.2020
2184 Clear -1 1030 26 16093 3.33 213 00:45 22.02.2020
2185 Clear -1 1030 26 16093 3.33 213 00:26 22.02.2020
2186 Clear 0 1030 26 16093 2.1 280 23:47 21.02.2020
2187 Clear 1 1030 21 16093 2.1 270 23:22 21.02.2020
2188 Clear 1 1030 22 16093 4.1 290 22:55 21.02.2020
2189 Clear 1 1030 22 16093 4.1 290 22:37 21.02.2020
2190 Clear 1 1030 22 16093 4.1 290 22:18 21.02.2020
2191 Rain 2 1031 21 16093 0.99 181 21:42 21.02.2020
2192 Rain 1 1031 21 16093 0.99 181 21:23 21.02.2020
2193 Rain 1 1031 21 16093 0.99 181 21:23 21.02.2020
2194 Rain 1 1031 21 16093 0.99 181 21:23 21.02.2020
2195 Clear 1 1031 21 16093 0.99 181 20:48 21.02.2020
2196 Clear 1 1031 22 16093 0.99 181 20:29 21.02.2020
2197 Clear 0 1032 24 16093 2.04 329 19:57 21.02.2020
2198 Clear 0 1032 26 16093 4.6 250 19:37 21.02.2020
2199 Clear 0 1032 26 16093 4.6 250 19:18 21.02.2020
2200 Clear -1 1033 34 16093 2.04 329 18:40 21.02.2020
2201 Clear -1 1033 34 16093 2.04 329 18:22 21.02.2020
2202 Clear -2 1034 28 16093 2.1 20 17:41 21.02.2020
2203 Clear -2 1034 30 16093 4.8 349 17:23 21.02.2020
2204 Clear -3 1034 33 16093 4.8 349 16:58 21.02.2020
2205 Clear -3 1034 33 16093 4.8 349 16:40 21.02.2020
2206 Clear -3 1034 58 16093 3.1 0 16:21 21.02.2020
2207 Clear -4 1034 49 16093 2.1 0 15:56 21.02.2020
2208 Clear -4 1034 49 16093 2.1 0 15:38 21.02.2020
2209 Clear -5 1034 49 16093 2.1 0 15:18 21.02.2020
2210 Clear -5 1034 45 16093 4.8 349 14:42 21.02.2020
2211 Clear -6 1034 49 16093 7.04 355 14:19 21.02.2020
2212 Clear -7 1033 53 16093 7.04 355 13:44 21.02.2020
2213 Clear -7 1033 53 16093 7.04 355 13:24 21.02.2020
2214 Clear -7 1033 53 16093 7.61 351 12:55 21.02.2020
2215 Clear -7 1032 53 16093 7.61 351 12:37 21.02.2020
2216 Clear -7 1032 53 16093 7.61 351 12:18 21.02.2020
2217 Clear -7 1032 53 16093 7.61 351 11:42 21.02.2020
2218 Clear -7 1032 53 16093 9.9 348 11:22 21.02.2020
2219 Clear -7 1031 48 16093 9.9 348 10:57 21.02.2020
2220 Clear -6 1031 45 16093 4.6 350 10:39 21.02.2020
2221 Clear -7 1031 48 16093 9.9 348 10:39 21.02.2020
2222 Clear -6 1031 45 16093 4.6 350 10:19 21.02.2020
2223 Clear -6 1032 45 16093 4.1 360 09:57 21.02.2020
2224 Clear -6 1032 45 16093 1.5 20 09:38 21.02.2020
2225 Clear -6 1032 45 16093 1.5 20 09:19 21.02.2020
2226 Clear -6 1032 45 16093 5.1 360 08:43 21.02.2020
2227 Clear -5 1032 45 16093 1.5 20 08:22 21.02.2020
2228 Clear -5 1032 41 16093 3.6 20 07:59 21.02.2020
2229 Clear -5 1032 41 16093 4.1 10 07:41 21.02.2020
2230 Clear -5 1032 41 16093 4.1 10 07:19 21.02.2020
2231 Clear -5 1032 41 16093 3.6 10 06:53 21.02.2020
2232 Clear -4 1032 42 16093 5.7 20 06:31 21.02.2020
2233 Clear -4 1032 42 16093 5.7 10 05:52 21.02.2020
2234 Clear -3 1031 36 16093 4.6 20 04:39 21.02.2020
2235 Clear -2 1031 36 16093 4.6 20 04:20 21.02.2020
2236 Clear -2 1031 54 16093 6.2 350 03:44 21.02.2020
2237 Clear -1 1031 54 16093 1.5 360 02:58 21.02.2020
2238 Clouds 0 1031 47 16093 3.1 340 01:28 21.02.2020
2239 Clouds 0 1030 47 16093 2.1 340 00:46 21.02.2020
2240 Rain 0 1030 47 16093 8.12 332 00:24 21.02.2020
2241 Clear 0 1029 37 16093 8.12 332 23:57 20.02.2020
2242 Clear 1 1029 37 16093 8.12 332 23:39 20.02.2020
2243 Clear 1 1029 37 16093 5.1 300 23:20 20.02.2020
2244 Clear 1 1029 37 16093 5.1 320 22:39 20.02.2020
2245 Clear 2 1029 34 16093 6.7 290 22:21 20.02.2020
2246 Clear 2 1029 34 16093 6.7 290 22:21 20.02.2020
2247 Clear 2 1029 34 16093 6.7 290 22:21 20.02.2020
2248 Clear 2 1029 34 16093 4.6 300 21:57 20.02.2020
2249 Clear 2 1029 34 16093 4.6 300 21:57 20.02.2020
2250 Clear 2 1029 34 16093 2.1 310 21:37 20.02.2020
2251 Clear 2 1029 34 16093 2.1 310 21:37 20.02.2020
2252 Clear 2 1029 34 16093 2.1 310 21:19 20.02.2020
2253 Clear 2 1029 34 16093 3.1 300 20:56 20.02.2020
2254 Clouds 2 1030 31 16093 3.6 300 20:38 20.02.2020
2255 Clouds 2 1030 31 16093 3.6 300 20:19 20.02.2020
2256 Clouds 1 1030 29 16093 4.1 280 19:58 20.02.2020
2257 Clouds 1 1030 29 16093 4.1 280 19:40 20.02.2020
2258 Clear 1 1030 31 16093 3.1 290 19:22 20.02.2020
2259 Clear 1 1031 31 16093 3.1 300 18:40 20.02.2020
2260 Clear 1 1031 34 16093 3.47 310 18:21 20.02.2020
2261 Clouds 1 1032 34 16093 2.1 300 17:58 20.02.2020
2262 Clear 1 1032 34 16093 3.47 310 17:39 20.02.2020
2263 Clear 1 1032 34 16093 3.47 310 17:38 20.02.2020
2264 Clear 1 1032 34 16093 4.18 339 17:19 20.02.2020
2265 Clouds 0 1031 31 16093 3.1 310 16:56 20.02.2020
2266 Clear 0 1033 37 16093 4.18 339 16:38 20.02.2020
2267 Clear 0 1033 37 16093 4.18 339 16:18 20.02.2020
2268 Clear 0 1033 48 16093 3.1 310 15:42 20.02.2020
2269 Clear 0 1033 48 16093 3.1 310 15:22 20.02.2020
2270 Clear -1 1033 48 16093 4.18 339 14:58 20.02.2020
2271 Clear -1 1033 48 16093 4.18 339 14:40 20.02.2020
2272 Clear -2 1033 46 16093 5.73 344 14:21 20.02.2020
2273 Clear -2 1032 50 16093 5.73 344 13:55 20.02.2020
2274 Clear -3 1032 50 16093 5.73 344 13:37 20.02.2020
2275 Clear -3 1032 50 16093 4.93 340 13:18 20.02.2020
2276 Clear -3 1032 58 16093 3.1 250 13:18 20.02.2020
2277 Clear -3 1032 50 16093 4.93 340 12:42 20.02.2020
2278 Clear -3 1032 58 16093 3.1 0 12:21 20.02.2020
2279 Clear -2 1032 54 16093 4.93 340 11:58 20.02.2020
2280 Clear -2 1031 46 16093 4.93 340 11:39 20.02.2020
2281 Clear -2 1031 46 16093 5.57 331 11:21 20.02.2020
2282 Clear -2 1031 46 16093 5.57 331 10:56 20.02.2020
2283 Clear -2 1031 46 16093 5.57 331 10:38 20.02.2020
2284 Clear -2 1031 50 16093 4.6 340 10:19 20.02.2020
2285 Clear -2 1031 55 16093 3.6 360 09:39 20.02.2020
2286 Clear -2 1031 55 16093 3.6 360 09:21 20.02.2020
2287 Clear -1 1030 55 16093 3.1 350 08:44 20.02.2020
2288 Clear -1 1030 54 16093 3.6 360 08:24 20.02.2020
2289 Clear -1 1030 53 16093 5.54 314 07:55 20.02.2020
2290 Clear -1 1030 53 16093 5.54 314 07:37 20.02.2020
2291 Clear -1 1030 53 16093 5.54 314 07:19 20.02.2020
2292 Clear -1 1030 53 16093 5.54 314 06:43 20.02.2020
2293 Clear -1 1030 53 16093 5.54 314 06:19 20.02.2020
2294 Clear -1 1029 47 16093 5.54 314 05:42 20.02.2020
2295 Clear 0 1029 47 16093 7.39 311 04:49 20.02.2020
2296 Clear 1 1029 47 16093 4.1 70 03:47 20.02.2020
2297 Clouds 2 1029 50 16093 3.1 360 02:48 20.02.2020
2298 Clear 3 1027 27 16093 1.5 330 01:33 20.02.2020
2299 Clear 4 1027 27 16093 6.46 331 00:54 20.02.2020
2300 Clear 5 1027 28 16093 1.5 330 00:25 20.02.2020
2301 Clear 5 1026 26 16093 3.1 330 23:48 19.02.2020
2302 Clear 5 1025 22 16093 4.1 290 23:21 19.02.2020
2303 Clear 6 1025 26 16093 4.6 340 22:44 19.02.2020
2304 Clear 7 1024 24 16093 5.1 320 22:25 19.02.2020
2305 Clear 7 1024 24 16093 8.2 310 21:59 19.02.2020
2306 Clear 7 1024 24 16093 8.2 310 21:40 19.02.2020
2307 Clear 7 1024 23 16093 7.2 340 21:19 19.02.2020
2308 Clear 8 1024 23 16093 6.2 330 20:58 19.02.2020
2309 Clear 8 1023 23 16093 8.7 340 20:39 19.02.2020
2310 Clear 8 1023 23 16093 8.7 340 20:20 19.02.2020
2311 Clear 8 1023 27 16093 6.7 320 19:58 19.02.2020
2312 Clear 8 1023 29 16093 6.7 320 19:38 19.02.2020
2313 Clear 8 1023 29 16093 6.7 320 19:20 19.02.2020
2314 Clear 8 1023 27 16093 7.7 340 18:58 19.02.2020
2315 Clear 8 1023 31 16093 6.2 320 18:40 19.02.2020
2316 Clear 8 1023 31 16093 6.2 320 18:21 19.02.2020
2317 Clear 8 1023 31 16093 6.2 330 17:57 19.02.2020
2318 Clear 7 1024 33 16093 8.2 320 17:39 19.02.2020
2319 Clear 7 1024 33 16093 8.2 320 17:18 19.02.2020
2320 Clear 6 1024 36 16093 5.7 340 16:43 19.02.2020
2321 Clear 6 1024 39 16093 6.2 310 16:19 19.02.2020
2322 Clear 6 1024 39 16093 6.2 320 15:57 19.02.2020
2323 Clear 6 1024 45 16093 4.1 320 15:38 19.02.2020
2324 Clear 5 1024 45 16093 4.1 320 15:19 19.02.2020
2325 Clear 5 1023 45 16093 4.1 310 14:41 19.02.2020
2326 Clouds 5 1023 44 16093 4.1 350 14:23 19.02.2020
2327 Clouds 4 1022 55 16093 2.1 340 13:55 19.02.2020
2328 Clouds 4 1021 56 16093 2.6 0 13:36 19.02.2020
2329 Clouds 4 1021 56 16093 2.6 0 13:18 19.02.2020
2330 Clouds 5 1021 45 16093 4.1 340 12:38 19.02.2020
2331 Clouds 6 1021 52 16093 3.6 320 12:19 19.02.2020
2332 Clouds 6 1021 52 16093 4.6 320 12:19 19.02.2020
2333 Clouds 6 1021 52 16093 4.6 320 11:55 19.02.2020
2334 Clouds 6 1021 52 16093 4.6 320 11:37 19.02.2020
2335 Clouds 6 1020 52 16093 5.7 320 11:18 19.02.2020
2336 Clouds 6 1020 52 16093 4.6 330 10:55 19.02.2020
2337 Clouds 6 1020 52 16093 4.6 330 10:36 19.02.2020
2338 Clouds 6 1019 52 16093 6.2 330 10:18 19.02.2020
2339 Clouds 7 1017 61 16093 4.1 320 09:41 19.02.2020
2340 Clouds 7 1017 61 16093 4.1 320 09:20 19.02.2020
2341 Clouds 7 1017 65 16093 7.2 320 08:56 19.02.2020
2342 Clouds 7 1017 87 12874 2.6 220 08:37 19.02.2020
2343 Clouds 7 1017 87 12874 2.6 220 08:19 19.02.2020
2344 Clouds 7 1017 87 11265 5.11 307 07:41 19.02.2020
2345 Clouds 7 1017 87 11265 5.11 307 07:20 19.02.2020
2346 Clouds 6 1017 87 11265 5.11 307 06:47 19.02.2020
2347 Clouds 6 1017 87 11265 5.11 307 05:40 19.02.2020
2348 Mist 6 1016 87 8047 3.78 276 03:59 19.02.2020
2349 Mist 6 1016 87 6437 3.78 276 02:51 19.02.2020
2350 Mist 6 1016 93 8047 3.78 276 02:29 19.02.2020
2351 Rain 6 1016 87 8047 3.81 226 01:23 19.02.2020
2352 Mist 6 1017 87 8047 3.81 226 00:45 19.02.2020
2353 Clouds 6 1016 87 11265 3.81 226 00:24 19.02.2020
2354 Clouds 6 1017 87 11265 3.1 40 23:41 18.02.2020
2355 Mist 7 1017 87 3219 2.6 60 23:20 18.02.2020
2356 Mist 7 1017 87 8047 3.1 90 22:56 18.02.2020
2357 Mist 7 1017 87 8047 4.9 161 22:37 18.02.2020
2358 Mist 7 1017 87 8047 4.9 161 22:37 18.02.2020
2359 Mist 7 1017 87 8047 4.9 161 22:19 18.02.2020
2360 Clouds 8 1018 81 11265 2.1 120 21:55 18.02.2020
2361 Clouds 8 1019 81 11265 4.1 140 21:37 18.02.2020
2362 Clouds 8 1019 81 11265 4.1 140 21:18 18.02.2020
2363 Clouds 8 1019 81 11265 3.6 140 20:56 18.02.2020
2364 Clouds 8 1019 81 11265 3.6 140 20:56 18.02.2020
2365 Clouds 8 1019 81 16093 2.6 90 20:37 18.02.2020
2366 Clouds 7 1019 76 16093 5.1 140 20:19 18.02.2020
2367 Clouds 8 1020 76 16093 3.6 150 19:42 18.02.2020
2368 Clouds 7 1021 76 16093 1.5 140 19:20 18.02.2020
2369 Clouds 7 1022 76 16093 4.1 150 18:59 18.02.2020
2370 Clouds 7 1022 76 16093 4.1 150 18:59 18.02.2020
2371 Clouds 7 1022 76 16093 4.1 150 18:40 18.02.2020
2372 Clouds 7 1023 75 16093 4.1 130 18:20 18.02.2020
2373 Clouds 7 1023 75 16093 4.6 140 17:55 18.02.2020
2374 Clouds 7 1024 75 16093 6.2 140 17:36 18.02.2020
2375 Clouds 6 1024 75 16093 6.2 140 17:18 18.02.2020
2376 Clouds 6 1026 75 16093 5.1 140 16:39 18.02.2020
2377 Clouds 6 1026 75 16093 5.1 140 16:19 18.02.2020
2378 Clouds 6 1026 75 16093 6.2 70 15:40 18.02.2020
2379 Clouds 5 1026 70 16093 4.6 130 15:20 18.02.2020
2380 Clouds 5 1026 75 16093 5.1 130 14:57 18.02.2020
2381 Clouds 5 1027 70 16093 3.1 120 14:38 18.02.2020
2382 Clouds 4 1027 70 16093 3.1 120 14:20 18.02.2020
2383 Clouds 4 1027 77 16093 2.6 60 13:42 18.02.2020
2384 Clouds 3 1027 77 16093 2.6 60 13:23 18.02.2020
2385 Clouds 3 1027 69 16093 3.1 100 12:59 18.02.2020
2386 Clouds 3 1027 69 16093 3.1 100 12:40 18.02.2020
2387 Clouds 3 1028 64 16093 3.6 90 12:22 18.02.2020
2388 Clouds 3 1027 64 16093 4.1 100 11:46 18.02.2020
2389 Clouds 3 1027 64 16093 5.7 40 11:26 18.02.2020
2390 Clouds 3 1027 60 16093 3.6 120 10:58 18.02.2020
2391 Clouds 2 1027 60 16093 3.6 120 10:39 18.02.2020
2392 Clouds 2 1028 55 16093 3.6 110 10:18 18.02.2020
2393 Clouds 2 1028 51 16093 3.6 120 09:56 18.02.2020
2394 Clouds 2 1028 48 16093 4.1 100 09:37 18.02.2020
2395 Clouds 2 1028 48 16093 4.1 100 09:19 18.02.2020
2396 Clouds 2 1028 48 16093 5.1 100 08:44 18.02.2020
2397 Clouds 2 1028 48 16093 4.6 90 08:21 18.02.2020
2398 Clouds 2 1029 51 16093 4.6 100 07:59 18.02.2020
2399 Clouds 2 1029 51 16093 4.1 100 07:41 18.02.2020
2400 Clouds 2 1029 51 16093 4.1 100 07:22 18.02.2020
2401 Clear 2 1029 55 16093 4.1 90 06:43 18.02.2020
2402 Clear 2 1029 55 16093 3.6 90 06:25 18.02.2020
2403 Clear 2 1029 52 16093 4.6 100 05:47 18.02.2020
2404 Clear 2 1029 60 16093 2.8 64 04:43 18.02.2020
2405 Clear 2 1028 52 16093 2.8 64 03:36 18.02.2020
2406 Clear 3 1028 56 16093 2.8 64 02:54 18.02.2020
2407 Clear 4 1027 56 16093 0.98 145 01:23 18.02.2020
2408 Clear 6 1026 39 16093 0.98 145 00:22 18.02.2020
2409 Clear 7 1025 34 16093 0.98 145 23:58 17.02.2020
2410 Clear 7 1025 29 16093 0.98 145 23:38 17.02.2020
2411 Clear 8 1025 29 16093 1.42 182 23:19 17.02.2020
2412 Clear 9 1025 27 16093 1.42 182 22:56 17.02.2020
2413 Clear 9 1025 25 16093 2.1 290 22:38 17.02.2020
2414 Clear 9 1025 25 16093 2.1 290 22:18 17.02.2020
2415 Rain 9 1025 27 16093 1.42 182 21:39 17.02.2020
2416 Rain 10 1025 27 16093 1.42 182 21:18 17.02.2020
2417 Clear 10 1024 27 16093 1.42 182 20:55 17.02.2020
2418 Clear 9 1024 31 16093 0.42 357 20:36 17.02.2020
2419 Clear 9 1024 31 16093 1.42 182 20:36 17.02.2020
2420 Clear 9 1024 31 16093 2.53 339 20:18 17.02.2020
2421 Clear 9 1024 29 16093 2.53 339 19:42 17.02.2020
2422 Clear 9 1024 31 16093 2.53 339 19:21 17.02.2020
2423 Clear 9 1025 31 16093 2.1 320 18:55 17.02.2020
2424 Clear 9 1025 31 16093 2.1 320 18:36 17.02.2020
2425 Clear 9 1025 31 16093 2.1 320 18:36 17.02.2020
2426 Clear 9 1025 34 16093 2.1 310 18:18 17.02.2020
2427 Clear 8 1025 36 16093 1.5 10 17:38 17.02.2020
2428 Clear 7 1025 36 16093 1.5 10 17:19 17.02.2020
2429 Clear 6 1025 39 16093 4.57 348 16:58 17.02.2020
2430 Clear 6 1025 39 16093 4.57 348 16:40 17.02.2020
2431 Clear 6 1025 39 16093 2.1 50 16:22 17.02.2020
2432 Clear 5 1025 45 16093 2.1 360 15:46 17.02.2020
2433 Clear 5 1025 56 16093 4.57 348 15:46 17.02.2020
2434 Clear 5 1025 56 16093 4.57 348 15:27 17.02.2020
2435 Clear 4 1024 60 16093 1.5 0 14:58 17.02.2020
2436 Clear 3 1024 60 16093 1.5 0 14:40 17.02.2020
2437 Clear 2 1024 60 16093 1.5 0 14:22 17.02.2020
2438 -273 0 0 0 0 0 14:22 17.02.2020
2439 Clear 1 1023 74 16093 6.5 342 13:56 17.02.2020
2440 Clear 0 1023 74 16093 6.5 342 13:38 17.02.2020
2441 Clear 0 1023 74 16093 6.78 342 13:18 17.02.2020
2442 Clear 0 1023 80 16093 6.78 342 12:42 17.02.2020
2443 Clear 0 1022 74 16093 6.78 342 12:23 17.02.2020
2444 Clear 0 1022 74 16093 6.78 342 11:57 17.02.2020
2445 Clear 0 1022 74 16093 6.78 342 11:39 17.02.2020
2446 Clear 0 1022 74 16093 6.78 342 11:39 17.02.2020
2447 Clear 0 1022 74 16093 5.38 327 11:20 17.02.2020
2448 Clear 1 1021 74 16093 5.38 327 10:54 17.02.2020
2449 Clear 1 1021 69 16093 5.38 327 10:36 17.02.2020
2450 Clear 1 1021 69 16093 5.38 327 10:18 17.02.2020
2451 Clear 1 1020 74 16093 5.38 327 09:41 17.02.2020
2452 Clear 1 1020 74 16093 5.38 327 09:21 17.02.2020
2453 Clear 1 1020 74 16093 5.38 327 09:21 17.02.2020
2454 Clouds 2 1020 74 16093 5.38 327 08:57 17.02.2020
2455 Clouds 2 1020 74 16093 5.38 327 08:39 17.02.2020
2456 Clouds 2 1020 74 16093 4.84 315 08:19 17.02.2020
2457 Clouds 2 1020 74 16093 4.84 315 07:44 17.02.2020
2458 Clouds 2 1020 74 16093 4.84 315 07:24 17.02.2020
2459 Clouds 2 1020 74 16093 4.84 315 06:52 17.02.2020
2460 Clouds 2 1020 74 16093 4.84 315 06:32 17.02.2020
2461 Clouds 2 1020 74 16093 4.84 315 05:56 17.02.2020
2462 Clouds 2 1020 74 16093 4.84 315 05:37 17.02.2020
2463 Clear 2 1019 80 16093 3.28 269 03:21 17.02.2020
2464 Clear 3 1020 64 16093 3.03 252 01:49 17.02.2020
2465 Clear 3 1020 64 16093 3.31 253 00:48 17.02.2020
2466 Clouds 4 1019 60 16093 3.31 253 00:21 17.02.2020
2467 Clouds 4 1019 60 16093 3.31 253 00:21 17.02.2020
2468 Clear 5 1019 42 16093 3.31 253 23:53 16.02.2020
2469 Clouds 5 1020 45 16093 2.6 230 23:30 16.02.2020
2470 Clear 6 1019 39 16093 4.31 250 22:57 16.02.2020
2471 Clear 6 1019 39 16093 4.31 250 22:39 16.02.2020
2472 Clear 6 1019 42 16093 4.31 250 22:21 16.02.2020
2473 Clear 6 1019 48 16093 4.31 250 21:57 16.02.2020
2474 Clear 6 1019 48 16093 4.31 250 21:39 16.02.2020
2475 Clear 6 1019 48 16093 4.31 250 21:21 16.02.2020
2476 Clear 6 1019 48 16093 3.1 290 20:57 16.02.2020
2477 Clear 6 1019 48 16093 3.1 290 20:39 16.02.2020
2478 Clouds 5 1020 52 16093 2.1 270 20:21 16.02.2020
2479 Clouds 5 1020 52 16093 3.1 310 19:58 16.02.2020
2480 Clouds 5 1020 52 16093 3.1 310 19:38 16.02.2020
2481 Clouds 4 1020 60 16093 3.6 290 19:19 16.02.2020
2482 Clouds 4 1021 60 16093 2.6 280 18:44 16.02.2020
2483 Clouds 4 1021 59 16093 2.6 290 18:25 16.02.2020
2484 Clouds 3 1022 59 16093 4.1 300 17:57 16.02.2020
2485 Clouds 3 1022 59 16093 4.1 300 17:39 16.02.2020
2486 Clear 2 1022 59 16093 4.1 290 17:19 16.02.2020
2487 Clear 2 1022 64 16093 3.6 280 16:55 16.02.2020
2488 Clear 2 1022 64 16093 3.6 280 16:36 16.02.2020
2489 Clear 1 1023 69 16093 3.6 270 16:18 16.02.2020
2490 Clear 1 1023 69 16093 2.6 270 15:41 16.02.2020
2491 -273 0 0 0 0 0 15:22 16.02.2020
2492 Clouds 0 1024 66 16093 2.6 270 14:45 16.02.2020
2493 Clouds -1 1024 80 16093 2.6 280 14:24 16.02.2020
2494 Clear -1 1024 80 16093 1.5 270 13:59 16.02.2020
2495 Clear -1 1024 80 16093 1.5 270 13:41 16.02.2020
2496 Clear -1 1024 74 16093 8.32 233 13:23 16.02.2020
2497 Clear -1 1024 74 16093 8.32 233 13:23 16.02.2020
2498 Clear -2 1024 74 16093 8.32 233 12:40 16.02.2020
2499 Clear -2 1024 74 16093 8.32 233 12:20 16.02.2020
2500 Clear -2 1024 74 16093 2.1 270 11:57 16.02.2020
2501 Clear -2 1025 74 16093 2.1 260 11:37 16.02.2020
2502 Clear -2 1025 74 16093 2.1 260 11:18 16.02.2020
2503 Clear -2 1025 74 16093 8.52 232 10:56 16.02.2020
2504 Clear -2 1025 74 16093 8.52 232 10:37 16.02.2020
2505 Clear -2 1025 68 16093 1.5 260 10:37 16.02.2020
2506 Clear -2 1025 68 16093 1.5 260 10:19 16.02.2020
2507 Clear -2 1025 74 16093 8.52 232 09:39 16.02.2020
2508 Clear -2 1025 74 16093 8.52 232 09:21 16.02.2020
2509 Clear -2 1026 68 16093 2.1 240 08:59 16.02.2020
2510 Clear -2 1026 68 16093 2.1 240 08:59 16.02.2020
2511 Clear -2 1026 68 16093 2.1 240 08:40 16.02.2020
2512 Clear -2 1026 68 16093 1.5 230 08:20 16.02.2020
2513 Clear -2 1026 68 16093 1.5 230 08:20 16.02.2020
2514 Clear -2 1027 68 16093 9.07 223 07:49 16.02.2020
2515 Clear -2 1027 63 16093 9.07 223 07:26 16.02.2020
2516 Clear -2 1028 63 16093 9.07 223 06:33 16.02.2020
2517 Clear -3 1029 53 16093 9.11 211 04:42 16.02.2020
2518 Clear -3 1029 46 16093 2.1 210 03:25 16.02.2020
2519 Clear -3 1030 50 16093 2.6 210 02:31 16.02.2020
2520 Clear -3 1031 54 16093 2.1 180 01:42 16.02.2020
2521 Clear -3 1031 54 16093 2.1 180 01:22 16.02.2020
2522 Clear -2 1031 50 16093 8.34 201 00:52 16.02.2020
2523 Clear -2 1032 39 16093 8.34 201 00:31 16.02.2020
2524 Clear -2 1031 30 16093 8.34 201 23:54 15.02.2020
2525 Clear -2 1032 46 16093 8.34 201 23:36 15.02.2020
2526 Clear -2 1032 46 16093 6.32 178 23:18 15.02.2020
2527 Clear -2 1032 50 16093 3.1 150 22:41 15.02.2020
2528 Clear -2 1032 50 16093 3.1 150 22:22 15.02.2020
2529 Clear -2 1033 46 16093 2.1 150 21:59 15.02.2020
2530 Clear -2 1033 46 16093 2.6 140 21:41 15.02.2020
2531 Clear -2 1033 46 16093 2.6 140 21:21 15.02.2020
2532 Clear -2 1034 28 16093 2.1 250 20:41 15.02.2020
2533 Clear -2 1034 28 16093 2.1 250 20:21 15.02.2020
2534 Clear -2 1034 30 16093 1.5 210 19:44 15.02.2020
2535 Clear -2 1035 33 16093 2.6 230 19:24 15.02.2020
2536 Clear -3 1036 33 16093 2.1 230 18:55 15.02.2020
2537 Clear -3 1036 33 16093 2.1 230 18:37 15.02.2020
2538 Clear -3 1037 38 16093 3.39 149 18:18 15.02.2020
2539 Clear -4 1037 38 16093 3.39 149 17:43 15.02.2020
2540 Clear -5 1038 38 16093 1.45 136 17:22 15.02.2020
2541 Clear -5 1039 41 16093 2.1 150 16:59 15.02.2020
2542 Clear -6 1039 41 16093 2.1 150 16:39 15.02.2020
2543 Clear -6 1039 44 16093 1.45 136 16:20 15.02.2020
2544 Clear -7 1039 44 16093 1.5 290 15:49 15.02.2020
2545 Clear -8 1039 48 16093 1.45 136 15:30 15.02.2020
2546 Clear -8 1039 52 16093 1.45 136 14:46 15.02.2020
2547 Clear -10 1039 52 16093 1.45 136 14:24 15.02.2020
2548 Clear -10 1039 56 16093 1.5 20 13:58 15.02.2020
2549 Clear -11 1039 56 16093 1.5 20 13:40 15.02.2020
2550 Clear -11 1039 56 16093 2.12 8 13:21 15.02.2020
2551 Clear -11 1038 56 16093 2.12 8 12:55 15.02.2020
2552 Clear -11 1038 52 16093 2.12 8 12:37 15.02.2020
2553 Clear -11 1038 52 16093 2.12 8 12:19 15.02.2020
2554 Clear -11 1038 56 16093 2.12 8 11:41 15.02.2020
2555 Clear -11 1038 56 16093 2.12 8 11:23 15.02.2020
2556 Clear -11 1038 56 16093 2.82 356 10:47 15.02.2020
2557 Clear -11 1038 56 16093 3.6 340 10:29 15.02.2020
2558 Clear -10 1038 52 16093 3.1 340 09:45 15.02.2020
2559 Clear -10 1037 52 16093 2.82 356 09:26 15.02.2020
2560 Clear -10 1037 52 16093 2.82 356 08:59 15.02.2020
2561 Clear -10 1037 52 16093 2.82 356 08:41 15.02.2020
2562 Clear -10 1037 52 16093 5.1 350 08:22 15.02.2020
2563 Clear -9 1037 47 16093 5 351 07:44 15.02.2020
2564 Clear -9 1037 44 16093 3.6 350 07:25 15.02.2020
2565 Clear -9 1037 44 16093 3.6 350 07:25 15.02.2020
2566 Clear -9 1037 44 16093 5 351 06:45 15.02.2020
2567 Clear -9 1037 44 16093 4.1 350 06:26 15.02.2020
2568 Clear -8 1036 37 16093 4.1 340 05:30 15.02.2020
2569 Clear -8 1036 37 16093 5.1 360 04:44 15.02.2020
2570 Clear -7 1035 45 16093 3.1 0 03:23 15.02.2020
2571 Clear -6 1035 48 16093 4.1 340 02:42 15.02.2020
2572 Clear -6 1034 35 16093 3.1 250 02:19 15.02.2020
2573 Clear -5 1033 32 16093 5.1 350 01:38 15.02.2020
2574 Clear -4 1031 30 16093 4.6 340 00:38 15.02.2020
2575 Clear -4 1031 30 16093 4.6 340 00:18 15.02.2020
2576 Clear -3 1031 30 16093 5.7 330 23:39 14.02.2020
2577 Clear -3 1030 28 16093 6.7 330 23:19 14.02.2020
2578 Clear -2 1029 28 16093 4.6 340 22:43 14.02.2020
2579 Clear -2 1029 28 16093 4.6 340 22:23 14.02.2020
2580 Clear -2 1028 28 16093 4.1 340 21:52 14.02.2020
2581 Clear -1 1028 30 16093 6.7 350 21:34 14.02.2020
2582 Clear -1 1027 43 16093 5.7 310 20:59 14.02.2020
2583 Clear -1 1027 43 16093 5.7 360 20:40 14.02.2020
2584 Clear -1 1027 46 16093 5.7 360 20:19 14.02.2020
2585 Clear -1 1026 46 16093 7.2 310 19:54 14.02.2020
2586 Clear -1 1026 46 16093 5.7 310 19:36 14.02.2020
2587 Clear -1 1026 46 16093 5.7 310 19:18 14.02.2020
2588 Clear -1 1026 46 16093 6.7 330 18:54 14.02.2020
2589 Clear -1 1026 39 16093 6.2 340 18:36 14.02.2020
2590 Clear -1 1026 39 16093 6.2 340 18:18 14.02.2020
2591 Clear -1 1026 43 16093 2.6 0 17:40 14.02.2020
2592 Clear -1 1026 43 16093 2.6 0 17:18 14.02.2020
2593 Clear -1 1026 42 16093 7.7 350 16:43 14.02.2020
2594 Clear -1 1025 59 16093 7.7 330 16:24 14.02.2020
2595 Clear -1 1025 59 16093 7.7 330 15:58 14.02.2020
2596 Clear -1 1024 59 16093 7.2 350 15:40 14.02.2020
2597 Clear -1 1024 59 16093 7.2 350 15:21 14.02.2020
2598 Clouds -1 1024 54 16093 8.2 360 14:59 14.02.2020
2599 Clouds -1 1024 54 16093 8.2 360 14:41 14.02.2020
2600 Clouds -1 1023 63 16093 5.7 340 14:22 14.02.2020
2601 Clouds -1 1023 63 16093 5.7 330 13:57 14.02.2020
2602 Clouds -1 1023 63 16093 5.7 330 13:39 14.02.2020
2603 Clouds -1 1021 55 16093 6.7 340 13:20 14.02.2020
2604 Clouds 0 1021 69 16093 3.1 340 12:57 14.02.2020
2605 Clouds 1 1019 69 16093 4.1 340 12:38 14.02.2020
2606 Clouds 1 1019 69 16093 4.1 340 12:20 14.02.2020
2607 Clouds 1 1019 74 16093 4.1 360 11:57 14.02.2020
2608 Clouds 1 1019 74 16093 4.1 360 11:57 14.02.2020
2609 Clouds 1 1018 74 16093 2.6 300 11:39 14.02.2020
2610 Clouds 1 1018 74 16093 2.6 300 11:19 14.02.2020
2611 Clear 1 1018 74 16093 2.6 290 10:43 14.02.2020
2612 Clear 2 1017 69 16093 3.6 280 10:22 14.02.2020
2613 Clear 1 1016 74 16093 4.1 290 09:56 14.02.2020
2614 Clear 1 1016 74 16093 3.1 280 09:36 14.02.2020
2615 Clear 2 1016 74 16093 3.1 280 09:18 14.02.2020
2616 Clear 2 1016 74 16093 3.6 280 08:40 14.02.2020
2617 Clear 2 1015 74 16093 1.5 260 08:22 14.02.2020
2618 Clear 2 1015 74 16093 1.5 260 08:22 14.02.2020
2619 Clear 2 1015 74 16093 1.5 260 08:22 14.02.2020
2620 Clear 2 1015 74 16093 1.5 260 08:22 14.02.2020
2621 Clear 2 1015 74 16093 2.1 280 07:50 14.02.2020
2622 Clouds 2 1015 64 16093 8.95 304 07:31 14.02.2020
2623 Clear 3 1015 69 16093 8.95 304 06:48 14.02.2020
2624 Clear 3 1014 69 16093 3.1 300 06:22 14.02.2020
2625 Clear 3 1014 64 16093 3.1 310 05:42 14.02.2020
2626 Clear 4 1012 66 16093 5.1 320 03:51 14.02.2020
2627 Clear 4 1011 66 16093 6.7 320 03:24 14.02.2020
2628 Clouds 5 1011 70 16093 4.1 280 02:18 14.02.2020
2629 Clouds 5 1008 87 16093 2.6 0 01:21 14.02.2020
2630 Rain 5 1007 81 16093 2.6 280 00:37 14.02.2020
2631 Rain 5 1007 81 16093 2.6 280 00:18 14.02.2020
2632 Clouds 5 1006 76 16093 4.1 280 23:41 13.02.2020
2633 Clouds 5 1005 87 16093 3.6 240 23:19 13.02.2020
2634 Rain 5 1005 100 16093 7.19 274 22:41 13.02.2020
2635 Rain 5 1005 87 16093 3.1 240 22:20 13.02.2020
2636 Rain 5 1003 87 11265 1.5 260 21:59 13.02.2020
2637 Rain 5 1004 93 4828 3.6 300 21:40 13.02.2020
2638 Rain 5 1004 93 9656 7.19 274 21:21 13.02.2020
2639 Rain 5 1004 93 0 3.6 270 20:56 13.02.2020
2640 Rain 5 1003 87 0 7.19 274 20:37 13.02.2020
2641 Rain 5 1003 87 0 4.16 304 20:19 13.02.2020
2642 Rain 4 1004 93 4828 3.1 300 19:55 13.02.2020
2643 Rain 4 1003 93 0 2.6 250 19:36 13.02.2020
2644 Rain 5 1003 93 0 2.6 250 19:18 13.02.2020
2645 Rain 5 1004 87 4023 2.1 280 18:41 13.02.2020
2646 Rain 4 1004 87 4828 1.5 0 18:23 13.02.2020
2647 Rain 5 1004 87 4828 1.5 0 18:22 13.02.2020
2648 Rain 4 1005 93 6437 2.1 220 17:58 13.02.2020
2649 Rain 4 1004 93 3219 9.32 248 17:38 13.02.2020
2650 Rain 4 1004 100 2816 2.6 240 17:38 13.02.2020
2651 Rain 4 1005 93 0 2.1 210 17:20 13.02.2020
2652 Rain 4 1005 100 4023 5.72 249 16:57 13.02.2020
2653 Rain 4 1005 93 0 2.6 260 16:36 13.02.2020
2654 Rain 3 1005 93 0 2.6 260 16:18 13.02.2020
2655 Mist 3 1005 93 4828 5.72 249 15:56 13.02.2020
2656 Rain 3 1005 93 2816 2.6 40 15:37 13.02.2020
2657 Rain 3 1005 93 0 1.5 150 15:18 13.02.2020
2658 Rain 3 1007 93 2816 5.72 249 14:55 13.02.2020
2659 Rain 3 1007 93 2816 5.72 249 14:55 13.02.2020
2660 Rain 3 1005 93 8047 2.6 60 14:37 13.02.2020
2661 Rain 3 1005 93 8047 2.6 60 14:37 13.02.2020
2662 Rain 3 1005 93 8047 2.6 60 14:37 13.02.2020
2663 Rain 3 1005 93 8047 2.6 60 14:19 13.02.2020
2664 Rain 3 1005 93 8047 3.1 0 13:42 13.02.2020
2665 Rain 3 1005 93 0 2.1 40 13:18 13.02.2020
2666 Rain 2 1005 93 8047 3.1 80 12:54 13.02.2020
2667 Rain 2 1005 93 6437 4.1 130 12:36 13.02.2020
2668 Rain 2 1005 93 6437 4.1 130 12:18 13.02.2020
2669 Rain 2 1006 100 4828 3.71 248 11:43 13.02.2020
2670 Rain 2 1007 93 4023 3.24 158 11:20 13.02.2020
2671 Rain 2 1009 86 4828 1.5 290 10:46 13.02.2020
2672 Rain 2 1009 93 0 2.1 260 10:27 13.02.2020
2673 Rain 2 1009 93 4828 2.6 300 09:51 13.02.2020
2674 Rain 2 1009 93 4828 2.1 330 09:28 13.02.2020
2675 Rain 2 1010 93 8047 1.5 150 08:58 13.02.2020
2676 Rain 2 1011 93 0 3.24 158 08:37 13.02.2020
2677 Rain 2 1011 93 0 5.38 162 08:18 13.02.2020
2678 Drizzle 2 1012 93 6437 5.38 162 07:39 13.02.2020
2679 Rain 2 1013 93 0 5.38 162 07:20 13.02.2020
2680 Rain 2 1014 93 6437 1.5 0 06:44 13.02.2020
2681 Rain 2 1015 86 6437 2.6 210 06:20 13.02.2020
2682 Rain 3 1018 80 0 5.7 220 05:33 13.02.2020
2683 Rain 4 1018 78 16093 4.1 200 04:26 13.02.2020
2684 Rain 4 1019 78 16093 5.1 180 03:52 13.02.2020
2685 Rain 5 1019 65 16093 3.1 200 03:24 13.02.2020
2686 Drizzle 5 1020 60 16093 3.6 200 02:50 13.02.2020
2687 Clouds 5 1020 56 16093 6.76 181 02:19 13.02.2020
2688 Clouds 5 1021 56 16093 2.1 200 01:35 13.02.2020
2689 Clouds 5 1021 52 16093 1.5 200 00:39 13.02.2020
2690 Clouds 5 1021 56 16093 7.13 185 00:21 13.02.2020
2691 Clouds 6 1021 60 16093 7.13 185 23:40 12.02.2020
2692 Clouds 6 1023 56 16093 5.75 150 23:21 12.02.2020
2693 Clear 6 1022 52 16093 3.6 170 22:45 12.02.2020
2694 Clear 6 1022 52 16093 3.6 170 22:27 12.02.2020
2695 Clear 6 1022 39 16093 2.1 200 21:59 12.02.2020
2696 Clear 6 1022 42 16093 5.75 150 21:40 12.02.2020
2697 Clear 7 1022 42 16093 5.75 150 21:19 12.02.2020
2698 Clear 7 1022 39 16093 5.75 150 20:58 12.02.2020
2699 Clear 7 1022 39 16093 5.75 150 20:39 12.02.2020
2700 Clear 7 1022 39 16093 1.81 219 20:20 12.02.2020
2701 Clear 7 1022 39 16093 1.81 219 19:55 12.02.2020
2702 Clear 7 1023 42 16093 2.43 229 19:37 12.02.2020
2703 Clear 7 1023 42 16093 2.43 229 19:18 12.02.2020
2704 Clear 7 1023 42 16093 2.1 270 18:46 12.02.2020
2705 Clear 6 1023 39 16093 1.81 219 18:19 12.02.2020
2706 Clear 6 1024 41 16093 1.81 219 17:56 12.02.2020
2707 Clear 6 1024 41 16093 2.43 229 17:37 12.02.2020
2708 Clear 6 1024 41 16093 4.68 319 17:19 12.02.2020
2709 Clear 5 1024 45 16093 2.1 280 16:40 12.02.2020
2710 Clear 5 1024 44 16093 4.68 319 16:20 12.02.2020
2711 Clear 5 1023 44 16093 5.1 330 15:58 12.02.2020
2712 Clear 5 1023 44 16093 5.1 330 15:37 12.02.2020
2713 Clear 4 1024 44 16093 4.53 323 15:18 12.02.2020
2714 Clear 4 1023 51 16093 4.68 319 14:42 12.02.2020
2715 Clear 3 1023 48 16093 7.85 333 14:21 12.02.2020
2716 Clear 3 1022 51 16093 7.85 333 13:58 12.02.2020
2717 Clear 3 1022 51 16093 7.85 333 13:40 12.02.2020
2718 Clear 3 1021 51 16093 7.63 329 13:21 12.02.2020
2719 Clear 3 1021 51 16093 3.6 330 12:58 12.02.2020
2720 Clear 3 1021 48 16093 5.7 330 12:38 12.02.2020
2721 Clear 3 1021 48 16093 5.7 330 12:19 12.02.2020
2722 Clear 3 1020 55 16093 4.6 340 11:58 12.02.2020
2723 Clear 3 1020 55 16093 4.6 340 11:58 12.02.2020
2724 Clear 3 1019 59 16093 7.63 329 11:40 12.02.2020
2725 Clear 3 1019 59 16093 9.72 316 11:20 12.02.2020
2726 Clear 3 1019 51 16093 3.1 310 10:58 12.02.2020
2727 Clear 3 1018 51 16093 4.6 320 10:39 12.02.2020
2728 Clear 4 1018 51 16093 4.6 320 10:20 12.02.2020
2729 Clouds 4 1017 56 16093 4.1 340 09:42 12.02.2020
2730 Clear 4 1018 55 16093 3.6 330 09:42 12.02.2020
2731 Clouds 4 1017 56 16093 4.1 340 09:24 12.02.2020
2732 Clouds 5 1016 60 16093 5.1 330 08:58 12.02.2020
2733 Clouds 5 1016 60 16093 5.1 330 08:38 12.02.2020
2734 Clouds 5 1016 56 0 1.5 0 08:20 12.02.2020
2735 Clear 5 1016 57 16093 5.1 320 07:58 12.02.2020
2736 Clear 5 1016 57 16093 5.1 320 07:58 12.02.2020
2737 Clear 5 1016 57 16093 5.1 320 07:39 12.02.2020
2738 Clouds 5 1015 57 16093 5.1 320 07:19 12.02.2020
2739 Clouds 5 1015 57 16093 5.1 320 07:19 12.02.2020
2740 Clouds 6 1015 57 16093 5.1 320 06:43 12.02.2020
2741 Clouds 6 1014 65 0 2.1 0 06:19 12.02.2020
2742 Clouds 6 1013 75 16093 9.88 304 05:30 12.02.2020
2743 Clouds 6 1013 75 16093 4.6 320 04:43 12.02.2020
2744 Clouds 7 1012 75 16093 4.6 320 03:58 12.02.2020
2745 Clouds 7 1011 81 16093 5.92 318 03:29 12.02.2020
2746 Rain 7 1011 87 16093 3.6 330 02:46 12.02.2020
2747 Rain 8 1011 76 16093 5.7 300 02:27 12.02.2020
2748 Clouds 8 1011 87 16093 4.12 287 01:34 12.02.2020
2749 Clouds 8 1010 87 16093 5.17 275 00:41 12.02.2020
2750 Clouds 8 1010 87 16093 5.17 275 00:23 12.02.2020
2751 Clouds 8 1010 87 16093 5.17 275 23:52 11.02.2020
2752 Clouds 8 1009 93 16093 5.17 275 23:33 11.02.2020
2753 Clouds 8 1009 93 16093 1.71 289 22:59 11.02.2020
2754 Clouds 8 1010 87 16093 1.71 289 22:40 11.02.2020
2755 Clouds 8 1010 87 16093 1.71 289 22:20 11.02.2020
2756 Clouds 8 1010 87 16093 1.71 289 22:20 11.02.2020
2757 Rain 8 1010 93 0 2.1 0 21:57 11.02.2020
2758 Rain 8 1010 93 0 2.1 0 21:39 11.02.2020
2759 Rain 8 1010 93 0 1.5 170 21:19 11.02.2020
2760 Rain 8 1010 93 0 1.5 120 20:59 11.02.2020
2761 Rain 8 1011 93 0 1.71 289 20:39 11.02.2020
2762 Rain 7 1011 93 0 2.94 345 20:19 11.02.2020
2763 Rain 7 1011 100 8047 3.1 40 19:58 11.02.2020
2764 Rain 7 1012 100 0 2.94 345 19:40 11.02.2020
2765 Rain 7 1012 100 0 2.94 345 19:22 11.02.2020
2766 Rain 7 1012 93 3219 4.1 40 18:46 11.02.2020
2767 Drizzle 7 1013 93 8047 2.94 345 18:28 11.02.2020
2768 Rain 7 1013 100 6437 2.94 345 17:57 11.02.2020
2769 Rain 7 1013 93 11265 2.94 345 17:39 11.02.2020
2770 Rain 7 1013 93 11265 1.92 25 17:20 11.02.2020
2771 Rain 7 1014 87 402 5.1 50 16:58 11.02.2020
2772 Rain 7 1014 87 402 5.1 50 16:58 11.02.2020
2773 Rain 7 1014 100 4023 3.1 60 16:39 11.02.2020
2774 Rain 7 1014 100 4023 3.1 60 16:21 11.02.2020
2775 Drizzle 7 1014 93 6437 1.92 25 15:58 11.02.2020
2776 Rain 6 1015 100 3219 1.5 30 15:39 11.02.2020
2777 Rain 6 1015 100 3219 1.5 30 15:21 11.02.2020
2778 Rain 6 1016 93 0 1.92 25 14:42 11.02.2020
2779 Rain 6 1016 93 9656 2.1 50 14:19 11.02.2020
2780 Rain 6 1016 93 9656 2.1 50 14:19 11.02.2020
2781 Rain 6 1016 100 6437 1.36 93 13:57 11.02.2020
2782 Rain 6 1016 100 6437 1.36 93 13:38 11.02.2020
2783 Rain 6 1016 100 0 1.36 93 13:20 11.02.2020
2784 Rain 6 1017 100 3219 2.11 132 12:55 11.02.2020
2785 Rain 6 1017 93 4828 1.5 50 12:36 11.02.2020
2786 Rain 6 1017 93 4828 1.5 50 12:18 11.02.2020
2787 Rain 6 1017 93 6437 1.5 30 11:41 11.02.2020
2788 Rain 6 1017 93 4828 1.5 100 11:20 11.02.2020
2789 Drizzle 6 1017 93 3219 1.86 151 10:55 11.02.2020
2790 Rain 6 1017 93 4023 1.5 20 10:36 11.02.2020
2791 Rain 6 1017 93 4023 1.5 20 10:18 11.02.2020
2792 Rain 6 1017 93 4023 1.5 20 10:18 11.02.2020
2793 Rain 6 1017 93 4023 1.86 151 09:44 11.02.2020
2794 Rain 6 1017 93 2816 1.86 151 09:23 11.02.2020
2795 Rain 6 1018 93 3219 1.86 151 08:59 11.02.2020
2796 Rain 6 1018 93 3219 1.86 151 08:41 11.02.2020
2797 Rain 6 1019 93 4828 1.86 151 08:41 11.02.2020
2798 Rain 6 1019 93 3219 2.89 210 08:23 11.02.2020
2799 Rain 6 1019 93 4828 2.89 210 07:48 11.02.2020
2800 Rain 6 1019 93 0 1.5 280 07:25 11.02.2020
2801 Rain 6 1019 93 0 1.5 270 06:43 11.02.2020
2802 Rain 6 1020 93 8047 2.89 210 06:22 11.02.2020
2803 Rain 6 1020 93 4023 2.89 210 05:54 11.02.2020
2804 Rain 6 1020 93 9656 2.89 210 05:24 11.02.2020
2805 Rain 6 1021 93 6437 1.5 240 04:39 11.02.2020
2806 Rain 6 1021 93 0 2.6 270 03:20 11.02.2020
2807 Rain 6 1021 87 12874 1.5 0 02:32 11.02.2020
2808 Rain 6 1020 87 6437 3.1 220 01:38 11.02.2020
2809 Rain 6 1020 87 6437 4.1 230 00:40 11.02.2020
2810 Rain 6 1020 93 11265 5.1 240 23:59 10.02.2020
2811 Drizzle 6 1020 87 11265 3.1 270 23:38 10.02.2020
2812 Drizzle 6 1020 87 11265 3.1 270 23:20 10.02.2020
2813 Drizzle 6 1020 87 11265 3.1 270 23:20 10.02.2020
2814 Rain 6 1020 87 8047 6.75 239 22:41 10.02.2020
2815 Rain 7 1020 93 0 4.1 250 22:20 10.02.2020
2816 Rain 7 1020 93 0 4.1 250 22:20 10.02.2020
2817 Rain 7 1019 87 8047 6.75 239 21:54 10.02.2020
2818 Rain 7 1019 93 4828 5.1 220 21:36 10.02.2020
2819 Rain 7 1019 93 4828 5.1 220 21:18 10.02.2020
2820 Rain 7 1020 93 0 3.6 240 20:54 10.02.2020
2821 Rain 7 1019 81 8047 1.5 270 20:36 10.02.2020
2822 Rain 7 1019 81 8047 1.5 270 20:18 10.02.2020
2823 Rain 7 1019 81 11265 2.1 280 19:54 10.02.2020
2824 Rain 7 1019 75 11265 6.88 230 19:36 10.02.2020
2825 Rain 7 1019 75 11265 6.88 230 19:18 10.02.2020
2826 Clouds 8 1020 70 0 5.7 240 18:41 10.02.2020
2827 Clouds 8 1020 70 0 5.7 240 18:21 10.02.2020
2828 Clouds 8 1019 70 16093 2.6 250 17:58 10.02.2020
2829 Clouds 7 1020 70 16093 3.6 270 17:39 10.02.2020
2830 Clouds 7 1020 70 16093 3.6 270 17:39 10.02.2020
2831 Clouds 7 1020 70 16093 3.6 270 17:20 10.02.2020
2832 Clouds 7 1021 65 16093 3.6 270 16:59 10.02.2020
2833 Clouds 7 1021 70 16093 2.6 270 16:40 10.02.2020
2834 Clouds 7 1021 70 16093 2.6 270 16:20 10.02.2020
2835 Rain 6 1021 75 16093 6.47 223 15:58 10.02.2020
2836 Rain 6 1021 75 16093 2.1 240 15:39 10.02.2020
2837 Rain 6 1021 75 16093 2.1 240 15:20 10.02.2020
2838 Rain 6 1022 81 16093 6.47 223 14:57 10.02.2020
2839 Rain 5 1022 81 16093 6.47 223 14:39 10.02.2020
2840 Rain 5 1022 81 16093 9.19 209 14:19 10.02.2020
2841 Rain 5 1022 80 11265 9.19 209 13:44 10.02.2020
2842 Rain 5 1022 80 11265 9.94 214 13:25 10.02.2020
2843 Rain 5 1022 80 11265 9.94 214 12:57 10.02.2020
2844 Rain 5 1022 80 11265 9.94 214 12:38 10.02.2020
2845 Rain 5 1023 70 16093 1.5 220 12:20 10.02.2020
2846 Rain 5 1023 79 16093 2.6 190 11:45 10.02.2020
2847 Rain 5 1024 68 16093 8.49 211 11:21 10.02.2020
2848 Clouds 5 1024 68 16093 8.49 211 10:49 10.02.2020
2849 Clouds 5 1025 68 16093 8.49 211 10:31 10.02.2020
2850 Clouds 5 1025 68 16093 8.49 211 09:56 10.02.2020
2851 Clouds 5 1026 68 16093 8.49 211 09:37 10.02.2020
2852 Clouds 5 1026 68 16093 8.49 211 09:18 10.02.2020
2853 Clouds 5 1027 65 16093 8.49 211 08:40 10.02.2020
2854 Clouds 5 1027 65 16093 7.35 200 08:21 10.02.2020
2855 Clouds 4 1027 65 16093 7.35 200 07:55 10.02.2020
2856 Clouds 4 1027 65 16093 7.35 200 07:35 10.02.2020
2857 Clouds 4 1028 65 16093 7.35 200 06:50 10.02.2020
2858 Clouds 3 1030 56 0 4.1 230 05:35 10.02.2020
2859 Clouds 3 1031 65 16093 7.88 211 03:55 10.02.2020
2860 Clear 3 1031 65 16093 7.88 211 03:22 10.02.2020
2861 Clear 3 1031 65 16093 7.88 211 02:42 10.02.2020
2862 Clear 3 1032 65 16093 6.65 195 01:25 10.02.2020
2863 Clear 4 1031 65 16093 6.65 195 00:40 10.02.2020
2864 Clear 4 1031 65 16093 6.65 195 00:22 10.02.2020
2865 Clear 4 1031 65 16093 6.65 195 23:42 09.02.2020
2866 Clear 5 1031 60 16093 4.72 166 23:24 09.02.2020
2867 Clear 5 1031 56 16093 4.72 166 22:54 09.02.2020
2868 Clouds 6 1031 52 16093 4.72 166 22:36 09.02.2020
2869 Clouds 6 1031 52 16093 4.72 166 22:18 09.02.2020
2870 Rain 6 1031 56 16093 4.72 166 21:40 09.02.2020
2871 Rain 6 1031 56 16093 4.72 166 21:22 09.02.2020
2872 Rain 6 1031 56 16093 4.72 166 21:21 09.02.2020
2873 Clouds 6 1031 52 16093 4.72 166 20:46 09.02.2020
2874 Clouds 6 1032 62 16093 2.64 168 20:22 09.02.2020
2875 Clouds 6 1032 56 16093 2.65 166 19:57 09.02.2020
2876 Clouds 5 1033 56 16093 2.65 166 19:38 09.02.2020
2877 Clouds 5 1032 56 16093 2.65 166 19:38 09.02.2020
2878 Clouds 5 1033 56 16093 2.65 166 19:20 09.02.2020
2879 Rain 5 1033 56 16093 1.5 170 18:42 09.02.2020
2880 Rain 5 1034 60 16093 2.65 166 18:24 09.02.2020
2881 Clouds 4 1034 60 16093 2.65 166 17:59 09.02.2020
2882 Clouds 4 1034 64 16093 2.65 166 17:39 09.02.2020
2883 Clouds 3 1034 64 16093 3.71 69 17:21 09.02.2020
2884 Clouds 3 1034 64 16093 3.71 69 17:21 09.02.2020
2885 Clouds 2 1034 64 16093 2.6 90 16:41 09.02.2020
2886 Clouds 2 1034 64 16093 2.6 90 16:22 09.02.2020
2887 Clouds 2 1034 64 16093 3.71 69 15:59 09.02.2020
2888 Clouds 2 1034 64 16093 3.71 69 15:59 09.02.2020
2889 Clouds 1 1034 69 16093 3.71 69 15:41 09.02.2020
2890 Clouds 1 1034 69 16093 3.71 69 15:21 09.02.2020
2891 Clouds 0 1034 69 16093 3.71 69 14:57 09.02.2020
2892 Clear 0 1033 67 16093 3.71 69 14:38 09.02.2020
2893 Clear -1 1033 70 16093 4.57 62 14:20 09.02.2020
2894 Clouds -2 1033 70 16093 4.57 62 13:44 09.02.2020
2895 Clouds -2 1032 66 16093 3.83 67 13:26 09.02.2020
2896 Clouds -2 1032 66 16093 3.83 67 12:56 09.02.2020
2897 Clouds -2 1031 66 16093 3.83 67 12:37 09.02.2020
2898 Clouds -2 1031 66 16093 3.83 67 12:18 09.02.2020
2899 Clouds -2 1031 66 16093 3.83 67 11:41 09.02.2020
2900 Clouds -2 1031 60 16093 2.55 24 11:20 09.02.2020
2901 Clouds -1 1031 60 16093 2.55 24 10:58 09.02.2020
2902 Clouds -1 1031 60 16093 2.55 24 10:40 09.02.2020
2903 Clouds -1 1030 74 16093 2.55 24 10:21 09.02.2020
2904 Clouds -1 1030 74 16093 2.55 24 09:45 09.02.2020
2905 Clouds -1 1030 74 16093 2.55 24 09:25 09.02.2020
2906 Clouds -2 1030 74 16093 2.55 24 08:45 09.02.2020
2907 Clouds -2 1030 74 16093 2.35 226 08:27 09.02.2020
2908 Clouds -2 1029 74 16093 2.35 226 07:58 09.02.2020
2909 Clouds -2 1029 69 16093 2.35 226 07:34 09.02.2020
2910 Clouds -2 1029 69 16093 2.35 226 06:47 09.02.2020
2911 Clouds -2 1029 53 16093 2.35 226 06:26 09.02.2020
2912 Clouds -2 1028 53 16093 2.35 226 05:38 09.02.2020
2913 Clear -2 1028 49 16093 5.17 249 05:18 09.02.2020
2914 Clear -1 1027 55 16093 5.17 249 03:52 09.02.2020
2915 Clear -1 1027 47 16093 5.17 249 02:45 09.02.2020
2916 Clear 0 1027 47 16093 5.17 249 02:26 09.02.2020
2917 Clear 0 1026 44 16093 6.36 266 01:35 09.02.2020
2918 Clear 1 1025 40 16093 6.83 264 00:44 09.02.2020
2919 Clear 2 1025 44 16093 6.83 264 00:24 09.02.2020
2920 Clear 3 1025 38 16093 4.1 290 23:43 08.02.2020
2921 Clouds 3 1024 41 16093 5.1 290 23:21 08.02.2020
2922 Clouds 4 1023 41 16093 4.6 290 22:43 08.02.2020
2923 Clouds 4 1023 41 16093 4.6 290 22:22 08.02.2020
2924 Clouds 4 1023 38 16093 6.2 310 21:59 08.02.2020
2925 Clouds 4 1023 38 16093 6.2 310 21:40 08.02.2020
2926 Clouds 4 1022 38 16093 6.7 280 21:40 08.02.2020
2927 Clouds 4 1022 38 16093 6.7 280 21:21 08.02.2020
2928 Clouds 4 1022 35 16093 4.6 280 20:57 08.02.2020
2929 Clouds 4 1022 38 16093 4.6 280 20:38 08.02.2020
2930 Clouds 4 1022 38 16093 4.6 280 20:19 08.02.2020
2931 Clouds 4 1022 41 16093 7.2 290 19:55 08.02.2020
2932 Clouds 4 1022 44 16093 6.2 280 19:37 08.02.2020
2933 Clouds 4 1022 44 16093 6.2 280 19:19 08.02.2020
2934 Clouds 4 1022 44 16093 6.2 280 19:19 08.02.2020
2935 Rain 4 1022 38 16093 6.2 280 18:43 08.02.2020
2936 Rain 4 1022 48 16093 9.3 300 18:24 08.02.2020
2937 Clouds 3 1023 48 16093 5.1 300 17:56 08.02.2020
2938 Snow 3 1022 47 16093 7.7 250 17:37 08.02.2020
2939 Snow 3 1022 47 16093 7.7 250 17:18 08.02.2020
2940 Clear 2 1022 51 16093 3.1 290 16:40 08.02.2020
2941 Clear 2 1022 51 16093 3.1 290 16:22 08.02.2020
2942 Clear 1 1022 47 16093 5.7 290 15:56 08.02.2020
2943 Clear 1 1022 50 16093 5.1 300 15:38 08.02.2020
2944 Clear 0 1022 50 16093 5.1 300 15:18 08.02.2020
2945 Clear -1 1021 56 16093 7.22 266 14:43 08.02.2020
2946 Clear -1 1021 57 16093 9.25 280 14:19 08.02.2020
2947 Clear -2 1021 58 16093 4.1 290 13:55 08.02.2020
2948 Clear -2 1020 54 16093 9.25 280 13:37 08.02.2020
2949 Clear -2 1020 54 16093 8.78 281 13:18 08.02.2020
2950 Clear -2 1019 54 16093 5.1 300 12:39 08.02.2020
2951 Clear -2 1018 58 16093 5.1 290 12:20 08.02.2020
2952 Clear -2 1017 58 16093 8.78 281 11:48 08.02.2020
2953 Clear -1 1017 58 16093 3.6 300 11:22 08.02.2020
2954 Clear -1 1016 58 16093 9.2 290 10:59 08.02.2020
2955 Clear -1 1016 58 16093 9.2 290 10:40 08.02.2020
2956 Clear -1 1015 54 16093 4.6 300 10:20 08.02.2020
2957 Clear -1 1015 54 16093 5.7 300 09:51 08.02.2020
2958 Clear -1 1014 54 16093 4.6 310 09:26 08.02.2020
2959 Clear -1 1013 54 16093 6.2 310 08:49 08.02.2020
2960 Clear -1 1012 59 16093 6.2 310 08:29 08.02.2020
2961 Clear -1 1011 56 16093 8.7 310 07:59 08.02.2020
2962 Clear 0 1010 56 16093 6.2 290 07:40 08.02.2020
2963 Clear 0 1010 56 16093 6.2 290 07:18 08.02.2020
2964 Clouds 0 1008 56 16093 6.7 300 06:24 08.02.2020
2965 Clouds 0 1008 56 16093 8.2 300 05:47 08.02.2020
2966 Clouds 0 1007 50 16093 5.1 320 05:28 08.02.2020
2967 Clouds 1 1006 50 16093 7.7 320 04:48 08.02.2020
2968 Clouds 1 1004 55 16093 9.8 300 03:48 08.02.2020
2969 Clouds 1 1002 59 16093 7.2 300 02:51 08.02.2020
2970 Clouds 1 1000 59 16093 9.8 300 01:41 08.02.2020
2971 Clouds 1 998 64 0 4.1 310 01:22 08.02.2020
2972 Clouds 1 997 59 16093 11.8 300 00:39 08.02.2020
2973 Clouds 1 997 59 16093 11.8 300 00:20 08.02.2020
2974 Rain 2 994 59 16093 9.8 290 23:43 07.02.2020
2975 Rain 2 994 59 16093 9.8 290 23:20 07.02.2020
2976 Rain 2 992 69 0 9.3 270 22:56 07.02.2020
2977 Rain 3 990 69 0 6.7 270 22:37 07.02.2020
2978 Rain 3 990 69 0 6.7 270 22:19 07.02.2020
2979 Rain 3 990 80 16093 8.7 300 21:43 07.02.2020
2980 Rain 4 988 80 16093 9.3 290 21:22 07.02.2020
2981 Rain 5 987 80 11265 8.7 280 20:55 07.02.2020
2982 Rain 5 984 75 16093 11.8 280 20:37 07.02.2020
2983 Rain 7 984 75 16093 11.8 280 20:18 07.02.2020
2984 Rain 8 978 81 0 12.9 270 19:40 07.02.2020
2985 Rain 9 978 81 0 12.9 270 19:21 07.02.2020
2986 Rain 10 979 81 16093 9.8 280 18:56 07.02.2020
2987 Rain 11 974 100 16093 5.1 250 18:38 07.02.2020
2988 Rain 11 975 71 6437 11.3 240 18:19 07.02.2020
2989 Rain 11 976 93 2414 15.32 247 17:43 07.02.2020
2990 Rain 10 977 100 0 2.6 280 17:22 07.02.2020
2991 Rain 10 977 100 6437 1.5 0 16:57 07.02.2020
2992 Rain 10 978 93 3219 2.1 120 16:38 07.02.2020
2993 Rain 9 980 93 4023 2.6 100 16:19 07.02.2020
2994 Rain 8 980 87 4023 3.1 50 15:47 07.02.2020
2995 Rain 8 982 93 0 7.2 30 15:22 07.02.2020
2996 Rain 6 984 93 0 6.2 30 14:44 07.02.2020
2997 Rain 5 984 93 0 6.2 30 14:26 07.02.2020
2998 Rain 5 984 100 2414 6.2 20 13:58 07.02.2020
2999 Rain 5 986 93 0 5.1 30 13:39 07.02.2020
3000 Rain 5 986 93 0 5.1 30 13:21 07.02.2020
3001 Rain 5 986 93 0 5.1 30 13:21 07.02.2020
3002 Rain 4 987 100 1609 2.1 40 12:55 07.02.2020
3003 Mist 4 986 93 805 2.6 30 12:37 07.02.2020
3004 Mist 4 986 93 805 2.6 30 12:19 07.02.2020
3005 Drizzle 4 988 100 402 5.7 50 11:42 07.02.2020
3006 Rain 4 989 93 3219 2.1 60 11:20 07.02.2020
3007 Rain 4 990 100 0 7.2 30 10:42 07.02.2020
3008 Rain 4 992 100 0 4.1 30 10:24 07.02.2020
3009 Rain 4 993 93 11265 2.6 70 09:58 07.02.2020
3010 Rain 4 994 93 0 5.1 30 09:37 07.02.2020
3011 Rain 4 994 93 0 5.1 30 09:19 07.02.2020
3012 Rain 4 994 100 0 4.6 40 08:43 07.02.2020
3013 Rain 4 995 93 0 4.1 60 08:21 07.02.2020
3014 Rain 4 996 93 0 4.6 40 07:46 07.02.2020
3015 Rain 4 996 100 4828 2.2 57 07:28 07.02.2020
3016 Rain 4 996 93 0 3.6 60 06:47 07.02.2020
3017 Drizzle 4 996 93 3219 2.2 57 06:26 07.02.2020
3018 Drizzle 4 997 93 4023 2.2 57 05:56 07.02.2020
3019 Rain 4 996 93 4023 3.6 80 04:43 07.02.2020
3020 Rain 4 998 93 0 5.7 40 03:19 07.02.2020
3021 Rain 4 999 93 4023 5.7 60 01:51 07.02.2020
3022 Rain 4 998 93 3219 3.6 20 00:49 07.02.2020
3023 Rain 4 999 93 9656 2.6 0 00:21 07.02.2020
3024 Rain 4 999 93 9656 2.6 0 00:21 07.02.2020
3025 Rain 4 1000 93 0 4.6 50 23:37 06.02.2020
3026 Rain 4 1000 93 0 4.6 50 23:19 06.02.2020
3027 Rain 4 999 92 4828 3.1 60 22:44 06.02.2020
3028 Rain 5 1000 87 0 4.6 60 22:25 06.02.2020
3029 Rain 5 1001 93 6437 3.6 50 21:55 06.02.2020
3030 Rain 5 1000 93 4828 2.14 49 21:36 06.02.2020
3031 Rain 5 1000 93 4828 2.14 49 21:18 06.02.2020
3032 Rain 5 1000 93 4828 3.1 80 20:54 06.02.2020
3033 Rain 5 1000 93 6437 2.14 49 20:36 06.02.2020
3034 Rain 5 1000 93 6437 1.19 266 20:18 06.02.2020
3035 Clouds 5 1002 93 0 3.6 60 19:55 06.02.2020
3036 Mist 5 1002 93 3219 2.1 0 19:36 06.02.2020
3037 Mist 5 1002 93 3219 2.1 0 19:18 06.02.2020
3038 Drizzle 5 1001 93 1609 3.1 100 18:40 06.02.2020
3039 Rain 5 1003 93 4828 2.6 0 18:22 06.02.2020
3040 Rain 5 1002 93 2816 1.19 266 17:55 06.02.2020
3041 Rain 5 1003 93 2012 4.1 20 17:37 06.02.2020
3042 Rain 5 1003 93 2012 4.1 20 17:18 06.02.2020
3043 Mist 4 1004 93 4828 1.96 88 16:41 06.02.2020
3044 Mist 4 1004 93 4023 2.6 40 16:23 06.02.2020
3045 Rain 4 1005 100 2414 4.6 10 15:43 06.02.2020
3046 Rain 4 1006 93 4023 3.1 0 15:23 06.02.2020
3047 Rain 4 1006 93 4023 1.96 88 14:57 06.02.2020
3048 Rain 4 1005 93 8047 2.6 40 14:39 06.02.2020
3049 Rain 4 1005 93 8047 2.6 40 14:20 06.02.2020
3050 Rain 4 1005 93 8047 2.1 20 13:42 06.02.2020
3051 Drizzle 3 1005 93 6437 3.6 50 13:24 06.02.2020
3052 Rain 3 1006 93 8047 3.6 60 12:45 06.02.2020
3053 Drizzle 3 1006 93 4828 4.1 50 12:19 06.02.2020
3054 Rain 3 1008 100 4023 3.1 0 11:58 06.02.2020
3055 Rain 3 1008 93 9656 2.6 0 11:39 06.02.2020
3056 Rain 3 1008 93 9656 2.6 0 11:21 06.02.2020
3057 Rain 3 1006 93 16093 3.6 110 10:57 06.02.2020
3058 Rain 3 1009 93 11265 2.6 120 10:39 06.02.2020
3059 Rain 3 1009 93 11265 2.6 120 10:21 06.02.2020
3060 Rain 3 1010 86 8047 6.09 101 09:56 06.02.2020
3061 Drizzle 3 1011 93 8047 2.1 140 09:37 06.02.2020
3062 Drizzle 2 1011 93 8047 2.1 140 09:19 06.02.2020
3063 Rain 2 1011 93 6437 2.6 110 08:41 06.02.2020
3064 Rain 2 1012 93 0 4.1 40 08:22 06.02.2020
3065 Rain 2 1013 86 6437 2.1 110 07:51 06.02.2020
3066 Rain 2 1014 80 4023 1.5 0 07:28 06.02.2020
3067 Rain 2 1014 93 6437 2.1 120 06:46 06.02.2020
3068 Rain 3 1014 60 16093 4.1 130 06:18 06.02.2020
3069 Clouds 4 1016 38 16093 3.6 120 04:54 06.02.2020
3070 Clouds 4 1018 48 0 3.6 50 03:21 06.02.2020
3071 Clouds 4 1018 38 16093 3.1 120 02:44 06.02.2020
3072 Clouds 4 1018 44 16093 2.1 140 01:42 06.02.2020
3073 Clouds 4 1018 45 16093 5.84 64 00:59 06.02.2020
3074 Clouds 4 1018 52 16093 5.84 64 00:27 06.02.2020
3075 Clouds 4 1018 52 16093 2.1 150 23:50 05.02.2020
3076 Clouds 5 1018 60 0 3.1 80 23:29 05.02.2020
3077 Clouds 5 1018 52 16093 5.31 55 22:59 05.02.2020
3078 Clouds 5 1018 48 16093 5.31 55 22:40 05.02.2020
3079 Clouds 5 1018 48 16093 5.31 55 22:22 05.02.2020
3080 Clouds 5 1018 44 16093 2.6 360 21:57 05.02.2020
3081 Clouds 5 1018 44 16093 2.6 360 21:39 05.02.2020
3082 Clouds 5 1018 56 0 3.1 30 21:19 05.02.2020
3083 Clouds 5 1018 35 16093 2.1 20 20:39 05.02.2020
3084 Clouds 5 1018 35 16093 2.1 20 20:20 05.02.2020
3085 Clouds 5 1018 35 16093 2.49 25 19:58 05.02.2020
3086 Clouds 5 1017 35 16093 1.5 30 19:40 05.02.2020
3087 Clouds 5 1017 35 16093 1.5 30 19:19 05.02.2020
3088 Clouds 5 1017 35 16093 2.1 30 18:56 05.02.2020
3089 Clouds 5 1018 38 16093 2.49 25 18:38 05.02.2020
3090 Clouds 5 1018 38 16093 2.49 25 18:19 05.02.2020
3091 Clouds 5 1018 45 16093 2.49 25 17:38 05.02.2020
3092 Clouds 5 1018 45 16093 4.58 1 17:20 05.02.2020
3093 Clouds 5 1018 52 16093 3.1 360 16:57 05.02.2020
3094 Clouds 5 1017 56 16093 2.6 360 16:39 05.02.2020
3095 Clouds 5 1017 56 16093 2.6 360 16:20 05.02.2020
3096 Clouds 4 1018 60 16093 4.1 360 15:46 05.02.2020
3097 Drizzle 4 1018 56 16093 3.1 340 15:20 05.02.2020
3098 Clouds 4 1016 56 16093 4.58 1 14:59 05.02.2020
3099 Clouds 4 1016 56 16093 4.58 1 14:41 05.02.2020
3100 Clouds 4 1016 56 16093 5.45 10 14:21 05.02.2020
3101 Clouds 4 1015 60 16093 2.1 10 13:43 05.02.2020
3102 Clouds 4 1015 60 16093 2.1 10 13:23 05.02.2020
3103 Clouds 4 1015 60 16093 4.62 11 12:59 05.02.2020
3104 Clouds 4 1014 65 16093 3.1 10 12:37 05.02.2020
3105 Clouds 4 1014 65 16093 3.1 10 12:19 05.02.2020
3106 Rain 4 1013 80 0 4.1 70 11:41 05.02.2020
3107 Rain 4 1013 80 0 4.1 70 11:23 05.02.2020
3108 Drizzle 4 1013 75 16093 3.1 10 10:58 05.02.2020
3109 Drizzle 4 1013 75 16093 3.1 10 10:39 05.02.2020
3110 Clouds 4 1013 86 16093 6.99 358 10:19 05.02.2020
3111 Clouds 4 1011 75 16093 3.6 10 09:43 05.02.2020
3112 Rain 5 1011 75 16093 6.2 10 09:22 05.02.2020
3113 Rain 5 1011 81 16093 6.7 360 08:57 05.02.2020
3114 Drizzle 5 1010 87 11265 4.1 10 08:39 05.02.2020
3115 Drizzle 6 1010 87 11265 4.1 10 08:21 05.02.2020
3116 Rain 7 1010 87 0 2.6 0 07:43 05.02.2020
3117 Rain 7 1010 87 0 2.6 0 07:43 05.02.2020
3118 Rain 8 1009 87 8047 4.6 360 07:20 05.02.2020
3119 Rain 9 1008 81 0 3.6 20 06:42 05.02.2020
3120 Rain 9 1009 81 14484 4.1 340 06:21 05.02.2020
3121 Rain 10 1008 87 16093 7.96 339 05:48 05.02.2020
3122 Rain 10 1008 87 16093 3.78 257 05:18 05.02.2020
3123 Rain 10 1008 87 16093 3.78 257 04:27 05.02.2020
3124 Drizzle 11 1009 82 16093 3.78 257 03:18 05.02.2020
3125 Clouds 11 1008 76 16093 4.71 229 02:23 05.02.2020
3126 Clouds 11 1009 71 16093 4.71 229 01:35 05.02.2020
3127 Clouds 11 1009 71 16093 5.5 229 00:33 05.02.2020
3128 Clear 11 1009 71 16093 5.5 229 23:42 04.02.2020
3129 Clouds 12 1008 67 16093 5.5 229 23:23 04.02.2020
3130 Clouds 13 1008 67 16093 1.5 280 22:58 04.02.2020
3131 Clouds 14 1008 67 16093 1.5 280 22:40 04.02.2020
3132 Clouds 14 1007 62 16093 2.6 280 22:21 04.02.2020
3133 Clouds 14 1008 67 16093 3.6 280 21:57 04.02.2020
3134 Clouds 14 1008 67 16093 3.6 280 21:39 04.02.2020
3135 Clouds 13 1008 67 16093 3.1 280 21:19 04.02.2020
3136 Clouds 13 1008 67 16093 3.1 280 20:57 04.02.2020
3137 Clouds 13 1008 67 16093 3.1 280 20:38 04.02.2020
3138 Clear 12 1007 71 16093 7.27 243 20:19 04.02.2020
3139 Clear 12 1008 66 16093 1.5 260 19:55 04.02.2020
3140 Clouds 11 1008 76 16093 7.27 243 19:37 04.02.2020
3141 Clouds 11 1008 76 16093 7.27 243 19:18 04.02.2020
3142 Rain 11 1008 71 16093 7.27 243 18:54 04.02.2020
3143 Rain 10 1010 76 16093 7.27 243 18:36 04.02.2020
3144 Rain 10 1010 71 16093 7.27 243 18:18 04.02.2020
3145 Rain 9 1011 76 16093 7.27 243 17:41 04.02.2020
3146 Rain 8 1011 76 16093 4.71 246 17:20 04.02.2020
3147 Clouds 7 1011 75 16093 4.71 246 16:40 04.02.2020
3148 Clouds 7 1011 75 16093 4.71 246 16:21 04.02.2020
3149 Rain 7 1011 75 16093 4.71 246 15:58 04.02.2020
3150 Rain 7 1011 75 16093 4.71 246 15:40 04.02.2020
3151 Drizzle 6 1011 81 16093 4.71 246 15:21 04.02.2020
3152 Drizzle 6 1011 81 16093 4.71 246 14:58 04.02.2020
3153 Drizzle 6 1011 81 16093 4.71 246 14:40 04.02.2020
3154 Rain 5 1010 75 16093 0.17 41 14:20 04.02.2020
3155 Clouds 5 1010 81 16093 0.17 41 13:42 04.02.2020
3156 Drizzle 5 1010 75 16093 2.24 8 13:23 04.02.2020
3157 Drizzle 5 1010 75 16093 2.24 8 12:59 04.02.2020
3158 Clouds 5 1011 70 16093 2.24 8 12:41 04.02.2020
3159 Clouds 5 1011 70 16093 2.24 8 12:41 04.02.2020
3160 Clouds 5 1011 70 16093 2.24 8 12:22 04.02.2020
3161 Clouds 5 1009 70 16093 2.24 8 11:56 04.02.2020
3162 Clouds 5 1009 70 16093 2.24 8 11:38 04.02.2020
3163 Clouds 5 1010 81 16093 2.79 278 11:19 04.02.2020
3164 Clouds 4 1009 81 16093 2.79 278 10:49 04.02.2020
3165 Clear 4 1008 81 16093 2.79 278 10:26 04.02.2020
3166 Clear 4 1009 81 16093 2.79 278 09:58 04.02.2020
3167 Clear 4 1009 81 16093 2.79 278 09:39 04.02.2020
3168 Clear 4 1009 80 16093 2.79 278 09:21 04.02.2020
3169 Clear 4 1009 80 16093 2.79 278 08:46 04.02.2020
3170 Clear 4 1010 75 16093 2.79 278 08:27 04.02.2020
3171 Clear 4 1010 75 16093 2.82 168 07:53 04.02.2020
3172 Clear 4 1010 75 16093 2.82 168 07:25 04.02.2020
3173 Clear 4 1010 75 16093 2.82 168 06:58 04.02.2020
3174 Clear 4 1010 75 16093 2.82 168 06:40 04.02.2020
3175 Clear 5 1011 75 16093 2.82 168 05:34 04.02.2020
3176 Clear 5 1011 70 16093 4.12 164 04:28 04.02.2020
3177 Clouds 6 1011 93 16093 4.12 164 03:48 04.02.2020
3178 Clear 6 1012 65 16093 4.12 164 03:29 04.02.2020
3179 Clear 6 1012 61 16093 4.12 164 02:48 04.02.2020
3180 Clear 6 1012 57 16093 4.12 164 02:27 04.02.2020
3181 Clouds 7 1013 61 16093 4.1 210 01:46 04.02.2020
3182 Clouds 7 1013 61 16093 4.1 210 01:19 04.02.2020
3183 Clouds 8 1012 65 16093 3.6 220 00:23 04.02.2020
3184 Clear 9 1012 78 16093 1.61 292 23:55 03.02.2020
3185 Clear 10 1012 78 16093 2.1 280 23:37 03.02.2020
3186 Clear 12 1012 68 16093 2.1 280 23:18 03.02.2020
3187 Clear 13 1011 68 16093 3.1 270 22:39 03.02.2020
3188 Clear 13 1011 68 16093 3.1 270 22:19 03.02.2020
3189 Clear 13 1010 68 16093 5.1 280 21:42 03.02.2020
3190 Clear 13 1010 68 16093 5.1 280 21:42 03.02.2020
3191 Clear 13 1010 68 16093 4.6 290 21:20 03.02.2020
3192 Rain 13 1011 68 16093 4.1 280 20:57 03.02.2020
3193 Rain 13 1011 68 16093 4.1 280 20:57 03.02.2020
3194 Rain 13 1011 43 16093 3.6 290 20:39 03.02.2020
3195 Rain 12 1011 43 16093 3.6 290 20:18 03.02.2020
3196 Clear 12 1011 43 16093 4.6 280 19:42 03.02.2020
3197 Clear 12 1011 43 16093 4.6 280 19:23 03.02.2020
3198 Clouds 11 1012 46 16093 5.1 300 18:59 03.02.2020
3199 Clear 11 1012 50 16093 4.6 320 18:41 03.02.2020
3200 Clear 10 1012 50 16093 4.6 320 18:22 03.02.2020
3201 Clouds 10 1012 53 16093 4.1 300 17:58 03.02.2020
3202 Clear 10 1012 57 16093 5.55 265 17:39 03.02.2020
3203 Clear 9 1012 57 16093 6.12 255 17:20 03.02.2020
3204 Clouds 8 1012 66 16093 6.12 255 16:54 03.02.2020
3205 Clouds 8 1012 75 16093 6.12 255 16:36 03.02.2020
3206 Clouds 7 1012 75 16093 6.12 255 16:18 03.02.2020
3207 Clouds 6 1012 75 16093 3.1 270 15:54 03.02.2020
3208 Clouds 6 1011 81 16093 6.12 255 15:36 03.02.2020
3209 Clouds 6 1011 81 16093 6.12 255 15:18 03.02.2020
3210 Rain 5 1010 80 16093 6.12 255 14:39 03.02.2020
3211 Rain 4 1010 80 16093 5.04 271 14:21 03.02.2020
3212 Clouds 4 1009 86 16093 5.04 271 13:54 03.02.2020
3213 Clouds 4 1008 86 16093 5.04 271 13:36 03.02.2020
3214 Clouds 4 1008 86 16093 5.75 283 13:18 03.02.2020
3215 Clouds 3 1008 93 16093 5.75 283 12:40 03.02.2020
3216 Clouds 3 1007 86 11265 5.75 283 12:21 03.02.2020
3217 Clouds 3 1006 86 11265 5.75 283 11:58 03.02.2020
3218 Clouds 3 1006 93 11265 5.75 283 11:37 03.02.2020
3219 Clouds 3 1006 93 11265 6.56 283 11:18 03.02.2020
3220 Clouds 2 1005 82 11265 6.56 283 10:41 03.02.2020
3221 Clouds 2 1004 82 11265 6.56 283 10:23 03.02.2020
3222 Clouds 2 1004 82 11265 6.56 283 09:49 03.02.2020
3223 Clouds 2 1003 82 11265 6.56 283 09:27 03.02.2020
3224 Clouds 2 1003 86 11265 2.1 270 08:58 03.02.2020
3225 Clouds 2 1003 86 11265 3.1 280 08:40 03.02.2020
3226 Clouds 2 1003 86 11265 3.1 280 08:22 03.02.2020
3227 Rain 2 1003 93 11265 3.6 280 07:42 03.02.2020
3228 Rain 2 1002 93 8047 5.52 258 07:22 03.02.2020
3229 Rain 2 1001 93 8047 5.52 258 06:55 03.02.2020
3230 Rain 2 1001 93 0 2.6 260 06:30 03.02.2020
3231 Rain 2 1001 93 8047 2.1 290 05:51 03.02.2020
3232 Rain 2 1001 93 8047 5.52 258 05:31 03.02.2020
3233 Drizzle 2 1001 93 6437 3.18 217 04:44 03.02.2020
3234 Drizzle 2 1001 93 8047 3.18 217 02:42 03.02.2020
3235 Drizzle 2 1001 93 8047 4.12 242 02:20 03.02.2020
3236 Rain 2 1001 92 16093 3.6 220 00:49 03.02.2020
3237 Rain 2 1001 93 11265 2.1 280 00:26 03.02.2020
3238 Rain 2 1001 92 11265 4.56 240 23:56 02.02.2020
3239 Rain 2 1001 93 4023 4.6 240 23:36 02.02.2020
3240 Rain 2 1001 93 4023 4.6 240 23:18 02.02.2020
3241 Rain 3 1000 86 14484 8.2 240 22:39 02.02.2020
3242 Rain 3 1000 86 14484 8.2 240 22:39 02.02.2020
3243 Drizzle 3 999 77 11265 7.2 240 22:39 02.02.2020
3244 Rain 4 1000 86 14484 8.2 240 22:21 02.02.2020
3245 Drizzle 4 1000 69 16093 5.7 280 21:58 02.02.2020
3246 Rain 5 999 60 16093 7.2 280 21:39 02.02.2020
3247 Rain 5 999 60 16093 7.2 280 21:20 02.02.2020
3248 Clouds 6 999 65 16093 5.7 260 20:57 02.02.2020
3249 Rain 6 999 56 16093 2.1 280 20:39 02.02.2020
3250 Clouds 6 999 52 16093 5.1 290 20:20 02.02.2020
3251 Clouds 6 1000 52 16093 5.7 280 19:57 02.02.2020
3252 Clouds 6 1000 52 16093 5.7 280 19:39 02.02.2020
3253 Clouds 6 1000 56 16093 4.6 290 19:39 02.02.2020
3254 Clouds 6 1000 56 16093 4.6 290 19:20 02.02.2020
3255 Rain 6 1001 56 16093 4.6 290 18:56 02.02.2020
3256 Rain 6 1002 60 16093 4.1 290 18:37 02.02.2020
3257 Rain 6 1002 60 16093 4.1 290 18:19 02.02.2020
3258 Clouds 5 1002 60 16093 6.2 300 17:57 02.02.2020
3259 Clouds 5 1003 60 16093 3.6 280 17:37 02.02.2020
3260 Clouds 5 1003 60 16093 3.6 280 17:18 02.02.2020
3261 Clouds 5 1003 65 16093 5.1 310 16:57 02.02.2020
3262 Clouds 4 1003 69 16093 3.6 270 16:37 02.02.2020
3263 Clouds 4 1003 69 16093 3.6 270 16:18 02.02.2020
3264 Rain 3 1004 69 0 3.1 250 15:55 02.02.2020
3265 Rain 3 1004 86 0 3.1 250 15:36 02.02.2020
3266 Rain 3 1004 86 0 3.1 250 15:18 02.02.2020
3267 Clouds 2 1003 86 11265 6.34 285 14:43 02.02.2020
3268 Mist 1 1004 93 8047 6.81 292 14:19 02.02.2020
3269 Rain 1 1004 78 9656 2.1 250 13:59 02.02.2020
3270 Rain 1 1003 78 6437 6.81 292 13:41 02.02.2020
3271 Rain 1 1004 93 8047 6.63 296 13:20 02.02.2020
3272 Rain 2 1003 100 11265 6.63 296 12:56 02.02.2020
3273 Drizzle 2 1003 86 8047 6.63 296 12:38 02.02.2020
3274 Drizzle 2 1003 86 8047 2.6 330 12:18 02.02.2020
3275 Rain 2 1002 74 14484 4.6 300 11:42 02.02.2020
3276 Drizzle 2 1003 86 6437 2.6 300 11:19 02.02.2020
3277 Drizzle 2 1003 93 6437 5.87 291 10:58 02.02.2020
3278 Drizzle 2 1003 93 6437 5.87 291 10:39 02.02.2020
3279 Rain 2 1003 86 14484 2.6 270 10:21 02.02.2020
3280 Clouds 2 1003 74 14484 5.87 291 09:57 02.02.2020
3281 Clouds 2 1003 74 14484 5.87 291 09:39 02.02.2020
3282 Clouds 2 1003 86 11265 5.37 306 09:20 02.02.2020
3283 Rain 3 1004 86 11265 5.87 291 08:46 02.02.2020
3284 Rain 3 1004 86 11265 5.37 306 08:26 02.02.2020
3285 Rain 3 1004 86 11265 4.82 280 07:48 02.02.2020
3286 Drizzle 3 1004 86 11265 4.82 280 07:30 02.02.2020
3287 Drizzle 3 1005 86 11265 4.82 280 06:56 02.02.2020
3288 Drizzle 3 1005 86 11265 4.82 280 06:37 02.02.2020
3289 Drizzle 3 1005 86 8047 4.82 280 06:18 02.02.2020
3290 Rain 3 1006 84 12874 1.5 300 05:18 02.02.2020
3291 Rain 4 1007 75 14484 1.5 240 03:42 02.02.2020
3292 Clouds 4 1007 70 14484 3.43 286 03:21 02.02.2020
3293 Clouds 4 1007 80 16093 0.93 306 02:19 02.02.2020
3294 Clouds 4 1007 80 16093 0.93 306 01:49 02.02.2020
3295 Clouds 5 1008 75 16093 0.86 198 00:50 02.02.2020
3296 Clouds 5 1008 75 16093 0.86 198 00:24 02.02.2020
3297 Clouds 5 1008 81 16093 0.86 198 23:55 01.02.2020
3298 Clouds 5 1008 81 16093 0.86 198 23:37 01.02.2020
3299 Clouds 5 1008 81 16093 1.05 120 23:18 01.02.2020
3300 Clouds 5 1008 75 16093 1.05 120 22:43 01.02.2020
3301 Clouds 5 1008 75 16093 1.05 120 22:18 01.02.2020
3302 Clouds 5 1008 75 16093 1.05 120 22:18 01.02.2020
3303 Clouds 5 1009 86 0 2.6 250 21:40 01.02.2020
3304 Clouds 5 1009 81 11265 1.05 120 21:19 01.02.2020
3305 Clouds 5 1009 81 11265 1.05 120 21:19 01.02.2020
3306 Clouds 5 1009 86 11265 1.05 120 20:55 01.02.2020
3307 Haze 5 1011 75 8047 1.5 270 20:37 01.02.2020
3308 Haze 5 1011 75 8047 1.5 270 20:18 01.02.2020
3309 Rain 5 1011 86 6437 1.31 119 19:55 01.02.2020
3310 Rain 5 1012 86 11265 1.5 310 19:36 01.02.2020
3311 Rain 5 1012 86 11265 1.5 310 19:18 01.02.2020
3312 Clouds 5 1012 86 11265 2.1 280 18:55 01.02.2020
3313 Clouds 5 1011 75 16093 2.1 90 18:36 01.02.2020
3314 Mist 5 1012 86 8047 1.31 119 18:18 01.02.2020
3315 Mist 5 1013 86 8047 1.31 119 17:45 01.02.2020
3316 Mist 5 1015 86 8047 2.08 108 17:21 01.02.2020
3317 Mist 5 1015 86 8047 2.08 108 17:21 01.02.2020
3318 Mist 4 1015 86 8047 2.08 108 16:59 01.02.2020
3319 Mist 4 1015 86 8047 2.08 108 16:39 01.02.2020
3320 Mist 4 1015 86 8047 2.08 108 16:20 01.02.2020
3321 Mist 4 1016 93 6437 2.08 108 15:46 01.02.2020
3322 Mist 3 1016 93 4828 2.08 108 15:27 01.02.2020
3323 Clouds 3 1017 86 0 2.1 260 14:58 01.02.2020
3324 Mist 3 1017 86 6437 2.08 108 14:39 01.02.2020
3325 Mist 3 1017 86 6437 2.58 39 14:20 01.02.2020
3326 Mist 2 1017 86 8047 2.58 39 13:45 01.02.2020
3327 Clouds 2 1017 86 11265 2.58 39 13:22 01.02.2020
3328 Clouds 2 1017 86 11265 2.6 20 13:22 01.02.2020
3329 Clouds 2 1017 86 16093 2.6 20 12:46 01.02.2020
3330 Clouds 2 1017 86 16093 2.6 20 12:28 01.02.2020
3331 Clouds 2 1017 86 16093 2.6 20 11:58 01.02.2020
3332 Clouds 2 1018 86 16093 2.6 20 11:38 01.02.2020
3333 Clouds 2 1018 86 16093 2.08 38 11:19 01.02.2020
3334 Clouds 2 1018 86 16093 2.08 38 10:57 01.02.2020
3335 Clouds 2 1018 86 16093 2.08 38 10:38 01.02.2020
3336 Clouds 2 1018 86 16093 2.08 38 10:20 01.02.2020
3337 Clouds 2 1018 86 16093 2.08 38 09:58 01.02.2020
3338 Clouds 2 1018 86 16093 2.08 38 09:39 01.02.2020
3339 Clouds 2 1019 86 16093 2.08 38 09:20 01.02.2020
3340 Clouds 2 1019 86 16093 2.08 38 08:45 01.02.2020
3341 Clouds 3 1019 93 16093 2.27 62 07:49 01.02.2020
3342 Clouds 3 1020 93 16093 2.27 62 07:27 01.02.2020
3343 Clouds 3 1020 86 11265 2.27 62 06:56 01.02.2020
3344 Clouds 3 1020 86 11265 2.27 62 06:56 01.02.2020
3345 Clouds 3 1021 86 11265 2.27 62 06:33 01.02.2020
3346 Rain 3 1021 93 16093 2.27 62 05:52 01.02.2020
3347 Drizzle 3 1023 86 11265 2.37 97 03:56 01.02.2020
3348 Rain 4 1024 86 16093 2.37 97 03:21 01.02.2020
3349 Drizzle 4 1024 80 16093 2.37 97 02:46 01.02.2020
3350 Clouds 4 1024 80 0 1.5 0 02:27 01.02.2020
3351 Rain 4 1024 80 16093 3.69 129 01:55 01.02.2020
3352 Clouds 4 1024 80 16093 3.06 128 01:33 01.02.2020
3353 Clouds 4 1024 80 16093 3.06 128 00:30 01.02.2020
3354 Clouds 4 1024 80 16093 3.06 128 23:59 31.01.2020
3355 Clouds 4 1024 75 16093 2.1 140 23:37 31.01.2020
3356 Clouds 4 1024 75 16093 2.1 140 23:18 31.01.2020
3357 Clouds 5 1024 75 16093 1.5 150 22:41 31.01.2020
3358 Clouds 5 1024 75 16093 2.1 0 22:22 31.01.2020
3359 Clouds 5 1024 70 16093 3.39 126 21:59 31.01.2020
3360 Clouds 5 1024 70 16093 3.39 126 21:39 31.01.2020
3361 Clouds 5 1024 70 16093 2.6 120 21:20 31.01.2020
3362 Clouds 5 1024 70 16093 2.6 120 21:20 31.01.2020
3363 Clouds 5 1025 75 16093 3.39 126 21:20 31.01.2020
3364 Clouds 5 1025 75 16093 3.39 126 21:20 31.01.2020
3365 Clouds 5 1024 70 16093 3.1 130 20:57 31.01.2020
3366 Clouds 5 1024 70 16093 3.1 130 20:57 31.01.2020
3367 Clouds 5 1024 69 16093 3.6 60 20:39 31.01.2020
3368 Clouds 5 1025 70 16093 1.5 120 20:20 31.01.2020
3369 Clouds 5 1026 70 16093 0.41 169 19:56 31.01.2020
3370 Clouds 5 1026 70 16093 0.41 169 19:38 31.01.2020
3371 Clouds 5 1026 70 16093 0.41 169 19:19 31.01.2020
3372 Clouds 5 1026 70 16093 0.41 169 18:46 31.01.2020
3373 Clouds 5 1027 70 16093 0.41 169 18:27 31.01.2020
3374 Clouds 5 1027 70 16093 0.41 169 17:59 31.01.2020
3375 Clouds 4 1027 70 16093 0.41 169 17:40 31.01.2020
3376 Clouds 4 1027 69 16093 1.49 271 17:21 31.01.2020
3377 Clouds 3 1027 69 16093 1.49 271 16:56 31.01.2020
3378 Clouds 3 1027 64 16093 1.49 271 16:37 31.01.2020
3379 Clouds 2 1027 64 16093 1.49 271 16:18 31.01.2020
3380 Clouds 2 1027 69 16093 1.49 271 15:56 31.01.2020
3381 Clouds 2 1027 69 16093 1.49 271 15:56 31.01.2020
3382 Clouds 2 1027 64 16093 1.49 271 15:38 31.01.2020
3383 Clouds 1 1027 64 16093 1.49 271 15:19 31.01.2020
3384 Clouds 0 1028 64 16093 1.49 271 14:42 31.01.2020
3385 Clouds 0 1028 69 16093 1.89 198 14:23 31.01.2020
3386 Clouds -1 1028 69 16093 1.89 198 13:52 31.01.2020
3387 Clouds -1 1027 64 16093 1.89 198 13:32 31.01.2020
3388 Clouds -2 1027 64 16093 1.86 180 12:56 31.01.2020
3389 Clouds -2 1027 64 16093 1.86 180 12:56 31.01.2020
3390 Clouds -2 1028 64 16093 1.86 180 12:38 31.01.2020
3391 Clouds -2 1028 64 16093 1.86 180 12:38 31.01.2020
3392 Clouds -2 1028 64 16093 2.55 198 12:20 31.01.2020
3393 Clouds -2 1027 64 16093 2.55 198 11:42 31.01.2020
3394 Clouds -2 1027 63 16093 2.27 191 11:23 31.01.2020
3395 Clouds -1 1027 63 16093 2.27 191 10:58 31.01.2020
3396 Clouds -1 1027 65 16093 1.89 216 10:58 31.01.2020
3397 Clouds -1 1027 65 16093 1.89 216 10:39 31.01.2020
3398 Clouds -1 1027 64 16093 2.27 191 10:20 31.01.2020
3399 Clouds -1 1028 64 16093 1.89 216 09:56 31.01.2020
3400 Clouds -1 1027 64 16093 2.27 191 09:38 31.01.2020
3401 Clouds -1 1027 64 16093 1.89 216 09:38 31.01.2020
3402 Clouds -1 1027 64 16093 1.89 216 09:18 31.01.2020
3403 Clouds -1 1027 69 16093 1.89 216 08:50 31.01.2020
3404 Clouds -1 1027 69 16093 2.27 191 08:25 31.01.2020
3405 Clouds -1 1027 69 16093 2.27 191 08:25 31.01.2020
3406 Clouds -1 1027 74 16093 1.7 217 07:52 31.01.2020
3407 Clouds -1 1027 74 16093 1.7 217 07:24 31.01.2020
3408 Clouds -1 1027 64 16093 1.7 217 06:42 31.01.2020
3409 Clear -1 1028 64 16093 1.7 217 05:58 31.01.2020
3410 Clear -1 1028 64 16093 1.7 217 05:40 31.01.2020
3411 Clouds -1 1028 63 16093 2.09 132 04:54 31.01.2020
3412 Clear -1 1028 63 16093 2.09 132 02:58 31.01.2020
3413 Clouds -1 1027 64 16093 3.04 121 01:38 31.01.2020
3414 Clear -1 1027 64 16093 2.91 103 00:45 31.01.2020
3415 Clear -1 1027 64 16093 2.91 103 00:26 31.01.2020
3416 Clear 0 1027 59 16093 2.91 103 23:53 30.01.2020
3417 Clouds 1 1027 47 16093 1.76 110 23:24 30.01.2020
3418 Clear 1 1027 47 16093 1.76 110 22:57 30.01.2020
3419 Clear 1 1027 47 16093 1.76 110 22:36 30.01.2020
3420 Clear 1 1027 47 16093 1.76 110 22:18 30.01.2020
3421 Clear 1 1027 43 16093 1.76 110 21:55 30.01.2020
3422 Clear 2 1027 37 16093 1.76 110 21:36 30.01.2020
3423 Clear 2 1027 37 16093 1.76 110 21:18 30.01.2020
3424 Clear 2 1027 34 16093 1.76 110 20:40 30.01.2020
3425 Clear 2 1026 40 16093 2.08 85 20:21 30.01.2020
3426 Clear 2 1026 37 16093 2.08 85 19:56 30.01.2020
3427 Clear 1 1027 40 16093 2.08 85 19:38 30.01.2020
3428 Clear 1 1027 40 16093 2.08 85 19:18 30.01.2020
3429 Clear 1 1027 40 16093 2.08 85 18:41 30.01.2020
3430 Clear 1 1028 39 16093 2.08 85 18:21 30.01.2020
3431 Clear 0 1028 39 16093 2.08 85 17:57 30.01.2020
3432 Clear 0 1028 39 16093 2.08 85 17:37 30.01.2020
3433 Clear 0 1028 48 16093 4.48 38 17:19 30.01.2020
3434 Clear -1 1028 48 16093 4.48 38 16:56 30.01.2020
3435 Clear -1 1028 48 16093 4.48 38 16:38 30.01.2020
3436 Clear -1 1027 39 16093 4.48 38 16:19 30.01.2020
3437 Clear -2 1027 46 16093 2.6 40 15:43 30.01.2020
3438 Clear -3 1027 46 16093 2.6 40 15:20 30.01.2020
3439 Clear -3 1027 49 16093 4.1 40 14:50 30.01.2020
3440 Clear -4 1027 49 16093 4.1 40 14:50 30.01.2020
3441 Clear -4 1026 49 16093 4.1 40 14:27 30.01.2020
3442 Clear -5 1026 62 16093 5.63 33 13:58 30.01.2020
3443 Clear -5 1025 63 0 6.7 30 13:38 30.01.2020
3444 Clear -5 1025 63 0 6.7 30 13:38 30.01.2020
3445 Clear -5 1026 58 16093 2.6 10 13:20 30.01.2020
3446 Clear -5 1025 85 16093 3.6 40 12:43 30.01.2020
3447 Clear -5 1025 58 16093 3.1 40 12:24 30.01.2020
3448 Clear -5 1025 58 16093 5.58 31 11:58 30.01.2020
3449 Clear -5 1025 58 16093 5.58 31 11:40 30.01.2020
3450 Clear -4 1025 63 16093 1.5 0 11:21 30.01.2020
3451 Clear -4 1024 58 16093 5.77 17 10:43 30.01.2020
3452 Clear -4 1025 63 16093 2.6 0 10:25 30.01.2020
3453 Clear -4 1024 62 16093 1.5 330 09:58 30.01.2020
3454 Clear -4 1024 62 16093 1.5 330 09:39 30.01.2020
3455 Clear -4 1024 54 16093 5.77 17 09:19 30.01.2020
3456 Clear -3 1024 54 16093 5.77 17 08:42 30.01.2020
3457 Clear -3 1024 54 16093 6.38 17 08:22 30.01.2020
3458 Clear -3 1024 50 16093 6.38 17 07:53 30.01.2020
3459 Clear -3 1023 50 16093 6.38 17 07:35 30.01.2020
3460 Clear -3 1023 50 16093 6.38 17 06:49 30.01.2020
3461 Clear -2 1023 58 16093 6.38 17 06:31 30.01.2020
3462 Clear -2 1023 58 16093 6.38 17 05:53 30.01.2020
3463 Clear -2 1023 58 16093 6.38 17 05:28 30.01.2020
3464 Clear -2 1023 43 16093 6.45 25 04:40 30.01.2020
3465 Clear -1 1022 85 16093 2.6 360 03:47 30.01.2020
3466 Clear -1 1022 40 16093 6.45 25 02:55 30.01.2020
3467 Clear 1 1020 40 16093 4.74 349 00:57 30.01.2020
3468 Clear 2 1019 37 16093 4.74 349 00:28 30.01.2020
3469 Clear 2 1019 35 16093 4.74 349 23:56 29.01.2020
3470 Clear 3 1019 35 16093 4.74 349 23:38 29.01.2020
3471 Clear 3 1019 35 16093 5.4 345 23:20 29.01.2020
3472 Clear 3 1019 38 16093 3.1 20 22:55 29.01.2020
3473 Clear 4 1018 32 16093 5.4 345 22:37 29.01.2020
3474 Clear 4 1018 32 16093 5.4 345 22:18 29.01.2020
3475 Clear 4 1018 35 16093 3.6 30 21:54 29.01.2020
3476 Clear 4 1018 35 16093 4.1 360 21:36 29.01.2020
3477 Clear 4 1018 35 16093 4.1 360 21:36 29.01.2020
3478 Clear 4 1018 35 16093 4.1 360 21:18 29.01.2020
3479 Clear 4 1018 35 16093 4.1 360 21:18 29.01.2020
3480 Clear 4 1018 35 16093 5.7 360 20:41 29.01.2020
3481 Clear 4 1018 35 16093 5.7 360 20:22 29.01.2020
3482 Clear 4 1018 35 16093 5.7 360 20:22 29.01.2020
3483 Clear 4 1018 35 16093 4.1 320 19:58 29.01.2020
3484 Clear 3 1019 38 16093 1.5 330 19:38 29.01.2020
3485 Clear 3 1019 38 16093 1.5 330 19:20 29.01.2020
3486 Clear 3 1019 41 16093 4.6 340 18:58 29.01.2020
3487 Clouds 3 1019 41 16093 6.2 340 18:38 29.01.2020
3488 Clouds 3 1019 41 16093 6.2 340 18:19 29.01.2020
3489 Clear 2 1019 44 16093 4.1 10 17:41 29.01.2020
3490 Clouds 2 1020 44 16093 6.2 320 17:23 29.01.2020
3491 Clouds 1 1020 47 16093 4.6 10 16:55 29.01.2020
3492 Clouds 1 1019 47 16093 4.1 340 16:37 29.01.2020
3493 Clouds 1 1019 47 16093 4.1 340 16:19 29.01.2020
3494 Clouds 1 1019 50 16093 3.6 20 15:39 29.01.2020
3495 Clouds 0 1019 50 16093 3.6 20 15:21 29.01.2020
3496 Clouds 0 1019 50 16093 3.6 20 15:21 29.01.2020
3497 Clouds 0 1019 50 16093 4.1 350 14:55 29.01.2020
3498 Clouds 0 1018 55 0 6.56 324 14:37 29.01.2020
3499 Clouds 0 1018 55 0 7.78 332 14:18 29.01.2020
3500 Clouds 0 1017 50 16093 4.1 330 13:40 29.01.2020
3501 Clouds 0 1017 50 16093 4.1 330 13:22 29.01.2020
3502 Clouds 0 1017 63 16093 2.6 360 12:56 29.01.2020
3503 Clouds 0 1016 51 0 1.5 0 12:38 29.01.2020
3504 Clouds 0 1016 51 0 1.5 0 12:20 29.01.2020
3505 Clouds 0 1016 47 16093 3.6 360 11:47 29.01.2020
3506 Clouds 0 1016 51 16093 4.1 350 11:24 29.01.2020
3507 Clouds 1 1015 51 16093 5.1 330 10:56 29.01.2020
3508 Clouds 1 1015 51 16093 3.6 340 10:37 29.01.2020
3509 Clouds 1 1015 51 16093 3.6 340 10:19 29.01.2020
3510 Clouds 1 1015 51 16093 6.2 340 09:40 29.01.2020
3511 Clouds 1 1015 51 16093 6.2 340 09:40 29.01.2020
3512 Clouds 1 1015 51 16093 6.2 340 09:22 29.01.2020
3513 Clouds 1 1015 51 16093 4.6 340 08:58 29.01.2020
3514 Clouds 1 1015 51 16093 4.6 340 08:39 29.01.2020
3515 Clouds 2 1015 51 16093 8.91 322 08:20 29.01.2020
3516 Clouds 2 1015 51 16093 2.6 360 07:45 29.01.2020
3517 Clouds 2 1015 51 16093 4.1 340 07:25 29.01.2020
3518 Clouds 2 1015 51 16093 4.6 360 06:55 29.01.2020
3519 Clouds 2 1015 51 16093 8.91 322 06:37 29.01.2020
3520 Clouds 2 1015 51 16093 8.91 322 06:18 29.01.2020
3521 Clouds 2 1014 55 16093 2.1 330 05:45 29.01.2020
3522 Clouds 2 1014 51 16093 4.6 330 05:26 29.01.2020
3523 Clouds 3 1014 48 16093 4.1 320 04:38 29.01.2020
3524 Clouds 3 1014 51 16093 4.6 330 03:49 29.01.2020
3525 Clouds 3 1012 64 16093 5.7 330 02:33 29.01.2020
3526 Clouds 4 1012 55 16093 4.6 330 00:44 29.01.2020
3527 Clouds 4 1012 56 0 8.59 327 00:25 29.01.2020
3528 Rain 4 1012 52 16093 5.1 320 23:58 28.01.2020
3529 Rain 4 1011 52 16093 4.6 310 23:37 28.01.2020
3530 Rain 4 1011 52 16093 4.6 310 23:18 28.01.2020
3531 Clouds 4 1011 60 16093 4.1 350 22:41 28.01.2020
3532 Clouds 4 1011 48 16093 4.1 320 22:21 28.01.2020
3533 Clouds 4 1011 52 16093 5.1 320 21:54 28.01.2020
3534 Clouds 4 1011 48 16093 5.7 320 21:36 28.01.2020
3535 Clouds 4 1011 48 16093 5.7 320 21:18 28.01.2020
3536 Clouds 5 1010 48 16093 7.2 330 20:42 28.01.2020
3537 Clouds 5 1010 48 16093 7.2 330 20:42 28.01.2020
3538 Clouds 5 1009 45 16093 8.2 320 20:23 28.01.2020
3539 Clear 5 1009 45 16093 8.7 320 19:55 28.01.2020
3540 Clouds 5 1009 45 16093 6.7 320 19:36 28.01.2020
3541 Clouds 5 1009 45 16093 6.7 320 19:18 28.01.2020
3542 Clouds 6 1009 45 16093 7.2 330 18:41 28.01.2020
3543 Clouds 6 1010 45 16093 8.2 320 18:22 28.01.2020
3544 Clouds 6 1010 45 16093 6.2 340 17:59 28.01.2020
3545 Clouds 5 1011 48 16093 5.7 340 17:39 28.01.2020
3546 Clouds 5 1011 48 16093 5.7 340 17:21 28.01.2020
3547 Clouds 5 1011 48 16093 4.1 340 16:57 28.01.2020
3548 Clouds 5 1011 48 16093 4.1 340 16:39 28.01.2020
3549 Clouds 4 1011 55 16093 6.2 330 16:20 28.01.2020
3550 Clouds 4 1011 55 16093 6.2 330 15:45 28.01.2020
3551 Clouds 4 1011 64 16093 4.1 310 15:19 28.01.2020
3552 Clouds 3 1011 64 16093 5.1 310 14:57 28.01.2020
3553 Clouds 3 1011 64 16093 5.1 310 14:39 28.01.2020
3554 Clouds 2 1010 64 16093 6.2 310 14:18 28.01.2020
3555 Clouds 2 1009 64 16093 3.6 310 13:41 28.01.2020
3556 Clouds 2 1009 64 16093 3.6 310 13:23 28.01.2020
3557 Clouds 2 1009 59 16093 5.7 310 12:43 28.01.2020
3558 Clouds 2 1009 59 16093 5.7 310 12:24 28.01.2020
3559 Clouds 2 1009 59 16093 4.1 320 11:58 28.01.2020
3560 Clouds 2 1009 59 16093 4.1 320 11:39 28.01.2020
3561 Clouds 2 1008 59 16093 3.6 320 11:20 28.01.2020
3562 Clouds 3 1008 59 16093 4.6 320 10:42 28.01.2020
3563 Clouds 3 1008 59 16093 4.1 320 10:24 28.01.2020
3564 Clouds 3 1008 55 16093 5.7 310 09:58 28.01.2020
3565 Clouds 3 1008 51 16093 5.1 310 09:38 28.01.2020
3566 Clouds 3 1008 51 16093 5.1 310 09:19 28.01.2020
3567 Clouds 3 1008 51 16093 3.6 310 08:44 28.01.2020
3568 Clouds 3 1008 55 16093 4.6 320 08:25 28.01.2020
3569 Clouds 3 1008 60 16093 3.1 340 07:43 28.01.2020
3570 Clouds 4 1008 60 16093 3.1 340 07:23 28.01.2020
3571 Clouds 4 1008 64 16093 4.6 330 06:44 28.01.2020
3572 Clouds 4 1008 60 0 8.36 314 06:23 28.01.2020
3573 Clouds 4 1008 60 0 1.5 0 05:35 28.01.2020
3574 Clouds 4 1007 60 16093 6.93 313 04:41 28.01.2020
3575 Clouds 5 1007 60 16093 2.1 330 03:46 28.01.2020
3576 Clouds 5 1007 60 16093 1.5 330 02:44 28.01.2020
3577 Clouds 5 1007 60 16093 1.5 330 02:44 28.01.2020
3578 Clouds 5 1007 60 16093 3.1 300 02:24 28.01.2020
3579 Clouds 5 1007 65 16093 2.1 330 01:52 28.01.2020
3580 Clouds 5 1007 56 16093 6.89 298 01:20 28.01.2020
3581 Clouds 6 1006 52 16093 3.1 310 00:41 28.01.2020
3582 Clouds 6 1006 52 16093 4.1 300 00:19 28.01.2020
3583 Rain 6 1006 52 16093 3.1 310 23:42 27.01.2020
3584 Rain 6 1006 48 16093 7.22 279 23:19 27.01.2020
3585 Clouds 6 1005 48 16093 6.7 300 22:44 27.01.2020
3586 Clouds 6 1005 48 16093 6.2 310 22:20 27.01.2020
3587 Clouds 6 1005 48 16093 6.2 310 22:20 27.01.2020
3588 Clouds 6 1005 52 16093 4.6 310 21:57 27.01.2020
3589 Clouds 6 1005 52 16093 4.6 310 21:38 27.01.2020
3590 Clouds 6 1005 56 16093 7.22 279 21:19 27.01.2020
3591 Clouds 6 1005 56 16093 7.22 279 21:19 27.01.2020
3592 Clouds 6 1005 52 16093 4.6 300 20:56 27.01.2020
3593 Clouds 6 1005 60 16093 3.6 270 20:37 27.01.2020
3594 Clouds 6 1005 60 16093 3.6 270 20:19 27.01.2020
3595 Clouds 6 1005 60 16093 4.6 280 19:55 27.01.2020
3596 Clouds 6 1005 60 16093 5.1 280 19:37 27.01.2020
3597 Clouds 6 1005 60 16093 5.1 280 19:19 27.01.2020
3598 Clouds 6 1005 60 16093 4.1 270 18:39 27.01.2020
3599 Clouds 6 1006 56 16093 4.6 270 18:21 27.01.2020
3600 Clouds 6 1006 60 16093 4.1 270 17:57 27.01.2020
3601 Clouds 6 1006 60 16093 4.1 270 17:57 27.01.2020
3602 Clouds 6 1006 75 16093 4.1 230 17:37 27.01.2020
3603 Clouds 5 1006 75 16093 4.1 230 17:18 27.01.2020
3604 Clouds 5 1007 60 16093 3.6 280 16:55 27.01.2020
3605 Clouds 5 1007 60 16093 3.6 280 16:36 27.01.2020
3606 Clouds 5 1007 60 16093 3.6 280 16:18 27.01.2020
3607 Clouds 4 1007 64 16093 4.1 270 15:41 27.01.2020
3608 Clouds 4 1007 64 16093 4.6 270 15:20 27.01.2020
3609 Clouds 3 1007 64 16093 2.1 270 14:57 27.01.2020
3610 Clouds 3 1006 69 16093 3.6 270 14:39 27.01.2020
3611 Clouds 2 1006 69 16093 3.6 270 14:20 27.01.2020
3612 Clouds 2 1007 69 16093 2.6 270 13:42 27.01.2020
3613 Clouds 2 1007 69 16093 3.6 280 13:22 27.01.2020
3614 Clouds 2 1006 80 16093 3.1 230 12:57 27.01.2020
3615 Clouds 2 1006 80 16093 3.1 230 12:57 27.01.2020
3616 Clouds 2 1006 80 16093 3.1 230 12:57 27.01.2020
3617 Clouds 2 1007 69 16093 2.6 270 12:39 27.01.2020
3618 Clouds 2 1007 69 16093 2.6 270 12:20 27.01.2020
3619 Clouds 2 1007 69 16093 3.1 270 11:43 27.01.2020
3620 Clouds 2 1007 69 16093 3.1 270 11:22 27.01.2020
3621 Clouds 2 1007 69 16093 3.6 270 10:56 27.01.2020
3622 Clouds 2 1007 69 16093 3.6 280 10:37 27.01.2020
3623 Clouds 2 1007 69 16093 3.6 280 10:18 27.01.2020
3624 Clouds 2 1007 69 16093 8.63 262 09:39 27.01.2020
3625 Clouds 2 1007 69 16093 8.63 262 09:19 27.01.2020
3626 Clouds 2 1008 69 16093 3.1 270 08:55 27.01.2020
3627 Clouds 2 1008 69 16093 2.6 270 08:37 27.01.2020
3628 Clouds 2 1008 69 16093 2.6 270 08:18 27.01.2020
3629 Clouds 1 1008 69 16093 8.09 266 07:45 27.01.2020
3630 Clear 1 1008 69 16093 8.09 266 07:25 27.01.2020
3631 Clear 2 1008 64 16093 8.09 266 06:37 27.01.2020
3632 Clear 2 1008 64 16093 8.09 266 06:37 27.01.2020
3633 Clear 2 1009 64 16093 1.5 290 05:38 27.01.2020
3634 Clear 3 1009 64 16093 7.4 267 04:37 27.01.2020
3635 Clear 3 1009 60 16093 7.4 267 03:35 27.01.2020
3636 Clear 5 1009 56 16093 4.1 290 01:54 27.01.2020
3637 Clear 5 1009 60 16093 7.86 269 01:25 27.01.2020
3638 Clouds 5 1009 52 16093 5.7 300 00:41 27.01.2020
3639 Clouds 6 1009 52 16093 5.7 300 00:21 27.01.2020
3640 Clouds 6 1008 52 16093 4.6 300 23:43 26.01.2020
3641 Clouds 6 1008 52 16093 4.6 300 23:22 26.01.2020
3642 Clouds 6 1008 56 16093 3.6 310 22:58 26.01.2020
3643 Clouds 7 1008 52 16093 3.6 290 22:38 26.01.2020
3644 Clouds 7 1008 52 16093 3.6 290 22:20 26.01.2020
3645 Clouds 7 1008 52 16093 2.6 290 21:58 26.01.2020
3646 Clouds 7 1008 52 16093 2.6 290 21:58 26.01.2020
3647 Clouds 7 1008 52 16093 5.7 290 21:39 26.01.2020
3648 Clouds 7 1008 52 16093 5.7 290 21:21 26.01.2020
3649 Clouds 7 1008 52 16093 7.81 274 20:58 26.01.2020
3650 Clouds 7 1008 52 16093 6.2 310 20:38 26.01.2020
3651 Clouds 7 1008 52 16093 6.2 310 20:38 26.01.2020
3652 Clouds 7 1008 52 16093 6.2 310 20:38 26.01.2020
3653 Clouds 7 1008 52 16093 6.2 310 20:19 26.01.2020
3654 Clouds 7 1008 52 16093 6.2 310 19:58 26.01.2020
3655 Clouds 7 1008 49 16093 5.7 290 19:38 26.01.2020
3656 Clouds 7 1008 49 16093 5.7 290 19:38 26.01.2020
3657 Clouds 7 1008 49 16093 5.7 290 19:19 26.01.2020
3658 Clouds 7 1009 52 16093 6.7 310 18:56 26.01.2020
3659 Clouds 7 1009 52 16093 6.2 320 18:38 26.01.2020
3660 Clouds 7 1009 52 16093 6.2 320 18:20 26.01.2020
3661 Clouds 7 1009 63 16093 4.1 300 17:55 26.01.2020
3662 Clouds 7 1010 63 16093 6.7 310 17:37 26.01.2020
3663 Clouds 6 1010 73 16093 6.7 310 17:18 26.01.2020
3664 Clear 6 1010 73 16093 4.6 280 16:56 26.01.2020
3665 Clear 5 1010 73 16093 4.6 280 16:38 26.01.2020
3666 Clear 5 1011 73 16093 2.6 280 16:18 26.01.2020
3667 Clouds 4 1011 73 16093 6.69 263 15:43 26.01.2020
3668 Clouds 3 1009 100 16093 3.6 230 15:21 26.01.2020
3669 Clouds 3 1009 86 16093 2.6 230 14:58 26.01.2020
3670 Clouds 3 1009 86 16093 2.6 230 14:38 26.01.2020
3671 Clouds 2 1009 86 16093 2.6 230 14:19 26.01.2020
3672 Clouds 1 1008 78 16093 7.28 265 13:40 26.01.2020
3673 Clouds 1 1008 79 16093 7.41 260 13:19 26.01.2020
3674 Clear 1 1009 93 16093 1.5 250 12:56 26.01.2020
3675 Clear 1 1009 93 16093 1.5 250 12:37 26.01.2020
3676 Clear 1 1009 93 16093 1.5 250 12:19 26.01.2020
3677 Clear 1 1009 86 16093 3.1 270 11:57 26.01.2020
3678 Clear 2 1009 86 16093 2.1 280 11:36 26.01.2020
3679 Clear 2 1009 86 16093 2.1 280 11:18 26.01.2020
3680 Clear 2 1009 86 16093 2.1 280 11:18 26.01.2020
3681 Clear 2 1009 86 16093 2.1 280 10:55 26.01.2020
3682 Clear 2 1009 86 16093 2.1 280 10:37 26.01.2020
3683 Clear 2 1009 86 16093 2.1 280 10:19 26.01.2020
3684 Clear 2 1009 86 16093 2.1 280 10:19 26.01.2020
3685 Clear 3 1009 93 16093 8.25 273 09:42 26.01.2020
3686 Clear 3 1010 93 16093 8.25 273 09:23 26.01.2020
3687 Clear 3 1009 86 16093 2.1 270 08:59 26.01.2020
3688 Clear 3 1009 86 16093 2.1 270 08:41 26.01.2020
3689 Clear 3 1009 86 16093 8.18 280 08:21 26.01.2020
3690 Clear 3 1009 86 16093 8.18 280 07:50 26.01.2020
3691 Clear 3 1009 86 16093 8.18 280 07:26 26.01.2020
3692 Clear 4 1009 86 16093 8.18 280 06:51 26.01.2020
3693 Clear 4 1009 86 16093 2.6 300 06:23 26.01.2020
3694 Clear 4 1009 86 16093 8.18 280 05:28 26.01.2020
3695 Clouds 6 1009 87 16093 3.6 250 03:31 26.01.2020
3696 Clouds 6 1008 100 16093 2.1 320 02:38 26.01.2020
3697 Clouds 7 1008 93 16093 6.6 254 01:45 26.01.2020
3698 Clouds 7 1008 93 0 4.1 260 01:22 26.01.2020
3699 Rain 7 1008 100 0 4.1 250 00:42 26.01.2020
3700 Rain 8 1008 100 0 2.6 270 00:24 26.01.2020
3701 Rain 8 1007 81 12874 5.7 180 23:39 25.01.2020
3702 Rain 8 1008 91 0 2.24 150 23:21 25.01.2020
3703 Rain 8 1008 87 4023 10.8 120 22:56 25.01.2020
3704 Rain 8 1008 87 4023 10.8 120 22:56 25.01.2020
3705 Rain 8 1008 87 4023 10.8 120 22:36 25.01.2020
3706 Rain 8 1008 87 4023 10.8 120 22:18 25.01.2020
3707 Rain 8 1008 87 4023 10.8 120 21:55 25.01.2020
3708 Rain 9 1008 96 0 6.73 335 21:36 25.01.2020
3709 Rain 8 1008 93 9656 11.3 100 21:18 25.01.2020
3710 Rain 8 1009 87 4828 11.3 100 20:43 25.01.2020
3711 Rain 8 1006 95 0 5.81 135 20:24 25.01.2020
3712 Rain 7 1007 95 0 5.36 113 19:48 25.01.2020
3713 Rain 7 1014 87 4828 8.7 100 19:20 25.01.2020
3714 Rain 6 1014 87 4828 8.7 100 19:20 25.01.2020
3715 Rain 7 1014 87 4828 8.7 100 18:59 25.01.2020
3716 Rain 7 1014 87 4828 8.7 100 18:41 25.01.2020
3717 Rain 6 1014 87 4828 8.7 100 18:21 25.01.2020
3718 Rain 6 1010 94 0 5.36 113 17:56 25.01.2020
3719 Rain 6 1014 87 4828 2.1 0 17:37 25.01.2020
3720 Rain 5 1014 94 0 14.31 122 17:18 25.01.2020
3721 Rain 5 1014 87 4828 2.1 0 16:42 25.01.2020
3722 Rain 5 1013 93 4023 5.1 70 16:23 25.01.2020
3723 Rain 5 1019 87 4828 5.1 70 15:56 25.01.2020
3724 Rain 4 1015 93 4023 2.6 0 15:38 25.01.2020
3725 Rain 4 1015 93 4023 2.6 0 15:19 25.01.2020
3726 Rain 4 1016 93 3219 4.1 70 14:42 25.01.2020
3727 Clouds 4 1020 80 11265 6.2 70 14:19 25.01.2020
3728 Clouds 4 1020 80 11265 6.2 70 13:45 25.01.2020
3729 Clouds 4 1022 71 0 3.58 360 13:26 25.01.2020
3730 Clouds 4 1021 80 0 7.2 30 12:57 25.01.2020
3731 Clouds 4 1021 80 0 7.2 30 12:37 25.01.2020
3732 Clouds 4 1021 80 0 7.2 30 12:19 25.01.2020
3733 Clouds 4 1020 80 16093 7.7 90 11:40 25.01.2020
3734 Clouds 4 1020 80 16093 7.7 90 11:19 25.01.2020
3735 Clouds 4 1021 80 16093 7.2 90 10:55 25.01.2020
3736 Clouds 4 1021 80 16093 5.1 90 10:37 25.01.2020
3737 Clouds 4 1021 80 16093 5.1 90 10:18 25.01.2020
3738 Clouds 3 1022 86 16093 6.7 100 09:40 25.01.2020
3739 Clouds 3 1022 86 16093 5.1 90 09:19 25.01.2020
3740 Clouds 3 1023 80 16093 5.7 90 08:43 25.01.2020
3741 Clouds 3 1024 86 16093 5.1 90 07:58 25.01.2020
3742 Clouds 3 1024 100 16093 5.7 80 07:36 25.01.2020
3743 Clouds 3 1024 80 16093 4.6 90 07:36 25.01.2020
3744 Clouds 3 1025 79 14484 9.46 80 06:41 25.01.2020
3745 Clear 3 1024 79 16093 3.6 90 06:22 25.01.2020
3746 Clouds 3 1025 79 16093 3.6 50 05:43 25.01.2020
3747 Clear 4 1025 48 16093 7.86 81 04:24 25.01.2020
3748 Clear 4 1026 38 16093 7.86 81 03:50 25.01.2020
3749 Clear 4 1026 52 16093 7.86 81 02:38 25.01.2020
3750 Clear 4 1026 42 16093 7.38 90 01:58 25.01.2020
3751 Clear 4 1026 45 16093 7.29 84 01:34 25.01.2020
3752 Clear 5 1027 45 16093 7.29 84 00:41 25.01.2020
3753 Clear 6 1026 48 16093 7.29 84 00:23 25.01.2020
3754 Clear 6 1026 48 16093 7.29 84 23:42 24.01.2020
3755 Clear 7 1027 42 16093 5.86 98 23:24 24.01.2020
3756 Clear 7 1026 45 16093 5.86 98 22:56 24.01.2020
3757 Clear 8 1026 45 16093 5.86 98 22:37 24.01.2020
3758 Clear 8 1026 45 16093 5.86 98 22:19 24.01.2020
3759 Clouds 8 1026 34 16093 2.6 160 21:41 24.01.2020
3760 Clear 8 1026 31 16093 2.6 150 21:20 24.01.2020
3761 Clear 9 1026 29 16093 5.86 98 20:55 24.01.2020
3762 Clear 9 1026 29 16093 5.86 98 20:37 24.01.2020
3763 Clear 9 1026 29 16093 4.3 86 20:18 24.01.2020
3764 Clear 9 1027 32 16093 4.3 86 19:55 24.01.2020
3765 Clear 9 1027 34 16093 4.3 86 19:37 24.01.2020
3766 Clear 10 1027 34 16093 4.3 86 19:19 24.01.2020
3767 Clear 9 1027 34 16093 4.3 86 19:19 24.01.2020
3768 Clear 10 1027 34 16093 4.3 86 18:42 24.01.2020
3769 Clear 10 1028 37 16093 4.3 86 18:22 24.01.2020
3770 Clear 10 1028 37 16093 4.3 86 18:22 24.01.2020
3771 Clear 9 1029 36 16093 4.3 86 17:45 24.01.2020
3772 Clear 8 1029 36 16093 3.21 54 17:23 24.01.2020
3773 Clouds 7 1029 45 16093 2.6 80 16:58 24.01.2020
3774 Clear 6 1029 42 16093 3.21 54 16:39 24.01.2020
3775 Clear 6 1029 42 16093 3.21 54 16:19 24.01.2020
3776 Clear 6 1029 42 16093 3.21 54 16:19 24.01.2020
3777 Clouds 4 1029 69 16093 3.21 54 15:42 24.01.2020
3778 Clear 3 1029 55 16093 3.21 54 15:21 24.01.2020
3779 Clouds 2 1029 92 16093 3.21 54 14:55 24.01.2020
3780 Clear 1 1029 64 11265 3.21 54 14:37 24.01.2020
3781 Clear -1 1029 64 11265 1.69 4 14:19 24.01.2020
3782 Clouds -2 1029 100 16093 1.69 4 13:41 24.01.2020
3783 Clear -2 1029 49 16093 1.53 348 13:22 24.01.2020
3784 Clear -2 1028 49 16093 1.53 348 12:44 24.01.2020
3785 Clear -2 1028 49 16093 1.53 348 12:44 24.01.2020
3786 Clear -2 1028 49 16093 1.53 348 12:21 24.01.2020
3787 Clouds -2 1027 69 16093 1.5 30 11:45 24.01.2020
3788 Clouds -2 1027 69 16093 1.5 30 11:19 24.01.2020
3789 Clouds -2 1027 69 16093 1.5 30 11:19 24.01.2020
3790 Clear -2 1027 100 16093 1.86 284 10:59 24.01.2020
3791 Clouds -1 1028 64 16093 1.86 284 10:40 24.01.2020
3792 Clouds -1 1028 64 16093 1.86 284 10:19 24.01.2020
3793 Clouds -1 1028 64 16093 1.86 284 09:42 24.01.2020
3794 Clear -1 1027 92 16093 1.86 284 09:42 24.01.2020
3795 Clouds 0 1028 64 16093 1.86 284 09:24 24.01.2020
3796 Clear 0 1028 69 16093 1.86 284 08:59 24.01.2020
3797 Clouds 0 1028 64 16093 1.42 276 08:36 24.01.2020
3798 Clouds 0 1028 64 16093 2.21 271 08:18 24.01.2020
3799 Clouds 0 1027 92 16093 2.21 271 07:42 24.01.2020
3800 Clear 0 1028 59 16093 2.21 271 07:21 24.01.2020
3801 Clear 1 1028 59 16093 2.21 271 06:43 24.01.2020
3802 Clear 1 1028 59 16093 2.21 271 06:43 24.01.2020
3803 Clouds 0 1028 64 16093 2.21 271 06:23 24.01.2020
3804 Clear 1 1028 64 16093 3.13 257 05:21 24.01.2020
3805 Clear 1 1029 64 16093 3.13 257 03:34 24.01.2020
3806 Clear 1 1029 48 16093 3.13 257 02:39 24.01.2020
3807 Clear 2 1029 48 16093 2.91 195 02:20 24.01.2020
3808 Clear 2 1028 41 16093 2.91 195 01:38 24.01.2020
3809 Clouds 3 1028 59 16093 1.5 290 00:42 24.01.2020
3810 Clear 3 1028 33 16093 2.65 227 00:19 24.01.2020
3811 Clear 4 1028 33 16093 2.65 227 23:42 23.01.2020
3812 Clear 4 1028 48 0 2.1 260 23:22 23.01.2020
3813 Clear 5 1028 30 16093 1.9 245 22:58 23.01.2020
3814 Clear 6 1027 28 16093 1.9 245 22:37 23.01.2020
3815 Clear 6 1027 28 16093 1.9 245 22:18 23.01.2020
3816 Clear 6 1027 30 16093 1.9 245 21:55 23.01.2020
3817 Clear 7 1027 28 16093 1.9 245 21:37 23.01.2020
3818 Clear 7 1027 28 16093 1.9 245 21:19 23.01.2020
3819 Clouds 7 1027 39 16093 3.1 200 20:55 23.01.2020
3820 Clear 7 1028 30 16093 2.21 258 20:37 23.01.2020
3821 Clear 7 1028 30 16093 3.71 264 20:18 23.01.2020
3822 Clouds 6 1027 31 16093 2.1 250 19:42 23.01.2020
3823 Clear 6 1028 33 16093 3.71 264 19:23 23.01.2020
3824 Clear 6 1029 38 16093 3.71 264 18:58 23.01.2020
3825 Clear 6 1030 38 16093 3.71 264 18:38 23.01.2020
3826 Clear 5 1030 38 16093 3.71 264 18:20 23.01.2020
3827 Clear 5 1031 51 0 3.1 250 17:56 23.01.2020
3828 Clear 4 1031 51 0 3.1 250 17:37 23.01.2020
3829 Clear 3 1031 51 0 3.1 250 17:18 23.01.2020
3830 Clear 2 1031 55 16093 4.11 247 16:39 23.01.2020
3831 Clear 2 1031 55 16093 4.11 247 16:20 23.01.2020
3832 Clear 1 1030 54 16093 4.11 247 15:58 23.01.2020
3833 Clear 1 1030 63 16093 4.11 247 15:39 23.01.2020
3834 Clear 0 1030 63 16093 4.11 247 15:19 23.01.2020
3835 Clear 0 1030 68 16093 4.11 247 14:59 23.01.2020
3836 Clear -1 1030 68 16093 4.11 247 14:41 23.01.2020
3837 Clear -3 1030 68 16093 3.72 252 14:22 23.01.2020
3838 Clear -5 1030 73 16093 3.72 252 13:59 23.01.2020
3839 Clear -6 1030 68 16093 3.72 252 13:37 23.01.2020
3840 Clear -6 1030 68 16093 3.81 247 13:19 23.01.2020
3841 Clouds -6 1030 100 16093 4.22 255 12:44 23.01.2020
3842 Clear -5 1030 73 16093 3.81 247 12:24 23.01.2020
3843 Clear -5 1030 68 16093 3.81 247 11:56 23.01.2020
3844 Clear -5 1030 53 0 2.6 260 11:37 23.01.2020
3845 Clear -5 1030 68 16093 3.81 247 11:37 23.01.2020
3846 Clear -5 1030 67 0 2.6 260 11:18 23.01.2020
3847 Clear -5 1030 73 16093 3.5 267 10:44 23.01.2020
3848 Clear -5 1030 73 16093 3.76 254 10:22 23.01.2020
3849 Clear -5 1030 73 16093 3.5 267 09:43 23.01.2020
3850 Clear -5 1030 73 16093 3.5 267 09:25 23.01.2020
3851 Clear -4 1030 68 16093 3.5 267 08:59 23.01.2020
3852 Clear -4 1030 68 16093 3.76 254 08:40 23.01.2020
3853 Clear -4 1030 68 16093 3.57 259 08:22 23.01.2020
3854 Clear -4 1030 68 16093 3.57 259 07:45 23.01.2020
3855 Clear -4 1030 68 16093 3.57 259 07:26 23.01.2020
3856 Clear -3 1030 63 16093 3.57 259 06:52 23.01.2020
3857 Clear -3 1030 63 16093 3.57 259 06:22 23.01.2020
3858 Clear -3 1031 63 16093 3.57 259 05:57 23.01.2020
3859 Clear -3 1031 63 16093 2.93 227 04:24 23.01.2020
3860 Clear -3 1031 63 16093 2.93 227 04:24 23.01.2020
3861 Clear -2 1031 52 16093 0.96 254 02:34 23.01.2020
3862 Clear -2 1030 59 16093 1.5 210 01:33 23.01.2020
3863 Clear -1 1031 43 16093 2.02 242 00:27 23.01.2020
3864 Clouds 0 1031 79 16093 2.02 242 23:48 22.01.2020
3865 Clear 1 1031 40 16093 2.02 242 23:30 22.01.2020
3866 Clear 2 1030 38 16093 2.42 311 22:59 22.01.2020
3867 Clear 3 1030 38 16093 2.42 311 22:41 22.01.2020
3868 Clear 3 1030 38 16093 2.42 311 22:41 22.01.2020
3869 Clear 3 1030 38 16093 2.42 311 22:22 22.01.2020
3870 Clear 3 1030 38 16093 2.42 311 21:40 22.01.2020
3871 Clear 3 1030 38 16093 2.42 311 21:22 22.01.2020
3872 Clear 3 1030 38 16093 2.42 311 20:58 22.01.2020
3873 Clear 3 1030 38 16093 2.42 311 20:39 22.01.2020
3874 Clear 3 1030 40 16093 2.69 267 20:21 22.01.2020
3875 Clear 3 1031 37 16093 2.69 267 19:57 22.01.2020
3876 Clear 2 1031 43 16093 2.69 267 19:38 22.01.2020
3877 Clear 2 1031 43 16093 2.69 267 19:18 22.01.2020
3878 Clear 2 1031 43 16093 2.69 267 18:56 22.01.2020
3879 Clear 2 1031 43 16093 2.69 267 18:38 22.01.2020
3880 Clear 1 1032 43 16093 2.69 267 18:19 22.01.2020
3881 Clear 1 1033 48 16093 2.69 267 17:54 22.01.2020
3882 Clear 1 1033 48 16093 2.69 267 17:36 22.01.2020
3883 Clear 0 1032 57 16093 2.16 265 17:18 22.01.2020
3884 Clear 0 1033 57 16093 2.16 265 17:18 22.01.2020
3885 Clear -1 1033 54 16093 2.16 265 16:43 22.01.2020
3886 Clear -1 1033 54 16093 2.16 265 16:22 22.01.2020
3887 Rain -2 1033 58 16093 2.16 265 15:58 22.01.2020
3888 Rain -2 1033 58 16093 2.16 265 15:39 22.01.2020
3889 Rain -3 1033 58 16093 2.16 265 15:21 22.01.2020
3890 Rain -3 1033 58 16093 2.16 265 15:21 22.01.2020
3891 Clear -4 1033 68 16093 2.16 265 14:54 22.01.2020
3892 Clear -4 1033 73 16093 2.16 265 14:36 22.01.2020
3893 Clear -4 1033 73 16093 2.16 265 14:36 22.01.2020
3894 Clear -6 1033 73 16093 1.59 344 14:18 22.01.2020
3895 Clear -7 1033 92 16093 1.59 344 13:54 22.01.2020
3896 Clear -8 1032 73 16093 1.59 344 13:36 22.01.2020
3897 Clear -8 1032 73 16093 1.46 357 13:18 22.01.2020
3898 Clear -8 1031 92 16093 1.46 357 12:54 22.01.2020
3899 Clear -8 1031 67 16093 1.46 357 12:36 22.01.2020
3900 Clear -8 1031 67 16093 1.46 357 12:18 22.01.2020
3901 Clear -8 1031 67 16093 1.46 357 11:54 22.01.2020
3902 Clear -8 1031 67 16093 1.46 357 11:36 22.01.2020
3903 Clear -8 1030 73 16093 3.78 8 11:18 22.01.2020
3904 Clear -8 1031 62 16093 3.78 8 10:41 22.01.2020
3905 Clear -7 1031 62 16093 3.78 8 10:19 22.01.2020
3906 Clear -7 1031 62 16093 3.78 8 09:42 22.01.2020
3907 Clear -7 1031 62 16093 3.78 8 09:24 22.01.2020
3908 Clear -6 1031 58 16093 3.78 8 08:57 22.01.2020
3909 Clear -6 1031 62 16093 3.78 8 08:39 22.01.2020
3910 Clear -6 1031 62 16093 5.24 351 08:20 22.01.2020
3911 Clear -6 1031 58 16093 5.24 351 07:47 22.01.2020
3912 Clear -6 1031 58 16093 5.24 351 07:29 22.01.2020
3913 Clear -5 1031 58 16093 5.24 351 06:46 22.01.2020
3914 Clear -5 1032 49 16093 5.24 351 06:26 22.01.2020
3915 Clear -5 1032 49 16093 5.24 351 05:26 22.01.2020
3916 Clear -3 1032 46 16093 5.45 343 03:30 22.01.2020
3917 Clear -3 1032 42 16093 5.45 343 02:57 22.01.2020
3918 Clear -3 1032 36 16093 4.1 330 01:43 22.01.2020
3919 Clear -2 1031 33 16093 6.17 340 00:44 22.01.2020
3920 Clear -2 1031 33 16093 6.17 340 00:26 22.01.2020
3921 Clear -2 1030 47 16093 6.17 340 23:38 21.01.2020
3922 Clear -1 1030 40 16093 4.11 334 23:20 21.01.2020
3923 Clouds -1 1030 42 16093 1.5 330 22:56 21.01.2020
3924 Clouds -1 1030 42 16093 1.5 330 22:56 21.01.2020
3925 Clear -1 1030 29 16093 2.6 330 22:37 21.01.2020
3926 Clear -1 1030 29 16093 2.6 330 22:37 21.01.2020
3927 Clear 0 1030 29 16093 2.6 330 22:19 21.01.2020
3928 Clear 0 1030 29 16093 3.6 340 21:55 21.01.2020
3929 Clear 0 1030 29 16093 4.1 350 21:37 21.01.2020
3930 Clear 0 1030 29 16093 4.1 350 21:18 21.01.2020
3931 Clear 0 1030 29 16093 3.6 350 20:55 21.01.2020
3932 Clear 0 1030 27 16093 3.6 30 20:37 21.01.2020
3933 Clear 0 1030 27 16093 3.6 30 20:18 21.01.2020
3934 Clear 0 1030 31 16093 3.6 350 19:55 21.01.2020
3935 Clear 0 1030 34 16093 4.1 330 19:36 21.01.2020
3936 Clear 0 1030 34 16093 4.1 330 19:18 21.01.2020
3937 Clouds -1 1030 50 16093 3.6 320 18:54 21.01.2020
3938 Clear -1 1031 50 16093 2.1 330 18:36 21.01.2020
3939 Clear -1 1031 50 16093 2.1 330 18:18 21.01.2020
3940 Clear -2 1032 46 16093 3.6 310 17:42 21.01.2020
3941 Clear -3 1032 46 16093 3.6 310 17:19 21.01.2020
3942 Clear -3 1033 46 16093 4.41 329 16:57 21.01.2020
3943 Clear -4 1033 49 16093 3.1 20 16:36 21.01.2020
3944 Clear -4 1033 49 16093 3.1 20 16:18 21.01.2020
3945 Clear -5 1032 53 16093 3.6 340 15:40 21.01.2020
3946 Clear -5 1032 53 16093 3.6 340 15:20 21.01.2020
3947 Clear -6 1032 62 16093 3.6 330 14:57 21.01.2020
3948 Clear -6 1032 62 16093 4.41 329 14:37 21.01.2020
3949 Clear -7 1032 62 16093 5.31 341 14:19 21.01.2020
3950 Clear -8 1031 67 16093 2.6 280 13:39 21.01.2020
3951 Clear -8 1031 67 16093 2.6 280 13:18 21.01.2020
3952 Clear -8 1031 78 16093 2.1 350 12:43 21.01.2020
3953 Clear -8 1031 62 16093 4.84 341 12:25 21.01.2020
3954 Clear -8 1030 62 16093 4.84 341 11:57 21.01.2020
3955 Clear -8 1030 62 16093 4.84 341 11:38 21.01.2020
3956 Clear -8 1030 67 16093 5.85 346 11:20 21.01.2020
3957 Clear -8 1030 62 16093 5.85 346 10:44 21.01.2020
3958 Clear -8 1030 62 16093 5.85 346 10:23 21.01.2020
3959 Clear -8 1030 62 16093 5.85 346 10:23 21.01.2020
3960 Clear -7 1030 62 16093 5.85 346 09:59 21.01.2020
3961 Clear -7 1030 62 16093 5.85 346 09:40 21.01.2020
3962 Clear -7 1030 62 16093 5.85 346 09:22 21.01.2020
3963 Clear -7 1030 57 16093 5.85 346 08:48 21.01.2020
3964 Clear -7 1030 53 16093 2.1 340 08:27 21.01.2020
3965 Clear -7 1030 53 16093 6.63 343 07:57 21.01.2020
3966 Clear -7 1029 48 16093 6.63 343 07:38 21.01.2020
3967 Clear -7 1029 48 16093 6.63 343 07:19 21.01.2020
3968 Clear -7 1029 44 16093 5.7 350 06:45 21.01.2020
3969 Clear -6 1030 44 16093 4.6 350 06:23 21.01.2020
3970 Clear -6 1030 35 16093 4.1 340 05:41 21.01.2020
3971 Clear -5 1030 38 16093 7.9 341 04:39 21.01.2020
3972 Clear -4 1029 30 16093 2.6 350 02:54 21.01.2020
3973 Clear -4 1029 32 16093 3.6 330 01:47 21.01.2020
3974 Clear -3 1028 28 16093 3.6 330 00:54 21.01.2020
3975 Clear -3 1028 28 16093 2.6 320 00:32 21.01.2020
3976 Clear -3 1027 28 16093 7.79 332 23:57 20.01.2020
3977 Clear -2 1027 28 16093 7.79 332 23:37 20.01.2020
3978 Clear -2 1027 26 16093 5.7 320 23:18 20.01.2020
3979 Clear -2 1027 23 16093 6.2 350 22:56 20.01.2020
3980 Clear -2 1026 44 16093 7.2 350 22:37 20.01.2020
3981 Clear -1 1026 44 16093 7.2 350 22:18 20.01.2020
3982 Clear -1 1026 33 16093 4.1 320 21:57 20.01.2020
3983 Clear -1 1026 44 16093 4.1 340 21:36 20.01.2020
3984 Clear -1 1026 44 16093 4.1 340 21:18 20.01.2020
3985 Clear -1 1026 33 16093 5.1 350 20:55 20.01.2020
3986 Clear -1 1026 44 16093 7.2 350 20:36 20.01.2020
3987 Clear -1 1026 42 16093 7.2 350 20:18 20.01.2020
3988 Clear -1 1026 42 16093 7.2 350 20:18 20.01.2020
3989 Clear -1 1026 42 16093 5.1 10 19:56 20.01.2020
3990 Clear -2 1026 28 16093 6.7 330 19:37 20.01.2020
3991 Clear -2 1026 28 16093 6.7 330 19:18 20.01.2020
3992 Clear -2 1026 30 16093 4.6 340 18:42 20.01.2020
3993 Clear -2 1026 30 16093 7.7 340 18:21 20.01.2020
3994 Clear -3 1026 36 16093 6.7 330 17:40 20.01.2020
3995 Clear -4 1026 36 16093 6.7 330 17:19 20.01.2020
3996 Clear -4 1026 42 16093 6.2 330 16:58 20.01.2020
3997 Clear -4 1026 45 16093 4.1 340 16:37 20.01.2020
3998 Clear -5 1026 45 16093 4.1 340 16:18 20.01.2020
3999 Clear -5 1026 45 16093 4.1 340 16:18 20.01.2020
4000 Clear -5 1026 45 16093 4.1 340 16:18 20.01.2020
4001 Clear -5 1025 58 0 2.1 0 15:54 20.01.2020
4002 Clear -5 1025 58 0 2.1 0 15:36 20.01.2020
4003 Clear -6 1025 58 0 2.1 0 15:18 20.01.2020
4004 Clear -6 1025 53 16093 4.6 350 14:41 20.01.2020
4005 Clear -6 1025 53 16093 4.6 350 14:41 20.01.2020
4006 Clear -6 1025 53 16093 4.6 350 14:22 20.01.2020
4007 Clear -7 1024 53 16093 4.1 360 13:58 20.01.2020
4008 Clear -7 1024 53 16093 4.1 360 13:40 20.01.2020
4009 Clear -7 1023 53 16093 9.72 339 13:21 20.01.2020
4010 Clouds -7 1022 67 16093 5.7 360 12:46 20.01.2020
4011 Clear -7 1022 53 16093 6.2 340 12:27 20.01.2020
4012 Clear -7 1021 53 16093 4.1 340 11:57 20.01.2020
4013 Clear -6 1021 53 16093 4.1 340 11:38 20.01.2020
4014 Clear -6 1020 53 16093 5.7 340 11:20 20.01.2020
4015 Clear -6 1020 53 16093 4.1 340 10:48 20.01.2020
4016 Clear -6 1019 53 16093 4.1 330 10:22 20.01.2020
4017 -273 0 0 0 0 0 10:22 20.01.2020
4018 Clouds -6 1019 53 16093 8.2 350 09:57 20.01.2020
4019 Clouds -6 1019 53 16093 8.2 350 09:38 20.01.2020
4020 Clouds -5 1019 53 16093 7.2 340 09:19 20.01.2020
4021 Clear -5 1018 49 16093 6.7 320 08:43 20.01.2020
4022 Clouds -5 1018 49 16093 5.1 330 08:25 20.01.2020
4023 Clear -4 1018 49 16093 6.7 330 07:45 20.01.2020
4024 Clear -4 1018 45 16093 7.2 340 07:24 20.01.2020
4025 Clouds -3 1017 46 16093 6.7 350 06:48 20.01.2020
4026 Clouds -3 1017 50 16093 4.1 340 06:27 20.01.2020
4027 Clouds -2 1017 54 16093 6.2 320 05:42 20.01.2020
4028 Clouds -2 1016 50 16093 10.27 312 05:22 20.01.2020
4029 Clear -1 1015 47 0 10.27 312 04:42 20.01.2020
4030 Clear 0 1014 64 16093 3.1 300 02:57 20.01.2020
4031 Clear 0 1014 64 16093 3.1 300 02:57 20.01.2020
4032 Clear 0 1014 47 16093 6.2 320 01:54 20.01.2020
4033 Clouds 1 1014 47 16093 5.7 320 01:35 20.01.2020
4034 Clouds 1 1013 50 16093 6.2 310 00:44 20.01.2020
4035 Clouds 2 1012 47 16093 6.2 340 00:23 20.01.2020
4036 Clouds 3 1012 44 16093 5.7 350 23:39 19.01.2020
4037 Clouds 2 1011 51 16093 4.1 320 23:20 19.01.2020
4038 Clouds 3 1011 48 16093 7.7 310 22:57 19.01.2020
4039 Clouds 3 1010 48 16093 9.8 310 22:38 19.01.2020
4040 Clouds 3 1010 48 16093 9.8 310 22:20 19.01.2020
4041 Clouds 4 1009 59 16093 8.2 310 21:57 19.01.2020
4042 Clouds 4 1008 48 16093 6.7 300 21:38 19.01.2020
4043 Clouds 4 1008 48 16093 6.7 300 21:20 19.01.2020
4044 Clouds 5 1008 48 16093 7.2 290 20:57 19.01.2020
4045 Clouds 5 1008 48 16093 8.7 300 20:39 19.01.2020
4046 Clouds 5 1008 48 16093 8.7 300 20:20 19.01.2020
4047 Clouds 5 1008 60 16093 2.6 320 19:57 19.01.2020
4048 Clouds 5 1008 52 16093 8.7 290 19:39 19.01.2020
4049 Clear 5 1008 56 16093 7.2 310 19:39 19.01.2020
4050 Clear 5 1008 56 16093 7.2 310 19:20 19.01.2020
4051 Clouds 5 1008 64 16093 6.7 310 18:59 19.01.2020
4052 Clouds 5 1008 60 16093 7.7 330 18:41 19.01.2020
4053 Clouds 5 1008 60 16093 7.7 330 18:21 19.01.2020
4054 Clouds 5 1008 74 16093 6.2 300 17:58 19.01.2020
4055 Clouds 5 1008 74 16093 6.2 300 17:40 19.01.2020
4056 Clear 5 1008 60 16093 8.2 310 17:21 19.01.2020
4057 Clear 5 1007 60 16093 7.2 310 16:59 19.01.2020
4058 Clear 5 1007 60 16093 7.2 310 16:40 19.01.2020
4059 Clouds 5 1007 60 16093 8.7 300 16:21 19.01.2020
4060 Clear 5 1007 65 16093 10.3 300 15:59 19.01.2020
4061 Clear 4 1006 70 0 2.6 0 15:39 19.01.2020
4062 Clear 4 1006 70 0 2.6 0 15:20 19.01.2020
4063 Clear 3 1006 60 16093 9.8 310 14:59 19.01.2020
4064 Clear 3 1006 60 16093 9.8 310 14:39 19.01.2020
4065 Clear 3 1006 64 16093 8.7 330 14:18 19.01.2020
4066 Clouds 2 1007 73 16093 3.6 290 13:58 19.01.2020
4067 Clouds 2 1007 73 16093 3.6 290 13:38 19.01.2020
4068 Clear 2 1007 73 16093 4.6 300 13:20 19.01.2020
4069 Clouds 2 1006 72 16093 2.1 250 12:56 19.01.2020
4070 Clear 2 1006 72 16093 2.6 290 12:37 19.01.2020
4071 Clear 2 1006 72 16093 2.6 290 12:37 19.01.2020
4072 Clear 2 1006 72 16093 2.6 290 12:19 19.01.2020
4073 Clouds 2 1006 93 0 3.6 260 11:56 19.01.2020
4074 Clouds 2 1005 93 16093 9.9 280 11:37 19.01.2020
4075 Clouds 2 1005 93 16093 10.86 256 11:18 19.01.2020
4076 Rain 2 1006 93 0 4.1 260 10:39 19.01.2020
4077 Rain 2 1006 93 0 4.1 260 10:19 19.01.2020
4078 Rain 2 1005 100 16093 1.5 210 09:56 19.01.2020
4079 Rain 2 1005 100 16093 1.5 210 09:56 19.01.2020
4080 Rain 2 1006 93 11265 2.6 270 09:37 19.01.2020
4081 Rain 2 1006 93 11265 2.6 270 09:19 19.01.2020
4082 Drizzle 3 1006 93 8047 10.86 256 08:54 19.01.2020
4083 Rain 2 1006 93 8047 10.86 256 08:30 19.01.2020
4084 Rain 2 1007 93 0 5.7 260 07:49 19.01.2020
4085 Rain 2 1007 93 0 5.7 260 07:28 19.01.2020
4086 Rain 2 1007 93 0 5.1 260 06:55 19.01.2020
4087 Rain 2 1007 93 16093 5.7 230 06:21 19.01.2020
4088 Rain 2 1011 100 8047 4.6 220 03:55 19.01.2020
4089 Rain 1 1014 87 11265 4.6 190 02:33 19.01.2020
4090 Rain -1 1017 97 0 3.6 220 01:39 19.01.2020
4091 Rain -1 1017 97 0 3.6 220 01:20 19.01.2020
4092 Rain -1 1017 86 4828 4.6 180 00:44 19.01.2020
4093 Rain -2 1018 92 2414 1.5 0 00:20 19.01.2020
4094 Rain -2 1019 86 1207 1.5 170 23:47 18.01.2020
4095 Rain -3 1021 86 1207 2.1 160 23:25 18.01.2020
4096 Rain -3 1021 92 1207 3.1 170 22:59 18.01.2020
4097 Rain -4 1022 86 0 1.5 0 22:41 18.01.2020
4098 Rain -4 1023 86 0 2.6 170 22:21 18.01.2020
4099 Rain -4 1024 74 1207 2.6 0 21:58 18.01.2020
4100 Rain -4 1025 85 16093 8.48 185 21:39 18.01.2020
4101 Rain -4 1025 85 16093 8.48 185 21:20 18.01.2020
4102 Rain -4 1026 92 0 8.48 185 20:57 18.01.2020
4103 Rain -4 1026 85 11265 8.48 185 20:39 18.01.2020
4104 Rain -4 1026 92 0 8.48 185 20:39 18.01.2020
4105 Rain -4 1026 85 11265 7.08 207 20:19 18.01.2020
4106 Rain -4 1029 79 0 2.1 250 19:43 18.01.2020
4107 Rain -4 1029 79 0 2.1 250 19:24 18.01.2020
4108 Rain -3 1029 58 1207 5.1 190 18:54 18.01.2020
4109 Clouds -3 1031 42 16093 3.6 260 18:36 18.01.2020
4110 Clouds -3 1031 42 16093 3.6 260 18:18 18.01.2020
4111 Clouds -3 1033 42 16093 7.08 207 17:41 18.01.2020
4112 Clouds -4 1033 42 16093 4.55 199 17:21 18.01.2020
4113 Clouds -4 1034 45 16093 4.55 199 16:57 18.01.2020
4114 Clouds -5 1034 41 16093 4.55 199 16:38 18.01.2020
4115 Clouds -5 1034 41 16093 4.55 199 16:19 18.01.2020
4116 Clouds -5 1034 41 16093 4.55 199 16:19 18.01.2020
4117 Clouds -6 1034 53 16093 2.1 230 15:47 18.01.2020
4118 Clouds -6 1034 41 16093 4.55 199 15:26 18.01.2020
4119 Clouds -6 1034 41 16093 4.55 199 15:26 18.01.2020
4120 Clouds -6 1035 44 16093 4.55 199 15:00 18.01.2020
4121 Clouds -7 1035 44 16093 4.55 199 14:41 18.01.2020
4122 Clouds -7 1035 41 16093 0.98 316 14:19 18.01.2020
4123 Clouds -7 1035 41 16093 0.98 316 14:19 18.01.2020
4124 Clouds -7 1037 41 16093 0.98 316 13:57 18.01.2020
4125 Clouds -7 1037 41 16093 0.98 316 13:36 18.01.2020
4126 Clouds -7 1037 41 16093 1.53 277 13:18 18.01.2020
4127 Clear -7 1038 41 16093 1.53 277 12:43 18.01.2020
4128 Clear -7 1038 41 16093 1.53 277 12:22 18.01.2020
4129 Clear -7 1037 44 16093 1.53 277 11:58 18.01.2020
4130 Clear -7 1037 44 16093 1.53 277 11:40 18.01.2020
4131 Clear -7 1038 44 16093 1.6 342 11:20 18.01.2020
4132 Clear -7 1038 41 16093 1.6 342 10:43 18.01.2020
4133 Clear -7 1038 41 16093 1.6 342 10:21 18.01.2020
4134 Clear -7 1038 41 16093 1.6 342 09:56 18.01.2020
4135 Clear -7 1038 41 16093 1.6 342 09:38 18.01.2020
4136 Clear -7 1038 41 16093 1.6 342 09:19 18.01.2020
4137 Clear -7 1038 41 16093 1.6 342 08:42 18.01.2020
4138 Clear -7 1039 37 16093 4.56 326 08:20 18.01.2020
4139 Clear -7 1039 37 16093 4.56 326 07:59 18.01.2020
4140 Clear -7 1039 37 16093 4.56 326 07:39 18.01.2020
4141 Clear -7 1040 37 16093 4.56 326 06:52 18.01.2020
4142 Clear -7 1039 34 16093 4.1 290 06:33 18.01.2020
4143 Clear -7 1039 48 16093 1.5 340 05:52 18.01.2020
4144 Clear -6 1040 35 16093 6.75 340 04:25 18.01.2020
4145 Clear -5 1039 32 16093 6.75 340 02:38 18.01.2020
4146 Clear -5 1040 27 16093 2.6 340 01:40 18.01.2020
4147 Clear -4 1039 27 16093 8.06 333 00:39 18.01.2020
4148 Clear -4 1039 27 16093 8.06 333 00:20 18.01.2020
4149 Clouds -4 1039 41 16093 3.1 340 23:58 17.01.2020
4150 Clear -3 1039 25 16093 8.06 333 23:39 17.01.2020
4151 Clear -3 1039 25 16093 5.7 320 23:18 17.01.2020
4152 Clouds -3 1039 35 16093 8.42 333 22:42 17.01.2020
4153 Clear -2 1038 26 16093 5.7 320 22:20 17.01.2020
4154 Clouds -2 1035 36 16093 3.1 320 21:57 17.01.2020
4155 Clear -2 1038 23 16093 5.7 330 21:38 17.01.2020
4156 Clear -2 1038 23 16093 5.7 330 21:20 17.01.2020
4157 Clear -2 1038 30 16093 4.6 350 20:55 17.01.2020
4158 Clear -2 1038 26 16093 6.2 320 20:36 17.01.2020
4159 Clear -2 1038 26 16093 6.2 320 20:18 17.01.2020
4160 Clear -2 1038 36 16093 5.7 340 19:54 17.01.2020
4161 Clear -2 1038 26 16093 7.2 340 19:36 17.01.2020
4162 Clear -2 1038 26 16093 7.2 340 19:18 17.01.2020
4163 Clear -3 1038 30 16093 7.2 340 18:44 17.01.2020
4164 Clear -3 1038 30 16093 7.2 340 18:26 17.01.2020
4165 Clear -3 1038 30 16093 6.7 340 17:56 17.01.2020
4166 Clear -4 1038 30 16093 8.7 360 17:38 17.01.2020
4167 Clear -4 1038 30 16093 8.7 360 17:19 17.01.2020
4168 Clear -4 1038 32 16093 7.7 350 16:41 17.01.2020
4169 Clear -5 1038 35 16093 3.6 340 16:20 17.01.2020
4170 Clouds -5 1038 53 16093 6.7 350 15:48 17.01.2020
4171 Clear -5 1037 41 16093 7.7 340 15:27 17.01.2020
4172 Clear -6 1036 45 16093 5.1 340 14:56 17.01.2020
4173 Clear -6 1036 45 16093 7.7 340 14:38 17.01.2020
4174 Clear -6 1036 45 16093 7.7 340 14:20 17.01.2020
4175 Clear -6 1035 45 16093 9.8 330 13:39 17.01.2020
4176 Clear -6 1034 41 16093 5.7 300 13:21 17.01.2020
4177 Clear -6 1034 41 16093 5.7 300 13:21 17.01.2020
4178 Clear -5 1034 41 16093 7.2 340 12:45 17.01.2020
4179 Clear -5 1032 53 0 2.6 0 12:23 17.01.2020
4180 Clear -5 1032 53 0 2.6 0 12:23 17.01.2020
4181 Clear -4 1031 45 16093 6.7 330 11:41 17.01.2020
4182 Clear -4 1031 45 16093 6.7 330 11:20 17.01.2020
4183 Clear -3 1030 46 16093 8.2 340 10:56 17.01.2020
4184 Clouds -3 1029 50 16093 7.2 340 10:37 17.01.2020
4185 Clouds -3 1029 50 16093 7.2 340 10:19 17.01.2020
4186 Clouds -2 1028 46 16093 3.6 340 09:43 17.01.2020
4187 Clouds -2 1028 42 16093 5.7 330 09:21 17.01.2020
4188 Clouds -2 1027 50 16093 6.7 310 08:56 17.01.2020
4189 Snow -1 1026 54 14484 8.7 300 08:38 17.01.2020
4190 Snow -1 1026 54 14484 8.7 300 08:19 17.01.2020
4191 Clear -1 1026 57 16093 9.3 330 07:43 17.01.2020
4192 Clear 0 1025 57 16093 7.2 330 07:25 17.01.2020
4193 Clear 0 1024 57 16093 11.8 330 06:51 17.01.2020
4194 Clear 0 1024 43 16093 7.7 330 06:30 17.01.2020
4195 Rain 1 1022 47 0 1.5 0 04:32 17.01.2020
4196 Clouds 2 1020 47 16093 12.3 310 03:19 17.01.2020
4197 Clear 2 1020 55 16093 4.6 330 02:39 17.01.2020
4198 Clear 2 1019 55 16093 5.7 300 01:44 17.01.2020
4199 Clear 3 1019 55 16093 5.7 300 01:25 17.01.2020
4200 Clear 3 1017 44 16093 6.7 300 00:40 17.01.2020
4201 Clear 3 1017 44 16093 6.7 300 00:19 17.01.2020
4202 Clouds 4 1018 48 16093 8.2 330 23:41 16.01.2020
4203 Clouds 4 1018 48 16093 8.2 330 23:22 16.01.2020
4204 Clouds 4 1017 55 16093 6.7 310 22:42 16.01.2020
4205 Rain 5 1016 60 16093 7.2 310 22:22 16.01.2020
4206 Rain 5 1016 60 16093 7.2 310 22:22 16.01.2020
4207 Rain 5 1016 54 16093 7.7 320 21:57 16.01.2020
4208 Rain 5 1016 54 16093 7.7 320 21:38 16.01.2020
4209 Rain 5 1016 54 16093 7.7 320 21:19 16.01.2020
4210 Rain 5 1014 54 16093 11.8 300 20:58 16.01.2020
4211 Rain 6 1014 54 16093 11.8 300 20:39 16.01.2020
4212 Rain 6 1013 39 16093 11.3 310 20:20 16.01.2020
4213 Rain 7 1013 42 16093 9.3 320 19:56 16.01.2020
4214 Rain 7 1013 42 16093 9.3 320 19:38 16.01.2020
4215 Rain 7 1013 42 16093 9.3 320 19:38 16.01.2020
4216 Rain 8 1013 49 16093 10.8 310 19:20 16.01.2020
4217 Rain 8 1014 52 16093 11.3 320 18:55 16.01.2020
4218 Clouds 8 1013 42 16093 9.8 320 18:37 16.01.2020
4219 Clouds 8 1013 42 16093 9.8 320 18:18 16.01.2020
4220 Clouds 9 1014 49 16093 9.3 330 17:55 16.01.2020
4221 Clouds 9 1014 49 16093 7.7 300 17:37 16.01.2020
4222 Clouds 9 1014 49 16093 7.7 300 17:18 16.01.2020
4223 Rain 9 1014 61 16093 6.7 310 16:40 16.01.2020
4224 Rain 8 1014 65 16093 5.1 320 16:21 16.01.2020
4225 Rain 8 1013 70 0 3.1 0 15:55 16.01.2020
4226 Rain 8 1011 75 16093 9.3 310 15:37 16.01.2020
4227 Rain 8 1012 71 16093 8.2 280 15:18 16.01.2020
4228 Rain 8 1011 93 0 6.7 270 14:41 16.01.2020
4229 Rain 8 1011 93 8047 5.1 280 14:23 16.01.2020
4230 Rain 7 1011 93 11265 5.7 270 13:47 16.01.2020
4231 Mist 7 1011 93 8047 6.2 290 13:28 16.01.2020
4232 Clouds 7 1011 93 0 6.7 270 12:57 16.01.2020
4233 Clouds 7 1011 93 0 4.6 270 12:39 16.01.2020
4234 Clouds 7 1011 93 0 4.6 270 12:20 16.01.2020
4235 Rain 7 1011 93 0 3.1 250 11:42 16.01.2020
4236 Rain 7 1011 93 0 3.1 250 11:42 16.01.2020
4237 Rain 6 1012 87 8047 3.06 221 11:24 16.01.2020
4238 Rain 6 1011 87 9656 2.1 200 10:56 16.01.2020
4239 Rain 6 1011 87 11265 3.06 221 10:37 16.01.2020
4240 Rain 6 1011 87 11265 3.06 221 10:19 16.01.2020
4241 Rain 6 1012 87 3219 3.06 221 09:43 16.01.2020
4242 Rain 6 1013 87 8047 3.06 221 09:24 16.01.2020
4243 Rain 6 1014 87 6437 3.1 170 08:59 16.01.2020
4244 Rain 6 1013 87 8047 4.1 140 08:41 16.01.2020
4245 Rain 6 1013 87 8047 4.1 140 08:20 16.01.2020
4246 Rain 6 1015 93 9656 4.6 190 07:43 16.01.2020
4247 Drizzle 6 1015 81 16093 5.05 187 07:24 16.01.2020
4248 Rain 5 1016 93 8047 4.1 170 06:55 16.01.2020
4249 Rain 5 1017 70 16093 2.1 190 06:35 16.01.2020
4250 Mist 5 1017 87 8047 3.6 170 05:56 16.01.2020
4251 Clouds 4 1018 81 16093 4.96 163 05:25 16.01.2020
4252 Clouds 3 1019 75 16093 4.96 163 04:23 16.01.2020
4253 Clear 3 1019 81 16093 4.96 163 03:27 16.01.2020
4254 Clear 3 1020 81 16093 4.96 163 02:23 16.01.2020
4255 Clear 5 1021 68 16093 1.85 268 00:44 16.01.2020
4256 Clear 5 1021 68 16093 1.85 268 00:23 16.01.2020
4257 Clear 6 1020 68 16093 1.85 268 23:46 15.01.2020
4258 Clear 6 1020 68 16093 1.85 268 23:46 15.01.2020
4259 Clear 7 1020 65 16093 2.44 299 23:22 15.01.2020
4260 Clouds 8 1020 61 16093 2.44 299 22:57 15.01.2020
4261 Clear 9 1020 65 16093 2.44 299 22:39 15.01.2020
4262 Clear 9 1020 65 16093 2.44 299 22:19 15.01.2020
4263 Clear 10 1021 65 16093 1.5 280 21:57 15.01.2020
4264 Clouds 10 1021 40 16093 4.6 290 21:37 15.01.2020
4265 Clouds 10 1021 40 16093 4.6 290 21:19 15.01.2020
4266 Clear 10 1021 43 16093 2.6 280 20:56 15.01.2020
4267 Clear 10 1021 43 16093 2.6 280 20:38 15.01.2020
4268 Clear 10 1021 43 16093 3.6 300 20:20 15.01.2020
4269 Clear 10 1021 53 16093 3.6 280 19:55 15.01.2020
4270 Clear 10 1021 65 16093 3.1 340 19:37 15.01.2020
4271 Clear 10 1021 65 16093 3.1 340 19:18 15.01.2020
4272 Clear 10 1022 65 16093 4.1 310 18:56 15.01.2020
4273 Clear 10 1022 65 16093 4.6 320 18:38 15.01.2020
4274 Clear 9 1022 65 16093 4.6 320 18:19 15.01.2020
4275 Clear 9 1022 65 16093 4.6 320 18:19 15.01.2020
4276 Clear 9 1022 57 16093 3.1 320 17:56 15.01.2020
4277 Clear 9 1023 57 16093 5.1 320 17:37 15.01.2020
4278 Clear 9 1023 57 16093 5.1 320 17:18 15.01.2020
4279 Clear 8 1023 65 16093 4.1 340 16:40 15.01.2020
4280 Clear 8 1023 65 16093 4.1 340 16:22 15.01.2020
4281 Clouds 7 1023 81 16093 2.1 310 15:57 15.01.2020
4282 Clear 7 1023 87 16093 5.17 315 15:39 15.01.2020
4283 Clear 6 1023 87 16093 5.17 315 15:19 15.01.2020
4284 Clear 5 1023 93 11265 5.17 315 14:43 15.01.2020
4285 Clear 5 1023 93 11265 6.87 297 14:20 15.01.2020
4286 Clear 5 1022 93 11265 6.87 297 13:46 15.01.2020
4287 Clear 5 1022 87 11265 6.38 307 13:27 15.01.2020
4288 Mist 5 1022 93 2816 6.38 307 12:59 15.01.2020
4289 Mist 5 1022 93 2816 6.38 307 12:40 15.01.2020
4290 Clouds 5 1021 93 11265 6.38 307 12:20 15.01.2020
4291 Mist 5 1021 100 4828 6.38 307 11:58 15.01.2020
4292 Clouds 5 1020 93 16093 6.38 307 11:38 15.01.2020
4293 Clouds 5 1020 93 16093 6.75 290 11:19 15.01.2020
4294 Clouds 5 1020 93 0 2.6 260 10:46 15.01.2020
4295 Clouds 5 1020 93 0 2.6 260 10:28 15.01.2020
4296 Clouds 5 1020 93 14484 2.6 270 09:55 15.01.2020
4297 Clouds 5 1021 93 0 3.6 250 09:37 15.01.2020
4298 Clouds 5 1021 93 0 3.6 250 09:19 15.01.2020
4299 Mist 5 1021 93 6437 1.5 0 08:41 15.01.2020
4300 Clouds 5 1020 100 16093 4.77 266 08:23 15.01.2020
4301 Mist 5 1020 93 6437 2.1 270 07:54 15.01.2020
4302 Mist 5 1020 87 3219 1.5 300 07:32 15.01.2020
4303 Mist 5 1020 87 1207 1.5 310 06:48 15.01.2020
4304 Clouds 5 1020 93 0 1.5 0 06:26 15.01.2020
4305 Rain 5 1021 93 4023 2.98 200 04:46 15.01.2020
4306 Mist 5 1021 93 8047 2.98 200 02:48 15.01.2020
4307 Rain 5 1021 93 8047 3.25 136 01:48 15.01.2020
4308 Drizzle 5 1021 93 4828 3.6 50 01:20 15.01.2020
4309 Rain 5 1021 87 11265 3.1 100 00:37 15.01.2020
4310 Drizzle 5 1022 93 6437 3.72 118 00:19 15.01.2020
4311 Rain 5 1022 93 8047 3.72 118 23:46 14.01.2020
4312 Drizzle 5 1021 93 6437 6.97 105 23:24 14.01.2020
4313 Rain 5 1022 86 4828 2.6 60 22:56 14.01.2020
4314 Rain 6 1022 81 11265 6.97 105 22:38 14.01.2020
4315 Rain 6 1022 81 11265 6.97 105 22:18 14.01.2020
4316 Drizzle 6 1022 75 16093 6.97 105 21:56 14.01.2020
4317 Clouds 6 1022 70 16093 6.97 105 21:37 14.01.2020
4318 Clouds 6 1022 70 16093 6.97 105 21:19 14.01.2020
4319 Clouds 7 1022 70 16093 6.97 105 20:42 14.01.2020
4320 Clouds 6 1023 65 16093 2.6 100 20:22 14.01.2020
4321 Clouds 6 1023 65 16093 2.6 100 19:57 14.01.2020
4322 Clouds 6 1024 88 16093 6 110 19:39 14.01.2020
4323 Clouds 6 1024 70 0 2.6 50 19:20 14.01.2020
4324 Mist 6 1025 100 6437 1.5 350 18:59 14.01.2020
4325 Mist 6 1025 100 6437 1.5 350 18:40 14.01.2020
4326 Clear 6 1025 88 16093 4.6 90 18:20 14.01.2020
4327 Clear 6 1026 70 16093 4.6 140 17:55 14.01.2020
4328 Clouds 5 1027 75 16093 4.1 130 17:36 14.01.2020
4329 Clouds 5 1027 75 16093 4.1 130 17:18 14.01.2020
4330 Clouds 4 1028 86 11265 5.97 98 16:42 14.01.2020
4331 Clouds 4 1028 86 11265 5.97 98 16:22 14.01.2020
4332 Mist 4 1028 93 8047 5.97 98 15:56 14.01.2020
4333 Mist 4 1028 93 8047 5.97 98 15:38 14.01.2020
4334 Mist 3 1028 93 8047 5.97 98 15:18 14.01.2020
4335 Mist 3 1028 93 4023 5.97 98 14:43 14.01.2020
4336 Mist 3 1028 86 8047 3.64 61 14:20 14.01.2020
4337 Mist 3 1028 93 3219 3.6 20 13:54 14.01.2020
4338 Mist 3 1028 93 8047 4.1 20 13:36 14.01.2020
4339 Mist 3 1028 93 8047 4.1 20 13:18 14.01.2020
4340 Clouds 2 1028 86 16093 3.9 43 12:40 14.01.2020
4341 Clouds 2 1028 93 16093 3.9 43 12:20 14.01.2020
4342 Clouds 2 1028 93 16093 3.9 43 12:20 14.01.2020
4343 Clouds 2 1028 93 16093 3.9 43 12:20 14.01.2020
4344 Fog 2 1028 100 805 1.5 10 11:43 14.01.2020
4345 Clouds 2 1028 86 12874 4.1 20 11:23 14.01.2020
4346 Clouds 2 1028 86 12874 3.1 70 10:59 14.01.2020
4347 Clouds 2 1028 87 0 4.1 50 10:40 14.01.2020
4348 Clear 2 1029 93 16093 3.81 8 10:20 14.01.2020
4349 Clouds 2 1029 86 11265 3.81 8 09:58 14.01.2020
4350 Clear 2 1029 86 16093 3.81 8 09:40 14.01.2020
4351 Clear 2 1029 86 16093 3.81 8 09:20 14.01.2020
4352 Clear 2 1029 86 16093 3.81 8 08:48 14.01.2020
4353 Clear 2 1029 86 16093 3.7 310 08:25 14.01.2020
4354 Clouds 2 1029 87 0 3.7 310 07:53 14.01.2020
4355 Clear 3 1029 77 16093 3.7 310 07:33 14.01.2020
4356 Clear 3 1029 86 16093 3.7 310 06:56 14.01.2020
4357 Clear 3 1029 80 16093 3.7 310 06:33 14.01.2020
4358 Clear 3 1029 80 16093 3.2 307 05:27 14.01.2020
4359 Clouds 4 1029 75 12874 3.2 307 03:52 14.01.2020
4360 Clouds 5 1029 87 0 1.5 220 02:50 14.01.2020
4361 Clouds 5 1028 75 12874 3.38 333 01:56 14.01.2020
4362 Clear 6 1028 70 16093 3.25 322 00:52 14.01.2020
4363 Clouds 6 1028 75 16093 3.25 322 00:33 14.01.2020
4364 Clouds 6 1027 70 16093 3.25 322 23:55 13.01.2020
4365 Mist 6 1027 87 1609 3.6 40 23:37 13.01.2020
4366 Mist 6 1027 87 1609 3.6 40 23:18 13.01.2020
4367 Mist 6 1027 87 1609 3.6 40 23:18 13.01.2020
4368 Mist 7 1027 87 1609 4.1 40 22:43 13.01.2020
4369 Clouds 7 1027 70 16093 1.72 35 22:22 13.01.2020
4370 Clouds 7 1027 75 16093 1.72 35 21:58 13.01.2020
4371 Clouds 7 1027 70 16093 1.72 35 21:38 13.01.2020
4372 Clouds 7 1027 70 16093 1.72 35 21:19 13.01.2020
4373 Clouds 7 1028 70 16093 1.72 35 20:59 13.01.2020
4374 Clouds 7 1028 70 16093 1.72 35 20:59 13.01.2020
4375 Clouds 7 1028 70 16093 1.72 35 20:41 13.01.2020
4376 Clouds 7 1028 70 16093 2.89 88 20:22 13.01.2020
4377 Clouds 7 1028 75 16093 1.5 10 19:59 13.01.2020
4378 Clouds 7 1028 70 16093 2.89 88 19:40 13.01.2020
4379 Rain 7 1027 81 6437 3.6 40 19:20 13.01.2020
4380 Clouds 7 1028 75 16093 1.5 360 18:57 13.01.2020
4381 Clouds 7 1029 70 16093 2.89 88 18:37 13.01.2020
4382 Clouds 6 1029 70 16093 2.89 88 18:19 13.01.2020
4383 Clouds 6 1030 93 16093 2.89 88 17:54 13.01.2020
4384 Clouds 6 1030 93 16093 2.89 88 17:36 13.01.2020
4385 Clouds 6 1030 90 16093 3.97 83 17:18 13.01.2020
4386 Clouds 5 1030 75 16093 5.7 120 16:39 13.01.2020
4387 Clouds 5 1030 75 16093 5.7 120 16:39 13.01.2020
4388 Clouds 5 1030 69 16093 2.1 340 16:21 13.01.2020
4389 Clouds 4 1029 70 16093 3.6 50 15:54 13.01.2020
4390 Clouds 4 1029 70 16093 3.6 50 15:36 13.01.2020
4391 Clouds 4 1029 70 16093 3.6 50 15:18 13.01.2020
4392 Clouds 3 1031 76 0 1.79 55 14:40 13.01.2020
4393 Clouds 2 1031 75 0 0.89 80 14:22 13.01.2020
4394 Clouds 2 1032 74 0 0.45 70 13:56 13.01.2020
4395 Clouds 2 1032 72 0 1.34 43 13:38 13.01.2020
4396 Clouds 2 1032 71 0 1.34 134 13:20 13.01.2020
4397 Clear 2 1031 64 16093 3.6 100 12:43 13.01.2020
4398 Clear 2 1031 64 16093 3.6 100 12:23 13.01.2020
4399 Clear 2 1031 64 16093 3.6 100 11:59 13.01.2020
4400 Clear 2 1031 64 16093 3.6 90 11:39 13.01.2020
4401 Clear 2 1031 64 16093 3.6 90 11:19 13.01.2020
4402 Clear 2 1030 64 16093 5.91 57 10:57 13.01.2020
4403 Clear 2 1031 69 0 5.7 60 10:38 13.01.2020
4404 Clear 2 1031 69 0 5.7 60 10:20 13.01.2020
4405 Clear 2 1031 69 0 5.7 60 10:20 13.01.2020
4406 Clear 3 1030 64 16093 3.1 80 09:56 13.01.2020
4407 Clear 3 1030 64 16093 3.6 50 09:38 13.01.2020
4408 Clear 3 1030 69 16093 4.1 40 09:19 13.01.2020
4409 Clear 3 1030 60 16093 4.1 60 08:39 13.01.2020
4410 Clear 3 1030 60 16093 3.6 50 08:20 13.01.2020
4411 Clear 4 1030 56 16093 3.6 50 07:46 13.01.2020
4412 Clear 4 1030 60 16093 3.1 60 07:27 13.01.2020
4413 Clear 5 1030 56 16093 3.6 60 06:42 13.01.2020
4414 Clear 5 1030 52 16093 4.96 359 06:20 13.01.2020
4415 Clear 6 1030 66 16093 2.1 10 05:22 13.01.2020
4416 Clear 8 1028 66 16093 5.92 352 03:54 13.01.2020
4417 Clear 8 1028 50 0 2.1 250 03:22 13.01.2020
4418 Clear 11 1027 50 16093 5.92 352 02:44 13.01.2020
4419 Clear 10 1026 53 16093 5.92 352 02:24 13.01.2020
4420 Clear 12 1025 50 16093 3.6 320 01:20 13.01.2020
4421 Clear 13 1024 50 16093 3.6 320 00:41 13.01.2020
4422 Clear 13 1024 50 16093 5.7 320 00:22 13.01.2020
4423 Clear 15 1023 47 16093 7.2 320 23:42 12.01.2020
4424 Clear 15 1023 44 16093 5.7 310 23:24 12.01.2020
4425 Clear 15 1022 41 16093 9.8 300 22:58 12.01.2020
4426 Clear 16 1022 41 16093 9.8 300 22:39 12.01.2020
4427 Clear 16 1022 39 16093 9.8 310 22:21 12.01.2020
4428 Clear 16 1021 34 16093 9.8 310 21:56 12.01.2020
4429 Clear 17 1020 34 16093 10.8 310 21:38 12.01.2020
4430 Clear 17 1020 34 16093 10.8 310 21:38 12.01.2020
4431 Clear 18 1020 34 16093 10.8 310 21:19 12.01.2020
4432 Clouds 19 1020 45 16093 7.7 280 20:56 12.01.2020
4433 Clouds 18 1020 45 16093 7.7 280 20:56 12.01.2020
4434 Clear 19 1019 37 16093 8.2 300 20:38 12.01.2020
4435 Clear 19 1019 37 16093 8.2 300 20:20 12.01.2020
4436 Clear 19 1018 37 16093 10.3 290 19:56 12.01.2020
4437 Clear 19 1018 37 16093 10.3 290 19:37 12.01.2020
4438 Clear 19 1018 37 16093 10.3 290 19:18 12.01.2020
4439 Clear 19 1017 42 16093 10.3 290 18:57 12.01.2020
4440 Clear 19 1017 42 16093 10.3 290 18:39 12.01.2020
4441 Clear 19 1017 42 16093 10.3 290 18:21 12.01.2020
4442 Clear 19 1017 39 16093 11.8 280 17:54 12.01.2020
4443 Clear 18 1017 42 16093 9.8 290 17:36 12.01.2020
4444 Clear 18 1017 42 16093 9.8 290 17:18 12.01.2020
4445 Rain 18 1016 45 16093 7.2 280 16:54 12.01.2020
4446 Rain 18 1016 48 16093 9.3 280 16:36 12.01.2020
4447 Clear 18 1016 48 16093 9.3 280 16:18 12.01.2020
4448 Clear 18 1015 52 16093 7.7 280 15:40 12.01.2020
4449 Clear 17 1015 52 16093 7.7 280 15:21 12.01.2020
4450 Rain 17 1013 68 16093 10.3 280 14:55 12.01.2020
4451 Rain 17 1012 77 16093 4.1 270 14:36 12.01.2020
4452 Rain 17 1012 77 16093 4.1 270 14:18 12.01.2020
4453 Rain 17 1011 87 0 7.7 280 13:42 12.01.2020
4454 Rain 17 1011 87 0 7.7 280 13:23 12.01.2020
4455 Rain 17 1011 88 16093 3.6 240 12:58 12.01.2020
4456 Rain 17 1010 82 16093 5.1 240 12:38 12.01.2020
4457 Rain 17 1009 82 16093 5.1 230 12:19 12.01.2020
4458 Rain 17 1010 82 16093 4.6 240 11:55 12.01.2020
4459 Rain 17 1010 82 16093 3.6 230 11:36 12.01.2020
4460 Rain 17 1010 82 16093 3.6 230 11:18 12.01.2020
4461 Rain 16 1011 88 0 6.2 270 10:41 12.01.2020
4462 Rain 16 1009 82 8047 5.1 210 10:21 12.01.2020
4463 Rain 16 1011 82 16093 5.1 220 09:55 12.01.2020
4464 Rain 16 1011 82 16093 5.1 220 09:37 12.01.2020
4465 Rain 16 1011 77 11265 5.1 200 09:18 12.01.2020
4466 Rain 16 1013 93 12874 3.6 140 08:42 12.01.2020
4467 Rain 16 1013 88 16093 4.6 200 08:19 12.01.2020
4468 Clouds 16 1014 82 16093 5.1 190 07:39 12.01.2020
4469 Clouds 16 1014 82 16093 5.1 190 07:21 12.01.2020
4470 Clouds 16 1015 87 14484 5.1 180 06:43 12.01.2020
4471 Clouds 16 1015 77 16093 3.1 230 06:19 12.01.2020
4472 Clouds 16 1016 77 16093 3.1 230 05:23 12.01.2020
4473 Clouds 16 1017 81 16093 4.6 190 03:47 12.01.2020
4474 Clouds 16 1017 72 0 3.1 290 03:22 12.01.2020
4475 Clouds 15 1018 72 16093 3.1 200 02:33 12.01.2020
4476 Clouds 15 1018 67 16093 8.73 182 01:42 12.01.2020
4477 Clouds 15 1018 67 16093 8.73 182 01:22 12.01.2020
4478 Clouds 15 1018 63 16093 2.6 180 00:40 12.01.2020
4479 Clouds 15 1018 63 16093 2.6 180 00:40 12.01.2020
4480 Clouds 15 1018 63 16093 2.6 180 00:20 12.01.2020
4481 Clouds 15 1018 63 16093 3.1 190 23:42 11.01.2020
4482 Clouds 16 1018 56 16093 3.6 200 23:19 11.01.2020
4483 Clouds 16 1018 68 16093 5.7 220 22:58 11.01.2020
4484 Clouds 17 1019 56 16093 2.6 230 22:39 11.01.2020
4485 Clouds 17 1019 56 16093 2.6 230 22:20 11.01.2020
4486 Clouds 17 1019 56 16093 3.1 210 21:58 11.01.2020
4487 Clouds 17 1019 56 16093 3.1 210 21:39 11.01.2020
4488 Clouds 17 1019 52 16093 1.5 210 21:18 11.01.2020
4489 Clouds 18 1020 56 16093 2.6 230 20:40 11.01.2020
4490 Clouds 18 1020 56 16093 4.1 240 20:22 11.01.2020
4491 Clouds 18 1021 52 16093 3.1 250 19:58 11.01.2020
4492 Clear 18 1021 49 16093 3.1 250 19:39 11.01.2020
4493 Clear 18 1021 49 16093 3.1 250 19:21 11.01.2020
4494 Clouds 18 1021 63 16093 10.3 230 18:58 11.01.2020
4495 Clouds 18 1022 59 16093 3.1 240 18:39 11.01.2020
4496 Clouds 18 1022 59 16093 3.1 240 18:20 11.01.2020
4497 Clouds 17 1024 63 16093 5.1 240 17:57 11.01.2020
4498 Clouds 18 1024 63 16093 5.1 240 17:57 11.01.2020
4499 Clouds 17 1024 63 16093 3.1 220 17:39 11.01.2020
4500 Clouds 16 1024 63 16093 3.1 220 17:19 11.01.2020
4501 Clouds 15 1025 63 16093 5.7 230 16:45 11.01.2020
4502 Clouds 15 1025 63 16093 3.6 240 16:27 11.01.2020
4503 Clouds 15 1025 77 16093 8.7 230 15:59 11.01.2020
4504 Clouds 14 1025 77 16093 8.7 230 15:41 11.01.2020
4505 Clear 14 1025 72 16093 4.1 210 15:22 11.01.2020
4506 Clouds 13 1026 76 16093 2.1 200 14:57 11.01.2020
4507 Clouds 12 1026 76 16093 2.1 200 14:38 11.01.2020
4508 Clouds 11 1026 76 16093 2.1 220 14:20 11.01.2020
4509 Clouds 11 1026 76 16093 2.1 210 13:41 11.01.2020
4510 Clouds 11 1026 76 16093 2.6 190 13:20 11.01.2020
4511 Clouds 11 1027 81 16093 7.53 202 12:59 11.01.2020
4512 Clouds 11 1027 81 16093 7.53 202 12:41 11.01.2020
4513 Clouds 10 1027 81 16093 7.53 202 12:23 11.01.2020
4514 Clouds 10 1027 81 16093 7.53 202 11:48 11.01.2020
4515 Clouds 10 1027 81 16093 6.6 211 11:26 11.01.2020
4516 Clouds 10 1028 81 16093 6.6 211 10:55 11.01.2020
4517 Clouds 10 1028 81 16093 6.6 211 10:36 11.01.2020
4518 Clouds 10 1028 81 16093 6.6 211 10:36 11.01.2020
4519 Clouds 10 1028 81 16093 6.6 211 10:18 11.01.2020
4520 Clouds 9 1028 87 16093 6.6 211 09:39 11.01.2020
4521 Clouds 9 1028 81 16093 6.6 211 09:20 11.01.2020
4522 Clouds 9 1028 81 16093 6.6 211 09:20 11.01.2020
4523 Clouds 9 1029 81 16093 6.6 211 08:42 11.01.2020
4524 Clear 9 1029 87 16093 5.27 225 08:22 11.01.2020
4525 Clouds 9 1029 81 16093 5.25 218 07:44 11.01.2020
4526 Clouds 9 1029 81 16093 5.25 218 07:26 11.01.2020
4527 Clouds 9 1030 87 16093 5.25 218 06:52 11.01.2020
4528 Clouds 9 1030 87 16093 5.25 218 06:52 11.01.2020
4529 Clear 8 1030 81 16093 5.25 218 05:50 11.01.2020
4530 Clouds 9 1031 76 16093 4 223 04:47 11.01.2020
4531 Clouds 9 1031 76 16093 4 223 04:29 11.01.2020
4532 Clouds 9 1031 71 16093 4 223 03:28 11.01.2020
4533 Clouds 9 1031 66 16093 4 223 02:40 11.01.2020
4534 Clouds 9 1031 66 16093 3.1 270 01:44 11.01.2020
4535 Clouds 9 1031 66 16093 3.1 270 01:20 11.01.2020
4536 Clouds 8 1031 71 0 3.1 260 00:43 11.01.2020
4537 Clouds 9 1031 71 0 3.1 260 00:19 11.01.2020
4538 Clouds 9 1031 66 16093 1.5 270 23:41 10.01.2020
4539 Clouds 9 1031 66 16093 1.5 270 23:41 10.01.2020
4540 Clouds 10 1031 66 16093 6.18 231 23:22 10.01.2020
4541 Clouds 10 1031 66 16093 6.18 231 22:59 10.01.2020
4542 Clouds 10 1031 66 16093 6.18 231 22:40 10.01.2020
4543 Clouds 11 1031 62 16093 6.18 231 22:21 10.01.2020
4544 Clouds 11 1031 58 16093 4.1 270 21:57 10.01.2020
4545 Clouds 11 1031 58 16093 2.6 270 21:38 10.01.2020
4546 Clouds 11 1031 58 16093 2.6 270 21:19 10.01.2020
4547 Clear 10 1031 62 16093 2.6 250 20:55 10.01.2020
4548 Clear 10 1031 62 16093 2.6 250 20:37 10.01.2020
4549 Clouds 9 1031 62 16093 3.1 250 20:18 10.01.2020
4550 Clouds 9 1032 61 16093 2.6 290 19:39 10.01.2020
4551 Clouds 8 1032 61 16093 2.6 290 19:20 10.01.2020
4552 Clouds 7 1033 83 16093 5.68 238 18:54 10.01.2020
4553 Clouds 7 1034 83 16093 1.5 280 18:36 10.01.2020
4554 Clouds 7 1034 83 16093 1.5 280 18:18 10.01.2020
4555 Clouds 6 1034 83 16093 1.5 290 17:55 10.01.2020
4556 Clouds 6 1034 83 16093 3.1 230 17:37 10.01.2020
4557 Clouds 5 1034 82 16093 3.1 230 17:18 10.01.2020
4558 Clouds 5 1036 65 16093 3.1 0 16:41 10.01.2020
4559 Clouds 5 1036 65 16093 3.1 0 16:21 10.01.2020
4560 Clouds 5 1036 65 16093 3.1 0 16:21 10.01.2020
4561 Clouds 5 1036 86 16093 3.6 230 15:56 10.01.2020
4562 Clouds 4 1036 74 16093 1.5 280 15:37 10.01.2020
4563 Clouds 4 1036 74 16093 1.5 280 15:19 10.01.2020
4564 Clouds 4 1036 74 16093 1.5 280 15:19 10.01.2020
4565 Clouds 3 1036 70 16093 3.1 0 14:57 10.01.2020
4566 Clouds 3 1036 80 0 4.1 270 14:38 10.01.2020
4567 Clouds 2 1036 80 0 4.1 270 14:19 10.01.2020
4568 Clouds 2 1036 74 16093 5.7 210 13:54 10.01.2020
4569 Clouds 2 1037 74 16093 8.34 214 13:36 10.01.2020
4570 Clouds 1 1037 73 16093 8.75 216 13:18 10.01.2020
4571 Clouds 1 1036 73 16093 8.75 216 12:54 10.01.2020
4572 Clouds 0 1037 74 16093 8.75 216 12:36 10.01.2020
4573 Clouds 0 1037 74 16093 8.75 216 12:18 10.01.2020
4574 Clear 0 1037 73 16093 8.75 216 11:42 10.01.2020
4575 Clear 0 1037 73 16093 8.75 216 11:42 10.01.2020
4576 Clear 0 1037 73 16093 8.75 216 11:42 10.01.2020
4577 Clear 0 1037 73 16093 8.75 216 11:42 10.01.2020
4578 Clear 0 1037 73 16093 8.75 216 11:42 10.01.2020
4579 Clear -1 1037 66 16093 8.18 211 11:21 10.01.2020
4580 Clear -1 1038 66 16093 8.18 211 10:59 10.01.2020
4581 Clear -1 1038 66 16093 8.18 211 10:38 10.01.2020
4582 Clear -1 1038 66 16093 8.18 211 10:19 10.01.2020
4583 Clear -1 1038 66 16093 8.18 211 09:48 10.01.2020
4584 Clear -1 1038 66 16093 1.5 200 09:27 10.01.2020
4585 Clear -1 1039 66 16093 8.18 211 08:59 10.01.2020
4586 Clear -1 1039 66 16093 8.18 211 08:38 10.01.2020
4587 Clear -1 1039 60 16093 6.85 202 08:20 10.01.2020
4588 Clear -1 1039 60 16093 6.85 202 07:44 10.01.2020
4589 Clear -1 1039 58 16093 6.85 202 07:22 10.01.2020
4590 Clear -1 1039 63 16093 6.85 202 06:45 10.01.2020
4591 Clear -1 1040 60 16093 6.85 202 06:25 10.01.2020
4592 Clear -1 1040 60 16093 1.5 210 05:44 10.01.2020
4593 Clear -1 1041 47 0 3.6 190 03:35 10.01.2020
4594 Clouds -1 1041 58 16093 1.5 200 02:58 10.01.2020
4595 Clear -1 1041 55 16093 6.25 190 02:37 10.01.2020
4596 Clear -1 1041 45 16093 3.81 174 01:38 10.01.2020
4597 Clouds -1 1041 46 16093 3.81 174 00:58 10.01.2020
4598 Clear -1 1041 45 16093 3.81 174 00:38 10.01.2020
4599 Clouds -1 1041 45 16093 1.5 190 23:58 09.01.2020
4600 Clear -1 1041 45 16093 3.81 174 23:38 09.01.2020
4601 Clear -1 1041 36 16093 1.4 182 23:20 09.01.2020
4602 Clouds -1 1040 36 16093 1.5 160 22:57 09.01.2020
4603 Clear 0 1041 36 16093 1.4 182 22:37 09.01.2020
4604 Clear 0 1041 29 16093 1.4 182 22:19 09.01.2020
4605 Clear 0 1040 36 16093 1.4 182 21:57 09.01.2020
4606 Clear 0 1040 29 16093 1.4 182 21:37 09.01.2020
4607 Clear 0 1040 29 16093 1.4 182 21:37 09.01.2020
4608 Clear 0 1040 29 16093 1.4 182 21:37 09.01.2020
4609 Clear 0 1040 29 16093 1.4 182 21:37 09.01.2020
4610 Clear 0 1040 29 16093 1.4 182 21:37 09.01.2020
4611 Clear 0 1040 29 16093 1.4 182 21:19 09.01.2020
4612 Clear 0 1041 29 16093 1.4 182 20:57 09.01.2020
4613 Clear 0 1041 29 16093 1.4 182 20:39 09.01.2020
4614 Clouds 0 1040 26 16093 3.04 326 20:19 09.01.2020
4615 Clear 0 1041 31 0 1.5 0 20:19 09.01.2020
4616 Clouds 0 1040 39 16093 2.1 0 19:56 09.01.2020
4617 Clear 0 1041 39 16093 3.04 326 19:37 09.01.2020
4618 Clear 0 1041 39 16093 2.6 50 19:19 09.01.2020
4619 Clouds -1 1040 33 16093 2.6 350 18:55 09.01.2020
4620 Clear -1 1041 39 16093 3.04 326 18:36 09.01.2020
4621 Clear -1 1041 39 16093 3.04 326 18:18 09.01.2020
4622 Clear -2 1042 39 16093 4.6 330 17:41 09.01.2020
4623 Clear -2 1042 54 0 3.1 0 17:18 09.01.2020
4624 Clouds -3 1042 42 16093 5.7 330 16:49 09.01.2020
4625 Clear -3 1042 39 16093 3.6 350 16:24 09.01.2020
4626 Clear -4 1042 41 16093 2.1 0 15:59 09.01.2020
4627 Clear -4 1042 45 16093 4.1 330 15:40 09.01.2020
4628 Clear -4 1041 45 16093 1.5 0 15:19 09.01.2020
4629 Clear -5 1040 49 16093 3.1 350 14:43 09.01.2020
4630 Clear -5 1040 49 16093 3.1 350 14:22 09.01.2020
4631 Clear -6 1040 49 16093 7.2 320 13:57 09.01.2020
4632 Clear -6 1039 49 16093 3.1 320 13:39 09.01.2020
4633 Clear -6 1039 49 16093 3.1 320 13:21 09.01.2020
4634 Clear -6 1038 49 16093 7.7 320 12:59 09.01.2020
4635 Clear -5 1038 45 16093 3.1 330 12:40 09.01.2020
4636 Clear -5 1038 45 16093 3.1 330 12:22 09.01.2020
4637 Clear -5 1037 49 16093 9.3 300 11:57 09.01.2020
4638 Clear -5 1036 45 16093 5.1 330 11:38 09.01.2020
4639 Clear -5 1036 45 16093 5.1 330 11:20 09.01.2020
4640 Clear -5 1035 45 16093 2.6 310 10:44 09.01.2020
4641 Clear -5 1035 45 16093 2.6 310 10:22 09.01.2020
4642 Clouds -4 1034 45 16093 9.3 300 09:59 09.01.2020
4643 Clear -4 1034 41 16093 5.7 320 09:39 09.01.2020
4644 Clear -4 1034 41 16093 5.7 320 09:21 09.01.2020
4645 Clouds -4 1033 45 16093 9.3 320 08:55 09.01.2020
4646 Clear -4 1033 38 16093 6.7 310 08:37 09.01.2020
4647 Clear -4 1033 38 16093 6.7 310 08:19 09.01.2020
4648 Clouds -3 1032 42 16093 9.3 310 07:42 09.01.2020
4649 Clouds -3 1032 42 16093 9.3 310 07:23 09.01.2020
4650 Clear -3 1030 46 16093 6.2 320 06:39 09.01.2020
4651 Clear -3 1030 46 16093 6.2 320 06:20 09.01.2020
4652 Clouds -2 1029 42 16093 12.3 310 05:49 09.01.2020
4653 Clouds -2 1028 39 16093 6.2 330 04:44 09.01.2020
4654 Clouds -1 1027 53 16093 7.2 320 03:38 09.01.2020
4655 Clouds -1 1026 53 16093 9.3 310 02:54 09.01.2020
4656 Clear -1 1026 53 16093 6.2 310 02:28 09.01.2020
4657 Clear 0 1024 52 16093 6.7 310 01:39 09.01.2020
4658 Clouds 0 1022 50 16093 8.7 310 00:43 09.01.2020
4659 Clouds 1 1022 50 16093 8.7 310 00:21 09.01.2020
4660 Clouds 1 1020 37 16093 11.3 300 23:55 08.01.2020
4661 Clouds 1 1020 43 16093 6.7 300 23:37 08.01.2020
4662 Clear 1 1019 37 16093 5.1 290 23:18 08.01.2020
4663 Clouds 2 1019 47 16093 10.3 320 22:39 08.01.2020
4664 Clouds 2 1019 47 16093 10.3 320 22:21 08.01.2020
4665 Clouds 2 1018 55 16093 6.7 280 21:58 08.01.2020
4666 Clear 3 1016 30 16093 8.7 290 21:38 08.01.2020
4667 Clouds 3 1015 44 16093 5.1 300 21:20 08.01.2020
4668 Clouds 3 1015 44 16093 5.1 300 21:20 08.01.2020
4669 Clouds 4 1014 44 16093 11.3 320 20:58 08.01.2020
4670 Clouds 4 1014 30 16093 10.8 320 20:39 08.01.2020
4671 Clouds 4 1014 30 16093 10.8 320 20:20 08.01.2020
4672 Clouds 5 1013 33 16093 9.3 270 19:57 08.01.2020
4673 Clouds 5 1013 38 16093 8.2 290 19:37 08.01.2020
4674 Clouds 5 1013 41 16093 7.7 280 19:19 08.01.2020
4675 Clouds 5 1012 41 16093 7.2 270 18:56 08.01.2020
4676 Clouds 4 1013 48 16093 10.3 290 18:37 08.01.2020
4677 Clouds 4 1013 48 16093 10.3 290 18:18 08.01.2020
4678 Clouds 4 1012 55 16093 10.8 290 17:56 08.01.2020
4679 Clouds 4 1013 56 16093 7.2 280 17:37 08.01.2020
4680 Clouds 4 1013 56 16093 7.2 280 17:18 08.01.2020
4681 Clouds 3 1014 69 16093 6.7 280 16:55 08.01.2020
4682 Clouds 3 1014 69 16093 6.7 280 16:37 08.01.2020
4683 Clouds 2 1014 80 0 5.7 250 16:18 08.01.2020
4684 Snow 1 1014 74 3219 6.7 240 15:42 08.01.2020
4685 Clouds 1 1014 62 16093 2.1 270 15:21 08.01.2020
4686 Clouds 1 1014 74 12874 2.6 240 14:57 08.01.2020
4687 Clouds 0 1014 62 16093 2.6 280 14:39 08.01.2020
4688 Clear 0 1013 74 14484 3.1 0 14:20 08.01.2020
4689 Clouds -1 1013 69 16093 3.6 280 13:40 08.01.2020
4690 Clouds -1 1013 70 14484 3.1 0 13:20 08.01.2020
4691 Clouds -1 1013 86 0 6.2 270 12:43 08.01.2020
4692 Clouds -1 1013 86 0 6.2 270 12:20 08.01.2020
4693 Clouds -1 1013 74 16093 4.6 240 11:59 08.01.2020
4694 Clear -1 1013 70 16093 3.1 270 11:41 08.01.2020
4695 Clear -1 1013 72 16093 3.1 270 11:19 08.01.2020
4696 Clouds -1 1013 86 16093 8.2 250 10:57 08.01.2020
4697 Clear -1 1013 72 16093 2.6 270 10:39 08.01.2020
4698 Clear -1 1013 74 16093 1.5 0 10:19 08.01.2020
4699 Clear -1 1013 72 16093 7.68 265 09:42 08.01.2020
4700 Clear -1 1013 80 16093 2.6 0 09:20 08.01.2020
4701 Clouds 0 1012 74 16093 5.7 270 08:57 08.01.2020
4702 Clear 0 1013 72 16093 4.6 280 08:38 08.01.2020
4703 Clear 0 1013 80 0 4.1 260 08:20 08.01.2020
4704 Clear 0 1012 86 16093 3.6 300 07:50 08.01.2020
4705 Clear 0 1012 86 16093 3.6 300 07:32 08.01.2020
4706 Clear 0 1013 80 16093 3.1 300 06:50 08.01.2020
4707 Clear 1 1013 80 16093 3.1 300 06:32 08.01.2020
4708 Clouds 1 1012 74 16093 6.2 290 05:54 08.01.2020
4709 Rain 1 1013 74 16093 2.1 290 05:18 08.01.2020
4710 Rain 2 1013 94 16093 2.6 300 04:27 08.01.2020
4711 Rain 2 1011 86 3219 2.6 70 02:45 08.01.2020
4712 Rain 2 1012 74 16093 6.16 348 02:27 08.01.2020
4713 Rain 3 1012 69 16093 2.6 60 01:52 08.01.2020
4714 Drizzle 3 1013 64 16093 6.6 48 01:26 08.01.2020
4715 Rain 3 1013 52 16093 6.6 48 00:42 08.01.2020
4716 Rain 4 1014 60 16093 2.6 40 00:21 08.01.2020
4717 Clouds 4 1013 52 16093 6.6 48 23:44 07.01.2020
4718 Clouds 4 1013 48 16093 2.1 80 23:20 07.01.2020
4719 Clouds 4 1013 52 16093 4.92 119 22:41 07.01.2020
4720 Clouds 5 1013 52 16093 4.92 119 22:21 07.01.2020
4721 Clouds 5 1013 60 16093 5.7 60 21:58 07.01.2020
4722 Clouds 5 1014 48 16093 3.6 120 21:40 07.01.2020
4723 Clouds 5 1014 48 16093 3.6 120 21:21 07.01.2020
4724 Clouds 5 1015 38 16093 3.6 120 20:57 07.01.2020
4725 Clear 6 1015 38 16093 3.6 160 20:39 07.01.2020
4726 Clear 6 1015 36 16093 2.6 80 20:21 07.01.2020
4727 Clouds 6 1015 41 16093 3.6 60 19:56 07.01.2020
4728 Clear 6 1015 38 16093 2.21 136 19:37 07.01.2020
4729 Clear 6 1016 48 0 2.21 136 19:18 07.01.2020
4730 Clear 6 1016 41 16093 2.1 350 19:18 07.01.2020
4731 Clouds 6 1016 38 16093 2.6 60 18:55 07.01.2020
4732 Clear 6 1017 38 16093 2.21 136 18:37 07.01.2020
4733 Clear 5 1018 41 16093 2.21 136 18:18 07.01.2020
4734 Clear 5 1018 41 16093 2.21 136 18:18 07.01.2020
4735 Clear 5 1018 44 16093 2.21 136 17:41 07.01.2020
4736 Clear 5 1018 44 16093 2.21 136 17:23 07.01.2020
4737 Clear 4 1019 48 16093 1.44 264 16:58 07.01.2020
4738 Clear 4 1019 48 16093 1.44 264 16:38 07.01.2020
4739 Clear 4 1019 44 16093 1.5 250 16:19 07.01.2020
4740 Clear 3 1019 44 16093 1.5 250 15:59 07.01.2020
4741 Clear 3 1019 51 16093 1.5 20 15:41 07.01.2020
4742 Clear 2 1019 51 16093 1.5 20 15:23 07.01.2020
4743 Clouds 2 1019 44 16093 2.6 250 14:57 07.01.2020
4744 Clear 1 1020 51 16093 1.44 264 14:37 07.01.2020
4745 Clear 1 1020 47 16093 2.6 230 14:19 07.01.2020
4746 Clear 1 1019 51 16093 4.99 253 13:40 07.01.2020
4747 Clear 1 1019 44 16093 2.1 0 13:20 07.01.2020
4748 Clouds 1 1019 64 16093 3.6 270 12:54 07.01.2020
4749 Clear 1 1019 51 16093 5.2 263 12:36 07.01.2020
4750 Clear 1 1019 44 16093 2.6 230 12:18 07.01.2020
4751 Clear 1 1019 51 16093 5.2 263 11:41 07.01.2020
4752 Clear 1 1019 51 16093 5.2 263 11:41 07.01.2020
4753 Clear 1 1019 51 16093 7.43 278 11:21 07.01.2020
4754 Clouds 1 1018 41 16093 3.6 250 10:55 07.01.2020
4755 Clear 2 1019 51 16093 7.43 278 10:37 07.01.2020
4756 Clear 2 1019 51 16093 7.43 278 10:19 07.01.2020
4757 Clear 2 1019 51 16093 7.43 278 09:38 07.01.2020
4758 Clear 2 1019 51 16093 7.43 278 09:20 07.01.2020
4759 Clouds 2 1018 41 16093 5.1 230 08:57 07.01.2020
4760 Clear 2 1018 44 16093 7.43 278 08:37 07.01.2020
4761 Clear 2 1018 38 16093 3.6 230 08:18 07.01.2020
4762 Clear 3 1018 47 16093 8.56 271 07:42 07.01.2020
4763 Clear 3 1018 44 16093 2.1 270 06:57 07.01.2020
4764 Clear 3 1018 41 16093 4.1 280 06:35 07.01.2020
4765 Clouds 4 1017 33 16093 7.2 260 05:59 07.01.2020
4766 Clear 4 1017 44 16093 2.6 290 05:40 07.01.2020
4767 Clear 3 1017 44 16093 1.5 280 03:45 07.01.2020
4768 Clear 3 1017 48 16093 2.1 270 02:47 07.01.2020
4769 Clear 3 1017 60 0 2.6 270 02:18 07.01.2020
4770 Clear 3 1017 52 16093 9.49 260 01:40 07.01.2020
4771 Clouds 3 1016 52 16093 3.1 220 00:57 07.01.2020
4772 Clear 4 1016 56 0 3.6 270 00:21 07.01.2020
4773 Clear 4 1016 52 16093 9.71 265 23:57 06.01.2020
4774 Clear 5 1016 52 16093 9.71 265 23:37 06.01.2020
4775 Clear 5 1016 45 16093 2.6 250 23:19 06.01.2020
4776 Clouds 6 1015 48 16093 7.8 269 22:44 06.01.2020
4777 Clouds 6 1015 52 0 6.2 270 22:25 06.01.2020
4778 Clouds 7 1015 45 16093 6.7 270 21:59 06.01.2020
4779 Clouds 7 1015 52 16093 2.1 290 21:40 06.01.2020
4780 Clouds 7 1015 48 16093 2.6 0 21:20 06.01.2020
4781 Clouds 7 1014 45 16093 10.8 260 20:57 06.01.2020
4782 Clouds 7 1014 48 16093 5.1 280 20:39 06.01.2020
4783 Clouds 7 1014 52 0 6.2 270 20:20 06.01.2020
4784 Clouds 7 1014 52 16093 2.6 260 20:20 06.01.2020
4785 Clouds 7 1014 48 16093 8.2 250 19:57 06.01.2020
4786 Clouds 6 1014 48 16093 4.6 280 19:39 06.01.2020
4787 Clouds 6 1014 48 16093 4.6 280 19:20 06.01.2020
4788 Clouds 6 1014 60 16093 4.6 290 18:48 06.01.2020
4789 Rain 6 1014 64 16093 5.1 240 18:25 06.01.2020
4790 Rain 5 1014 60 16093 6.7 260 18:00 06.01.2020
4791 Rain 4 1015 63 16093 4.6 270 17:39 06.01.2020
4792 Rain 4 1015 63 16093 4.6 270 17:39 06.01.2020
4793 Rain 4 1015 69 16093 4.1 240 17:19 06.01.2020
4794 Rain 3 1015 69 16093 5.7 230 16:55 06.01.2020
4795 Rain 2 1016 74 16093 2.6 280 16:36 06.01.2020
4796 Rain 2 1015 69 16093 4.1 260 16:18 06.01.2020
4797 Clouds 1 1015 80 16093 3.1 270 15:42 06.01.2020
4798 Clouds 1 1015 80 0 5.1 250 15:20 06.01.2020
4799 Rain 1 1015 69 16093 5.7 220 14:59 06.01.2020
4800 Rain 1 1015 86 16093 9.07 244 14:41 06.01.2020
4801 Rain 1 1015 86 16093 9.07 244 14:41 06.01.2020
4802 Rain 0 1015 86 16093 7.43 237 14:21 06.01.2020
4803 Clouds 0 1015 80 14484 7.43 237 13:58 06.01.2020
4804 Clouds 0 1015 86 0 4.6 250 13:38 06.01.2020
4805 Rain 0 1014 80 16093 2.6 0 13:20 06.01.2020
4806 Clouds 0 1015 86 0 4.6 240 12:44 06.01.2020
4807 Clouds 0 1015 86 0 4.6 240 12:21 06.01.2020
4808 Clouds 0 1014 80 16093 4.6 210 11:59 06.01.2020
4809 Clouds 0 1014 66 16093 6.65 224 11:41 06.01.2020
4810 Clouds 0 1014 76 16093 7 248 11:23 06.01.2020
4811 Clouds -1 1014 76 16093 7 248 10:57 06.01.2020
4812 Clouds -1 1014 76 16093 7 248 10:39 06.01.2020
4813 Clouds -1 1014 76 16093 7 248 10:20 06.01.2020
4814 Rain -1 1014 76 2414 2.1 180 09:39 06.01.2020
4815 Rain 0 1014 76 2414 2.1 180 09:20 06.01.2020
4816 Rain 0 1015 76 4828 7 248 08:48 06.01.2020
4817 Rain 0 1015 76 2816 4.1 290 08:48 06.01.2020
4818 Rain 0 1015 76 6437 1.5 170 08:30 06.01.2020
4819 Rain 0 1015 67 2414 4.6 270 07:56 06.01.2020
4820 Rain 0 1015 67 2414 3.6 280 07:33 06.01.2020
4821 Clouds 0 1016 69 0 5.1 270 06:46 06.01.2020
4822 Snow 1 1016 69 4023 5.7 270 06:23 06.01.2020
4823 Clouds 1 1016 51 0 2.6 260 05:45 06.01.2020
4824 Clouds 1 1015 47 16093 5.1 300 04:52 06.01.2020
4825 Clouds 0 1016 51 16093 2.6 220 04:19 06.01.2020
4826 Clouds 0 1016 47 16093 3.1 310 02:58 06.01.2020
4827 Clear 1 1016 51 16093 8.33 308 02:24 06.01.2020
4828 Clear 2 1016 51 16093 8.33 308 01:45 06.01.2020
4829 Clear 2 1016 51 16093 8.91 306 01:27 06.01.2020
4830 Clear 2 1016 44 16093 5.1 320 00:44 06.01.2020
4831 Clear 2 1016 44 16093 5.1 320 00:24 06.01.2020
4832 Clouds 3 1015 44 16093 4.1 310 23:43 05.01.2020
4833 Clouds 3 1015 44 16093 4.1 310 23:43 05.01.2020
4834 Clouds 3 1015 44 16093 2.6 0 23:23 05.01.2020
4835 Clouds 3 1015 44 16093 2.6 0 23:23 05.01.2020
4836 Clouds 3 1015 44 16093 2.6 0 22:58 05.01.2020
4837 Clouds 4 1014 41 16093 5.7 320 22:39 05.01.2020
4838 Clouds 4 1014 41 16093 5.7 320 22:20 05.01.2020
4839 Clouds 4 1013 44 16093 9.3 300 21:56 05.01.2020
4840 Clouds 4 1013 38 16093 9.8 320 21:38 05.01.2020
4841 Clouds 5 1013 38 16093 3.6 290 21:20 05.01.2020
4842 Clouds 5 1012 48 16093 9.3 310 20:56 05.01.2020
4843 Clouds 5 1012 38 16093 8.7 330 20:38 05.01.2020
4844 Clouds 5 1012 44 16093 5.7 300 20:19 05.01.2020
4845 Clouds 5 1011 48 16093 11.3 320 19:57 05.01.2020
4846 Clouds 5 1012 41 16093 9.3 320 19:38 05.01.2020
4847 Clouds 5 1011 48 16093 7.7 300 19:19 05.01.2020
4848 Clouds 5 1011 48 16093 11.8 320 18:55 05.01.2020
4849 Clouds 5 1011 48 16093 11.8 320 18:37 05.01.2020
4850 Clouds 5 1011 48 16093 11.8 320 18:37 05.01.2020
4851 Clouds 5 1011 48 16093 7.2 300 18:19 05.01.2020
4852 Clouds 4 1010 48 16093 11.8 310 17:57 05.01.2020
4853 Clouds 4 1012 44 16093 8.7 340 17:38 05.01.2020
4854 Clouds 4 1012 44 16093 8.7 340 17:19 05.01.2020
4855 Clouds 4 1010 48 16093 9.8 310 16:56 05.01.2020
4856 Clouds 4 1012 51 16093 9.3 330 16:37 05.01.2020
4857 Clouds 4 1012 51 16093 9.3 330 16:19 05.01.2020
4858 Clouds 4 1012 51 16093 9.3 330 16:19 05.01.2020
4859 Clouds 3 1011 51 16093 6.2 320 15:38 05.01.2020
4860 Clouds 3 1010 51 16093 6.2 290 15:20 05.01.2020
4861 Clouds 3 1009 59 16093 9.3 310 14:55 05.01.2020
4862 Clouds 3 1010 51 16093 6.2 330 14:37 05.01.2020
4863 Clouds 3 1010 51 16093 6.2 330 14:19 05.01.2020
4864 Clouds 3 1008 51 16093 9.8 310 13:55 05.01.2020
4865 Clouds 3 1009 55 16093 7.7 320 13:37 05.01.2020
4866 Clear 3 1008 47 16093 5.7 300 13:18 05.01.2020
4867 Clear 3 1008 47 16093 5.7 300 13:18 05.01.2020
4868 Clear 3 1008 47 16093 5.7 300 13:18 05.01.2020
4869 Rain 3 1007 51 16093 10.8 320 12:55 05.01.2020
4870 Rain 3 1007 51 0 3.6 340 12:37 05.01.2020
4871 Rain 3 1007 51 0 3.6 340 12:18 05.01.2020
4872 Rain 3 1007 51 16093 7.2 320 11:43 05.01.2020
4873 Rain 3 1006 48 16093 9.3 300 11:20 05.01.2020
4874 Rain 3 1006 48 16093 9.3 300 10:58 05.01.2020
4875 Clouds 3 1005 55 16093 7.2 320 10:39 05.01.2020
4876 Clouds 3 1005 55 16093 7.2 320 10:39 05.01.2020
4877 Clouds 3 1004 55 16093 4.6 300 10:19 05.01.2020
4878 Clouds 3 1004 55 16093 8.7 330 09:42 05.01.2020
4879 Clouds 3 1004 60 16093 6.7 290 09:22 05.01.2020
4880 Clouds 3 1003 64 16093 10.8 310 08:50 05.01.2020
4881 Rain 4 1003 64 16093 6.7 320 08:31 05.01.2020
4882 Rain 4 1002 64 16093 8.7 310 07:58 05.01.2020
4883 Rain 4 1001 75 0 2.6 0 07:39 05.01.2020
4884 Rain 4 1001 75 0 2.6 0 07:20 05.01.2020
4885 Rain 4 1001 75 0 2.1 0 06:21 05.01.2020
4886 Drizzle 5 1001 75 16093 5.7 330 05:34 05.01.2020
4887 Rain 6 1001 75 16093 3.6 300 04:48 05.01.2020
4888 Rain 6 1001 75 14484 4.1 300 04:18 05.01.2020
4889 Rain 6 1001 75 14484 4.1 300 04:18 05.01.2020
4890 Clouds 7 1000 75 16093 7.7 320 02:50 05.01.2020
4891 Rain 8 1001 76 16093 7.2 330 02:32 05.01.2020
4892 Rain 8 1000 87 16093 5.7 330 01:49 05.01.2020
4893 Rain 9 1001 87 16093 3.1 0 01:20 05.01.2020
4894 Rain 9 1000 87 16093 5.1 330 00:56 05.01.2020
4895 Clouds 9 1000 93 16093 6.54 338 00:37 05.01.2020
4896 Clouds 9 1001 87 16093 1.5 0 00:19 05.01.2020
4897 Clouds 9 1001 81 16093 2.1 270 23:40 04.01.2020
4898 Clouds 9 1000 93 16093 4.53 278 23:20 04.01.2020
4899 Clouds 9 1000 100 0 2.6 250 22:55 04.01.2020
4900 Clouds 9 1000 100 0 2.6 250 22:37 04.01.2020
4901 Clouds 9 1001 87 16093 1.5 270 22:19 04.01.2020
4902 Clouds 9 1000 93 16093 3.6 300 21:55 04.01.2020
4903 Clouds 10 1001 87 16093 2.6 270 21:36 04.01.2020
4904 Clouds 9 1000 87 16093 2.6 260 21:18 04.01.2020
4905 Mist 9 1001 93 6437 4.53 278 20:40 04.01.2020
4906 Clouds 9 1001 100 0 3.1 260 20:22 04.01.2020
4907 Rain 9 1000 93 2414 2.6 80 19:57 04.01.2020
4908 Rain 9 1001 93 2012 2.1 280 19:39 04.01.2020
4909 Drizzle 9 1001 100 101 2.6 240 19:20 04.01.2020
4910 Drizzle 9 1001 100 402 3.1 60 18:56 04.01.2020
4911 Rain 9 1002 93 4828 2.1 250 18:38 04.01.2020
4912 Drizzle 9 1001 93 402 3.1 50 18:19 04.01.2020
4913 Drizzle 8 1003 93 402 3.14 262 17:42 04.01.2020
4914 Drizzle 8 1003 93 402 3.14 262 17:42 04.01.2020
4915 Drizzle 8 1003 93 402 3.14 262 17:42 04.01.2020
4916 Drizzle 8 1003 93 402 3.14 262 17:24 04.01.2020
4917 Drizzle 8 1003 100 805 3.1 110 16:59 04.01.2020
4918 Drizzle 8 1004 100 805 2.1 130 16:40 04.01.2020
4919 Drizzle 8 1004 100 805 2.1 130 16:22 04.01.2020
4920 Drizzle 8 1005 100 805 3.6 150 15:57 04.01.2020
4921 Fog 8 1005 93 805 3.87 230 15:38 04.01.2020
4922 Fog 8 1005 100 805 3.87 230 15:19 04.01.2020
4923 Mist 8 1005 93 3219 3.1 0 14:56 04.01.2020
4924 Mist 8 1005 93 2816 1.5 100 14:37 04.01.2020
4925 Mist 7 1006 93 6437 2.1 80 14:19 04.01.2020
4926 Rain 7 1005 100 8047 2.02 206 13:55 04.01.2020
4927 Rain 7 1005 100 8047 2.02 206 13:36 04.01.2020
4928 Rain 7 1005 100 1609 2.6 80 13:18 04.01.2020
4929 Rain 7 1006 93 2414 2.6 100 12:41 04.01.2020
4930 Rain 7 1006 93 2414 2.6 100 12:19 04.01.2020
4931 Rain 7 1006 100 2414 2.6 100 11:58 04.01.2020
4932 Rain 7 1006 100 0 1.5 80 11:39 04.01.2020
4933 Rain 7 1008 100 2816 0.45 123 11:19 04.01.2020
4934 Rain 7 1007 100 6437 0.45 123 10:42 04.01.2020
4935 Rain 7 1007 93 3219 0.45 123 10:23 04.01.2020
4936 Rain 7 1007 87 1609 0.45 123 09:59 04.01.2020
4937 Rain 7 1009 93 0 2.6 290 09:41 04.01.2020
4938 Rain 7 1009 100 0 1.5 260 09:21 04.01.2020
4939 Rain 7 1009 100 3219 2.1 150 08:41 04.01.2020
4940 Rain 7 1009 100 3219 2.1 150 08:21 04.01.2020
4941 Rain 7 1008 93 8047 1.21 240 07:44 04.01.2020
4942 Rain 7 1009 100 0 1.21 240 07:20 04.01.2020
4943 Drizzle 7 1009 93 4828 1.21 240 06:33 04.01.2020
4944 Drizzle 8 1010 93 6437 1.21 240 05:39 04.01.2020
4945 Drizzle 8 1011 87 11265 2.56 256 04:44 04.01.2020
4946 Drizzle 8 1011 87 11265 2.56 256 04:25 04.01.2020
4947 Rain 8 1011 81 12874 1.5 240 03:19 04.01.2020
4948 Rain 8 1011 81 16093 3.1 240 02:23 04.01.2020
4949 Rain 8 1010 87 16093 2.76 246 02:23 04.01.2020
4950 Rain 8 1010 81 16093 2.6 230 01:57 04.01.2020
4951 Clouds 8 1010 81 16093 1.5 270 01:32 04.01.2020
4952 Clouds 8 1009 81 16093 2.87 241 00:50 04.01.2020
4953 Clouds 8 1009 81 16093 2.87 241 00:28 04.01.2020
4954 Clouds 8 1009 81 16093 1.5 310 23:52 03.01.2020
4955 Clouds 8 1010 81 16093 2.87 241 23:27 03.01.2020
4956 Clouds 8 1009 81 16093 2.56 305 22:55 03.01.2020
4957 Clouds 8 1009 87 0 1.5 260 22:37 03.01.2020
4958 Clouds 8 1009 87 16093 3.1 220 22:18 03.01.2020
4959 Clouds 8 1009 81 14484 2.6 210 21:56 03.01.2020
4960 Clouds 8 1009 81 16093 2.56 305 21:37 03.01.2020
4961 Clouds 8 1009 87 0 2.1 250 21:18 03.01.2020
4962 Rain 8 1008 87 14484 1.5 220 20:43 03.01.2020
4963 Rain 8 1009 87 8047 2.24 259 20:19 03.01.2020
4964 Rain 8 1008 81 11265 2.6 250 19:59 03.01.2020
4965 Rain 8 1009 93 0 1.5 260 19:41 03.01.2020
4966 Rain 8 1009 93 0 1.5 260 19:23 03.01.2020
4967 Rain 8 1008 87 12874 1.5 240 18:47 03.01.2020
4968 Rain 7 1008 87 16093 2.23 268 18:27 03.01.2020
4969 Rain 7 1009 87 9656 3.1 240 17:58 03.01.2020
4970 Rain 7 1009 93 0 1.5 240 17:40 03.01.2020
4971 Rain 7 1009 93 0 1.5 240 17:21 03.01.2020
4972 Rain 7 1010 93 6437 2.1 0 17:21 03.01.2020
4973 Drizzle 7 1010 100 9656 2.1 250 16:44 03.01.2020
4974 Rain 7 1010 93 6437 2.1 200 16:25 03.01.2020
4975 Rain 6 1012 93 3219 3 257 16:00 03.01.2020
4976 Drizzle 6 1010 93 2414 3 257 15:41 03.01.2020
4977 Rain 6 1010 93 2414 3.1 200 15:19 03.01.2020
4978 Rain 6 1010 93 3219 3.1 230 14:40 03.01.2020
4979 Rain 6 1010 93 3219 3.1 230 14:40 03.01.2020
4980 Drizzle 6 1011 87 11265 4.59 243 14:20 03.01.2020
4981 Rain 6 1010 81 14484 3.1 200 13:59 03.01.2020
4982 Rain 6 1010 87 9656 2.6 200 13:40 03.01.2020
4983 Drizzle 6 1010 87 16093 3.94 242 13:21 03.01.2020
4984 Rain 6 1011 81 16093 3.94 242 12:41 03.01.2020
4985 Rain 6 1011 81 16093 3.94 242 12:22 03.01.2020
4986 Rain 6 1011 75 16093 3.6 200 11:57 03.01.2020
4987 Drizzle 6 1011 75 16093 3.94 242 11:39 03.01.2020
4988 Rain 6 1010 70 16093 2.1 220 10:59 03.01.2020
4989 Drizzle 6 1010 70 16093 4.44 249 10:40 03.01.2020
4990 Drizzle 6 1010 70 16093 4.44 249 10:22 03.01.2020
4991 Clouds 6 1009 65 16093 2.6 230 09:56 03.01.2020
4992 Clouds 6 1010 65 16093 4.44 249 09:38 03.01.2020
4993 Clouds 7 1011 61 16093 3.1 250 09:20 03.01.2020
4994 Rain 7 1010 57 16093 3.6 240 08:54 03.01.2020
4995 Clouds 7 1011 70 16093 4.44 249 08:36 03.01.2020
4996 Clouds 6 1011 57 16093 2.6 0 08:18 03.01.2020
4997 Clouds 6 1009 65 16093 7.01 245 07:39 03.01.2020
4998 Clouds 6 1010 61 16093 2.1 0 07:18 03.01.2020
4999 Clouds 6 1011 65 16093 7.01 245 06:42 03.01.2020
5000 Clouds 6 1011 61 16093 2.1 0 06:23 03.01.2020
5001 Clouds 6 1012 65 0 3.6 270 05:20 03.01.2020
5002 Clouds 6 1012 74 16093 5.35 237 03:45 03.01.2020
5003 Clouds 6 1012 52 16093 3.1 220 02:55 03.01.2020
5004 Clouds 6 1012 52 16093 2.6 210 01:57 03.01.2020
5005 Clear 6 1012 73 16093 6.08 221 01:36 03.01.2020
5006 Clear 6 1013 73 16093 5.96 220 00:46 03.01.2020
5007 Clear 6 1013 73 16093 5.96 220 00:26 03.01.2020
5008 Clouds 6 1012 45 16093 4.1 210 23:55 02.01.2020
5009 Clear 7 1013 52 16093 5.96 220 23:37 02.01.2020
5010 Clear 7 1013 52 0 4.6 280 23:18 02.01.2020
5011 Clear 7 1013 45 16093 4.31 221 22:44 02.01.2020
5012 Clear 8 1013 49 0 2.1 230 22:21 02.01.2020
5013 Rain 8 1012 45 16093 3.1 170 21:57 02.01.2020
5014 Rain 8 1013 37 16093 1.5 250 21:39 02.01.2020
5015 Rain 8 1013 45 0 5.7 260 21:21 02.01.2020
5016 Rain 8 1013 36 16093 5.1 200 20:57 02.01.2020
5017 Rain 8 1013 37 16093 5.17 222 20:39 02.01.2020
5018 Rain 8 1014 45 0 3.1 0 20:20 02.01.2020
5019 Clouds 8 1013 36 16093 5.1 220 19:55 02.01.2020
5020 Clear 8 1013 36 16093 1.5 240 19:37 02.01.2020
5021 Clear 8 1013 36 16093 1.5 240 19:37 02.01.2020
5022 Clear 8 1014 49 0 4.1 270 19:19 02.01.2020
5023 Rain 8 1013 39 16093 5.1 230 18:56 02.01.2020
5024 Rain 8 1015 36 16093 1.5 260 18:37 02.01.2020
5025 Rain 8 1015 36 16093 1.5 260 18:19 02.01.2020
5026 Clouds 7 1014 42 16093 5.1 240 17:55 02.01.2020
5027 Clear 7 1015 48 16093 5.06 220 17:36 02.01.2020
5028 Clear 6 1016 48 16093 2.1 0 17:18 02.01.2020
5029 Clouds 5 1015 45 16093 4.1 230 16:56 02.01.2020
5030 Clear 5 1016 59 16093 4.74 244 16:38 02.01.2020
5031 Clouds 4 1016 64 16093 3.1 220 16:19 02.01.2020
5032 Clear 3 1016 64 16093 4.74 244 15:44 02.01.2020
5033 Clear 2 1016 51 16093 1.5 0 15:24 02.01.2020
5034 Clear 1 1016 74 16093 4.74 244 14:58 02.01.2020
5035 Clear 1 1016 74 16093 4.74 244 14:38 02.01.2020
5036 Clear -2 1016 55 16093 6.24 247 14:20 02.01.2020
5037 Clear -2 1016 74 16093 6.24 247 13:58 02.01.2020
5038 Clear -2 1016 74 16093 6.34 250 13:40 02.01.2020
5039 Clear -2 1016 59 16093 2.1 240 13:19 02.01.2020
5040 Clear -2 1016 74 16093 6.34 250 12:42 02.01.2020
5041 Clear -2 1016 74 16093 6.34 250 12:21 02.01.2020
5042 Clear -2 1015 68 16093 6.34 250 11:42 02.01.2020
5043 Clear -2 1015 59 16093 3.6 240 11:23 02.01.2020
5044 Clear -2 1014 68 16093 6.79 259 10:56 02.01.2020
5045 Clear -2 1014 68 16093 6.79 259 10:36 02.01.2020
5046 Clear -2 1015 69 0 3.1 250 10:18 02.01.2020
5047 Clear -2 1015 74 16093 6.79 259 09:41 02.01.2020
5048 Clear -2 1014 55 16093 2.6 0 09:21 02.01.2020
5049 Clear -2 1014 68 16093 6.79 259 08:41 02.01.2020
5050 Clear -2 1014 55 16093 3.6 240 08:22 02.01.2020
5051 Clear -2 1014 63 16093 7.29 280 07:47 02.01.2020
5052 Clear -2 1014 63 16093 7.29 280 07:27 02.01.2020
5053 Clear -2 1014 62 16093 7.29 280 06:43 02.01.2020
5054 Clear -1 1013 47 16093 3.6 250 05:54 02.01.2020
5055 Clear 0 1013 61 16093 8.82 285 04:38 02.01.2020
5056 Clear 0 1013 61 16093 8.82 285 04:19 02.01.2020
5057 Clouds 1 1012 51 16093 4.1 280 02:25 02.01.2020
5058 Clouds 1 1012 51 16093 4.1 280 01:57 02.01.2020
5059 Clouds 2 1012 51 16093 5.1 290 01:32 02.01.2020
5060 Clouds 2 1011 47 16093 8.2 270 00:52 02.01.2020
5061 Clouds 2 1011 47 16093 6.2 290 00:32 02.01.2020
5062 Clouds 3 1011 51 16093 8.2 270 23:48 01.01.2020
5063 Clouds 3 1011 47 16093 5.1 280 23:25 01.01.2020
5064 Clouds 3 1010 41 16093 5.1 260 22:55 01.01.2020
5065 Clouds 3 1009 47 16093 5.7 290 22:37 01.01.2020
5066 Clouds 3 1009 47 16093 4.6 280 22:18 01.01.2020
5067 Clouds 3 1008 44 16093 6.7 300 21:42 01.01.2020
5068 Clouds 3 1008 44 16093 6.7 300 21:21 01.01.2020
5069 Clouds 3 1008 47 16093 5.1 280 20:59 01.01.2020
5070 Clouds 3 1008 44 16093 8.2 300 20:39 01.01.2020
5071 Clouds 3 1008 44 16093 4.1 290 20:21 01.01.2020
5072 Clouds 3 1007 41 16093 10.3 290 19:58 01.01.2020
5073 Clouds 3 1007 41 16093 9.8 320 19:39 01.01.2020
5074 Clouds 3 1007 47 16093 3.6 270 19:20 01.01.2020
5075 Clouds 3 1007 44 16093 8.2 310 18:57 01.01.2020
5076 Clouds 3 1008 41 16093 6.7 300 18:39 01.01.2020
5077 Clouds 3 1008 41 16093 6.7 300 18:20 01.01.2020
5078 Clouds 4 1007 41 16093 10.3 270 17:59 01.01.2020
5079 Clouds 4 1008 44 16093 8.7 300 17:40 01.01.2020
5080 Clouds 3 1008 44 16093 8.7 300 17:20 01.01.2020
5081 Clouds 3 1007 41 16093 8.2 260 16:59 01.01.2020
5082 Clouds 3 1008 47 16093 5.1 280 16:59 01.01.2020
5083 Clouds 3 1008 44 16093 7.2 290 16:38 01.01.2020
5084 Clouds 3 1008 51 16093 2.6 0 16:20 01.01.2020
5085 Clouds 3 1008 47 16093 6.7 260 15:57 01.01.2020
5086 Clouds 3 1008 51 16093 6.2 290 15:38 01.01.2020
5087 Clouds 3 1008 51 16093 6.2 290 15:20 01.01.2020
5088 Clouds 2 1007 51 16093 7.7 260 14:56 01.01.2020
5089 Clouds 2 1007 55 16093 6.2 290 14:38 01.01.2020
5090 Clouds 2 1007 64 0 6.2 270 14:20 01.01.2020
5091 Clouds 2 1006 55 16093 5.7 270 13:55 01.01.2020
5092 Clouds 2 1007 64 16093 5.1 280 13:37 01.01.2020
5093 Clouds 2 1006 59 16093 3.6 260 13:18 01.01.2020
5094 Clouds 2 1006 55 16093 8.2 260 12:55 01.01.2020
5095 Snow 2 1006 64 16093 6.2 270 12:37 01.01.2020
5096 Clouds 2 1006 59 16093 5.1 290 12:18 01.01.2020
5097 Clouds 3 1006 59 16093 6.2 300 11:43 01.01.2020
5098 Clouds 3 1006 59 16093 6.2 300 11:21 01.01.2020
5099 Clouds 3 1006 60 16093 9.3 270 10:58 01.01.2020
5100 Clouds 3 1006 64 16093 6.7 310 10:39 01.01.2020
5101 Clouds 3 1006 64 16093 6.7 310 10:20 01.01.2020
5102 Clouds 3 1006 60 16093 5.7 300 09:55 01.01.2020
5103 Clouds 3 1006 60 16093 5.7 300 09:36 01.01.2020
5104 Clouds 3 1005 60 16093 6.2 260 09:18 01.01.2020
5105 Clouds 4 1004 55 16093 7.2 280 08:54 01.01.2020
5106 Clouds 4 1005 64 16093 6.2 300 08:36 01.01.2020
5107 Clouds 3 1005 64 16093 6.2 270 08:18 01.01.2020
5108 Clouds 4 1005 64 16093 6.7 290 07:45 01.01.2020
5109 Clouds 4 1005 64 16093 6.7 290 07:26 01.01.2020
5110 Clouds 4 1005 64 16093 6.2 300 06:44 01.01.2020
5111 Clouds 4 1004 60 16093 4.6 270 06:19 01.01.2020
5112 Clouds 5 1004 75 16093 3.6 300 04:44 01.01.2020
5113 Rain 5 1004 70 16093 5.1 300 03:43 01.01.2020
5114 Rain 5 1004 70 16093 5.1 300 03:22 01.01.2020
5115 Rain 5 1004 65 16093 7.2 280 02:55 01.01.2020
5116 Drizzle 5 1004 75 16093 1.5 280 02:32 01.01.2020
5117 Rain 5 1003 70 16093 8.01 245 01:45 01.01.2020
5118 Rain 5 1003 70 16093 7.92 236 01:24 01.01.2020
5119 Clouds 5 1003 70 16093 4.6 220 00:57 01.01.2020
5120 Clouds 5 1004 70 16093 7.92 236 00:38 01.01.2020
5121 Clouds 5 1004 75 16093 1.5 240 00:20 01.01.2020
5122 Rain 6 1004 70 16093 1.5 270 23:40 31.12.2019
5123 Rain 6 1004 70 0 5.7 270 23:21 31.12.2019
5124 Rain 6 1003 69 16093 6.2 250 22:57 31.12.2019
5125 Rain 6 1003 70 16093 3.1 280 22:38 31.12.2019
5126 Clouds 6 1003 65 16093 2.1 0 22:18 31.12.2019
5127 Clouds 6 1003 65 16093 4.6 240 21:56 31.12.2019
5128 Clouds 6 1003 70 16093 8.18 253 21:37 31.12.2019
5129 Rain 6 1003 75 16093 3.1 220 21:19 31.12.2019
5130 Rain 6 1003 75 16093 3.1 220 21:19 31.12.2019
5131 Rain 6 1002 70 16093 2.1 240 20:54 31.12.2019
5132 Rain 6 1003 87 0 3.1 0 20:36 31.12.2019
5133 Rain 6 1004 81 0 3.1 240 20:18 31.12.2019
5134 Rain 6 1004 81 0 3.1 240 19:41 31.12.2019
5135 Rain 5 1004 81 0 3.1 240 19:22 31.12.2019
5136 Rain 5 1004 81 0 7.2 270 18:58 31.12.2019
5137 Clouds 5 1004 86 16093 6.36 259 18:40 31.12.2019
5138 Clouds 5 1005 86 0 2.1 0 18:20 31.12.2019
5139 Clouds 5 1005 86 0 2.6 0 17:56 31.12.2019
5140 Clouds 5 1006 86 0 5.1 280 17:38 31.12.2019
5141 Clouds 4 1006 93 16093 2.6 260 17:19 31.12.2019
5142 Clouds 4 1005 86 16093 4.5 293 16:57 31.12.2019
5143 Clouds 4 1006 93 16093 2.1 0 16:38 31.12.2019
5144 Clouds 4 1006 93 16093 4.5 293 16:19 31.12.2019
5145 Clouds 4 1005 86 16093 1.5 310 15:57 31.12.2019
5146 Clouds 4 1006 86 16093 2.1 0 15:38 31.12.2019
5147 Clouds 3 1007 93 16093 4.5 293 15:20 31.12.2019
5148 Clouds 3 1006 86 16093 3.6 330 14:58 31.12.2019
5149 Clouds 3 1006 86 16093 2.6 10 14:39 31.12.2019
5150 Rain 3 1006 93 14484 2.6 10 14:19 31.12.2019
5151 Clouds 3 1006 93 16093 3.6 340 13:58 31.12.2019
5152 Clouds 3 1006 86 16093 3.1 330 13:40 31.12.2019
5153 Clouds 3 1006 93 0 2.6 0 13:21 31.12.2019
5154 Rain 3 1007 93 12874 4.6 330 12:58 31.12.2019
5155 Rain 3 1007 86 0 2.1 0 12:40 31.12.2019
5156 Rain 3 1007 86 0 2.1 0 12:20 31.12.2019
5157 Clouds 3 1006 86 11265 4.6 330 11:56 31.12.2019
5158 Clouds 3 1006 86 16093 6.09 301 11:38 31.12.2019
5159 Clouds 3 1006 86 16093 6.09 301 11:38 31.12.2019
5160 Clouds 3 1006 86 16093 6.21 332 11:20 31.12.2019
5161 Clouds 3 1005 80 16093 3.6 360 10:58 31.12.2019
5162 Clouds 3 1006 93 16093 6.21 332 10:38 31.12.2019
5163 Clouds 3 1006 86 16093 2.6 20 10:20 31.12.2019
5164 Clouds 3 1006 86 16093 3.6 20 09:59 31.12.2019
5165 Clouds 3 1006 86 16093 5.1 10 09:39 31.12.2019
5166 Clouds 3 1006 86 16093 5.1 10 09:39 31.12.2019
5167 Clouds 3 1006 86 16093 5.1 10 09:39 31.12.2019
5168 Clouds 3 1007 86 16093 6.21 332 09:21 31.12.2019
5169 Clouds 3 1006 80 16093 4.6 360 08:57 31.12.2019
5170 Clouds 3 1007 80 16093 6.21 332 08:39 31.12.2019
5171 Clouds 3 1007 80 16093 7.6 2 08:20 31.12.2019
5172 Clouds 3 1006 80 16093 7.6 2 07:43 31.12.2019
5173 Clouds 3 1007 86 16093 3.6 30 07:22 31.12.2019
5174 Clouds 3 1006 100 16093 5.1 20 06:50 31.12.2019
5175 Clouds 3 1007 86 16093 5.7 40 05:59 31.12.2019
5176 Clouds 3 1008 93 16093 5.7 60 04:30 31.12.2019
5177 Rain 3 1009 86 6437 6.7 20 03:59 31.12.2019
5178 Rain 3 1009 86 6437 6.7 20 03:59 31.12.2019
5179 Rain 3 1009 86 16093 2.6 30 02:56 31.12.2019
5180 Rain 3 1009 93 16093 7.2 50 02:19 31.12.2019
5181 Rain 4 1009 93 14484 5.1 60 01:48 31.12.2019
5182 Rain 4 1009 93 14484 5.1 60 01:29 31.12.2019
5183 Rain 4 1008 86 9656 6.7 50 00:48 31.12.2019
5184 Rain 4 1008 93 16093 6.7 80 00:24 31.12.2019
5185 Rain 4 1009 86 4828 11.8 60 23:58 30.12.2019
5186 Drizzle 4 1008 93 8047 5.7 70 23:39 30.12.2019
5187 Rain 4 1008 87 0 8.2 30 23:21 30.12.2019
5188 Rain 4 1009 86 2414 10.8 40 22:59 30.12.2019
5189 Rain 5 1009 86 4828 5.1 60 22:41 30.12.2019
5190 Rain 5 1008 93 0 3.6 20 22:21 30.12.2019
5191 Rain 5 1008 93 0 3.6 20 21:57 30.12.2019
5192 Rain 5 1007 100 4828 4.6 80 21:39 30.12.2019
5193 Rain 5 1006 93 3219 5.7 90 21:20 30.12.2019
5194 Rain 5 1006 81 4023 8.2 60 20:58 30.12.2019
5195 Rain 5 1007 100 4828 6.7 70 20:40 30.12.2019
5196 Rain 5 1007 100 4828 6.7 70 20:40 30.12.2019
5197 Rain 5 1007 100 4828 6.2 70 20:20 30.12.2019
5198 Rain 5 1007 100 4828 6.2 70 19:58 30.12.2019
5199 Rain 5 1007 81 2414 10.3 80 19:39 30.12.2019
5200 Rain 5 1007 87 4828 5.7 50 19:19 30.12.2019
5201 Rain 5 1008 81 3219 8.2 60 18:59 30.12.2019
5202 Rain 5 1008 100 3219 4.6 70 18:41 30.12.2019
5203 Rain 5 1008 100 4023 10.3 70 18:20 30.12.2019
5204 Rain 5 1008 81 3219 7.2 60 17:57 30.12.2019
5205 Rain 5 1009 100 3219 4.6 60 17:39 30.12.2019
5206 Drizzle 5 1009 87 2414 6.2 90 17:19 30.12.2019
5207 Rain 5 1010 81 3219 6.7 70 16:58 30.12.2019
5208 Drizzle 5 1010 100 3219 5.1 80 16:38 30.12.2019
5209 Rain 5 1009 93 0 9.3 40 16:20 30.12.2019
5210 Rain 4 1011 81 2414 8.2 60 15:56 30.12.2019
5211 Rain 4 1011 93 4828 7.7 50 15:38 30.12.2019
5212 Rain 4 1012 93 2816 7.2 60 15:19 30.12.2019
5213 Rain 4 1011 93 2414 5.1 40 14:43 30.12.2019
5214 Rain 4 1010 93 6437 4.1 70 14:21 30.12.2019
5215 Rain 4 1009 86 4023 8.2 60 13:59 30.12.2019
5216 Rain 4 1010 93 4828 3.6 70 13:41 30.12.2019
5217 Rain 4 1011 93 6437 5.1 80 13:22 30.12.2019
5218 Rain 4 1010 86 4828 8.2 60 12:57 30.12.2019
5219 Rain 4 1010 93 3219 5.7 70 12:38 30.12.2019
5220 Rain 4 1011 93 8047 4.1 60 12:18 30.12.2019
5221 Drizzle 4 1010 93 6437 5.7 90 12:18 30.12.2019
5222 Rain 4 1011 100 4828 5.7 40 11:46 30.12.2019
5223 Rain 4 1011 93 0 7.7 30 11:22 30.12.2019
5224 Rain 4 1011 93 4828 8.2 50 10:59 30.12.2019
5225 Drizzle 4 1011 93 6437 3.6 70 10:40 30.12.2019
5226 Rain 4 1013 93 6437 6.7 60 10:19 30.12.2019
5227 Rain 4 1013 93 1609 4.1 30 09:43 30.12.2019
5228 Rain 4 1013 87 0 7.2 30 09:21 30.12.2019
5229 Rain 4 1014 93 4828 7.2 50 08:57 30.12.2019
5230 Rain 5 1014 93 6437 4.1 70 08:38 30.12.2019
5231 Drizzle 5 1014 93 4023 5.1 80 08:20 30.12.2019
5232 Rain 5 1014 100 4828 6.7 60 07:48 30.12.2019
5233 Rain 5 1014 93 4023 3.6 80 07:23 30.12.2019
5234 Rain 5 1015 93 2816 3.6 60 06:39 30.12.2019
5235 Rain 4 1017 93 3219 3.6 60 04:31 30.12.2019
5236 Rain 4 1017 100 8047 3.1 90 03:51 30.12.2019
5237 Rain 4 1018 87 4828 3.6 50 02:47 30.12.2019
5238 Rain 4 1018 86 4023 4.6 50 02:27 30.12.2019
5239 Rain 4 1019 89 3219 2.6 70 01:43 30.12.2019
5240 Rain 4 1020 93 4828 3.1 60 01:19 30.12.2019
5241 Rain 4 1020 86 6437 2.6 110 00:42 30.12.2019
5242 Rain 4 1020 80 11265 4.1 50 23:58 29.12.2019
5243 Rain 4 1020 86 11265 3.1 120 23:38 29.12.2019
5244 Rain 4 1020 86 11265 3.1 120 23:38 29.12.2019
5245 Rain 4 1021 80 12874 2.1 40 23:19 29.12.2019
5246 Drizzle 5 1021 80 11265 5.85 110 22:41 29.12.2019
5247 Drizzle 5 1021 80 11265 5.85 110 22:41 29.12.2019
5248 Drizzle 5 1021 80 11265 5.85 110 22:22 29.12.2019
5249 Rain 5 1021 80 14484 4.6 40 21:57 29.12.2019
5250 Drizzle 5 1021 70 16093 5.85 110 21:39 29.12.2019
5251 Rain 5 1022 60 14484 2.1 0 21:20 29.12.2019
5252 Clouds 5 1022 60 14484 2.1 0 20:57 29.12.2019
5253 Clouds 5 1022 56 16093 6.31 104 20:38 29.12.2019
5254 Clouds 5 1022 56 16093 5.1 104 20:20 29.12.2019
5255 Rain 6 1021 65 16093 4.1 50 19:58 29.12.2019
5256 Clouds 6 1022 70 0 3.6 50 19:39 29.12.2019
5257 Clouds 6 1023 56 16093 2.1 70 19:20 29.12.2019
5258 Rain 6 1022 65 16093 3.1 50 18:56 29.12.2019
5259 Clouds 6 1023 52 16093 5.2 115 18:38 29.12.2019
5260 Clouds 6 1024 56 16093 1.5 0 18:19 29.12.2019
5261 Clouds 6 1023 65 16093 4.6 40 17:57 29.12.2019
5262 Clouds 6 1024 56 16093 3.6 60 17:39 29.12.2019
5263 Clear 5 1025 56 16093 2.1 0 17:20 29.12.2019
5264 Clouds 5 1024 65 16093 3.6 60 16:56 29.12.2019
5265 Clear 5 1025 68 16093 4.58 73 16:37 29.12.2019
5266 Clear 5 1025 68 16093 4.58 73 16:19 29.12.2019
5267 Clouds 4 1025 64 16093 4.6 60 15:57 29.12.2019
5268 Clouds 4 1025 70 0 4.1 60 15:38 29.12.2019
5269 Clouds 3 1025 60 14484 4.1 90 15:19 29.12.2019
5270 Clouds 3 1025 69 16093 4.1 50 14:57 29.12.2019
5271 Clouds 3 1024 68 16093 4.58 73 14:38 29.12.2019
5272 Clouds 1 1024 80 16093 2.12 316 14:18 29.12.2019
5273 Clouds 1 1024 63 16093 2.12 316 13:57 29.12.2019
5274 Clouds 1 1024 62 16093 1.78 328 13:38 29.12.2019
5275 Clouds 1 1024 62 16093 1.78 328 13:19 29.12.2019
5276 Clear 0 1024 80 16093 1.78 328 12:45 29.12.2019
5277 Clear 0 1024 80 16093 1.78 328 12:27 29.12.2019
5278 Clouds 0 1023 69 16093 2.1 70 11:58 29.12.2019
5279 Clouds 0 1023 80 16093 1.78 328 11:39 29.12.2019
5280 Clouds 1 1023 74 16093 4.24 307 11:20 29.12.2019
5281 Clouds 1 1022 65 16093 4.24 307 10:55 29.12.2019
5282 Clouds 1 1023 67 16093 4.24 307 10:37 29.12.2019
5283 Clouds 1 1023 67 16093 4.24 307 10:18 29.12.2019
5284 Clouds 1 1024 80 16093 4.24 307 09:41 29.12.2019
5285 Clouds 1 1024 80 16093 4.24 307 09:22 29.12.2019
5286 Clouds 1 1023 80 16093 4.24 307 08:48 29.12.2019
5287 Clouds 1 1023 80 16093 3.73 307 08:28 29.12.2019
5288 Clouds 2 1023 80 16093 5.04 320 07:57 29.12.2019
5289 Clear 2 1024 74 16093 5.04 320 07:29 29.12.2019
5290 Clear 2 1024 74 16093 5.04 320 07:29 29.12.2019
5291 Clouds 2 1024 65 16093 3.1 310 06:57 29.12.2019
5292 Clear 2 1024 80 16093 5.04 320 06:26 29.12.2019
5293 Clear 3 1024 69 16093 5.04 320 05:54 29.12.2019
5294 Clear 3 1024 60 16093 5.42 315 04:37 29.12.2019
5295 Clouds 3 1024 52 16093 4.6 320 03:59 29.12.2019
5296 Clear 4 1025 52 16093 5.42 315 03:21 29.12.2019
5297 Clear 5 1024 49 16093 5.62 357 02:21 29.12.2019
5298 Clear 5 1024 72 16093 5.62 357 01:42 29.12.2019
5299 Clear 5 1024 49 16093 4.9 348 01:22 29.12.2019
5300 Clear 5 1023 68 16093 4.9 348 00:42 29.12.2019
5301 Clear 5 1023 68 16093 4.9 348 00:24 29.12.2019
5302 Clear 6 1023 68 16093 4.9 348 23:45 28.12.2019
5303 Clear 7 1024 49 16093 1.5 0 23:18 28.12.2019
5304 Clouds 8 1023 49 16093 3.1 340 22:54 28.12.2019
5305 Clear 8 1023 67 16093 4.08 300 22:36 28.12.2019
5306 Clear 9 1024 49 16093 2.6 0 22:18 28.12.2019
5307 Clouds 9 1023 57 16093 3.1 260 21:55 28.12.2019
5308 Clear 9 1023 67 16093 3.1 320 21:36 28.12.2019
5309 Clear 10 1023 46 16093 2.6 260 21:18 28.12.2019
5310 Clear 10 1022 67 16093 3.6 320 20:38 28.12.2019
5311 Clear 10 1022 71 16093 3.6 320 20:20 28.12.2019
5312 Clear 10 1023 46 16093 2.1 0 19:59 28.12.2019
5313 Clear 10 1022 53 16093 4.6 310 19:40 28.12.2019
5314 Clear 10 1023 49 16093 3.6 300 19:22 28.12.2019
5315 Clouds 10 1022 69 16093 5.7 320 18:59 28.12.2019
5316 Clear 9 1023 53 16093 4.6 310 18:40 28.12.2019
5317 Clear 9 1023 49 16093 3.6 290 18:20 28.12.2019
5318 Clouds 9 1023 69 16093 6.2 320 17:57 28.12.2019
5319 Clear 9 1023 66 16093 3.6 330 17:38 28.12.2019
5320 Clear 9 1024 57 16093 2.6 0 17:19 28.12.2019
5321 Clear 8 1024 75 16093 3.6 320 16:47 28.12.2019
5322 Clear 8 1024 75 16093 3.6 320 16:26 28.12.2019
5323 Clouds 8 1023 61 16093 5.1 320 15:57 28.12.2019
5324 Clear 7 1024 93 11265 4.65 321 15:39 28.12.2019
5325 Clear 7 1024 75 0 2.1 0 15:19 28.12.2019
5326 Mist 6 1024 93 6437 4.65 321 14:44 28.12.2019
5327 Mist 5 1024 93 6437 6.71 315 14:24 28.12.2019
5328 Mist 5 1023 100 8047 3.6 270 13:57 28.12.2019
5329 Mist 5 1023 87 8047 2.1 290 13:38 28.12.2019
5330 Clear 5 1023 81 11265 2.6 270 13:19 28.12.2019
5331 Clouds 4 1022 93 0 3.1 250 12:44 28.12.2019
5332 Clouds 4 1022 93 0 3.1 250 12:44 28.12.2019
5333 Clouds 4 1022 93 0 3.1 250 12:25 28.12.2019
5334 Mist 4 1022 87 9656 3.1 0 11:59 28.12.2019
5335 Fog 4 1021 93 805 6.52 316 11:39 28.12.2019
5336 Mist 5 1020 100 4828 3.81 307 11:20 28.12.2019
5337 Mist 5 1021 93 4828 3.81 307 10:46 28.12.2019
5338 Mist 5 1021 93 4828 3.81 307 10:23 28.12.2019
5339 Mist 5 1021 87 8047 1.5 310 09:58 28.12.2019
5340 Mist 5 1020 100 2816 3.81 307 09:40 28.12.2019
5341 Mist 5 1021 87 9656 1.5 0 09:21 28.12.2019
5342 Mist 5 1021 93 8047 3.81 307 08:45 28.12.2019
5343 Mist 5 1021 93 8047 3.91 308 08:27 28.12.2019
5344 Clouds 6 1020 81 12874 2.6 310 07:59 28.12.2019
5345 Mist 6 1020 93 4828 4.32 285 07:39 28.12.2019
5346 Clouds 6 1020 81 12874 2.6 310 06:55 28.12.2019
5347 Clear 7 1021 87 16093 4.32 285 05:40 28.12.2019
5348 Clear 8 1021 81 16093 5.54 260 03:48 28.12.2019
5349 Clouds 8 1020 71 16093 3.1 250 02:50 28.12.2019
5350 Clear 9 1021 81 0 3.6 260 02:20 28.12.2019
5351 Rain 9 1020 66 16093 5.7 270 01:53 28.12.2019
5352 Rain 9 1021 81 16093 2.1 280 01:22 28.12.2019
5353 Clear 9 1021 76 16093 5.36 257 00:42 28.12.2019
5354 Clouds 9 1021 71 0 3.1 260 00:23 28.12.2019
5355 Clear 9 1021 76 16093 5.36 257 00:23 28.12.2019
5356 Rain 9 1020 66 16093 5.1 240 23:56 27.12.2019
5357 Rain 9 1021 76 16093 5.36 257 23:36 27.12.2019
5358 Clouds 10 1021 66 16093 2.1 280 23:18 27.12.2019
5359 Clouds 11 1021 66 16093 4.87 257 22:55 27.12.2019
5360 Clouds 11 1021 66 16093 4.87 257 22:37 27.12.2019
5361 Clouds 11 1021 66 16093 4.87 257 22:19 27.12.2019
5362 Clouds 11 1021 66 16093 4.87 257 21:41 27.12.2019
5363 Clouds 11 1021 66 16093 2.6 220 21:23 27.12.2019
5364 Clouds 11 1021 66 16093 4.87 257 20:44 27.12.2019
5365 Clouds 11 1021 71 0 3.6 250 20:26 27.12.2019
5366 Rain 11 1021 81 16093 3.6 200 19:57 27.12.2019
5367 Rain 11 1021 81 16093 3.6 200 19:57 27.12.2019
5368 Rain 11 1022 66 16093 5.07 229 19:38 27.12.2019
5369 Rain 11 1022 66 16093 5.07 229 19:38 27.12.2019
5370 Rain 11 1022 66 16093 2.1 240 19:19 27.12.2019
5371 Rain 11 1022 76 0 3.1 250 18:55 27.12.2019
5372 Clouds 11 1023 71 16093 4.1 230 18:36 27.12.2019
5373 Clouds 11 1024 71 16093 3.6 230 18:18 27.12.2019
5374 Clouds 10 1024 71 16093 2.6 250 17:42 27.12.2019
5375 Clouds 10 1025 66 16093 5.01 203 17:20 27.12.2019
5376 Clouds 10 1024 62 16093 5.7 210 16:59 27.12.2019
5377 Clouds 9 1025 71 16093 6.2 220 16:41 27.12.2019
5378 Clouds 9 1026 71 16093 5.01 203 16:22 27.12.2019
5379 Clouds 9 1025 62 16093 6.2 210 15:57 27.12.2019
5380 Clouds 8 1026 76 16093 3.1 190 15:37 27.12.2019
5381 Clouds 8 1026 71 16093 2.1 0 15:19 27.12.2019
5382 Clouds 7 1026 66 16093 4.6 210 14:55 27.12.2019
5383 Clouds 7 1026 81 16093 5.01 203 14:37 27.12.2019
5384 Clouds 7 1026 81 16093 5.35 172 14:19 27.12.2019
5385 Clouds 6 1026 81 16093 5.94 169 13:46 27.12.2019
5386 Clouds 6 1026 81 16093 5.94 169 13:23 27.12.2019
5387 Clouds 6 1027 93 16093 3.1 190 12:49 27.12.2019
5388 Clouds 6 1026 81 12874 5.94 169 12:29 27.12.2019
5389 Clouds 6 1026 70 16093 3.1 190 11:59 27.12.2019
5390 Clouds 6 1027 76 16093 2.1 160 11:41 27.12.2019
5391 Clouds 6 1027 76 16093 3.1 150 11:20 27.12.2019
5392 Clouds 6 1027 87 16093 6.36 152 10:47 27.12.2019
5393 Clouds 6 1027 87 0 2.1 180 10:24 27.12.2019
5394 Clouds 6 1027 87 16093 2.6 50 09:59 27.12.2019
5395 Clouds 6 1027 81 16093 3.6 150 09:39 27.12.2019
5396 Clouds 6 1027 87 16093 6.36 152 09:21 27.12.2019
5397 Clouds 6 1028 87 16093 4.1 150 08:49 27.12.2019
5398 Clouds 6 1027 81 16093 6.36 152 08:30 27.12.2019
5399 Clouds 6 1028 81 16093 6.36 141 07:49 27.12.2019
5400 Clouds 6 1028 81 16093 6.36 141 07:28 27.12.2019
5401 Clouds 6 1028 81 16093 1.5 10 06:36 27.12.2019
5402 Clouds 6 1029 75 16093 3.1 0 04:58 27.12.2019
5403 Clouds 6 1029 81 16093 7.06 116 02:49 27.12.2019
5404 Clouds 5 1028 75 16093 3.6 40 01:59 27.12.2019
5405 Clouds 5 1029 75 16093 3.1 50 01:24 27.12.2019
5406 Clouds 5 1028 81 16093 4.1 40 00:54 27.12.2019
5407 Clouds 5 1029 81 16093 3.1 50 00:34 27.12.2019
5408 Clouds 5 1028 81 0 3.6 50 23:59 26.12.2019
5409 Clouds 5 1028 81 16093 3.1 30 23:41 26.12.2019
5410 Clouds 5 1028 75 16093 3.35 36 23:21 26.12.2019
5411 Clouds 5 1028 81 0 4.1 50 22:45 26.12.2019
5412 Clouds 6 1028 81 0 4.1 50 22:22 26.12.2019
5413 Clouds 6 1028 75 16093 3.1 30 21:59 26.12.2019
5414 Clouds 6 1027 75 14484 4.1 20 21:38 26.12.2019
5415 Clouds 6 1028 80 12874 4.6 60 21:20 26.12.2019
5416 Clouds 6 1027 80 14484 4.6 50 20:46 26.12.2019
5417 Clouds 6 1027 75 14484 3.1 50 20:23 26.12.2019
5418 Clouds 6 1027 75 14484 3.1 50 20:23 26.12.2019
5419 Clouds 6 1027 75 14484 3.1 0 19:59 26.12.2019
5420 Clouds 6 1026 70 16093 2.6 50 19:40 26.12.2019
5421 Clouds 6 1027 65 16093 4.21 42 19:21 26.12.2019
5422 Clouds 6 1027 80 16093 6.7 40 18:58 26.12.2019
5423 Clouds 6 1027 80 11265 2.6 50 18:39 26.12.2019
5424 Clouds 5 1027 70 16093 4.21 42 18:19 26.12.2019
5425 Clouds 5 1027 75 16093 4.21 42 17:55 26.12.2019
5426 Clouds 5 1027 75 16093 4.21 42 17:37 26.12.2019
5427 Clear 4 1027 81 0 4.6 40 17:18 26.12.2019
5428 Clouds 3 1027 80 11265 5.64 50 16:41 26.12.2019
5429 Clear 3 1027 86 0 4.6 50 16:22 26.12.2019
5430 Clouds 2 1027 86 16093 6.2 50 15:56 26.12.2019
5431 Mist 2 1027 86 8047 5.64 50 15:37 26.12.2019
5432 Mist 2 1027 86 8047 5.64 50 15:18 26.12.2019
5433 Mist 1 1027 93 4828 4.1 10 14:40 26.12.2019
5434 Clouds 0 1026 85 16093 3.4 45 14:21 26.12.2019
5435 Mist 0 1025 93 4828 3.1 50 13:43 26.12.2019
5436 Clouds 0 1025 93 0 3.6 70 13:21 26.12.2019
5437 Clouds 0 1025 93 0 3.6 70 13:21 26.12.2019
5438 Mist 0 1025 93 4023 2.6 70 12:58 26.12.2019
5439 Mist 0 1025 93 4023 2.6 70 12:58 26.12.2019
5440 Mist -1 1025 86 8047 2.6 50 12:39 26.12.2019
5441 Clouds -1 1024 86 16093 3.89 51 12:20 26.12.2019
5442 Fog -1 1024 93 201 2.6 30 11:57 26.12.2019
5443 Clouds -1 1024 82 16093 2.6 20 11:39 26.12.2019
5444 Mist -1 1024 86 9656 3.74 21 11:20 26.12.2019
5445 Clouds -1 1023 86 11265 2.1 30 10:47 26.12.2019
5446 Mist -1 1024 86 9656 1.5 20 10:19 26.12.2019
5447 Mist -1 1024 86 9656 1.5 20 10:19 26.12.2019
5448 Clouds -1 1023 93 11265 2.6 40 09:50 26.12.2019
5449 Clear -1 1023 78 16093 3.74 21 09:32 26.12.2019
5450 Mist -1 1023 93 9656 2.1 50 08:55 26.12.2019
5451 Clear -1 1023 86 16093 3.74 21 08:37 26.12.2019
5452 Clouds -1 1022 86 16093 2.1 40 08:18 26.12.2019
5453 Clear -1 1022 86 16093 1.86 290 07:31 26.12.2019
5454 Clouds 0 1022 86 11265 2.6 40 06:54 26.12.2019
5455 Clouds 0 1022 86 11265 2.6 40 06:54 26.12.2019
5456 Clear -1 1022 86 16093 1.86 290 06:32 26.12.2019
5457 Clear 0 1022 86 16093 1.86 290 05:46 26.12.2019
5458 Clouds -1 1022 86 12874 2.6 60 04:59 26.12.2019
5459 Clear 0 1022 71 16093 2.02 267 04:32 26.12.2019
5460 Clouds 0 1022 86 16093 2.02 267 03:19 26.12.2019
5461 Clouds 0 1022 86 16093 2.02 267 02:40 26.12.2019
5462 Clouds 0 1022 86 16093 2.23 205 02:19 26.12.2019
5463 Clear 1 1022 74 16093 2.23 205 01:41 26.12.2019
5464 Clear 1 1022 74 16093 2.23 205 01:22 26.12.2019
5465 Clear 2 1021 80 16093 1.88 188 00:41 26.12.2019
5466 Clouds 2 1021 70 16093 1.5 180 00:22 26.12.2019
5467 Clear 3 1021 70 16093 1.88 188 23:42 25.12.2019
5468 Clear 4 1021 68 16093 1.24 96 23:21 25.12.2019
5469 Clouds 4 1021 69 16093 3.1 70 22:59 25.12.2019
5470 Clear 5 1021 56 16093 1.24 96 22:40 25.12.2019
5471 Clear 5 1021 56 16093 1.24 96 22:22 25.12.2019
5472 Clear 5 1021 56 16093 1.24 96 22:22 25.12.2019
5473 Clouds 6 1021 65 16093 3.1 60 21:59 25.12.2019
5474 Clear 6 1021 49 16093 1.24 96 21:40 25.12.2019
5475 Clear 7 1021 52 0 1.24 96 21:22 25.12.2019
5476 Clouds 7 1021 56 16093 3.6 60 20:58 25.12.2019
5477 Clear 7 1021 52 16093 1.24 96 20:40 25.12.2019
5478 Clouds 7 1022 52 16093 2.6 240 20:18 25.12.2019
5479 Clouds 7 1021 56 16093 3.6 40 19:57 25.12.2019
5480 Clear 7 1022 52 16093 0.41 340 19:39 25.12.2019
5481 Clear 7 1022 52 0 2.1 250 19:21 25.12.2019
5482 Clear 6 1023 52 16093 0.41 340 18:39 25.12.2019
5483 Clear 6 1023 52 16093 0.41 340 18:20 25.12.2019
5484 Clear 5 1024 51 16093 0.41 340 17:57 25.12.2019
5485 Clear 5 1024 51 16093 0.41 340 17:36 25.12.2019
5486 Clear 4 1024 55 16093 1.5 0 17:18 25.12.2019
5487 Clear 3 1025 48 16093 2.45 21 16:39 25.12.2019
5488 Clear 3 1025 55 16093 2.1 60 16:20 25.12.2019
5489 Clouds 2 1024 55 16093 3.1 50 15:58 25.12.2019
5490 Clear 2 1024 55 16093 2.45 21 15:40 25.12.2019
5491 Clear 1 1024 55 16093 2.45 21 15:21 25.12.2019
5492 Clouds 1 1024 51 16093 3.1 50 14:59 25.12.2019
5493 Clear 0 1024 68 16093 2.45 21 14:40 25.12.2019
5494 Clear -3 1024 59 16093 3.5 28 14:22 25.12.2019
5495 Clouds -3 1024 55 16093 2.6 360 13:57 25.12.2019
5496 Clear -4 1024 68 16093 3.5 28 13:39 25.12.2019
5497 Clear -4 1024 68 16093 3.73 23 13:19 25.12.2019
5498 Clear -3 1023 68 16093 3.73 23 12:43 25.12.2019
5499 Clouds -3 1023 63 16093 1.5 20 12:21 25.12.2019
5500 Clouds -3 1023 55 16093 2.6 40 11:57 25.12.2019
5501 Clear -3 1023 58 16093 3.73 23 11:39 25.12.2019
5502 Clear -3 1023 50 16093 2.1 30 11:20 25.12.2019
5503 Clear -3 1023 62 16093 3.65 48 10:39 25.12.2019
5504 Clear -3 1023 47 16093 2.6 50 10:21 25.12.2019
5505 Clouds -2 1023 51 16093 2.1 40 09:51 25.12.2019
5506 Clear -2 1023 62 16093 3.65 48 09:33 25.12.2019
5507 Clouds -2 1022 51 16093 2.1 10 08:52 25.12.2019
5508 Clear -2 1023 50 16093 3.65 48 08:32 25.12.2019
5509 Clouds -2 1022 51 16093 2.6 20 07:59 25.12.2019
5510 Clear -2 1022 47 16093 3.6 50 07:40 25.12.2019
5511 Clear -1 1023 47 16093 1.5 40 07:21 25.12.2019
5512 Clear -1 1023 43 16093 4.09 45 06:24 25.12.2019
5513 Clear -1 1022 43 16093 4.09 45 05:44 25.12.2019
5514 Clear 0 1023 40 16093 4.6 50 04:40 25.12.2019
5515 Clear 1 1023 44 16093 5.39 22 04:20 25.12.2019
5516 Clear 1 1023 38 16093 3.1 40 03:43 25.12.2019
5517 Clear 2 1023 41 16093 5.39 22 02:57 25.12.2019
5518 Clear 2 1023 41 16093 5.39 22 02:28 25.12.2019
5519 Clear 2 1022 35 16093 6.46 19 01:42 25.12.2019
5520 Clouds 2 1022 41 16093 4.6 30 01:18 25.12.2019
5521 Clear 3 1022 30 16093 6.94 21 00:41 25.12.2019
5522 Clear 3 1022 30 16093 6.94 21 00:22 25.12.2019
5523 Clear 5 1021 30 16093 2.6 30 23:39 24.12.2019
5524 Clear 5 1022 35 16093 2.1 0 23:20 24.12.2019
5525 Clear 6 1021 31 16093 6.21 7 22:42 24.12.2019
5526 Clear 7 1021 31 16093 6.21 7 22:24 24.12.2019
5527 Clouds 7 1021 39 16093 4.6 360 21:59 24.12.2019
5528 Clear 8 1020 31 16093 4.1 60 21:41 24.12.2019
5529 Clear 8 1020 31 16093 4.1 60 21:20 24.12.2019
5530 Clear 8 1019 34 16093 1.5 20 20:42 24.12.2019
5531 Clear 8 1019 34 16093 1.5 20 20:23 24.12.2019
5532 Clouds 8 1019 39 16093 4.6 350 19:55 24.12.2019
5533 Clear 8 1020 34 16093 5.74 12 19:37 24.12.2019
5534 Clear 8 1020 39 16093 4.1 20 19:18 24.12.2019
5535 Clear 8 1020 36 16093 5.74 12 18:42 24.12.2019
5536 Clear 8 1021 42 16093 2.1 0 18:19 24.12.2019
5537 Clear 7 1021 45 16093 5.74 12 17:44 24.12.2019
5538 Clear 7 1021 48 16093 4.6 30 17:22 24.12.2019
5539 Clear 7 1021 48 16093 4.6 30 17:22 24.12.2019
5540 Clouds 7 1021 45 16093 4.6 20 16:58 24.12.2019
5541 Clear 6 1021 48 16093 5.7 60 16:40 24.12.2019
5542 Clear 6 1021 48 16093 5.7 60 16:21 24.12.2019
5543 Clear 6 1021 48 16093 5.7 60 16:21 24.12.2019
5544 Clouds 6 1021 48 16093 6.7 20 15:58 24.12.2019
5545 Clouds 6 1021 48 16093 6.7 20 15:58 24.12.2019
5546 Clear 5 1021 56 16093 4.6 70 15:37 24.12.2019
5547 Clear 5 1021 52 16093 3.1 0 15:19 24.12.2019
5548 Clouds 4 1021 52 16093 6.2 30 14:58 24.12.2019
5549 Clear 4 1019 62 16093 7.89 16 14:40 24.12.2019
5550 Clear 3 1019 81 16093 5.24 36 14:22 24.12.2019
5551 Clear 2 1019 81 16093 5.24 36 13:56 24.12.2019
5552 Clear 2 1019 81 16093 5.24 36 13:38 24.12.2019
5553 Clear 2 1019 60 16093 3.6 30 13:20 24.12.2019
5554 Clouds 2 1019 60 16093 2.6 10 12:57 24.12.2019
5555 Clear 3 1018 81 16093 5.04 37 12:38 24.12.2019
5556 Clouds 3 1018 81 16093 3.6 320 12:19 24.12.2019
5557 Clouds 3 1017 60 16093 4.1 20 11:57 24.12.2019
5558 Clear 3 1017 65 0 2.1 0 11:38 24.12.2019
5559 Clear 4 1017 56 16093 7.88 319 11:20 24.12.2019
5560 Clouds 3 1016 60 16093 1.5 40 10:57 24.12.2019
5561 Clouds 3 1016 60 16093 1.5 40 10:57 24.12.2019
5562 Clear 3 1016 65 16093 3.1 310 10:38 24.12.2019
5563 Clouds 3 1016 60 16093 5.1 300 10:20 24.12.2019
5564 Clouds 3 1016 69 16093 3.6 290 09:57 24.12.2019
5565 Clear 3 1016 64 16093 7.88 319 09:39 24.12.2019
5566 Clear 3 1016 64 16093 7.88 319 09:39 24.12.2019
5567 Clear 3 1016 64 16093 7.88 319 09:21 24.12.2019
5568 Clear 4 1015 60 16093 3.6 280 08:47 24.12.2019
5569 Clear 4 1015 60 16093 3.6 280 08:24 24.12.2019
5570 Clouds 4 1014 48 16093 2.6 220 07:59 24.12.2019
5571 Clear 4 1015 60 16093 6.51 282 07:39 24.12.2019
5572 Clear 4 1015 56 0 3.1 250 07:21 24.12.2019
5573 Clear 5 1015 60 16093 6.51 282 06:40 24.12.2019
5574 Clear 5 1015 60 16093 6.51 282 06:19 24.12.2019
5575 Clouds 5 1014 45 16093 3.1 220 05:53 24.12.2019
5576 Clear 5 1014 42 16093 2.6 220 05:19 24.12.2019
5577 Clear 5 1015 56 16093 7.57 265 04:21 24.12.2019
5578 Clear 5 1015 52 0 2.1 250 03:48 24.12.2019
5579 Clear 6 1015 49 16093 2.6 270 02:29 24.12.2019
5580 Clear 7 1016 49 16093 2.6 270 01:55 24.12.2019
5581 Clear 7 1016 42 16093 6.25 249 01:26 24.12.2019
5582 Clouds 7 1015 27 16093 4.6 240 00:58 24.12.2019
5583 Clear 7 1016 37 16093 6.25 249 00:40 24.12.2019
5584 Clear 8 1016 37 0 3.6 260 00:20 24.12.2019
5585 Clear 8 1016 32 16093 6.25 249 23:43 23.12.2019
5586 Clear 9 1016 32 16093 6.18 254 23:24 23.12.2019
5587 Clouds 9 1016 25 16093 5.7 230 22:57 23.12.2019
5588 Clear 10 1017 30 16093 6.18 254 22:38 23.12.2019
5589 Clear 10 1017 30 16093 4.1 220 22:20 23.12.2019
5590 Clouds 10 1016 27 16093 5.7 230 21:57 23.12.2019
5591 Clear 11 1018 28 16093 4.1 270 21:37 23.12.2019
5592 Clear 11 1018 37 0 4.6 270 21:19 23.12.2019
5593 Clouds 12 1017 32 16093 4.6 230 20:59 23.12.2019
5594 Clear 12 1017 28 16093 6.18 254 20:41 23.12.2019
5595 Clear 12 1017 33 16093 2.1 0 20:19 23.12.2019
5596 Clear 12 1017 33 16093 2.1 0 19:59 23.12.2019
5597 Clear 12 1017 35 16093 2.6 280 19:41 23.12.2019
5598 Clear 12 1017 35 16093 2.6 280 19:22 23.12.2019
5599 Clouds 12 1017 37 16093 2.1 250 18:58 23.12.2019
5600 Clouds 12 1017 37 16093 2.1 250 18:58 23.12.2019
5601 Clear 12 1019 40 16093 5.15 244 18:39 23.12.2019
5602 Clear 11 1019 43 14484 1.5 0 18:21 23.12.2019
5603 Clouds 11 1019 40 16093 3.1 210 17:59 23.12.2019
5604 Clear 10 1020 45 16093 5.15 244 17:40 23.12.2019
5605 Clear 8 1021 49 12874 3.6 240 17:20 23.12.2019
5606 Clear 8 1020 45 16093 6.09 254 17:20 23.12.2019
5607 Clouds 8 1020 49 16093 2.6 220 16:58 23.12.2019
5608 Clear 7 1021 52 16093 1.5 260 16:40 23.12.2019
5609 Clear 6 1021 52 16093 6.09 254 16:19 23.12.2019
5610 Clear 6 1021 52 14484 2.6 210 15:58 23.12.2019
5611 Clear 5 1022 64 16093 6.09 254 15:37 23.12.2019
5612 Clear 4 1022 64 16093 6.09 254 15:19 23.12.2019
5613 Clear 3 1022 74 16093 6.09 254 14:57 23.12.2019
5614 Clear 3 1022 74 16093 6.09 254 14:39 23.12.2019
5615 Clear 1 1022 74 16093 6.23 256 14:19 23.12.2019
5616 Clouds 1 1022 74 11265 3.1 210 14:19 23.12.2019
5617 Clear 0 1022 74 11265 6.23 256 13:57 23.12.2019
5618 Clear 0 1022 74 16093 6.31 251 13:39 23.12.2019
5619 Clear 0 1022 74 16093 6.23 256 13:39 23.12.2019
5620 Clear 0 1022 69 0 3.6 290 13:20 23.12.2019
5621 Clouds 0 1021 74 12874 3.1 220 13:20 23.12.2019
5622 Clouds 1 1021 64 14484 3.1 210 12:55 23.12.2019
5623 Clear 1 1022 74 16093 6.31 251 12:37 23.12.2019
5624 Clear 1 1022 74 16093 6.31 251 12:37 23.12.2019
5625 Clear 1 1022 74 0 2.1 250 12:18 23.12.2019
5626 Clear 1 1021 74 16093 6.31 251 11:43 23.12.2019
5627 Clear 1 1021 60 16093 5.96 256 11:25 23.12.2019
5628 Clear 1 1021 64 16093 5.96 256 10:56 23.12.2019
5629 Clear 1 1022 69 16093 5.96 256 10:38 23.12.2019
5630 Clouds 1 1021 74 16093 3.1 220 10:20 23.12.2019
5631 Clouds 1 1021 64 16093 2.1 200 09:58 23.12.2019
5632 Clear 1 1022 69 16093 5.96 256 09:39 23.12.2019
5633 Clouds 1 1022 69 16093 3.1 220 09:20 23.12.2019
5634 Clear 1 1021 60 14484 5.96 256 08:55 23.12.2019
5635 Clear 1 1022 69 16093 6.62 247 08:37 23.12.2019
5636 Clouds 1 1022 74 16093 3.1 210 08:18 23.12.2019
5637 Clear 1 1022 69 16093 6.27 264 07:43 23.12.2019
5638 Clear 2 1022 69 16093 6.27 264 07:20 23.12.2019
5639 Clear 2 1022 69 16093 6.27 264 06:51 23.12.2019
5640 Clear 2 1022 64 16093 6.27 264 06:24 23.12.2019
5641 Clear 2 1023 60 16093 6.27 264 05:49 23.12.2019
5642 Clear 2 1023 60 16093 7.88 262 05:22 23.12.2019
5643 Clear 3 1024 52 12874 1.5 0 04:20 23.12.2019
5644 Clouds 3 1023 48 16093 5.7 240 02:55 23.12.2019
5645 Clear 3 1024 56 16093 2.6 270 02:28 23.12.2019
5646 Clouds 3 1023 48 16093 6.2 240 01:56 23.12.2019
5647 Clear 3 1025 52 16093 2.1 270 01:38 23.12.2019
5648 Clear 3 1024 48 14484 3.1 230 01:19 23.12.2019
5649 Clear 3 1024 52 16093 7.55 252 00:36 23.12.2019
5650 Clouds 3 1023 48 16093 2.1 250 23:58 22.12.2019
5651 Clear 3 1024 52 16093 2.1 270 23:39 22.12.2019
5652 Clear 4 1024 52 16093 2.1 270 23:20 22.12.2019
5653 Clouds 5 1023 48 16093 1.5 230 22:58 22.12.2019
5654 Clear 6 1024 45 16093 6.57 263 22:39 22.12.2019
5655 Clear 7 1024 48 14484 6.57 263 22:19 22.12.2019
5656 Clear 7 1024 48 14484 6.57 263 21:57 22.12.2019
5657 Clear 7 1024 42 16093 3.6 280 21:39 22.12.2019
5658 Clear 7 1024 42 16093 3.6 280 21:21 22.12.2019
5659 Clouds 7 1024 42 14484 4.1 230 20:57 22.12.2019
5660 Clear 7 1025 45 16093 6.2 280 20:38 22.12.2019
5661 Clear 7 1025 45 16093 6.2 280 20:18 22.12.2019
5662 Clouds 7 1025 45 11265 4.1 230 19:55 22.12.2019
5663 Rain 7 1026 48 16093 3.1 270 19:37 22.12.2019
5664 Rain 6 1026 48 9656 2.1 0 19:19 22.12.2019
5665 Rain 6 1027 56 16093 4.6 280 18:40 22.12.2019
5666 Rain 6 1027 56 16093 4.6 280 18:40 22.12.2019
5667 Rain 6 1027 56 0 2.6 240 18:22 22.12.2019
5668 Rain 5 1026 52 12874 2.1 310 17:55 22.12.2019
5669 Clear 4 1027 55 16093 7.04 245 17:37 22.12.2019
5670 Rain 3 1027 55 9656 2.1 0 17:18 22.12.2019
5671 Rain 3 1027 55 9656 2.1 0 17:18 22.12.2019
5672 Clouds 2 1027 51 12874 3.1 220 16:57 22.12.2019
5673 Clear 2 1029 64 16093 5.75 265 16:38 22.12.2019
5674 Clear 1 1029 69 0 4.1 250 16:20 22.12.2019
5675 Clear 0 1029 68 16093 5.75 265 15:56 22.12.2019
5676 Clear 0 1029 68 16093 5.75 265 15:37 22.12.2019
5677 Haze -1 1029 67 9656 5.75 265 15:19 22.12.2019
5678 Clouds -1 1028 59 11265 3.1 220 14:55 22.12.2019
5679 Clear -2 1029 73 16093 5.75 265 14:36 22.12.2019
5680 Clear -4 1029 80 0 4.1 260 14:18 22.12.2019
5681 Clouds -5 1029 68 12874 3.6 200 13:55 22.12.2019
5682 Clouds -5 1029 68 12874 3.6 200 13:55 22.12.2019
5683 Clear -5 1029 79 16093 6.17 248 13:36 22.12.2019
5684 Clear -5 1029 63 12874 1.5 0 13:18 22.12.2019
5685 Clear -5 1029 63 12874 1.5 0 13:18 22.12.2019
5686 Clouds -5 1029 67 16093 1.5 210 12:55 22.12.2019
5687 Clear -5 1029 79 16093 5.93 247 12:37 22.12.2019
5688 Clear -5 1029 86 0 3.1 270 12:18 22.12.2019
5689 Clear -5 1029 63 12874 1.5 0 12:18 22.12.2019
5690 Clear -5 1028 63 16093 1.5 210 11:55 22.12.2019
5691 Clear -5 1029 73 16093 5.93 247 11:36 22.12.2019
5692 Clear -5 1029 62 12874 2.6 260 11:18 22.12.2019
5693 Clear -5 1028 62 16093 3.1 220 10:54 22.12.2019
5694 Clear -5 1030 85 16093 3.96 265 10:36 22.12.2019
5695 Clear -5 1030 62 0 3.1 270 10:18 22.12.2019
5696 Clear -5 1030 85 16093 3.96 265 09:41 22.12.2019
5697 Clear -5 1030 85 16093 3.96 265 09:22 22.12.2019
5698 Clear -4 1031 85 16093 3.96 265 08:59 22.12.2019
5699 Clear -4 1031 62 0 2.6 270 08:39 22.12.2019
5700 Clear -5 1031 69 0 2.6 270 08:21 22.12.2019
5701 Clear -4 1031 86 16093 5.03 255 07:40 22.12.2019
5702 Clear -4 1031 64 16093 1.5 250 07:21 22.12.2019
5703 Clear -4 1031 79 16093 5.03 255 06:41 22.12.2019
5704 Clouds -4 1031 69 16093 2.1 220 05:56 22.12.2019
5705 Clear -4 1032 74 16093 1.5 210 05:24 22.12.2019
5706 Clear -3 1032 74 16093 3.86 252 04:30 22.12.2019
5707 Clear -3 1033 80 16093 3.86 252 03:58 22.12.2019
5708 Clear -3 1033 74 0 2.6 240 02:43 22.12.2019
5709 Clear -2 1033 80 16093 2.14 180 01:54 22.12.2019
5710 Clear -2 1033 80 16093 2.74 204 01:31 22.12.2019
5711 Clouds -2 1033 80 16093 1.5 220 00:48 22.12.2019
5712 Clouds -1 1033 64 16093 2.1 0 00:26 22.12.2019
5713 Clouds -1 1033 59 16093 3.1 80 23:57 21.12.2019
5714 Clouds -1 1033 59 16093 2.74 204 23:39 21.12.2019
5715 Clouds -1 1033 64 16093 1.22 119 23:20 21.12.2019
5716 Clear 0 1033 64 16093 1.22 119 22:46 21.12.2019
5717 Clouds 0 1034 59 16093 1.5 300 22:20 21.12.2019
5718 Clouds 1 1033 59 16093 2.1 50 21:58 21.12.2019
5719 Clouds 1 1034 69 0 1.5 0 21:40 21.12.2019
5720 Clouds 1 1034 55 16093 1.5 0 21:21 21.12.2019
5721 Clouds 1 1034 55 16093 2.1 30 20:59 21.12.2019
5722 Clouds 1 1034 59 16093 1.22 119 20:41 21.12.2019
5723 Clouds 0 1035 55 16093 1.36 350 20:22 21.12.2019
5724 Clouds 0 1035 59 0 2.1 260 19:59 21.12.2019
5725 Clouds 0 1035 64 16093 1.36 350 19:41 21.12.2019
5726 Clouds 0 1035 64 16093 1.36 350 19:20 21.12.2019
5727 Clouds 0 1034 58 16093 1.5 90 18:59 21.12.2019
5728 Clouds 0 1035 54 16093 1.5 250 18:40 21.12.2019
5729 Clear -1 1036 64 16093 1.36 350 18:22 21.12.2019
5730 Clear -1 1037 54 16093 1.36 350 17:55 21.12.2019
5731 Clear -2 1037 54 16093 1.36 350 17:37 21.12.2019
5732 Clear -2 1038 63 0 1.5 0 17:18 21.12.2019
5733 Clouds -2 1038 63 16093 2.1 70 16:54 21.12.2019
5734 Clear -3 1039 54 16093 2.97 11 16:36 21.12.2019
5735 Clear -3 1039 54 16093 2.97 11 16:36 21.12.2019
5736 Clear -3 1038 63 16093 1.5 310 16:18 21.12.2019
5737 Clouds -4 1038 63 16093 2.1 30 15:54 21.12.2019
5738 Clear -4 1039 62 16093 2.97 11 15:36 21.12.2019
5739 Clouds -5 1038 58 16093 2.1 30 15:18 21.12.2019
5740 Clear -5 1038 73 16093 2.97 11 14:40 21.12.2019
5741 Clear -6 1038 73 16093 3.13 40 14:22 21.12.2019
5742 Clouds -7 1038 58 16093 1.5 360 13:57 21.12.2019
5743 Clear -7 1038 62 16093 2.1 360 13:39 21.12.2019
5744 Clear -7 1038 62 16093 2.1 360 13:19 21.12.2019
5745 Clear -7 1037 62 16093 3.22 37 12:56 21.12.2019
5746 Clear -7 1037 62 16093 3.22 37 12:38 21.12.2019
5747 Clear -7 1037 62 16093 3.22 37 12:38 21.12.2019
5748 Clouds -7 1037 67 16093 5.1 20 12:19 21.12.2019
5749 Clear -7 1037 92 16093 3.22 37 11:45 21.12.2019
5750 Clear -6 1038 58 16093 1.5 340 11:26 21.12.2019
5751 Clouds -6 1037 58 16093 3.1 10 10:57 21.12.2019
5752 Clear -6 1038 62 16093 4.43 12 10:39 21.12.2019
5753 Clear -6 1038 62 16093 4.43 12 10:21 21.12.2019
5754 Clouds -6 1037 58 16093 3.1 10 09:57 21.12.2019
5755 Clear -6 1038 62 16093 4.43 12 09:39 21.12.2019
5756 Clear -6 1038 57 16093 1.5 360 09:19 21.12.2019
5757 Clear -6 1038 62 16093 4.43 12 08:46 21.12.2019
5758 Clear -6 1038 62 16093 4.43 12 08:26 21.12.2019
5759 Clear -6 1038 62 16093 4.83 10 07:47 21.12.2019
5760 Clear -6 1037 53 16093 3.1 0 07:23 21.12.2019
5761 Clear -5 1038 58 16093 4.83 10 06:47 21.12.2019
5762 Clear -5 1038 58 16093 4.83 10 06:28 21.12.2019
5763 Clear -5 1038 53 16093 5.1 360 05:58 21.12.2019
5764 Clouds -5 1038 53 16093 4.6 360 04:59 21.12.2019
5765 Clear -4 1038 58 16093 5.4 353 04:33 21.12.2019
5766 Clouds -4 1037 50 16093 3.1 350 03:56 21.12.2019
5767 Clear -3 1037 63 16093 5.4 353 02:23 21.12.2019
5768 Clear -3 1037 58 16093 5.26 346 01:42 21.12.2019
5769 Clear -3 1037 58 16093 4.56 355 01:23 21.12.2019
5770 Clear -2 1037 50 16093 4.56 355 00:39 21.12.2019
5771 Clear -2 1036 58 16093 2.6 290 00:20 21.12.2019
5772 Clear -2 1036 58 16093 4.56 355 23:39 20.12.2019
5773 Clear -2 1036 55 16093 5.74 339 23:20 20.12.2019
5774 Clear -1 1036 47 16093 3.6 340 22:57 20.12.2019
5775 Clear -1 1036 55 16093 3.6 330 22:38 20.12.2019
5776 Clear -1 1035 55 16093 2.6 290 22:18 20.12.2019
5777 Clear 0 1035 40 16093 4.1 340 21:41 20.12.2019
5778 Clear 0 1035 55 16093 2.1 0 21:21 20.12.2019
5779 Clear 0 1034 40 16093 4.6 320 20:59 20.12.2019
5780 Clear 0 1035 40 16093 4.1 320 20:38 20.12.2019
5781 Clear 0 1035 40 16093 4.1 320 20:19 20.12.2019
5782 Clear 0 1034 40 16093 4.1 340 19:56 20.12.2019
5783 Clear 0 1035 51 16093 3.6 350 19:38 20.12.2019
5784 Clear -1 1034 42 16093 2.1 0 19:18 20.12.2019
5785 Clear -1 1035 42 16093 4.1 320 18:41 20.12.2019
5786 Clear -1 1035 42 16093 4.1 320 18:22 20.12.2019
5787 Clear -2 1034 42 16093 5.7 310 17:58 20.12.2019
5788 Clear -2 1035 42 16093 4.1 340 17:39 20.12.2019
5789 Clear -2 1035 42 16093 4.1 340 17:20 20.12.2019
5790 Clear -3 1035 63 16093 3.1 330 16:57 20.12.2019
5791 Clear -3 1035 46 16093 4.1 340 16:38 20.12.2019
5792 Clear -3 1035 46 16093 4.1 340 16:38 20.12.2019
5793 Clear -3 1035 46 16093 4.1 340 16:19 20.12.2019
5794 Clear -4 1035 53 16093 4.1 360 15:55 20.12.2019
5795 Clear -4 1035 53 16093 4.1 360 15:37 20.12.2019
5796 Clear -4 1035 58 16093 1.5 350 15:18 20.12.2019
5797 Clear -5 1034 62 16093 2.6 330 14:42 20.12.2019
5798 Clear -6 1034 62 16093 3.6 310 14:24 20.12.2019
5799 Clear -6 1034 62 16093 4.1 340 13:57 20.12.2019
5800 Clear -6 1034 62 16093 4.1 340 13:38 20.12.2019
5801 Clear -6 1034 62 16093 7.51 319 13:19 20.12.2019
5802 Clear -6 1034 85 16093 3.1 320 12:57 20.12.2019
5803 Clear -6 1033 68 0 3.1 260 12:37 20.12.2019
5804 Clear -6 1033 68 0 3.1 260 12:18 20.12.2019
5805 Clear -6 1033 67 16093 7.51 319 11:57 20.12.2019
5806 Clear -6 1033 67 16093 7.51 319 11:39 20.12.2019
5807 Clouds -6 1033 67 16093 7.59 307 11:18 20.12.2019
5808 Clouds -6 1033 67 16093 7.59 307 11:18 20.12.2019
5809 Clouds -6 1033 67 16093 7.59 307 10:56 20.12.2019
5810 Clouds -6 1033 67 16093 7.59 307 10:38 20.12.2019
5811 Clouds -6 1033 67 16093 7.59 307 10:19 20.12.2019
5812 Clear -6 1032 73 16093 7.59 307 09:43 20.12.2019
5813 Clear -6 1032 73 16093 7.59 307 09:21 20.12.2019
5814 Clear -6 1032 73 16093 7.59 307 08:57 20.12.2019
5815 Clear -6 1032 73 16093 7.9 307 08:38 20.12.2019
5816 Clear -6 1032 73 16093 7.95 300 08:20 20.12.2019
5817 Clear -6 1031 62 16093 7.95 300 07:57 20.12.2019
5818 Clear -6 1031 62 16093 7.95 300 07:57 20.12.2019
5819 Clouds -6 1031 68 0 4.6 260 07:38 20.12.2019
5820 Clouds -6 1031 68 0 4.6 260 07:18 20.12.2019
5821 Clouds -6 1031 62 16093 3.6 310 06:46 20.12.2019
5822 Clouds -6 1031 58 16093 4.6 290 06:28 20.12.2019
5823 Clouds -6 1031 62 16093 7.95 300 05:48 20.12.2019
5824 Clouds -6 1031 57 16093 3.1 290 05:20 20.12.2019
5825 Clouds -6 1031 57 16093 7.66 308 03:50 20.12.2019
5826 Clouds -6 1031 57 16093 7.66 308 03:21 20.12.2019
5827 Clouds -6 1031 57 16093 10.08 316 02:30 20.12.2019
5828 Clear -6 1030 57 16093 3.6 320 01:36 20.12.2019
5829 Rain -6 1030 53 16093 4.1 320 00:58 20.12.2019
5830 Rain -5 1030 53 16093 3.1 320 00:36 20.12.2019
5831 Rain -5 1029 53 16093 2.1 330 23:58 19.12.2019
5832 Rain -5 1029 53 16093 2.1 330 23:40 19.12.2019
5833 Rain -5 1029 53 16093 4.6 310 23:21 19.12.2019
5834 Rain -5 1029 53 16093 4.6 310 23:21 19.12.2019
5835 Clear -5 1029 49 16093 4.6 310 22:40 19.12.2019
5836 Clear -4 1029 49 16093 4.6 310 22:22 19.12.2019
5837 Clear -4 1029 49 16093 3.1 300 21:59 19.12.2019
5838 Clear -4 1029 49 16093 3.1 300 21:41 19.12.2019
5839 Clear -4 1028 49 16093 5.7 290 21:20 19.12.2019
5840 Clear -4 1028 45 16093 4.6 290 20:58 19.12.2019
5841 Clear -4 1028 45 16093 6.7 310 20:38 19.12.2019
5842 Clear -4 1028 45 16093 6.7 310 20:20 19.12.2019
5843 Clear -4 1028 45 16093 6.7 320 19:59 19.12.2019
5844 Clear -4 1028 45 16093 6.7 320 19:59 19.12.2019
5845 Clear -4 1028 49 16093 7.2 320 19:40 19.12.2019
5846 Clear -5 1028 49 16093 7.2 320 19:20 19.12.2019
5847 Clear -5 1028 49 16093 6.7 300 18:59 19.12.2019
5848 Clear -5 1028 49 16093 6.7 300 18:40 19.12.2019
5849 Clear -5 1028 45 16093 7.2 310 18:40 19.12.2019
5850 Clear -5 1028 45 16093 7.2 310 18:20 19.12.2019
5851 Clear -6 1028 53 16093 7.7 310 17:57 19.12.2019
5852 Clear -6 1028 53 16093 7.7 310 17:38 19.12.2019
5853 Clear -6 1028 53 16093 7.7 310 17:18 19.12.2019
5854 Clear -7 1029 48 16093 5.7 310 16:57 19.12.2019
5855 Clouds -7 1029 48 16093 6.2 310 16:38 19.12.2019
5856 Clouds -7 1029 48 16093 6.2 310 16:20 19.12.2019
5857 Clouds -7 1029 48 16093 6.2 310 16:20 19.12.2019
5858 Clear -7 1029 52 16093 6.7 320 15:58 19.12.2019
5859 Clear -8 1028 62 0 4.1 250 15:39 19.12.2019
5860 Clear -8 1028 62 0 4.1 250 15:19 19.12.2019
5861 Clear -8 1028 57 16093 5.1 320 14:57 19.12.2019
5862 Clear -9 1027 57 16093 6.2 300 14:39 19.12.2019
5863 Clear -9 1027 57 16093 6.2 300 14:18 19.12.2019
5864 Clear -9 1026 56 16093 8.2 320 13:54 19.12.2019
5865 Clear -9 1026 56 16093 5.7 320 13:36 19.12.2019
5866 Clear -9 1026 56 16093 5.7 320 13:18 19.12.2019
5867 Clouds -9 1026 72 16093 3.6 330 12:54 19.12.2019
5868 Clear -9 1025 56 16093 6.7 320 12:36 19.12.2019
5869 Clear -9 1025 56 16093 6.7 320 12:18 19.12.2019
5870 Clear -9 1025 56 16093 5.7 310 11:42 19.12.2019
5871 Clear -9 1025 56 16093 5.7 310 11:20 19.12.2019
5872 Clear -9 1025 56 16093 5.7 310 11:20 19.12.2019
5873 Clear -9 1025 56 16093 5.7 310 11:20 19.12.2019
5874 Clear -9 1024 52 16093 6.2 300 10:59 19.12.2019
5875 Clear -9 1024 56 16093 7.7 310 10:38 19.12.2019
5876 Clear -9 1024 56 16093 7.7 310 10:20 19.12.2019
5877 Clear -9 1023 52 16093 5.7 310 09:57 19.12.2019
5878 Clear -9 1023 48 16093 7.7 310 09:38 19.12.2019
5879 Clear -9 1023 48 16093 7.7 310 09:19 19.12.2019
5880 Clear -9 1022 52 16093 6.7 310 08:55 19.12.2019
5881 Clear -9 1022 52 16093 6.7 310 08:55 19.12.2019
5882 Clear -8 1022 52 16093 6.7 310 08:37 19.12.2019
5883 Clear -8 1022 52 16093 6.7 310 08:18 19.12.2019
5884 Clear -8 1021 44 16093 8.2 320 07:54 19.12.2019
5885 Clear -8 1021 44 16093 7.7 310 07:36 19.12.2019
5886 Clear -8 1021 44 16093 7.7 310 07:18 19.12.2019
5887 Clear -7 1020 44 16093 8.2 310 06:42 19.12.2019
5888 Clear -7 1020 44 16093 10.3 310 06:24 19.12.2019
5889 Clear -6 1019 53 16093 7.2 320 05:47 19.12.2019
5890 Snow -6 1018 73 9656 6.7 310 05:27 19.12.2019
5891 Snow -4 1016 68 4023 10.8 300 03:58 19.12.2019
5892 Rain -3 1015 80 0 1.5 0 02:30 19.12.2019
5893 Rain -2 1014 74 4828 6.2 290 01:43 19.12.2019
5894 Rain -2 1014 79 805 3.6 300 01:21 19.12.2019
5895 Rain -2 1013 74 16093 2.6 290 00:39 19.12.2019
5896 Rain -2 1013 74 16093 2.6 290 00:39 19.12.2019
5897 Rain -2 1013 74 16093 2.6 290 00:19 19.12.2019
5898 Rain -1 1013 74 16093 6.2 300 23:45 18.12.2019
5899 Rain -1 1013 54 0 2.6 0 23:19 18.12.2019
5900 Rain -1 1012 86 4828 4.1 240 22:58 18.12.2019
5901 Rain 0 1012 59 14484 8.7 270 22:40 18.12.2019
5902 Rain 0 1012 59 14484 8.7 270 22:22 18.12.2019
5903 Snow 0 1011 80 402 8.7 320 21:59 18.12.2019
5904 Snow 1 1011 80 402 8.7 320 21:41 18.12.2019
5905 Clouds 1 1011 64 16093 5.7 290 21:21 18.12.2019
5906 Clouds 1 1011 64 16093 5.7 290 21:21 18.12.2019
5907 Clouds 1 1011 64 0 4.1 300 20:58 18.12.2019
5908 Clouds 1 1011 64 0 4.1 300 20:39 18.12.2019
5909 Clear 1 1011 59 16093 6.7 310 20:20 18.12.2019
5910 Clouds 1 1010 69 0 6.2 270 19:57 18.12.2019
5911 Clouds 1 1010 69 0 6.7 260 19:39 18.12.2019
5912 Clouds 1 1010 69 0 6.7 260 19:19 18.12.2019
5913 Clouds 1 1010 64 16093 5.1 280 18:59 18.12.2019
5914 Clouds 1 1011 64 16093 6.7 300 18:41 18.12.2019
5915 Clouds 2 1011 64 16093 6.7 300 18:22 18.12.2019
5916 Clouds 2 1011 64 16093 3.1 0 17:56 18.12.2019
5917 Clouds 2 1011 64 16093 7.7 290 17:38 18.12.2019
5918 Clouds 2 1011 64 16093 7.7 290 17:19 18.12.2019
5919 Clear 1 1012 69 16093 5.7 280 16:43 18.12.2019
5920 Clear 1 1012 69 16093 5.7 280 16:24 18.12.2019
5921 Clear 1 1012 64 16093 4.1 280 15:59 18.12.2019
5922 Clear 0 1012 64 16093 4.1 280 15:40 18.12.2019
5923 Clear 0 1012 64 16093 3.6 270 15:21 18.12.2019
5924 Clear 0 1012 59 16093 6.2 270 14:58 18.12.2019
5925 Clear -1 1012 64 16093 4.1 290 14:40 18.12.2019
5926 Clear -1 1012 66 16093 4.1 280 14:19 18.12.2019
5927 Clear -2 1011 59 16093 6.2 290 13:56 18.12.2019
5928 Clear -2 1011 59 16093 6.2 290 13:56 18.12.2019
5929 Clear -2 1012 80 16093 8.98 310 13:37 18.12.2019
5930 Clear -2 1012 80 16093 8.5 306 13:19 18.12.2019
5931 Clouds -1 1011 64 16093 5.1 290 12:57 18.12.2019
5932 Clear -1 1012 80 16093 2.1 310 12:37 18.12.2019
5933 Clear -1 1011 67 16093 4.1 290 12:19 18.12.2019
5934 Clouds -1 1011 64 16093 7.7 310 11:54 18.12.2019
5935 Clear -1 1011 86 16093 4.1 300 11:36 18.12.2019
5936 Clouds -1 1011 80 16093 3.1 280 11:18 18.12.2019
5937 Clear -1 1010 73 16093 10.59 317 10:55 18.12.2019
5938 Clear -1 1010 73 16093 10.59 317 10:36 18.12.2019
5939 Clear -1 1010 69 16093 2.6 280 10:18 18.12.2019
5940 Clear -1 1010 73 16093 4.1 310 09:21 18.12.2019
5941 Clear 0 1010 73 16093 4.1 320 08:57 18.12.2019
5942 Clouds 0 1009 69 16093 3.6 300 08:39 18.12.2019
5943 Rain 0 1009 69 16093 5.1 320 08:21 18.12.2019
5944 Rain 0 1009 74 0 1.5 0 07:43 18.12.2019
5945 Clouds 0 1009 74 0 1.5 0 07:22 18.12.2019
5946 Clouds 0 1008 74 16093 7.7 320 06:53 18.12.2019
5947 Clouds 0 1008 74 16093 5.7 330 06:26 18.12.2019
5948 Clouds 1 1008 74 0 10.74 319 05:44 18.12.2019
5949 Clouds 1 1007 86 16093 3.6 320 04:46 18.12.2019
5950 Clouds 0 1006 80 16093 5.1 330 02:55 18.12.2019
5951 Clouds 0 1006 86 16093 2.1 330 02:36 18.12.2019
5952 Clouds 0 1006 86 16093 2.6 0 02:18 18.12.2019
5953 Rain 0 1006 94 16093 6.23 336 01:40 18.12.2019
5954 Rain 0 1006 94 16093 6.23 336 01:21 18.12.2019
5955 Rain 0 1006 86 16093 2.6 0 00:40 18.12.2019
5956 Rain 0 1006 86 16093 1.5 0 00:22 18.12.2019
5957 Rain 0 1006 80 11265 6.2 350 23:56 17.12.2019
5958 Rain 0 1006 94 11265 6.23 336 23:37 17.12.2019
5959 Rain 1 1005 86 9656 6.06 11 23:18 17.12.2019
5960 Rain 1 1005 86 9656 6.06 11 23:18 17.12.2019
5961 Rain 0 1006 86 8047 1.5 320 22:55 17.12.2019
5962 Rain 1 1006 86 8047 1.5 320 22:37 17.12.2019
5963 Rain 1 1005 86 6437 3.6 20 22:18 17.12.2019
5964 Rain 1 1005 86 3219 3.6 10 21:55 17.12.2019
5965 Rain 1 1005 86 11265 5.1 30 21:37 17.12.2019
5966 Rain 1 1005 86 2816 4.1 30 21:18 17.12.2019
5967 Rain 1 1005 86 6437 5.7 10 20:56 17.12.2019
5968 Rain 1 1005 97 8047 4.1 30 20:37 17.12.2019
5969 Rain 1 1005 86 2816 5.1 40 20:18 17.12.2019
5970 Rain 1 1005 80 4828 6.7 40 19:55 17.12.2019
5971 Rain 1 1006 86 4023 3.6 40 19:37 17.12.2019
5972 Rain 1 1006 97 9656 3.1 60 19:18 17.12.2019
5973 Rain 1 1008 97 6437 3.6 60 18:42 17.12.2019
5974 Rain 1 1008 97 6437 3.6 60 18:42 17.12.2019
5975 Rain 1 1007 93 0 7.2 30 18:22 17.12.2019
5976 Rain 1 1007 93 0 7.2 30 17:59 17.12.2019
5977 Rain 1 1008 93 0 7.7 30 17:41 17.12.2019
5978 Rain 1 1008 86 8047 2.6 20 17:19 17.12.2019
5979 Rain 1 1009 80 4828 7.7 60 16:56 17.12.2019
5980 Rain 1 1011 97 8047 5.1 60 16:38 17.12.2019
5981 Rain 1 1010 93 0 5.7 30 16:37 17.12.2019
5982 Rain 1 1011 93 0 8.7 30 16:19 17.12.2019
5983 Rain 1 1011 93 0 8.7 30 15:56 17.12.2019
5984 Rain 0 1011 97 6437 3.1 40 15:37 17.12.2019
5985 Rain 0 1011 86 4828 3.6 40 15:19 17.12.2019
5986 Rain 0 1012 97 4023 9.8 60 14:55 17.12.2019
5987 Rain 0 1012 97 2414 6.7 30 14:37 17.12.2019
5988 Rain 0 1012 93 0 9.8 30 14:18 17.12.2019
5989 Rain 0 1013 96 3219 3.6 50 14:18 17.12.2019
5990 Rain 0 1013 86 8047 8.2 60 13:55 17.12.2019
5991 Rain 0 1014 96 4828 4.6 70 13:37 17.12.2019
5992 Rain 0 1014 96 6437 5.7 60 13:18 17.12.2019
5993 Rain 0 1014 86 9656 9.3 60 12:55 17.12.2019
5994 Rain 0 1015 93 0 7.7 30 12:37 17.12.2019
5995 Rain 0 1015 96 9656 5.1 30 12:18 17.12.2019
5996 Rain 0 1015 86 11265 8.7 50 11:54 17.12.2019
5997 Drizzle 0 1015 86 6437 5.1 90 11:36 17.12.2019
5998 Rain 0 1015 95 0 6.2 40 11:18 17.12.2019
5999 Rain 0 1016 95 11265 5.1 40 10:54 17.12.2019
6000 Rain 0 1016 80 11265 7.2 70 10:36 17.12.2019
6001 Rain 0 1017 86 6437 2.6 0 10:18 17.12.2019
6002 Rain 0 1018 95 0 3.6 40 09:42 17.12.2019
6003 Rain 0 1018 95 0 3.6 40 09:21 17.12.2019
6004 Rain 0 1018 95 0 3.6 40 09:21 17.12.2019
6005 Rain 0 1017 80 16093 6.2 70 08:57 17.12.2019
6006 Rain 0 1018 86 9656 4.1 70 08:38 17.12.2019
6007 Rain 0 1018 86 9656 4.1 70 08:38 17.12.2019
6008 Rain 0 1019 86 6437 2.6 0 08:38 17.12.2019
6009 Rain 0 1019 86 6437 2.6 0 08:20 17.12.2019
6010 Rain 0 1019 80 12874 5.1 70 07:56 17.12.2019
6011 Rain 0 1020 86 6437 2.1 0 07:38 17.12.2019
6012 Rain 0 1020 80 8047 3.6 90 07:18 17.12.2019
6013 Rain 0 1020 86 6437 5.97 68 06:36 17.12.2019
6014 Rain 0 1021 80 0 4.1 30 06:18 17.12.2019
6015 Rain 0 1022 80 11265 2.1 120 05:38 17.12.2019
6016 Rain 1 1022 86 8047 3.68 65 04:46 17.12.2019
6017 Rain 1 1023 69 12874 3.68 65 02:48 17.12.2019
6018 Rain 1 1023 47 16093 2.1 80 01:58 17.12.2019
6019 Drizzle 1 1024 74 16093 2.04 125 01:21 17.12.2019
6020 Rain 1 1024 74 16093 2.04 125 00:39 17.12.2019
6021 Rain 1 1024 74 16093 2.04 125 00:39 17.12.2019
6022 Rain 1 1024 74 16093 2.04 125 00:21 17.12.2019
6023 Rain 1 1024 74 16093 2.04 125 23:43 16.12.2019
6024 Clouds 1 1024 51 16093 1.5 40 23:20 16.12.2019
6025 Clouds 1 1024 69 16093 0.96 346 22:58 16.12.2019
6026 Clouds 1 1024 69 16093 0.96 346 22:38 16.12.2019
6027 Clouds 1 1024 69 16093 0.96 346 22:38 16.12.2019
6028 Clouds 1 1024 51 16093 0.96 346 22:20 16.12.2019
6029 Clouds 1 1024 74 14484 0.96 346 21:57 16.12.2019
6030 Clouds 1 1025 64 0 1.5 220 21:39 16.12.2019
6031 Snow 1 1024 69 12874 2.1 300 21:20 16.12.2019
6032 Clouds 1 1024 47 16093 3.6 320 20:58 16.12.2019
6033 Snow 2 1025 64 16093 2.6 300 20:39 16.12.2019
6034 Clouds 2 1025 47 16093 0.49 224 20:19 16.12.2019
6035 Clouds 2 1025 47 16093 0.49 224 20:19 16.12.2019
6036 Clouds 2 1025 59 16093 0.49 224 19:57 16.12.2019
6037 Clouds 2 1025 59 16093 0.49 224 19:37 16.12.2019
6038 Clouds 2 1025 64 0 3.1 260 19:19 16.12.2019
6039 Clouds 2 1024 43 16093 2.1 310 18:59 16.12.2019
6040 Clouds 2 1025 55 16093 0.49 224 18:41 16.12.2019
6041 Snow 2 1025 43 16093 2.1 290 18:20 16.12.2019
6042 Clouds 1 1025 43 16093 2.6 330 17:59 16.12.2019
6043 Clouds 1 1026 43 16093 0.49 224 17:40 16.12.2019
6044 Clouds 1 1026 51 0 2.6 0 17:21 16.12.2019
6045 Clouds 1 1025 43 16093 2.6 340 16:57 16.12.2019
6046 Clouds 1 1026 43 16093 0.8 311 16:39 16.12.2019
6047 Clouds 1 1026 43 16093 2.6 300 16:20 16.12.2019
6048 Clouds 1 1026 43 16093 3.1 320 15:59 16.12.2019
6049 Clouds 1 1026 47 16093 0.8 311 15:39 16.12.2019
6050 Clouds 1 1026 47 0 2.6 250 15:21 16.12.2019
6051 Rain 1 1025 47 16093 0.8 311 14:57 16.12.2019
6052 Rain 1 1025 47 16093 0.8 311 14:37 16.12.2019
6053 Rain 1 1025 47 16093 0.8 311 14:37 16.12.2019
6054 Clouds 1 1025 43 16093 2.6 280 14:19 16.12.2019
6055 Clouds 0 1025 47 16093 4.1 320 13:56 16.12.2019
6056 Clouds 0 1025 50 16093 1.81 327 13:38 16.12.2019
6057 Clouds 0 1024 47 0 1.5 0 13:19 16.12.2019
6058 Clouds 0 1025 50 16093 1.37 290 13:19 16.12.2019
6059 Clouds 0 1024 47 16093 2.6 330 12:58 16.12.2019
6060 Clouds 0 1024 50 16093 1.4 358 12:39 16.12.2019
6061 Clouds 0 1024 47 16093 4.6 320 12:19 16.12.2019
6062 Clouds 0 1024 47 16093 5.7 300 11:58 16.12.2019
6063 Clouds 0 1024 55 16093 1.4 358 11:40 16.12.2019
6064 Clear 0 1024 47 16093 1.5 0 11:20 16.12.2019
6065 Clouds 0 1024 43 16093 4.6 310 10:57 16.12.2019
6066 Clouds 0 1024 55 16093 2.8 353 10:39 16.12.2019
6067 Clouds 0 1024 47 16093 2.6 0 10:19 16.12.2019
6068 Clear 0 1024 51 16093 2.8 353 09:45 16.12.2019
6069 Clear 0 1024 51 16093 2.8 353 09:27 16.12.2019
6070 Clear 0 1024 51 16093 2.77 324 09:27 16.12.2019
6071 Clear 1 1023 51 16093 2.6 320 08:56 16.12.2019
6072 Clear 1 1023 51 16093 2.6 320 08:37 16.12.2019
6073 Clear 1 1023 47 16093 4.1 310 08:18 16.12.2019
6074 Clouds 1 1022 55 16093 6.58 316 07:46 16.12.2019
6075 Clouds 1 1022 55 16093 6.58 316 07:28 16.12.2019
6076 Clear 2 1021 51 16093 3.6 290 06:45 16.12.2019
6077 Clouds 2 1022 47 16093 4.1 300 06:26 16.12.2019
6078 Clear 2 1022 55 16093 6.58 316 05:52 16.12.2019
6079 Clear 2 1022 55 16093 6.58 316 05:33 16.12.2019
6080 Clouds 2 1020 55 0 1.5 0 04:22 16.12.2019
6081 Clear 3 1019 48 16093 8.8 293 02:31 16.12.2019
6082 Clear 4 1018 48 16093 6.7 290 01:45 16.12.2019
6083 Clear 4 1018 48 16093 6.7 290 01:45 16.12.2019
6084 Clear 5 1018 44 16093 6.7 300 00:43 16.12.2019
6085 Clear 5 1018 44 16093 6.7 300 00:25 16.12.2019
6086 Clouds 5 1016 48 16093 7.2 300 23:59 15.12.2019
6087 Clouds 5 1016 48 16093 7.2 300 23:40 15.12.2019
6088 Clouds 5 1015 38 16093 4.6 270 23:21 15.12.2019
6089 Clouds 5 1015 41 16093 8.7 270 22:56 15.12.2019
6090 Clouds 5 1015 41 16093 8.7 270 22:56 15.12.2019
6091 Clouds 6 1014 45 16093 9.8 310 22:37 15.12.2019
6092 Clouds 6 1014 45 0 6.2 270 22:18 15.12.2019
6093 Clouds 6 1013 36 16093 13.9 280 21:56 15.12.2019
6094 Clouds 7 1013 45 16093 8.2 300 21:38 15.12.2019
6095 Clouds 7 1013 36 16093 6.7 280 21:19 15.12.2019
6096 Clouds 7 1012 39 16093 10.3 280 20:56 15.12.2019
6097 Clouds 7 1012 39 16093 10.3 310 20:37 15.12.2019
6098 Clouds 7 1011 36 16093 6.2 290 20:19 15.12.2019
6099 Clouds 7 1011 39 16093 9.8 300 19:57 15.12.2019
6100 Clouds 8 1011 39 16093 9.8 300 19:39 15.12.2019
6101 Clouds 8 1010 39 16093 5.7 270 19:18 15.12.2019
6102 Clouds 8 1009 36 16093 10.3 290 18:56 15.12.2019
6103 Clouds 8 1009 36 16093 10.3 290 18:56 15.12.2019
6104 Clouds 8 1009 49 16093 11.3 320 18:38 15.12.2019
6105 Clouds 8 1009 49 16093 11.3 320 18:38 15.12.2019
6106 Clouds 8 1009 45 0 5.7 280 18:18 15.12.2019
6107 Clouds 8 1009 45 0 5.7 280 17:56 15.12.2019
6108 Clouds 8 1009 58 16093 8.2 290 17:37 15.12.2019
6109 Clouds 8 1009 52 16093 3.1 240 17:19 15.12.2019
6110 Clouds 8 1008 49 16093 10.3 260 16:56 15.12.2019
6111 Clouds 8 1009 65 16093 7.7 290 16:38 15.12.2019
6112 Clouds 8 1008 52 16093 4.1 260 16:20 15.12.2019
6113 Clouds 7 1007 52 16093 11.3 260 15:55 15.12.2019
6114 Clouds 7 1008 65 16093 12.49 270 15:55 15.12.2019
6115 Clouds 7 1008 65 16093 12.49 270 15:36 15.12.2019
6116 Clouds 7 1007 56 16093 4.1 270 15:18 15.12.2019
6117 Clouds 7 1007 52 16093 9.8 260 14:55 15.12.2019
6118 Clouds 6 1007 65 16093 4.6 280 14:36 15.12.2019
6119 Clouds 6 1006 65 0 5.7 270 14:18 15.12.2019
6120 Clouds 6 1006 65 0 5.7 270 14:18 15.12.2019
6121 Clouds 6 1006 56 16093 8.2 260 13:55 15.12.2019
6122 Clouds 6 1006 69 16093 5.7 290 13:36 15.12.2019
6123 Clouds 6 1005 56 16093 4.1 240 13:18 15.12.2019
6124 Clouds 6 1005 56 16093 8.7 260 12:56 15.12.2019
6125 Clouds 6 1005 69 16093 5.1 290 12:37 15.12.2019
6126 Clouds 6 1004 60 16093 6.2 240 12:19 15.12.2019
6127 Clear 6 1003 69 16093 6.7 290 11:38 15.12.2019
6128 Clouds 6 1003 67 16093 2.1 0 11:20 15.12.2019
6129 Clouds 6 1002 56 16093 7.7 260 10:58 15.12.2019
6130 Clouds 6 1002 67 16093 7.2 290 10:40 15.12.2019
6131 Clouds 6 1001 70 16093 4.1 240 10:20 15.12.2019
6132 Clouds 6 1001 56 16093 6.7 260 09:59 15.12.2019
6133 Clouds 6 1001 67 16093 4.1 280 09:38 15.12.2019
6134 Clouds 6 1000 67 16093 2.1 0 09:20 15.12.2019
6135 Clouds 6 1000 56 16093 6.2 270 08:55 15.12.2019
6136 Clouds 6 1000 67 16093 7.2 290 08:37 15.12.2019
6137 Clouds 6 999 70 16093 5.7 270 08:19 15.12.2019
6138 Clouds 6 998 56 16093 9.3 270 07:53 15.12.2019
6139 Clear 6 998 70 16093 6.7 280 07:32 15.12.2019
6140 Clouds 6 996 65 16093 1.5 0 06:30 15.12.2019
6141 Clouds 6 996 65 16093 7.2 300 05:50 15.12.2019
6142 Clouds 7 995 65 16093 6.2 260 05:23 15.12.2019
6143 Clouds 7 995 70 0 8.2 270 04:24 15.12.2019
6144 Rain 9 993 70 16093 6.2 250 03:22 15.12.2019
6145 Clouds 9 993 76 16093 5.7 270 02:32 15.12.2019
6146 Clouds 10 991 81 16093 10.8 230 01:43 15.12.2019
6147 Rain 10 991 81 16093 9.33 236 01:20 15.12.2019
6148 Rain 10 990 76 16093 7.7 260 00:53 15.12.2019
6149 Rain 10 990 100 16093 9.8 250 00:34 15.12.2019
6150 Rain 11 989 81 16093 6.2 230 23:58 14.12.2019
6151 Rain 11 990 93 0 5.7 260 23:38 14.12.2019
6152 Rain 11 989 100 16093 4.1 240 23:18 14.12.2019
6153 Rain 12 988 93 4828 6.2 240 22:57 14.12.2019
6154 Rain 12 988 93 4828 7.7 230 22:39 14.12.2019
6155 Rain 12 988 100 1609 7.2 200 22:20 14.12.2019
6156 Rain 12 989 93 0 3.1 0 21:55 14.12.2019
6157 Rain 12 989 93 0 3.1 0 21:55 14.12.2019
6158 Rain 12 989 100 0 8.61 217 21:37 14.12.2019
6159 Rain 12 989 100 6437 2.6 160 21:18 14.12.2019
6160 Rain 12 988 93 1207 8.7 170 20:54 14.12.2019
6161 Rain 12 990 100 2414 3.1 0 20:36 14.12.2019
6162 Rain 12 991 100 1207 2.6 110 20:18 14.12.2019
6163 Rain 12 991 100 1207 2.6 110 20:18 14.12.2019
6164 Drizzle 12 991 100 1207 1.5 0 19:40 14.12.2019
6165 Rain 11 992 93 2414 4.31 160 19:21 14.12.2019
6166 Drizzle 11 991 93 1207 2.6 60 18:57 14.12.2019
6167 Rain 11 993 100 0 3.6 40 18:39 14.12.2019
6168 Rain 11 994 100 1609 4.31 160 18:21 14.12.2019
6169 Rain 11 995 93 2816 4.31 160 17:59 14.12.2019
6170 Rain 11 995 93 2816 4.31 160 17:41 14.12.2019
6171 Rain 11 996 100 2012 1.5 330 17:22 14.12.2019
6172 Rain 11 997 100 2816 1.5 350 16:42 14.12.2019
6173 Mist 10 997 100 2816 1.5 350 16:19 14.12.2019
6174 Drizzle 10 997 93 805 1.69 263 15:57 14.12.2019
6175 Rain 10 998 93 3219 1.69 263 15:38 14.12.2019
6176 Rain 10 998 100 3219 1.69 263 15:20 14.12.2019
6177 Rain 10 997 93 1207 2.6 60 14:57 14.12.2019
6178 Rain 10 998 100 1609 1.5 40 14:38 14.12.2019
6179 Rain 10 998 100 1609 1.5 40 14:38 14.12.2019
6180 Rain 10 999 93 2414 5.45 188 14:19 14.12.2019
6181 Rain 10 999 100 2414 1.5 20 13:44 14.12.2019
6182 Rain 10 999 100 0 2.86 345 13:20 14.12.2019
6183 Rain 10 999 100 0 1.5 120 12:58 14.12.2019
6184 Rain 10 1000 93 805 6.54 172 12:40 14.12.2019
6185 Rain 10 1000 100 805 2.6 130 12:21 14.12.2019
6186 Rain 10 1000 93 8047 6.54 172 11:59 14.12.2019
6187 Drizzle 10 1001 93 8047 3.1 50 11:39 14.12.2019
6188 Rain 10 1001 100 8047 2.6 360 11:20 14.12.2019
6189 Rain 10 1002 93 0 4.6 50 10:57 14.12.2019
6190 Rain 10 1002 93 0 5.1 50 10:39 14.12.2019
6191 Rain 10 1002 93 0 5.1 50 10:21 14.12.2019
6192 Rain 10 1003 93 3219 6.7 50 09:57 14.12.2019
6193 Drizzle 10 1004 93 8047 5.1 50 09:39 14.12.2019
6194 Rain 10 1005 93 4023 4.6 50 09:19 14.12.2019
6195 Rain 10 1004 93 6437 3.6 360 08:43 14.12.2019
6196 Rain 10 1007 93 2816 5.7 60 08:20 14.12.2019
6197 Rain 10 1006 100 4828 2.6 360 08:20 14.12.2019
6198 Rain 10 1008 93 2414 5.7 60 07:44 14.12.2019
6199 Rain 10 1008 93 2414 9.8 50 07:24 14.12.2019
6200 Rain 10 1009 93 4023 9.3 50 06:57 14.12.2019
6201 Rain 9 1011 93 3219 5.1 70 06:38 14.12.2019
6202 Rain 9 1012 93 2816 4.1 60 06:18 14.12.2019
6203 Rain 9 1015 93 4023 2.6 60 04:48 14.12.2019
6204 Rain 8 1018 100 0 6.7 40 02:41 14.12.2019
6205 Rain 8 1019 100 3219 4.1 20 02:19 14.12.2019
6206 Rain 8 1020 93 3219 3.6 60 01:37 14.12.2019
6207 Rain 7 1020 100 0 5.1 40 00:50 14.12.2019
6208 Rain 7 1021 93 2414 4.6 40 00:29 14.12.2019
6209 Rain 7 1021 93 2414 4.6 40 00:29 14.12.2019
6210 Rain 7 1021 93 2414 7.2 50 23:57 13.12.2019
6211 Rain 7 1022 93 0 6.7 50 23:38 13.12.2019
6212 Rain 6 1023 93 6437 4.6 50 23:19 13.12.2019
6213 Rain 6 1022 87 4828 6.2 60 22:55 13.12.2019
6214 Rain 6 1023 93 6437 4.6 60 22:36 13.12.2019
6215 Rain 6 1023 93 6437 4.6 60 22:36 13.12.2019
6216 Rain 6 1024 93 4023 2.6 0 22:18 13.12.2019
6217 Drizzle 6 1023 81 11265 6.66 124 21:39 13.12.2019
6218 Drizzle 6 1023 81 11265 6.66 124 21:21 13.12.2019
6219 Rain 6 1024 81 8047 6.7 40 20:55 13.12.2019
6220 Mist 6 1025 87 6437 2.6 60 20:37 13.12.2019
6221 Mist 6 1024 81 9656 2.1 50 20:19 13.12.2019
6222 Mist 6 1025 86 11265 5.5 132 19:56 13.12.2019
6223 Clouds 6 1025 70 16093 5.5 132 19:36 13.12.2019
6224 Clouds 6 1025 70 16093 5.5 132 19:18 13.12.2019
6225 Clouds 6 1027 70 16093 5.5 132 18:41 13.12.2019
6226 Clouds 6 1027 70 16093 5.5 132 18:19 13.12.2019
6227 Clouds 6 1027 89 16093 5.5 132 17:58 13.12.2019
6228 Clouds 6 1028 75 16093 5.5 132 17:39 13.12.2019
6229 Clouds 5 1028 75 16093 8.67 147 17:18 13.12.2019
6230 Clouds 5 1028 75 16093 8.67 147 17:18 13.12.2019
6231 Rain 5 1028 86 16093 2.6 40 16:55 13.12.2019
6232 Rain 4 1029 69 16093 8.67 147 16:37 13.12.2019
6233 Rain 4 1029 69 16093 8.67 147 16:18 13.12.2019
6234 Clouds 4 1030 74 16093 8.67 147 15:41 13.12.2019
6235 Clouds 3 1030 74 16093 8.67 147 15:21 13.12.2019
6236 Clouds 2 1031 74 16093 8.67 147 14:57 13.12.2019
6237 Clouds 2 1030 74 16093 8.67 147 14:37 13.12.2019
6238 Clouds 0 1030 74 16093 7.1 152 14:18 13.12.2019
6239 Clouds 0 1031 74 16093 3.1 10 13:43 13.12.2019
6240 Clouds 0 1031 74 16093 3.1 10 13:24 13.12.2019
6241 Clouds -1 1032 92 16093 7.28 144 12:55 13.12.2019
6242 Clear -1 1032 75 16093 7.28 144 12:37 13.12.2019
6243 Clear -1 1032 75 16093 7.28 144 12:18 13.12.2019
6244 Clouds -1 1032 69 16093 7.28 144 11:43 13.12.2019
6245 Clouds -1 1033 69 16093 6.61 169 11:25 13.12.2019
6246 Clouds -1 1033 69 16093 6.61 169 10:56 13.12.2019
6247 Clouds -1 1033 69 16093 6.61 169 10:38 13.12.2019
6248 Clouds -1 1033 64 16093 6.61 169 10:20 13.12.2019
6249 Clouds -2 1034 70 16093 6.61 169 09:42 13.12.2019
6250 Clouds -2 1034 70 16093 6.61 169 09:21 13.12.2019
6251 Clear -2 1035 70 16093 6.61 169 08:55 13.12.2019
6252 Clear -2 1035 68 16093 6.61 169 08:36 13.12.2019
6253 Clear -2 1035 68 16093 5.26 169 08:18 13.12.2019
6254 Clear -3 1035 68 16093 5.26 169 07:42 13.12.2019
6255 Clear -3 1036 68 16093 5.26 169 07:18 13.12.2019
6256 Clear -3 1037 63 16093 5.26 169 06:39 13.12.2019
6257 Clear -3 1037 63 16093 5.26 169 06:20 13.12.2019
6258 Clear -3 1038 62 16093 5.26 169 05:37 13.12.2019
6259 Clear -3 1038 55 16093 4.01 172 05:19 13.12.2019
6260 Clear -3 1039 58 16093 4.01 172 04:28 13.12.2019
6261 Clouds -2 1039 100 16093 4.01 172 02:56 13.12.2019
6262 Clear -2 1039 55 16093 4.01 172 02:30 13.12.2019
6263 Clear -2 1040 43 16093 3.22 147 01:38 13.12.2019
6264 Rain -2 1040 46 16093 3.52 144 00:51 13.12.2019
6265 Rain -2 1040 46 16093 3.52 144 00:28 13.12.2019
6266 Clouds -1 1040 79 16093 3.52 144 23:44 12.12.2019
6267 Clear -1 1040 46 16093 3.52 144 23:26 12.12.2019
6268 Clear -1 1040 40 16093 1.91 120 22:57 12.12.2019
6269 Clear 0 1040 37 16093 1.91 120 22:39 12.12.2019
6270 Clear 0 1040 37 16093 1.91 120 22:39 12.12.2019
6271 Clear 0 1040 37 16093 1.91 120 22:21 12.12.2019
6272 Clear 0 1040 37 16093 1.91 120 22:21 12.12.2019
6273 Clouds 1 1039 50 16093 1.91 120 21:56 12.12.2019
6274 Clear 1 1040 34 16093 1.91 120 21:37 12.12.2019
6275 Clear 1 1040 34 16093 1.91 120 21:19 12.12.2019
6276 Clear 1 1040 34 16093 1.91 120 21:19 12.12.2019
6277 Clouds 1 1039 43 16093 1.91 120 20:59 12.12.2019
6278 Clear 1 1040 29 0 3.1 260 20:40 12.12.2019
6279 Clear 1 1040 29 16093 1.72 16 20:22 12.12.2019
6280 Clouds 1 1040 43 16093 1.72 16 19:56 12.12.2019
6281 Clear 1 1040 40 16093 1.72 16 19:37 12.12.2019
6282 Clear 1 1040 40 16093 1.72 16 19:19 12.12.2019
6283 Clouds 1 1040 47 16093 2.1 10 18:56 12.12.2019
6284 Clear 1 1040 37 16093 1.72 16 18:38 12.12.2019
6285 Clear 0 1040 37 16093 1.72 16 18:19 12.12.2019
6286 Clouds 0 1040 38 16093 2.1 40 17:57 12.12.2019
6287 Clear 0 1042 38 16093 4.1 30 17:38 12.12.2019
6288 Clear -1 1042 48 16093 4.1 30 17:19 12.12.2019
6289 Clouds -1 1042 58 16093 3.1 340 16:55 12.12.2019
6290 Clear -1 1042 46 16093 4.5 360 16:37 12.12.2019
6291 Clear -1 1042 46 16093 4.5 360 16:18 12.12.2019
6292 Clear -2 1041 46 16093 4.5 360 15:54 12.12.2019
6293 Clear -2 1041 46 16093 4.5 360 15:54 12.12.2019
6294 Clear -2 1041 50 16093 2.1 350 15:36 12.12.2019
6295 Clear -2 1041 50 16093 2.1 350 15:18 12.12.2019
6296 Clear -3 1040 68 0 3.6 270 14:38 12.12.2019
6297 Clear -4 1040 68 0 3.6 270 14:20 12.12.2019
6298 Clear -4 1040 100 16093 7.19 342 13:57 12.12.2019
6299 Clear -4 1040 58 16093 7.19 342 13:39 12.12.2019
6300 Clear -4 1040 58 16093 7.26 345 13:21 12.12.2019
6301 Clear -4 1040 100 16093 1.5 320 12:57 12.12.2019
6302 Clear -4 1039 58 16093 7.26 345 12:39 12.12.2019
6303 Clear -4 1039 58 16093 7.26 345 12:20 12.12.2019
6304 Clear -4 1039 53 16093 7.26 345 11:56 12.12.2019
6305 Clear -4 1039 53 16093 7.26 345 11:37 12.12.2019
6306 Clear -4 1039 53 16093 7.89 336 11:19 12.12.2019
6307 Clear -3 1038 53 16093 7.89 336 10:55 12.12.2019
6308 Clear -4 1038 53 16093 7.89 336 10:55 12.12.2019
6309 Clear -3 1038 53 16093 7.89 336 10:37 12.12.2019
6310 Clear -3 1038 53 16093 7.89 336 10:19 12.12.2019
6311 Clear -3 1037 68 16093 2.1 290 09:42 12.12.2019
6312 Clear -3 1037 50 16093 7.89 336 09:24 12.12.2019
6313 Clear -3 1036 54 16093 7.89 336 08:58 12.12.2019
6314 Clear -2 1036 54 16093 7.89 336 08:40 12.12.2019
6315 Clear -2 1036 54 16093 9.37 319 08:22 12.12.2019
6316 Clear -2 1035 50 16093 9.37 319 07:47 12.12.2019
6317 Clear -2 1035 54 16093 2.1 310 07:25 12.12.2019
6318 Clear -2 1034 50 16093 5.1 320 06:55 12.12.2019
6319 Clear -1 1033 50 0 2.1 0 06:34 12.12.2019
6320 Clear -1 1032 50 16093 5.1 310 05:41 12.12.2019
6321 Clear -1 1032 53 16093 5.1 300 04:54 12.12.2019
6322 Clouds 0 1031 63 16093 3.6 290 03:50 12.12.2019
6323 Clear 0 1029 43 16093 6.7 290 02:40 12.12.2019
6324 Clear 0 1029 43 16093 6.7 290 02:21 12.12.2019
6325 Clear 0 1029 50 16093 4.6 290 01:46 12.12.2019
6326 Clear 1 1029 55 16093 5.1 290 01:28 12.12.2019
6327 Clear 1 1028 51 16093 4.1 290 00:47 12.12.2019
6328 Clear 1 1028 55 16093 2.1 280 00:20 12.12.2019
6329 Clear 1 1027 64 16093 9.84 281 23:45 11.12.2019
6330 Rain 1 1027 64 16093 8.78 254 23:21 11.12.2019
6331 Rain 1 1026 74 16093 4.6 230 22:58 11.12.2019
6332 Rain 2 1026 69 0 7.7 260 22:39 11.12.2019
6333 Rain 2 1025 69 16093 4.1 250 22:20 11.12.2019
6334 Rain 2 1025 80 16093 3.6 280 21:59 11.12.2019
6335 Rain 2 1025 69 16093 3.1 270 21:39 11.12.2019
6336 Rain 2 1025 69 16093 3.1 270 21:20 11.12.2019
6337 Rain 2 1025 74 0 4.6 250 20:57 11.12.2019
6338 Rain 2 1025 74 0 4.6 250 20:39 11.12.2019
6339 Rain 2 1025 69 16093 2.1 280 20:19 11.12.2019
6340 Rain 2 1025 69 0 3.1 240 19:59 11.12.2019
6341 Rain 2 1025 74 16093 2.6 300 19:40 11.12.2019
6342 Rain 2 1025 74 16093 2.6 300 19:40 11.12.2019
6343 Rain 2 1025 74 16093 2.6 300 19:21 11.12.2019
6344 Rain 1 1025 80 16093 2.92 284 18:58 11.12.2019
6345 Rain 1 1026 80 16093 1.5 290 18:39 11.12.2019
6346 Rain 1 1026 80 16093 1.5 290 18:18 11.12.2019
6347 Rain 1 1026 80 16093 2.92 284 17:55 11.12.2019
6348 Rain 1 1027 80 16093 2.92 284 17:37 11.12.2019
6349 Rain 1 1027 80 16093 3.93 4 17:18 11.12.2019
6350 Rain 0 1027 86 16093 3.93 4 16:55 11.12.2019
6351 Rain 0 1027 90 16093 3.93 4 16:36 11.12.2019
6352 Rain 0 1027 90 16093 3.93 4 16:18 11.12.2019
6353 Rain 0 1027 90 14484 3.93 4 15:55 11.12.2019
6354 Rain 0 1027 90 3219 3.93 4 15:36 11.12.2019
6355 Rain 0 1027 90 3219 3.93 4 15:18 11.12.2019
6356 Rain 0 1026 90 805 3.93 4 14:54 11.12.2019
6357 Rain 0 1026 80 2816 3.93 4 14:36 11.12.2019
6358 Rain 0 1026 80 2816 7.26 18 14:18 11.12.2019
6359 Rain 0 1025 86 9656 3.6 40 13:42 11.12.2019
6360 Rain 0 1025 86 9656 3.6 40 13:42 11.12.2019
6361 Rain 0 1025 86 6437 2.1 0 13:22 11.12.2019
6362 Rain 0 1024 92 16093 6.08 25 12:58 11.12.2019
6363 Rain 0 1023 100 12874 3.1 0 12:39 11.12.2019
6364 Rain 0 1023 100 12874 3.1 0 12:21 11.12.2019
6365 Rain 0 1023 100 12874 3.1 0 12:21 11.12.2019
6366 Rain 0 1023 92 2012 6.08 25 11:58 11.12.2019
6367 Rain 0 1022 86 1207 3.1 350 11:39 11.12.2019
6368 Rain 0 1022 86 3219 6.48 345 11:19 11.12.2019
6369 Rain 1 1022 100 2414 3.6 350 10:57 11.12.2019
6370 Rain 1 1022 86 2816 6.48 345 10:39 11.12.2019
6371 Rain 1 1022 86 2816 6.48 345 10:39 11.12.2019
6372 Rain 1 1022 86 2816 6.48 345 10:20 11.12.2019
6373 Rain 1 1022 86 2816 6.48 345 10:20 11.12.2019
6374 Rain 1 1022 86 4023 6.48 345 09:55 11.12.2019
6375 Rain 1 1021 86 11265 6.7 330 09:37 11.12.2019
6376 Rain 1 1022 86 8047 2.6 340 09:19 11.12.2019
6377 Rain 2 1021 86 16093 5.1 310 08:55 11.12.2019
6378 Rain 2 1021 93 11265 4.6 300 08:36 11.12.2019
6379 Rain 2 1021 93 11265 4.6 300 08:18 11.12.2019
6380 Rain 2 1020 86 0 1.5 0 07:42 11.12.2019
6381 Rain 2 1020 86 0 1.5 0 07:42 11.12.2019
6382 Rain 3 1020 93 12874 5.1 290 07:22 11.12.2019
6383 Rain 4 1020 80 0 7.06 331 06:46 11.12.2019
6384 Rain 4 1019 86 16093 4.1 310 06:24 11.12.2019
6385 Rain 4 1018 80 14484 6.7 300 05:53 11.12.2019
6386 Rain 4 1019 80 11265 6.2 320 05:28 11.12.2019
6387 Rain 5 1019 70 16093 8.7 310 04:48 11.12.2019
6388 Rain 8 1017 75 16093 7.7 310 03:19 11.12.2019
6389 Rain 9 1016 71 16093 6.2 320 02:31 11.12.2019
6390 Rain 11 1015 71 16093 5.1 290 01:21 11.12.2019
6391 Rain 11 1014 93 11265 8.82 292 00:37 11.12.2019
6392 Rain 12 1014 93 11265 8.82 292 00:18 11.12.2019
6393 Rain 12 1013 93 0 6.2 270 23:43 10.12.2019
6394 Rain 12 1012 87 0 4.1 270 23:22 10.12.2019
6395 Rain 12 1013 87 8047 4.6 230 22:56 10.12.2019
6396 Rain 12 1011 87 0 4.6 270 22:38 10.12.2019
6397 Rain 12 1011 87 0 4.6 270 22:20 10.12.2019
6398 Rain 12 1010 93 12874 1.5 220 21:54 10.12.2019
6399 Rain 12 1009 87 16093 5.78 243 21:36 10.12.2019
6400 Rain 12 1009 87 16093 5.78 243 21:18 10.12.2019
6401 Rain 13 1010 87 14484 5.1 230 20:55 10.12.2019
6402 Rain 13 1009 93 11265 5.78 243 20:36 10.12.2019
6403 Rain 13 1009 93 11265 6.55 242 20:18 10.12.2019
6404 Rain 13 1009 87 4828 2.1 0 19:42 10.12.2019
6405 Rain 13 1009 87 4828 2.1 0 19:24 10.12.2019
6406 Rain 13 1010 87 3219 3.6 240 18:57 10.12.2019
6407 Rain 13 1009 82 16093 3.1 270 18:39 10.12.2019
6408 Rain 13 1009 82 16093 3.1 270 18:19 10.12.2019
6409 Clouds 13 1009 87 16093 4.1 240 17:54 10.12.2019
6410 Clouds 13 1009 87 16093 4.1 240 17:54 10.12.2019
6411 Clouds 13 1009 82 16093 4.1 290 17:36 10.12.2019
6412 Clouds 13 1009 82 16093 4.1 290 17:18 10.12.2019
6413 Clouds 13 1010 82 16093 3.6 270 16:42 10.12.2019
6414 Clouds 13 1010 82 16093 3.6 270 16:20 10.12.2019
6415 Clouds 13 1010 82 16093 3.6 270 15:54 10.12.2019
6416 Rain 13 1010 82 16093 2.1 270 15:36 10.12.2019
6417 Rain 12 1010 82 16093 2.1 270 15:18 10.12.2019
6418 Clouds 12 1009 82 16093 2.6 270 14:42 10.12.2019
6419 Clouds 12 1009 82 16093 2.6 270 14:24 10.12.2019
6420 Clouds 12 1009 87 16093 5.7 230 13:59 10.12.2019
6421 Clouds 12 1008 87 16093 6.85 226 13:40 10.12.2019
6422 Clouds 12 1008 87 16093 8.6 220 13:20 10.12.2019
6423 Clouds 12 1009 82 16093 8.6 220 12:57 10.12.2019
6424 Clear 12 1008 82 16093 2.1 270 12:38 10.12.2019
6425 Clear 12 1008 82 16093 2.1 270 12:20 10.12.2019
6426 Clouds 12 1008 82 16093 8.6 220 11:41 10.12.2019
6427 Clouds 12 1008 82 16093 8.6 220 11:41 10.12.2019
6428 Clouds 12 1008 82 16093 8.31 223 11:23 10.12.2019
6429 Clouds 13 1008 82 16093 2.6 260 10:55 10.12.2019
6430 Clouds 13 1008 87 0 4.1 260 10:37 10.12.2019
6431 Clouds 13 1008 87 0 4.1 260 10:19 10.12.2019
6432 Clouds 13 1008 87 16093 6.7 230 09:54 10.12.2019
6433 Clouds 13 1007 87 16093 4.1 260 09:36 10.12.2019
6434 Clouds 13 1007 87 16093 4.1 260 09:18 10.12.2019
6435 Clouds 13 1007 87 16093 5.1 260 08:42 10.12.2019
6436 Clouds 12 1007 87 16093 3.1 270 08:23 10.12.2019
6437 Rain 12 1007 87 16093 3.6 270 07:58 10.12.2019
6438 Rain 12 1008 93 0 6.7 270 07:40 10.12.2019
6439 Rain 12 1008 93 0 6.7 270 07:22 10.12.2019
6440 Rain 12 1006 87 16093 5.7 220 06:46 10.12.2019
6441 Rain 12 1007 87 16093 4.6 270 06:19 10.12.2019
6442 Rain 12 1008 87 11265 5.1 260 05:53 10.12.2019
6443 Rain 12 1008 93 16093 4.1 260 04:52 10.12.2019
6444 Drizzle 12 1008 93 16093 3.6 260 03:37 10.12.2019
6445 Rain 11 1009 100 3219 8.7 200 02:45 10.12.2019
6446 Rain 11 1009 93 4828 8.13 192 01:44 10.12.2019
6447 Rain 11 1010 93 0 3.1 280 01:21 10.12.2019
6448 Rain 10 1011 93 4828 2.6 0 00:42 10.12.2019
6449 Rain 10 1011 93 4828 2.6 0 00:21 10.12.2019
6450 Rain 10 1012 100 0 2.1 280 23:42 09.12.2019
6451 Rain 10 1012 87 4828 3.1 0 23:23 09.12.2019
6452 Rain 10 1012 100 4828 5.1 200 22:58 09.12.2019
6453 Rain 10 1012 93 0 1.5 250 22:40 09.12.2019
6454 Rain 10 1012 93 0 1.5 250 22:20 09.12.2019
6455 Rain 10 1013 93 2816 1.5 0 21:57 09.12.2019
6456 Rain 10 1012 93 4023 4.1 170 21:38 09.12.2019
6457 Rain 10 1013 93 6437 3.1 180 21:19 09.12.2019
6458 Rain 10 1014 93 6437 5.1 200 20:57 09.12.2019
6459 Rain 10 1014 93 6437 5.1 200 20:57 09.12.2019
6460 Rain 10 1014 93 0 2.1 240 20:39 09.12.2019
6461 Rain 10 1015 93 0 4.1 280 20:20 09.12.2019
6462 Rain 10 1015 93 8047 11.77 189 19:56 09.12.2019
6463 Rain 10 1015 100 11265 11.77 189 19:38 09.12.2019
6464 Rain 10 1015 100 11265 11.77 189 19:19 09.12.2019
6465 Rain 10 1016 93 1609 11.77 189 18:58 09.12.2019
6466 Rain 10 1016 93 1609 11.77 189 18:39 09.12.2019
6467 Rain 10 1016 93 2414 1.5 280 18:20 09.12.2019
6468 Rain 9 1017 93 0 4.1 260 17:58 09.12.2019
6469 Rain 9 1017 93 4828 11.77 189 17:39 09.12.2019
6470 Rain 9 1017 93 4828 5.95 194 17:20 09.12.2019
6471 Drizzle 8 1017 100 1207 5.95 194 16:56 09.12.2019
6472 Rain 8 1018 100 2012 2.1 140 16:38 09.12.2019
6473 Rain 8 1018 100 2012 2.1 140 16:20 09.12.2019
6474 Rain 8 1018 93 1207 2.6 20 15:56 09.12.2019
6475 Rain 7 1019 100 1609 2.1 50 15:37 09.12.2019
6476 Rain 7 1019 100 1609 2.1 50 15:19 09.12.2019
6477 Rain 7 1020 93 1609 1.5 60 14:58 09.12.2019
6478 Rain 6 1019 93 1609 4.1 50 14:39 09.12.2019
6479 Rain 5 1020 100 0 5.1 40 14:18 09.12.2019
6480 Rain 5 1021 100 2414 2.6 60 13:55 09.12.2019
6481 Rain 5 1021 93 4023 5.32 176 13:36 09.12.2019
6482 Rain 5 1021 93 4023 5.32 176 13:18 09.12.2019
6483 Rain 5 1022 93 2414 2.1 50 12:54 09.12.2019
6484 Rain 4 1022 93 4023 2.6 40 12:36 09.12.2019
6485 Rain 4 1022 93 4023 2.6 40 12:18 09.12.2019
6486 Rain 4 1023 93 3219 5.32 176 11:40 09.12.2019
6487 Rain 4 1023 93 2414 3.61 207 11:22 09.12.2019
6488 Rain 4 1024 93 2414 1.5 360 10:59 09.12.2019
6489 Rain 4 1024 93 0 1.5 190 10:39 09.12.2019
6490 Rain 4 1024 93 0 1.5 190 10:19 09.12.2019
6491 Rain 4 1024 93 6437 3.61 207 09:45 09.12.2019
6492 Rain 4 1025 93 0 1.5 270 09:25 09.12.2019
6493 Rain 4 1025 87 0 4.1 280 08:57 09.12.2019
6494 Rain 4 1025 87 0 4.1 280 08:39 09.12.2019
6495 Drizzle 3 1026 86 6437 6.86 204 08:21 09.12.2019
6496 Drizzle 3 1026 86 8047 6.86 204 07:52 09.12.2019
6497 Drizzle 3 1026 80 8047 6.86 204 07:33 09.12.2019
6498 Drizzle 3 1026 80 8047 6.86 204 07:33 09.12.2019
6499 Rain 3 1027 70 6437 2.6 210 06:58 09.12.2019
6500 Rain 3 1027 80 12874 1.5 190 06:31 09.12.2019
6501 Clouds 3 1027 77 16093 6.86 204 05:48 09.12.2019
6502 Clouds 2 1028 77 16093 6.86 204 05:24 09.12.2019
6503 Clouds 2 1028 74 16093 7.83 200 04:28 09.12.2019
6504 Clear 2 1029 74 16093 7.83 200 02:35 09.12.2019
6505 Clear 2 1030 69 16093 6.6 201 01:47 09.12.2019
6506 Clear 2 1030 64 16093 6.89 202 01:23 09.12.2019
6507 Clear 2 1030 60 16093 6.89 202 00:34 09.12.2019
6508 Clear 3 1030 60 16093 6.89 202 23:58 08.12.2019
6509 Clear 3 1030 60 16093 6.89 202 23:37 08.12.2019
6510 Clear 3 1030 60 16093 7.03 187 23:19 08.12.2019
6511 Clear 4 1030 52 16093 2.1 180 22:56 08.12.2019
6512 Clear 4 1030 52 16093 7.03 187 22:38 08.12.2019
6513 Clear 4 1030 52 16093 7.03 187 22:18 08.12.2019
6514 Clear 4 1031 38 16093 3.6 200 21:57 08.12.2019
6515 Clear 4 1031 38 16093 4.1 200 21:38 08.12.2019
6516 Clear 5 1031 38 16093 4.1 200 21:19 08.12.2019
6517 Clear 5 1031 35 16093 7.03 187 20:56 08.12.2019
6518 Clear 4 1031 35 16093 6.81 195 20:38 08.12.2019
6519 Clear 4 1031 35 16093 6.32 189 20:19 08.12.2019
6520 Clouds 4 1031 44 16093 6.2 200 19:57 08.12.2019
6521 Clear 4 1032 35 16093 6.32 189 19:39 08.12.2019
6522 Clear 4 1032 35 16093 6.32 189 19:21 08.12.2019
6523 Clear 4 1033 41 16093 6.32 189 18:55 08.12.2019
6524 Clear 3 1033 41 16093 2.6 200 18:36 08.12.2019
6525 Clear 3 1033 41 16093 2.6 200 18:18 08.12.2019
6526 Clear 3 1034 47 16093 6.32 189 17:56 08.12.2019
6527 Clear 3 1034 51 16093 6.32 189 17:38 08.12.2019
6528 Clear 2 1034 51 16093 3.06 187 17:19 08.12.2019
6529 Clouds 1 1034 80 16093 3.06 187 16:55 08.12.2019
6530 Clear 1 1035 59 16093 3.06 187 16:37 08.12.2019
6531 Clear 0 1035 59 16093 3.06 187 16:19 08.12.2019
6532 Clear 0 1035 63 16093 3.06 187 15:54 08.12.2019
6533 Clear -1 1035 55 0 2.6 30 15:36 08.12.2019
6534 Clear -2 1035 55 0 2.6 30 15:18 08.12.2019
6535 Clear -3 1035 73 16093 3.06 187 14:40 08.12.2019
6536 Clear -3 1035 73 16093 3.06 187 14:40 08.12.2019
6537 Clear -5 1035 79 16093 0.18 49 14:22 08.12.2019
6538 Clear -6 1035 73 16093 0.18 49 13:57 08.12.2019
6539 Clear -7 1035 73 16093 0.18 49 13:38 08.12.2019
6540 Clear -7 1035 73 16093 0.65 185 13:20 08.12.2019
6541 Clouds -7 1035 100 16093 2.1 290 12:54 08.12.2019
6542 Clear -7 1034 73 16093 0.65 185 12:36 08.12.2019
6543 Clear -7 1034 68 16093 0.65 185 12:18 08.12.2019
6544 Clear -6 1034 73 16093 0.65 185 11:39 08.12.2019
6545 Clear -6 1034 68 16093 1.86 25 11:21 08.12.2019
6546 Clear -6 1034 73 16093 1.86 25 10:59 08.12.2019
6547 Clear -6 1034 68 16093 1.86 25 10:39 08.12.2019
6548 Clear -6 1034 68 16093 1.86 25 10:20 08.12.2019
6549 Clear -6 1034 68 16093 1.86 25 09:58 08.12.2019
6550 Clear -5 1034 63 16093 1.86 25 09:39 08.12.2019
6551 Clear -5 1034 63 16093 1.86 25 09:20 08.12.2019
6552 Clear -5 1034 63 16093 1.86 25 09:20 08.12.2019
6553 Clear -5 1034 63 16093 1.86 25 08:58 08.12.2019
6554 Clear -5 1034 63 16093 1.86 25 08:39 08.12.2019
6555 Clear -5 1034 63 16093 3.61 357 08:21 08.12.2019
6556 Clear -4 1034 54 0 2.1 0 07:44 08.12.2019
6557 Clear -4 1034 54 0 2.1 0 07:20 08.12.2019
6558 Clear -4 1034 58 16093 3.61 357 06:51 08.12.2019
6559 Clear -4 1034 54 16093 3.61 357 06:23 08.12.2019
6560 Clear -3 1034 54 16093 3.61 357 05:52 08.12.2019
6561 Clear -3 1034 54 16093 7.18 336 05:18 08.12.2019
6562 Clear -2 1033 92 16093 7.18 336 03:54 08.12.2019
6563 Clear -2 1033 57 16093 7.18 336 03:36 08.12.2019
6564 Clear -1 1033 57 16093 7.18 336 02:40 08.12.2019
6565 Clear -1 1032 59 16093 6.83 339 01:56 08.12.2019
6566 Clear -1 1032 59 16093 6.83 339 01:33 08.12.2019
6567 Clear 0 1031 47 16093 6.86 337 00:43 08.12.2019
6568 Clear 0 1031 43 16093 6.86 337 00:21 08.12.2019
6569 Clear 1 1030 40 16093 3.1 290 23:55 07.12.2019
6570 Clear 1 1030 40 16093 3.1 290 23:36 07.12.2019
6571 Clear 1 1030 40 16093 3.1 290 23:18 07.12.2019
6572 Clear 1 1030 40 16093 6.26 325 22:54 07.12.2019
6573 Clear 2 1029 37 16093 2.1 310 22:36 07.12.2019
6574 Clear 2 1029 37 16093 2.1 310 22:36 07.12.2019
6575 Clear 2 1029 37 16093 2.1 310 22:18 07.12.2019
6576 Clouds 3 1029 44 16093 3.6 330 21:54 07.12.2019
6577 Clear 3 1029 35 16093 5.7 310 21:36 07.12.2019
6578 Clear 3 1029 35 16093 5.7 310 21:18 07.12.2019
6579 Clear 3 1028 35 16093 4.6 350 20:37 07.12.2019
6580 Clear 3 1028 35 16093 4.6 350 20:19 07.12.2019
6581 Clear 3 1028 35 16093 4.1 320 19:57 07.12.2019
6582 Clear 3 1028 35 16093 4.1 320 19:57 07.12.2019
6583 Clear 3 1028 35 16093 4.6 310 19:39 07.12.2019
6584 Clear 3 1028 35 16093 4.6 310 19:21 07.12.2019
6585 Clear 3 1028 35 16093 4.6 340 18:58 07.12.2019
6586 Clear 3 1029 37 16093 3.6 330 18:39 07.12.2019
6587 Clear 3 1029 37 16093 3.6 330 18:18 07.12.2019
6588 Clear 3 1029 37 16093 4.6 350 17:55 07.12.2019
6589 Clear 2 1029 40 16093 5.7 330 17:37 07.12.2019
6590 Clear 2 1029 40 16093 5.7 330 17:18 07.12.2019
6591 Clear 2 1029 43 16093 5.7 320 16:55 07.12.2019
6592 Clear 2 1029 43 16093 4.6 340 16:36 07.12.2019
6593 Clear 2 1029 43 16093 4.6 340 16:18 07.12.2019
6594 Clear 1 1029 50 16093 4.6 340 15:40 07.12.2019
6595 Clear 1 1029 50 16093 2.6 330 15:22 07.12.2019
6596 Clear 0 1028 60 16093 6.63 328 14:43 07.12.2019
6597 Clear 0 1028 65 16093 8.02 330 14:20 07.12.2019
6598 Clear 0 1028 65 16093 8.02 330 13:59 07.12.2019
6599 Clear -1 1028 58 16093 7.44 328 13:39 07.12.2019
6600 Clear -1 1028 58 16093 7.44 328 13:20 07.12.2019
6601 Clear -1 1028 58 16093 7.44 328 13:20 07.12.2019
6602 Clouds -1 1027 74 16093 3.1 320 12:55 07.12.2019
6603 Clear -1 1027 64 16093 7.44 328 12:37 07.12.2019
6604 Clear -1 1027 64 16093 7.44 328 12:18 07.12.2019
6605 Clear 0 1026 64 16093 7.44 328 11:42 07.12.2019
6606 Clear 0 1026 62 16093 8.27 330 11:23 07.12.2019
6607 Clear 0 1025 62 16093 8.27 330 10:58 07.12.2019
6608 Clear 0 1025 47 16093 8.27 330 10:36 07.12.2019
6609 Clear 0 1023 58 16093 4.6 310 10:18 07.12.2019
6610 Clear 1 1024 50 16093 2.1 320 09:40 07.12.2019
6611 Clear 1 1024 50 16093 2.1 320 09:21 07.12.2019
6612 Clear 1 1024 50 16093 2.1 320 09:21 07.12.2019
6613 Clear 1 1024 55 16093 2.6 310 08:46 07.12.2019
6614 Clear 1 1023 55 16093 4.6 320 08:25 07.12.2019
6615 Clear 2 1023 51 16093 4.1 320 07:54 07.12.2019
6616 Clear 2 1023 51 16093 3.6 330 07:30 07.12.2019
6617 Clear 3 1022 51 16093 3.1 330 06:53 07.12.2019
6618 Clear 3 1022 51 16093 5.1 330 06:28 07.12.2019
6619 Clear 4 1021 51 16093 6.2 330 05:50 07.12.2019
6620 Clear 4 1020 51 16093 7.7 330 04:49 07.12.2019
6621 Clear 5 1019 56 16093 5.7 330 03:53 07.12.2019
6622 Clouds 7 1017 57 0 9.71 330 02:50 07.12.2019
6623 Clouds 7 1017 57 0 7.5 257 02:19 07.12.2019
6624 Clouds 8 1016 66 16093 4.6 290 01:31 07.12.2019
6625 Rain 8 1016 66 16093 1.5 290 00:43 07.12.2019
6626 Rain 8 1016 66 16093 1.5 290 00:19 07.12.2019
6627 Clouds 8 1015 66 16093 8.28 255 23:47 06.12.2019
6628 Clouds 8 1015 66 16093 8.28 255 23:47 06.12.2019
6629 Clouds 8 1014 64 16093 3.1 260 23:24 06.12.2019
6630 Clouds 8 1014 64 16093 2.6 250 22:58 06.12.2019
6631 Clouds 8 1015 49 16093 2.6 270 22:37 06.12.2019
6632 Clouds 8 1015 49 16093 2.6 270 22:19 06.12.2019
6633 Rain 8 1015 39 16093 3.1 250 21:56 06.12.2019
6634 Rain 8 1015 39 16093 3.1 250 21:56 06.12.2019
6635 Rain 8 1015 39 16093 3.6 240 21:38 06.12.2019
6636 Rain 8 1015 39 16093 3.6 240 21:19 06.12.2019
6637 Clouds 8 1015 39 16093 2.1 240 20:42 06.12.2019
6638 Clouds 8 1015 37 16093 2.6 250 20:22 06.12.2019
6639 Clouds 7 1015 42 16093 9.17 209 19:58 06.12.2019
6640 Clouds 7 1016 42 16093 3.6 250 19:39 06.12.2019
6641 Clouds 7 1016 42 16093 3.6 250 19:21 06.12.2019
6642 Clouds 7 1017 45 16093 3.6 260 18:55 06.12.2019
6643 Clouds 7 1017 48 16093 1.5 230 18:37 06.12.2019
6644 Clouds 6 1017 48 16093 1.5 230 18:19 06.12.2019
6645 Clouds 6 1018 48 16093 2.6 240 17:55 06.12.2019
6646 Clear 6 1018 48 16093 9.17 209 17:37 06.12.2019
6647 Clear 6 1018 48 16093 6.18 212 17:19 06.12.2019
6648 Clouds 5 1019 48 16093 3.1 210 16:42 06.12.2019
6649 Clouds 4 1020 52 16093 6.18 212 16:24 06.12.2019
6650 Clouds 4 1020 64 16093 3.6 230 15:57 06.12.2019
6651 Clouds 3 1021 59 16093 1.5 200 15:39 06.12.2019
6652 Clouds 3 1021 59 16093 1.5 200 15:18 06.12.2019
6653 Clouds 2 1020 74 16093 3.6 220 14:56 06.12.2019
6654 Clouds 2 1021 59 16093 6.18 212 14:37 06.12.2019
6655 Clouds 1 1021 59 16093 4.18 238 14:18 06.12.2019
6656 Clouds 0 1020 92 16093 1.5 180 13:42 06.12.2019
6657 Clear 0 1021 55 16093 4.36 241 13:24 06.12.2019
6658 Clear 0 1021 55 16093 4.36 241 12:42 06.12.2019
6659 Clear 0 1021 55 16093 4.36 241 12:22 06.12.2019
6660 Clear 0 1021 59 16093 4.36 241 11:58 06.12.2019
6661 Clear 0 1021 55 16093 4.36 241 11:39 06.12.2019
6662 Clear 0 1021 55 16093 5.27 288 11:20 06.12.2019
6663 Clear 0 1020 86 16093 5.27 288 10:43 06.12.2019
6664 Clear 0 1021 59 16093 5.27 288 10:21 06.12.2019
6665 Clear 0 1020 86 16093 5.27 288 09:58 06.12.2019
6666 Clear 0 1021 59 16093 5.27 288 09:37 06.12.2019
6667 Clear 0 1021 59 16093 5.27 288 09:37 06.12.2019
6668 Clear 0 1021 59 16093 5.27 288 09:19 06.12.2019
6669 Clear 0 1021 59 16093 5.27 288 08:45 06.12.2019
6670 Clear 1 1021 59 16093 8.33 302 08:27 06.12.2019
6671 Clouds 1 1020 65 16093 8.33 302 07:56 06.12.2019
6672 Clouds 1 1021 55 16093 2.1 320 07:36 06.12.2019
6673 Clouds 1 1021 55 16093 2.1 320 07:18 06.12.2019
6674 Rain 2 1020 59 0 8.33 302 06:30 06.12.2019
6675 Clear 2 1020 51 16093 5.7 320 05:54 06.12.2019
6676 Clear 2 1020 51 16093 7.2 320 05:34 06.12.2019
6677 Clouds 3 1017 55 16093 6.7 310 02:19 06.12.2019
6678 Clouds 3 1017 55 16093 6.7 310 02:19 06.12.2019
6679 Clouds 3 1016 55 16093 6.2 300 01:34 06.12.2019
6680 Rain 3 1015 59 16093 6.7 300 00:46 06.12.2019
6681 Rain 4 1015 55 16093 6.2 300 00:21 06.12.2019
6682 Clouds 4 1014 64 16093 6.7 300 23:49 05.12.2019
6683 Clouds 4 1014 55 16093 7.2 300 23:19 05.12.2019
6684 Clouds 4 1013 48 16093 5.1 300 22:58 05.12.2019
6685 Clouds 4 1013 48 16093 7.2 310 22:38 05.12.2019
6686 Clouds 4 1013 48 16093 7.2 310 22:18 05.12.2019
6687 Clouds 4 1013 48 16093 7.2 310 22:18 05.12.2019
6688 Clouds 4 1012 48 16093 9.3 310 21:55 05.12.2019
6689 Clouds 4 1012 52 16093 6.2 300 21:36 05.12.2019
6690 Clouds 4 1012 52 16093 6.2 300 21:18 05.12.2019
6691 Clouds 5 1010 45 16093 6.7 320 20:40 05.12.2019
6692 Clouds 5 1010 45 16093 6.7 320 20:21 05.12.2019
6693 Clouds 5 1009 41 16093 10.8 310 19:59 05.12.2019
6694 Clouds 5 1009 41 16093 6.2 330 19:40 05.12.2019
6695 Clouds 5 1009 41 16093 7.2 280 19:21 05.12.2019
6696 Clouds 5 1009 41 16093 7.7 310 18:58 05.12.2019
6697 Clouds 5 1009 41 16093 7.7 310 18:38 05.12.2019
6698 Clouds 5 1009 41 16093 7.7 310 18:38 05.12.2019
6699 Clouds 5 1009 41 16093 5.7 290 18:20 05.12.2019
6700 Clouds 5 1009 48 16093 7.7 300 17:40 05.12.2019
6701 Clouds 5 1009 44 16093 7.7 290 17:20 05.12.2019
6702 Clouds 5 1009 52 16093 11.8 280 16:58 05.12.2019
6703 Clouds 5 1009 60 16093 7.2 300 16:40 05.12.2019
6704 Clouds 5 1009 60 16093 7.2 300 16:21 05.12.2019
6705 Clouds 5 1008 56 16093 8.2 290 15:58 05.12.2019
6706 Clear 5 1008 65 16093 3.1 280 15:39 05.12.2019
6707 Clouds 4 1007 68 0 5.7 260 15:20 05.12.2019
6708 Clouds 4 1007 64 16093 4.1 270 14:56 05.12.2019
6709 Clouds 4 1007 64 16093 4.1 270 14:56 05.12.2019
6710 Clear 4 1007 74 16093 3.6 280 14:38 05.12.2019
6711 Clouds 3 1006 74 16093 4.1 260 14:19 05.12.2019
6712 Clouds 2 1006 74 16093 9.14 293 13:57 05.12.2019
6713 Clouds 2 1006 74 16093 8.98 296 13:39 05.12.2019